<?xml version="1.0" encoding="UTF-8" standalone="no" ?>
<gpx xmlns="http://www.topografix.com/GPX/1/1" xmlns:xsi="http://www.w3.org/2001/XMLSchema-instance" xsi:schemaLocation="http://www.topografix.com/GPX/1/1 http://www.topografix.com/GPX/1/1/gpx.xsd" version="1.1" creator="VisuGPX - https://www.visugpx.com">
  <metadata>
    <name>77F09/26 Boucle Fontainebleau Maintenon par Joelle IBP 52 par Joelle</name>
    <desc><![CDATA[[img]https://blogger.googleusercontent.com/img/b/R29vZ2xl/AVvXsEgtxJOGU48crAHxM9XYTfJGVDofllJPoKWzKNFy1wpVypHy4YmHDpPH9xwotriO_Hys3IbzmX5bRrEhK_soXYVgpCI1b1FTXKfj24mCXbUaW4NFqiP5foC7Yv_Er2OgPF222X9Ku5GiqWFoGHTkfXRj5NjHgajEKI-QnEJXNqXH2Pkuc1XIg3_MG2NiRhjG/w400-h266/Blanc%20avec%20Pastel%20Rayures%20Bordure%20Badge%20(4).jpg[/img] 


[img]https://blogger.googleusercontent.com/img/b/R29vZ2xl/AVvXsEhyvuHuSjCnJfzIoSGZR2uCGIVkETMBEY4tFocprqxvjqS91HNZcaXlRpQzvJTLXcG69GcyqERVukDYAYUlZ4i4PZMq9Nrf_b5owv9W_8xhBuQOUsL64U_sh9zV80VVq4ZDnpcr5oWwLTn4oQbyd4nNY26KvX4TT9epzNKumAL2kIdi3BiTugT3H0aE-aLv/s100/Sans%20titre%20(100%20x%20100%20px).jpg[/img]   [b]Rando Club Yerrois[/b]

[img]https://blogger.googleusercontent.com/img/b/R29vZ2xl/AVvXsEisi-VCznprvDLvJTlGk5ZHUUj5yKrsElOgMzt8ZYerzNaNt4s6I63SEOjiyhOhZ79ZCPxjkCWOeBZVT0IfKD9x5cefBKGtWs0HffsRVNBZ_GzPYFVErrhJ-zni0IwzT6lZB9LelozK_h3Vxf6ZGan-fO04zJXTJPzvOFFMGQuZ7ozZxAYlTT7U7G062SCB/s320/Animateur%20%282%29.jpg[/img] [b]Dimanche 8 février 2026 [/b]
[img]https://blogger.googleusercontent.com/img/b/R29vZ2xl/AVvXsEgLiyi8DByeS3i7Ou4F9krchrsaam-BzjGlHuK7eNSe_7AJuLd5jUWTQdCggn9odJ9fmjqMOcucBLci-qUgj1g1NM2wK2aLvYXOnm5phdzMlYBBt9xKSrCUORYm5b1pQyRO8GdcDjNbzq7w_zn3stIXah3Zbr1uuDsp1qCuGszvlALy0GSl-R6VNyb297QF/s320/Animateur%20%285%29.jpg[/img] Joelle
[img]https://blogger.googleusercontent.com/img/b/R29vZ2xl/AVvXsEgFqA__k0dEq3JY-oznl3CprwE9o8zv7MAf5L8hc080yDG3kiv1D5FW-w06fRognG7kP0fdaGHobn_7-vKxwfvoxhwcqfGchPXaAEWfgWBcDKe6xRMWTNRkL596gfBSxFIJO-7t1BSkByGALZv5QZsPR94pLR2Gixc-2pFqXQeknAzgonGgv-FUlZC1J3PM/s320/Animateur%20%284%29.jpg[/img] 18
[img]https://blogger.googleusercontent.com/img/b/R29vZ2xl/AVvXsEiXyNFSKONmIWva9q1OH5UrSlMDxrajCo4dLvQm5jbx-Wk-TheBAsAlZzBIggtXvQD4URVcl_BcGknoH3rsQ1es5f4PGTS0SH_1J2X9smZxjZVQ2JF4I1HHYQOKhcYGEgPUjnAJ55BKZqaTvPA7QJWC_lBmyjkZlIZOUuWkK-LFZ3bbYrc7ENwf-G9FSZjz/s320/Animateur%20%283%29.jpg[/img] ras
[img]https://blogger.googleusercontent.com/img/b/R29vZ2xl/AVvXsEgmMB2iO1IrKTPCURMAGlOXHHqZrJzcayxqNmlmZUYYT0B2bsq7h22qi5EijjD5RSxyPAO5FcoAt4ldWsl9XvECTiMhXUrQxxPmDOaF4H908DjVHWwIO1Os9VMPQW4TZxnYr7U9Gob0z8JNN3PzizQQ68olan5S5Eoel0d-U1qpBzvTxqScxKYbj30a-lyY/s300/Animateur%20%286%29.jpg[/img]  Parking du petit mont Chauvet Attention peu de places le week end



[b]Avertissement[/b] Toutes les randonnées répertoriées dans la randothèque du [b]R[/b]ando [b]C[/b]lub [b]Y[/b]errois ont été tracées par l'un de nos animateurs, puis reconnues et enfin effectuées avec un groupe. Pour votre sécurité, regardez toujours la date à laquelle la sortie a été effectuée - Nous tachons de mentionner des conditions météos particulières ou les difficultés éventuelles. N'oubliez jamais les consignes supplémentaires de sécurité]]></desc>
  </metadata>
  <trk>
    <name><![CDATA[SityTrail - Boucle Fontainebleau Joelle]]></name>
    <desc><![CDATA[Boucle sans difficulté au départ de Maintenon]]></desc>
    <trkseg>
      <trkpt lat="48.39268" lon="2.70338">
        <ele>90</ele>
        <time>2026-02-08T08:33:21.994+00:00</time>
      </trkpt>
      <trkpt lat="48.39268" lon="2.70339">
        <ele>90</ele>
        <time>2026-02-08T08:33:22.837+00:00</time>
      </trkpt>
      <trkpt lat="48.39268" lon="2.70347">
        <ele>90</ele>
        <time>2026-02-08T08:33:26.995+00:00</time>
      </trkpt>
      <trkpt lat="48.39267" lon="2.7035">
        <ele>90</ele>
        <time>2026-02-08T08:33:31.478+00:00</time>
      </trkpt>
      <trkpt lat="48.39266" lon="2.70352">
        <ele>90</ele>
        <time>2026-02-08T08:33:35.995+00:00</time>
      </trkpt>
      <trkpt lat="48.39264" lon="2.70355">
        <ele>90</ele>
        <time>2026-02-08T08:33:40.742+00:00</time>
      </trkpt>
      <trkpt lat="48.3926" lon="2.70362">
        <ele>90</ele>
        <time>2026-02-08T08:33:44.878+00:00</time>
      </trkpt>
      <trkpt lat="48.39258" lon="2.70371">
        <ele>90</ele>
        <time>2026-02-08T08:33:48.922+00:00</time>
      </trkpt>
      <trkpt lat="48.39256" lon="2.70378">
        <ele>92</ele>
        <time>2026-02-08T08:33:53.298+00:00</time>
      </trkpt>
      <trkpt lat="48.39259" lon="2.70379">
        <ele>92</ele>
        <time>2026-02-08T08:36:01.095+00:00</time>
      </trkpt>
      <trkpt lat="48.39259" lon="2.70378">
        <ele>92</ele>
        <time>2026-02-08T08:36:06.995+00:00</time>
      </trkpt>
      <trkpt lat="48.39259" lon="2.70378">
        <ele>92</ele>
        <time>2026-02-08T08:36:11.058+00:00</time>
      </trkpt>
      <trkpt lat="48.3926" lon="2.70371">
        <ele>90</ele>
        <time>2026-02-08T08:36:15.774+00:00</time>
      </trkpt>
      <trkpt lat="48.3926" lon="2.70363">
        <ele>90</ele>
        <time>2026-02-08T08:36:19.995+00:00</time>
      </trkpt>
      <trkpt lat="48.39254" lon="2.70357">
        <ele>90</ele>
        <time>2026-02-08T08:42:09.994+00:00</time>
      </trkpt>
      <trkpt lat="48.39254" lon="2.70357">
        <ele>90</ele>
        <time>2026-02-08T08:42:18.995+00:00</time>
      </trkpt>
      <trkpt lat="48.39254" lon="2.70357">
        <ele>90</ele>
        <time>2026-02-08T08:42:34.994+00:00</time>
      </trkpt>
      <trkpt lat="48.39251" lon="2.70358">
        <ele>90</ele>
        <time>2026-02-08T08:42:38.994+00:00</time>
      </trkpt>
      <trkpt lat="48.39245" lon="2.70358">
        <ele>90</ele>
        <time>2026-02-08T08:42:43.995+00:00</time>
      </trkpt>
      <trkpt lat="48.39239" lon="2.70359">
        <ele>90</ele>
        <time>2026-02-08T08:42:48.994+00:00</time>
      </trkpt>
      <trkpt lat="48.39235" lon="2.7036">
        <ele>91</ele>
        <time>2026-02-08T08:42:53.995+00:00</time>
      </trkpt>
      <trkpt lat="48.39231" lon="2.70361">
        <ele>91</ele>
        <time>2026-02-08T08:42:58.355+00:00</time>
      </trkpt>
      <trkpt lat="48.39227" lon="2.70365">
        <ele>91</ele>
        <time>2026-02-08T08:43:02.816+00:00</time>
      </trkpt>
      <trkpt lat="48.39224" lon="2.70367">
        <ele>91</ele>
        <time>2026-02-08T08:43:06.995+00:00</time>
      </trkpt>
      <trkpt lat="48.3922" lon="2.70369">
        <ele>91</ele>
        <time>2026-02-08T08:43:11.218+00:00</time>
      </trkpt>
      <trkpt lat="48.39216" lon="2.70369">
        <ele>91</ele>
        <time>2026-02-08T08:43:15.713+00:00</time>
      </trkpt>
      <trkpt lat="48.39212" lon="2.70371">
        <ele>91</ele>
        <time>2026-02-08T08:43:19.995+00:00</time>
      </trkpt>
      <trkpt lat="48.39207" lon="2.70373">
        <ele>93</ele>
        <time>2026-02-08T08:43:24.319+00:00</time>
      </trkpt>
      <trkpt lat="48.39203" lon="2.70375">
        <ele>95</ele>
        <time>2026-02-08T08:43:28.721+00:00</time>
      </trkpt>
      <trkpt lat="48.39196" lon="2.70378">
        <ele>95</ele>
        <time>2026-02-08T08:43:33.995+00:00</time>
      </trkpt>
      <trkpt lat="48.39189" lon="2.70378">
        <ele>95</ele>
        <time>2026-02-08T08:43:38.538+00:00</time>
      </trkpt>
      <trkpt lat="48.39185" lon="2.70381">
        <ele>95</ele>
        <time>2026-02-08T08:43:42.914+00:00</time>
      </trkpt>
      <trkpt lat="48.3918" lon="2.70382">
        <ele>94</ele>
        <time>2026-02-08T08:43:46.994+00:00</time>
      </trkpt>
      <trkpt lat="48.39174" lon="2.70384">
        <ele>94</ele>
        <time>2026-02-08T08:43:51.494+00:00</time>
      </trkpt>
      <trkpt lat="48.3917" lon="2.70385">
        <ele>94</ele>
        <time>2026-02-08T08:43:55.554+00:00</time>
      </trkpt>
      <trkpt lat="48.39165" lon="2.70388">
        <ele>94</ele>
        <time>2026-02-08T08:43:59.939+00:00</time>
      </trkpt>
      <trkpt lat="48.3916" lon="2.70389">
        <ele>94</ele>
        <time>2026-02-08T08:44:04.340+00:00</time>
      </trkpt>
      <trkpt lat="48.39155" lon="2.70391">
        <ele>94</ele>
        <time>2026-02-08T08:44:08.674+00:00</time>
      </trkpt>
      <trkpt lat="48.39149" lon="2.70393">
        <ele>94</ele>
        <time>2026-02-08T08:44:12.994+00:00</time>
      </trkpt>
      <trkpt lat="48.39143" lon="2.70395">
        <ele>94</ele>
        <time>2026-02-08T08:44:17.500+00:00</time>
      </trkpt>
      <trkpt lat="48.39138" lon="2.70396">
        <ele>94</ele>
        <time>2026-02-08T08:44:21.534+00:00</time>
      </trkpt>
      <trkpt lat="48.39133" lon="2.70396">
        <ele>94</ele>
        <time>2026-02-08T08:44:25.637+00:00</time>
      </trkpt>
      <trkpt lat="48.39128" lon="2.70397">
        <ele>94</ele>
        <time>2026-02-08T08:44:29.876+00:00</time>
      </trkpt>
      <trkpt lat="48.39123" lon="2.70399">
        <ele>96</ele>
        <time>2026-02-08T08:44:34.278+00:00</time>
      </trkpt>
      <trkpt lat="48.39118" lon="2.70401">
        <ele>96</ele>
        <time>2026-02-08T08:44:38.618+00:00</time>
      </trkpt>
      <trkpt lat="48.39113" lon="2.70404">
        <ele>97</ele>
        <time>2026-02-08T08:44:42.994+00:00</time>
      </trkpt>
      <trkpt lat="48.39107" lon="2.70405">
        <ele>97</ele>
        <time>2026-02-08T08:44:47.557+00:00</time>
      </trkpt>
      <trkpt lat="48.39101" lon="2.70406">
        <ele>97</ele>
        <time>2026-02-08T08:44:51.959+00:00</time>
      </trkpt>
      <trkpt lat="48.39096" lon="2.70407">
        <ele>98</ele>
        <time>2026-02-08T08:44:56.361+00:00</time>
      </trkpt>
      <trkpt lat="48.39091" lon="2.70409">
        <ele>98</ele>
        <time>2026-02-08T08:45:00.736+00:00</time>
      </trkpt>
      <trkpt lat="48.39085" lon="2.70411">
        <ele>98</ele>
        <time>2026-02-08T08:45:05.196+00:00</time>
      </trkpt>
      <trkpt lat="48.3908" lon="2.70413">
        <ele>98</ele>
        <time>2026-02-08T08:45:09.214+00:00</time>
      </trkpt>
      <trkpt lat="48.39074" lon="2.70415">
        <ele>98</ele>
        <time>2026-02-08T08:45:13.693+00:00</time>
      </trkpt>
      <trkpt lat="48.39069" lon="2.70416">
        <ele>97</ele>
        <time>2026-02-08T08:45:17.957+00:00</time>
      </trkpt>
      <trkpt lat="48.39063" lon="2.70418">
        <ele>97</ele>
        <time>2026-02-08T08:45:22.596+00:00</time>
      </trkpt>
      <trkpt lat="48.39057" lon="2.70419">
        <ele>97</ele>
        <time>2026-02-08T08:45:26.997+00:00</time>
      </trkpt>
      <trkpt lat="48.39052" lon="2.70421">
        <ele>97</ele>
        <time>2026-02-08T08:45:31.403+00:00</time>
      </trkpt>
      <trkpt lat="48.39046" lon="2.70423">
        <ele>97</ele>
        <time>2026-02-08T08:45:35.953+00:00</time>
      </trkpt>
      <trkpt lat="48.3904" lon="2.70425">
        <ele>95</ele>
        <time>2026-02-08T08:45:40.415+00:00</time>
      </trkpt>
      <trkpt lat="48.39034" lon="2.70427">
        <ele>95</ele>
        <time>2026-02-08T08:45:44.636+00:00</time>
      </trkpt>
      <trkpt lat="48.39028" lon="2.70429">
        <ele>95</ele>
        <time>2026-02-08T08:45:48.995+00:00</time>
      </trkpt>
      <trkpt lat="48.39023" lon="2.70431">
        <ele>95</ele>
        <time>2026-02-08T08:45:53.576+00:00</time>
      </trkpt>
      <trkpt lat="48.39017" lon="2.70432">
        <ele>96</ele>
        <time>2026-02-08T08:45:57.995+00:00</time>
      </trkpt>
      <trkpt lat="48.39012" lon="2.70433">
        <ele>97</ele>
        <time>2026-02-08T08:46:02.422+00:00</time>
      </trkpt>
      <trkpt lat="48.39006" lon="2.70435">
        <ele>97</ele>
        <time>2026-02-08T08:46:06.753+00:00</time>
      </trkpt>
      <trkpt lat="48.39001" lon="2.70436">
        <ele>97</ele>
        <time>2026-02-08T08:46:11.197+00:00</time>
      </trkpt>
      <trkpt lat="48.38995" lon="2.70439">
        <ele>97</ele>
        <time>2026-02-08T08:46:15.994+00:00</time>
      </trkpt>
      <trkpt lat="48.3899" lon="2.70441">
        <ele>97</ele>
        <time>2026-02-08T08:46:20.340+00:00</time>
      </trkpt>
      <trkpt lat="48.38984" lon="2.70442">
        <ele>97</ele>
        <time>2026-02-08T08:46:24.837+00:00</time>
      </trkpt>
      <trkpt lat="48.38978" lon="2.70444">
        <ele>97</ele>
        <time>2026-02-08T08:46:29.339+00:00</time>
      </trkpt>
      <trkpt lat="48.38973" lon="2.70446">
        <ele>97</ele>
        <time>2026-02-08T08:46:33.697+00:00</time>
      </trkpt>
      <trkpt lat="48.38967" lon="2.70447">
        <ele>97</ele>
        <time>2026-02-08T08:46:38.277+00:00</time>
      </trkpt>
      <trkpt lat="48.38961" lon="2.70449">
        <ele>97</ele>
        <time>2026-02-08T08:46:42.834+00:00</time>
      </trkpt>
      <trkpt lat="48.38956" lon="2.7045">
        <ele>98</ele>
        <time>2026-02-08T08:46:46.994+00:00</time>
      </trkpt>
      <trkpt lat="48.38951" lon="2.70452">
        <ele>98</ele>
        <time>2026-02-08T08:46:51.677+00:00</time>
      </trkpt>
      <trkpt lat="48.38945" lon="2.70454">
        <ele>98</ele>
        <time>2026-02-08T08:46:55.813+00:00</time>
      </trkpt>
      <trkpt lat="48.3894" lon="2.70455">
        <ele>98</ele>
        <time>2026-02-08T08:46:59.995+00:00</time>
      </trkpt>
      <trkpt lat="48.38936" lon="2.70454">
        <ele>98</ele>
        <time>2026-02-08T08:47:04.198+00:00</time>
      </trkpt>
      <trkpt lat="48.38931" lon="2.70456">
        <ele>98</ele>
        <time>2026-02-08T08:47:08.376+00:00</time>
      </trkpt>
      <trkpt lat="48.38927" lon="2.70458">
        <ele>100</ele>
        <time>2026-02-08T08:47:12.692+00:00</time>
      </trkpt>
      <trkpt lat="48.38923" lon="2.7046">
        <ele>99</ele>
        <time>2026-02-08T08:47:16.838+00:00</time>
      </trkpt>
      <trkpt lat="48.38918" lon="2.70462">
        <ele>99</ele>
        <time>2026-02-08T08:47:20.874+00:00</time>
      </trkpt>
      <trkpt lat="48.38913" lon="2.70462">
        <ele>99</ele>
        <time>2026-02-08T08:47:25.598+00:00</time>
      </trkpt>
      <trkpt lat="48.38908" lon="2.70463">
        <ele>99</ele>
        <time>2026-02-08T08:47:29.995+00:00</time>
      </trkpt>
      <trkpt lat="48.38903" lon="2.70465">
        <ele>99</ele>
        <time>2026-02-08T08:47:34.579+00:00</time>
      </trkpt>
      <trkpt lat="48.38898" lon="2.70466">
        <ele>101</ele>
        <time>2026-02-08T08:47:38.716+00:00</time>
      </trkpt>
      <trkpt lat="48.38894" lon="2.70468">
        <ele>101</ele>
        <time>2026-02-08T08:47:43.254+00:00</time>
      </trkpt>
      <trkpt lat="48.38889" lon="2.70471">
        <ele>101</ele>
        <time>2026-02-08T08:47:47.742+00:00</time>
      </trkpt>
      <trkpt lat="48.38884" lon="2.7047">
        <ele>101</ele>
        <time>2026-02-08T08:47:52.416+00:00</time>
      </trkpt>
      <trkpt lat="48.3888" lon="2.70472">
        <ele>101</ele>
        <time>2026-02-08T08:47:56.994+00:00</time>
      </trkpt>
      <trkpt lat="48.38875" lon="2.70474">
        <ele>107</ele>
        <time>2026-02-08T08:48:01.616+00:00</time>
      </trkpt>
      <trkpt lat="48.3887" lon="2.70476">
        <ele>107</ele>
        <time>2026-02-08T08:48:05.874+00:00</time>
      </trkpt>
      <trkpt lat="48.38866" lon="2.70476">
        <ele>107</ele>
        <time>2026-02-08T08:48:09.995+00:00</time>
      </trkpt>
      <trkpt lat="48.38861" lon="2.70477">
        <ele>107</ele>
        <time>2026-02-08T08:48:14.513+00:00</time>
      </trkpt>
      <trkpt lat="48.38857" lon="2.70479">
        <ele>107</ele>
        <time>2026-02-08T08:48:18.820+00:00</time>
      </trkpt>
      <trkpt lat="48.38853" lon="2.7048">
        <ele>107</ele>
        <time>2026-02-08T08:48:23.519+00:00</time>
      </trkpt>
      <trkpt lat="48.38849" lon="2.70482">
        <ele>107</ele>
        <time>2026-02-08T08:48:27.733+00:00</time>
      </trkpt>
      <trkpt lat="48.38844" lon="2.70483">
        <ele>113</ele>
        <time>2026-02-08T08:48:32.739+00:00</time>
      </trkpt>
      <trkpt lat="48.3884" lon="2.70485">
        <ele>113</ele>
        <time>2026-02-08T08:48:37.353+00:00</time>
      </trkpt>
      <trkpt lat="48.38835" lon="2.70486">
        <ele>112</ele>
        <time>2026-02-08T08:48:41.839+00:00</time>
      </trkpt>
      <trkpt lat="48.38831" lon="2.70488">
        <ele>112</ele>
        <time>2026-02-08T08:48:45.995+00:00</time>
      </trkpt>
      <trkpt lat="48.38826" lon="2.70488">
        <ele>112</ele>
        <time>2026-02-08T08:48:50.940+00:00</time>
      </trkpt>
      <trkpt lat="48.38822" lon="2.7049">
        <ele>112</ele>
        <time>2026-02-08T08:48:55.386+00:00</time>
      </trkpt>
      <trkpt lat="48.38817" lon="2.70491">
        <ele>118</ele>
        <time>2026-02-08T08:48:59.700+00:00</time>
      </trkpt>
      <trkpt lat="48.38813" lon="2.70493">
        <ele>118</ele>
        <time>2026-02-08T08:49:03.994+00:00</time>
      </trkpt>
      <trkpt lat="48.38809" lon="2.70494">
        <ele>118</ele>
        <time>2026-02-08T08:49:07.994+00:00</time>
      </trkpt>
      <trkpt lat="48.38804" lon="2.70496">
        <ele>118</ele>
        <time>2026-02-08T08:49:12.613+00:00</time>
      </trkpt>
      <trkpt lat="48.388" lon="2.70497">
        <ele>118</ele>
        <time>2026-02-08T08:49:16.817+00:00</time>
      </trkpt>
      <trkpt lat="48.38796" lon="2.70498">
        <ele>118</ele>
        <time>2026-02-08T08:49:20.995+00:00</time>
      </trkpt>
      <trkpt lat="48.38791" lon="2.70499">
        <ele>125</ele>
        <time>2026-02-08T08:49:25.679+00:00</time>
      </trkpt>
      <trkpt lat="48.38786" lon="2.705">
        <ele>125</ele>
        <time>2026-02-08T08:49:29.994+00:00</time>
      </trkpt>
      <trkpt lat="48.38782" lon="2.70501">
        <ele>125</ele>
        <time>2026-02-08T08:49:34.498+00:00</time>
      </trkpt>
      <trkpt lat="48.38777" lon="2.70503">
        <ele>125</ele>
        <time>2026-02-08T08:49:38.994+00:00</time>
      </trkpt>
      <trkpt lat="48.38772" lon="2.70504">
        <ele>125</ele>
        <time>2026-02-08T08:49:43.634+00:00</time>
      </trkpt>
      <trkpt lat="48.38768" lon="2.70505">
        <ele>125</ele>
        <time>2026-02-08T08:49:47.667+00:00</time>
      </trkpt>
      <trkpt lat="48.38763" lon="2.70508">
        <ele>130</ele>
        <time>2026-02-08T08:49:52.537+00:00</time>
      </trkpt>
      <trkpt lat="48.38759" lon="2.70509">
        <ele>130</ele>
        <time>2026-02-08T08:49:57.018+00:00</time>
      </trkpt>
      <trkpt lat="48.38755" lon="2.70511">
        <ele>130</ele>
        <time>2026-02-08T08:50:01.237+00:00</time>
      </trkpt>
      <trkpt lat="48.38751" lon="2.70513">
        <ele>130</ele>
        <time>2026-02-08T08:50:05.800+00:00</time>
      </trkpt>
      <trkpt lat="48.38742" lon="2.70518">
        <ele>129</ele>
        <time>2026-02-08T08:51:36.994+00:00</time>
      </trkpt>
      <trkpt lat="48.38742" lon="2.70518">
        <ele>129</ele>
        <time>2026-02-08T08:51:45.995+00:00</time>
      </trkpt>
      <trkpt lat="48.38742" lon="2.70518">
        <ele>129</ele>
        <time>2026-02-08T08:51:49.995+00:00</time>
      </trkpt>
      <trkpt lat="48.38742" lon="2.70518">
        <ele>129</ele>
        <time>2026-02-08T08:51:54.994+00:00</time>
      </trkpt>
      <trkpt lat="48.38738" lon="2.7052">
        <ele>129</ele>
        <time>2026-02-08T08:51:59.995+00:00</time>
      </trkpt>
      <trkpt lat="48.38732" lon="2.70522">
        <ele>131</ele>
        <time>2026-02-08T08:52:03.994+00:00</time>
      </trkpt>
      <trkpt lat="48.38726" lon="2.70522">
        <ele>131</ele>
        <time>2026-02-08T08:52:08.995+00:00</time>
      </trkpt>
      <trkpt lat="48.38721" lon="2.70522">
        <ele>131</ele>
        <time>2026-02-08T08:52:13.995+00:00</time>
      </trkpt>
      <trkpt lat="48.38717" lon="2.70524">
        <ele>131</ele>
        <time>2026-02-08T08:52:17.995+00:00</time>
      </trkpt>
      <trkpt lat="48.38713" lon="2.70528">
        <ele>131</ele>
        <time>2026-02-08T08:54:16.995+00:00</time>
      </trkpt>
      <trkpt lat="48.38711" lon="2.70526">
        <ele>131</ele>
        <time>2026-02-08T08:54:20.995+00:00</time>
      </trkpt>
      <trkpt lat="48.38707" lon="2.70526">
        <ele>131</ele>
        <time>2026-02-08T08:54:25.995+00:00</time>
      </trkpt>
      <trkpt lat="48.38702" lon="2.70526">
        <ele>131</ele>
        <time>2026-02-08T08:54:29.994+00:00</time>
      </trkpt>
      <trkpt lat="48.38698" lon="2.70521">
        <ele>131</ele>
        <time>2026-02-08T08:54:34.202+00:00</time>
      </trkpt>
      <trkpt lat="48.38697" lon="2.7052">
        <ele>131</ele>
        <time>2026-02-08T08:54:34.994+00:00</time>
      </trkpt>
      <trkpt lat="48.387" lon="2.70524">
        <ele>131</ele>
        <time>2026-02-08T08:54:43.994+00:00</time>
      </trkpt>
      <trkpt lat="48.38698" lon="2.70532">
        <ele>131</ele>
        <time>2026-02-08T08:54:48.729+00:00</time>
      </trkpt>
      <trkpt lat="48.38692" lon="2.70535">
        <ele>131</ele>
        <time>2026-02-08T08:54:52.874+00:00</time>
      </trkpt>
      <trkpt lat="48.38686" lon="2.70534">
        <ele>131</ele>
        <time>2026-02-08T08:54:56.995+00:00</time>
      </trkpt>
      <trkpt lat="48.38681" lon="2.70537">
        <ele>131</ele>
        <time>2026-02-08T08:55:01.719+00:00</time>
      </trkpt>
      <trkpt lat="48.38676" lon="2.70538">
        <ele>130</ele>
        <time>2026-02-08T08:55:05.736+00:00</time>
      </trkpt>
      <trkpt lat="48.38671" lon="2.70539">
        <ele>130</ele>
        <time>2026-02-08T08:55:09.994+00:00</time>
      </trkpt>
      <trkpt lat="48.38666" lon="2.7054">
        <ele>130</ele>
        <time>2026-02-08T08:55:14.095+00:00</time>
      </trkpt>
      <trkpt lat="48.3866" lon="2.70541">
        <ele>130</ele>
        <time>2026-02-08T08:55:18.216+00:00</time>
      </trkpt>
      <trkpt lat="48.38656" lon="2.70541">
        <ele>130</ele>
        <time>2026-02-08T08:55:22.396+00:00</time>
      </trkpt>
      <trkpt lat="48.38651" lon="2.70542">
        <ele>126</ele>
        <time>2026-02-08T08:55:26.575+00:00</time>
      </trkpt>
      <trkpt lat="48.38647" lon="2.70545">
        <ele>126</ele>
        <time>2026-02-08T08:55:30.713+00:00</time>
      </trkpt>
      <trkpt lat="48.38642" lon="2.70545">
        <ele>126</ele>
        <time>2026-02-08T08:55:34.773+00:00</time>
      </trkpt>
      <trkpt lat="48.38639" lon="2.70546">
        <ele>126</ele>
        <time>2026-02-08T08:55:38.875+00:00</time>
      </trkpt>
      <trkpt lat="48.38635" lon="2.70548">
        <ele>126</ele>
        <time>2026-02-08T08:55:42.919+00:00</time>
      </trkpt>
      <trkpt lat="48.38631" lon="2.70549">
        <ele>126</ele>
        <time>2026-02-08T08:55:46.994+00:00</time>
      </trkpt>
      <trkpt lat="48.38626" lon="2.7055">
        <ele>126</ele>
        <time>2026-02-08T08:55:51.200+00:00</time>
      </trkpt>
      <trkpt lat="48.38621" lon="2.70551">
        <ele>120</ele>
        <time>2026-02-08T08:55:55.824+00:00</time>
      </trkpt>
      <trkpt lat="48.38617" lon="2.70551">
        <ele>120</ele>
        <time>2026-02-08T08:56:00.362+00:00</time>
      </trkpt>
      <trkpt lat="48.38613" lon="2.70551">
        <ele>120</ele>
        <time>2026-02-08T08:56:04.909+00:00</time>
      </trkpt>
      <trkpt lat="48.38609" lon="2.70552">
        <ele>120</ele>
        <time>2026-02-08T08:56:09.211+00:00</time>
      </trkpt>
      <trkpt lat="48.38605" lon="2.70551">
        <ele>120</ele>
        <time>2026-02-08T08:56:13.728+00:00</time>
      </trkpt>
      <trkpt lat="48.38601" lon="2.70551">
        <ele>120</ele>
        <time>2026-02-08T08:56:17.823+00:00</time>
      </trkpt>
      <trkpt lat="48.38598" lon="2.70551">
        <ele>120</ele>
        <time>2026-02-08T08:56:21.995+00:00</time>
      </trkpt>
      <trkpt lat="48.38593" lon="2.70551">
        <ele>115</ele>
        <time>2026-02-08T08:56:26.524+00:00</time>
      </trkpt>
      <trkpt lat="48.38589" lon="2.70551">
        <ele>115</ele>
        <time>2026-02-08T08:56:30.583+00:00</time>
      </trkpt>
      <trkpt lat="48.38586" lon="2.70554">
        <ele>115</ele>
        <time>2026-02-08T08:56:34.806+00:00</time>
      </trkpt>
      <trkpt lat="48.38582" lon="2.70555">
        <ele>115</ele>
        <time>2026-02-08T08:56:38.909+00:00</time>
      </trkpt>
      <trkpt lat="48.38578" lon="2.70558">
        <ele>115</ele>
        <time>2026-02-08T08:56:43.386+00:00</time>
      </trkpt>
      <trkpt lat="48.38575" lon="2.70564">
        <ele>115</ele>
        <time>2026-02-08T08:56:47.865+00:00</time>
      </trkpt>
      <trkpt lat="48.38571" lon="2.7057">
        <ele>117</ele>
        <time>2026-02-08T08:56:51.995+00:00</time>
      </trkpt>
      <trkpt lat="48.38568" lon="2.70574">
        <ele>113</ele>
        <time>2026-02-08T08:56:56.208+00:00</time>
      </trkpt>
      <trkpt lat="48.38563" lon="2.70577">
        <ele>113</ele>
        <time>2026-02-08T08:57:00.625+00:00</time>
      </trkpt>
      <trkpt lat="48.38561" lon="2.70582">
        <ele>113</ele>
        <time>2026-02-08T08:57:04.688+00:00</time>
      </trkpt>
      <trkpt lat="48.38555" lon="2.70582">
        <ele>113</ele>
        <time>2026-02-08T08:57:08.995+00:00</time>
      </trkpt>
      <trkpt lat="48.38551" lon="2.70583">
        <ele>113</ele>
        <time>2026-02-08T08:57:13.505+00:00</time>
      </trkpt>
      <trkpt lat="48.38548" lon="2.70586">
        <ele>113</ele>
        <time>2026-02-08T08:57:17.994+00:00</time>
      </trkpt>
      <trkpt lat="48.38544" lon="2.70591">
        <ele>113</ele>
        <time>2026-02-08T08:57:22.487+00:00</time>
      </trkpt>
      <trkpt lat="48.3854" lon="2.70594">
        <ele>110</ele>
        <time>2026-02-08T08:57:26.995+00:00</time>
      </trkpt>
      <trkpt lat="48.38536" lon="2.70597">
        <ele>112</ele>
        <time>2026-02-08T08:57:31.323+00:00</time>
      </trkpt>
      <trkpt lat="48.38532" lon="2.70601">
        <ele>112</ele>
        <time>2026-02-08T08:57:35.383+00:00</time>
      </trkpt>
      <trkpt lat="48.38528" lon="2.70604">
        <ele>112</ele>
        <time>2026-02-08T08:57:39.563+00:00</time>
      </trkpt>
      <trkpt lat="48.38523" lon="2.70607">
        <ele>112</ele>
        <time>2026-02-08T08:57:43.995+00:00</time>
      </trkpt>
      <trkpt lat="48.38518" lon="2.70611">
        <ele>112</ele>
        <time>2026-02-08T08:57:48.467+00:00</time>
      </trkpt>
      <trkpt lat="48.38514" lon="2.70616">
        <ele>113</ele>
        <time>2026-02-08T08:57:52.928+00:00</time>
      </trkpt>
      <trkpt lat="48.3851" lon="2.70623">
        <ele>113</ele>
        <time>2026-02-08T08:57:57.244+00:00</time>
      </trkpt>
      <trkpt lat="48.38507" lon="2.7063">
        <ele>115</ele>
        <time>2026-02-08T08:58:01.826+00:00</time>
      </trkpt>
      <trkpt lat="48.38505" lon="2.70637">
        <ele>115</ele>
        <time>2026-02-08T08:58:06.508+00:00</time>
      </trkpt>
      <trkpt lat="48.38503" lon="2.70642">
        <ele>115</ele>
        <time>2026-02-08T08:58:10.603+00:00</time>
      </trkpt>
      <trkpt lat="48.385" lon="2.70645">
        <ele>115</ele>
        <time>2026-02-08T08:58:14.824+00:00</time>
      </trkpt>
      <trkpt lat="48.38497" lon="2.70649">
        <ele>115</ele>
        <time>2026-02-08T08:58:18.995+00:00</time>
      </trkpt>
      <trkpt lat="48.38494" lon="2.70654">
        <ele>116</ele>
        <time>2026-02-08T08:58:23.883+00:00</time>
      </trkpt>
      <trkpt lat="48.3849" lon="2.70659">
        <ele>116</ele>
        <time>2026-02-08T08:58:28.207+00:00</time>
      </trkpt>
      <trkpt lat="48.38485" lon="2.70664">
        <ele>120</ele>
        <time>2026-02-08T08:58:32.488+00:00</time>
      </trkpt>
      <trkpt lat="48.38481" lon="2.70666">
        <ele>120</ele>
        <time>2026-02-08T08:58:36.548+00:00</time>
      </trkpt>
      <trkpt lat="48.38476" lon="2.70668">
        <ele>120</ele>
        <time>2026-02-08T08:58:40.994+00:00</time>
      </trkpt>
      <trkpt lat="48.3847" lon="2.70671">
        <ele>120</ele>
        <time>2026-02-08T08:58:45.505+00:00</time>
      </trkpt>
      <trkpt lat="48.38465" lon="2.70676">
        <ele>120</ele>
        <time>2026-02-08T08:58:49.994+00:00</time>
      </trkpt>
      <trkpt lat="48.3846" lon="2.7068">
        <ele>120</ele>
        <time>2026-02-08T08:58:53.995+00:00</time>
      </trkpt>
      <trkpt lat="48.38455" lon="2.70682">
        <ele>123</ele>
        <time>2026-02-08T08:58:58.248+00:00</time>
      </trkpt>
      <trkpt lat="48.38451" lon="2.70686">
        <ele>123</ele>
        <time>2026-02-08T08:59:02.667+00:00</time>
      </trkpt>
      <trkpt lat="48.38448" lon="2.70689">
        <ele>123</ele>
        <time>2026-02-08T08:59:07.485+00:00</time>
      </trkpt>
      <trkpt lat="48.38445" lon="2.70692">
        <ele>123</ele>
        <time>2026-02-08T08:59:11.994+00:00</time>
      </trkpt>
      <trkpt lat="48.38442" lon="2.70701">
        <ele>123</ele>
        <time>2026-02-08T08:59:20.994+00:00</time>
      </trkpt>
      <trkpt lat="48.38442" lon="2.70702">
        <ele>123</ele>
        <time>2026-02-08T08:59:25.994+00:00</time>
      </trkpt>
      <trkpt lat="48.38441" lon="2.70706">
        <ele>123</ele>
        <time>2026-02-08T08:59:30.851+00:00</time>
      </trkpt>
      <trkpt lat="48.38436" lon="2.70705">
        <ele>123</ele>
        <time>2026-02-08T08:59:34.994+00:00</time>
      </trkpt>
      <trkpt lat="48.38434" lon="2.70708">
        <ele>123</ele>
        <time>2026-02-08T08:59:40.009+00:00</time>
      </trkpt>
      <trkpt lat="48.38435" lon="2.70717">
        <ele>119</ele>
        <time>2026-02-08T08:59:49.724+00:00</time>
      </trkpt>
      <trkpt lat="48.38431" lon="2.7072">
        <ele>119</ele>
        <time>2026-02-08T08:59:53.994+00:00</time>
      </trkpt>
      <trkpt lat="48.3843" lon="2.7072">
        <ele>126</ele>
        <time>2026-02-08T08:59:58.458+00:00</time>
      </trkpt>
      <trkpt lat="48.38429" lon="2.70721">
        <ele>126</ele>
        <time>2026-02-08T08:59:58.994+00:00</time>
      </trkpt>
      <trkpt lat="48.38425" lon="2.70728">
        <ele>126</ele>
        <time>2026-02-08T09:00:07.994+00:00</time>
      </trkpt>
      <trkpt lat="48.3842" lon="2.70728">
        <ele>126</ele>
        <time>2026-02-08T09:00:12.549+00:00</time>
      </trkpt>
      <trkpt lat="48.38417" lon="2.70729">
        <ele>126</ele>
        <time>2026-02-08T09:00:16.994+00:00</time>
      </trkpt>
      <trkpt lat="48.38415" lon="2.70732">
        <ele>126</ele>
        <time>2026-02-08T09:00:21.403+00:00</time>
      </trkpt>
      <trkpt lat="48.38411" lon="2.70733">
        <ele>126</ele>
        <time>2026-02-08T09:00:25.787+00:00</time>
      </trkpt>
      <trkpt lat="48.38409" lon="2.70733">
        <ele>126</ele>
        <time>2026-02-08T09:00:29.830+00:00</time>
      </trkpt>
      <trkpt lat="48.38407" lon="2.70736">
        <ele>126</ele>
        <time>2026-02-08T09:00:33.891+00:00</time>
      </trkpt>
      <trkpt lat="48.38405" lon="2.7074">
        <ele>122</ele>
        <time>2026-02-08T09:00:38.726+00:00</time>
      </trkpt>
      <trkpt lat="48.38402" lon="2.70741">
        <ele>129</ele>
        <time>2026-02-08T09:00:43.409+00:00</time>
      </trkpt>
      <trkpt lat="48.38399" lon="2.70745">
        <ele>129</ele>
        <time>2026-02-08T09:00:47.994+00:00</time>
      </trkpt>
      <trkpt lat="48.38395" lon="2.70746">
        <ele>129</ele>
        <time>2026-02-08T09:00:52.705+00:00</time>
      </trkpt>
      <trkpt lat="48.38393" lon="2.70741">
        <ele>129</ele>
        <time>2026-02-08T09:00:57.627+00:00</time>
      </trkpt>
      <trkpt lat="48.38392" lon="2.7074">
        <ele>129</ele>
        <time>2026-02-08T09:00:59.008+00:00</time>
      </trkpt>
      <trkpt lat="48.3839" lon="2.70737">
        <ele>129</ele>
        <time>2026-02-08T09:01:08.868+00:00</time>
      </trkpt>
      <trkpt lat="48.38387" lon="2.70735">
        <ele>130</ele>
        <time>2026-02-08T09:01:13.528+00:00</time>
      </trkpt>
      <trkpt lat="48.38383" lon="2.70737">
        <ele>129</ele>
        <time>2026-02-08T09:02:47.184+00:00</time>
      </trkpt>
      <trkpt lat="48.38387" lon="2.70731">
        <ele>130</ele>
        <time>2026-02-08T09:02:51.750+00:00</time>
      </trkpt>
      <trkpt lat="48.38391" lon="2.70725">
        <ele>130</ele>
        <time>2026-02-08T09:02:55.996+00:00</time>
      </trkpt>
      <trkpt lat="48.38394" lon="2.70717">
        <ele>130</ele>
        <time>2026-02-08T09:03:00.549+00:00</time>
      </trkpt>
      <trkpt lat="48.38396" lon="2.70709">
        <ele>130</ele>
        <time>2026-02-08T09:03:04.964+00:00</time>
      </trkpt>
      <trkpt lat="48.38397" lon="2.70701">
        <ele>131</ele>
        <time>2026-02-08T09:03:09.380+00:00</time>
      </trkpt>
      <trkpt lat="48.38402" lon="2.70697">
        <ele>131</ele>
        <time>2026-02-08T09:03:13.850+00:00</time>
      </trkpt>
      <trkpt lat="48.38403" lon="2.70691">
        <ele>129</ele>
        <time>2026-02-08T09:03:17.995+00:00</time>
      </trkpt>
      <trkpt lat="48.38402" lon="2.70682">
        <ele>131</ele>
        <time>2026-02-08T09:03:22.995+00:00</time>
      </trkpt>
      <trkpt lat="48.38401" lon="2.70675">
        <ele>132</ele>
        <time>2026-02-08T09:03:27.459+00:00</time>
      </trkpt>
      <trkpt lat="48.38402" lon="2.70668">
        <ele>132</ele>
        <time>2026-02-08T09:03:31.995+00:00</time>
      </trkpt>
      <trkpt lat="48.38407" lon="2.70665">
        <ele>131</ele>
        <time>2026-02-08T09:03:36.469+00:00</time>
      </trkpt>
      <trkpt lat="48.38407" lon="2.70663">
        <ele>131</ele>
        <time>2026-02-08T09:03:40.995+00:00</time>
      </trkpt>
      <trkpt lat="48.38408" lon="2.70655">
        <ele>131</ele>
        <time>2026-02-08T09:03:45.525+00:00</time>
      </trkpt>
      <trkpt lat="48.38411" lon="2.70648">
        <ele>133</ele>
        <time>2026-02-08T09:03:49.994+00:00</time>
      </trkpt>
      <trkpt lat="48.38411" lon="2.70641">
        <ele>133</ele>
        <time>2026-02-08T09:03:53.994+00:00</time>
      </trkpt>
      <trkpt lat="48.38412" lon="2.70634">
        <ele>133</ele>
        <time>2026-02-08T09:03:58.907+00:00</time>
      </trkpt>
      <trkpt lat="48.38417" lon="2.70632">
        <ele>133</ele>
        <time>2026-02-08T09:04:02.995+00:00</time>
      </trkpt>
      <trkpt lat="48.38423" lon="2.70633">
        <ele>133</ele>
        <time>2026-02-08T09:04:07.730+00:00</time>
      </trkpt>
      <trkpt lat="48.38429" lon="2.70633">
        <ele>133</ele>
        <time>2026-02-08T09:04:11.913+00:00</time>
      </trkpt>
      <trkpt lat="48.38432" lon="2.70627">
        <ele>128</ele>
        <time>2026-02-08T09:04:15.995+00:00</time>
      </trkpt>
      <trkpt lat="48.38436" lon="2.70622">
        <ele>129</ele>
        <time>2026-02-08T09:04:20.994+00:00</time>
      </trkpt>
      <trkpt lat="48.38434" lon="2.70613">
        <ele>129</ele>
        <time>2026-02-08T09:04:25.535+00:00</time>
      </trkpt>
      <trkpt lat="48.38434" lon="2.70606">
        <ele>129</ele>
        <time>2026-02-08T09:04:30.014+00:00</time>
      </trkpt>
      <trkpt lat="48.38434" lon="2.70601">
        <ele>129</ele>
        <time>2026-02-08T09:04:34.453+00:00</time>
      </trkpt>
      <trkpt lat="48.38434" lon="2.70597">
        <ele>129</ele>
        <time>2026-02-08T09:04:38.503+00:00</time>
      </trkpt>
      <trkpt lat="48.38436" lon="2.70593">
        <ele>129</ele>
        <time>2026-02-08T09:04:42.774+00:00</time>
      </trkpt>
      <trkpt lat="48.38433" lon="2.70588">
        <ele>129</ele>
        <time>2026-02-08T09:04:46.995+00:00</time>
      </trkpt>
      <trkpt lat="48.38433" lon="2.70584">
        <ele>129</ele>
        <time>2026-02-08T09:04:50.995+00:00</time>
      </trkpt>
      <trkpt lat="48.38433" lon="2.70578">
        <ele>129</ele>
        <time>2026-02-08T09:04:55.528+00:00</time>
      </trkpt>
      <trkpt lat="48.38432" lon="2.70573">
        <ele>129</ele>
        <time>2026-02-08T09:04:59.708+00:00</time>
      </trkpt>
      <trkpt lat="48.38431" lon="2.70567">
        <ele>127</ele>
        <time>2026-02-08T09:05:03.995+00:00</time>
      </trkpt>
      <trkpt lat="48.38429" lon="2.70561">
        <ele>132</ele>
        <time>2026-02-08T09:05:08.744+00:00</time>
      </trkpt>
      <trkpt lat="48.38429" lon="2.70557">
        <ele>132</ele>
        <time>2026-02-08T09:05:12.994+00:00</time>
      </trkpt>
      <trkpt lat="48.38426" lon="2.70551">
        <ele>132</ele>
        <time>2026-02-08T09:05:17.633+00:00</time>
      </trkpt>
      <trkpt lat="48.38425" lon="2.70545">
        <ele>132</ele>
        <time>2026-02-08T09:05:22.994+00:00</time>
      </trkpt>
      <trkpt lat="48.38422" lon="2.70539">
        <ele>132</ele>
        <time>2026-02-08T09:05:27.792+00:00</time>
      </trkpt>
      <trkpt lat="48.38421" lon="2.70532">
        <ele>132</ele>
        <time>2026-02-08T09:05:32.351+00:00</time>
      </trkpt>
      <trkpt lat="48.3842" lon="2.70525">
        <ele>132</ele>
        <time>2026-02-08T09:05:36.994+00:00</time>
      </trkpt>
      <trkpt lat="48.3842" lon="2.70518">
        <ele>132</ele>
        <time>2026-02-08T09:05:41.513+00:00</time>
      </trkpt>
      <trkpt lat="48.38419" lon="2.70512">
        <ele>132</ele>
        <time>2026-02-08T09:05:45.463+00:00</time>
      </trkpt>
      <trkpt lat="48.38418" lon="2.70505">
        <ele>132</ele>
        <time>2026-02-08T09:05:49.994+00:00</time>
      </trkpt>
      <trkpt lat="48.38416" lon="2.70498">
        <ele>132</ele>
        <time>2026-02-08T09:05:54.823+00:00</time>
      </trkpt>
      <trkpt lat="48.38414" lon="2.70493">
        <ele>132</ele>
        <time>2026-02-08T09:05:58.867+00:00</time>
      </trkpt>
      <trkpt lat="48.38414" lon="2.70487">
        <ele>132</ele>
        <time>2026-02-08T09:06:02.987+00:00</time>
      </trkpt>
      <trkpt lat="48.38415" lon="2.70482">
        <ele>131</ele>
        <time>2026-02-08T09:06:07.288+00:00</time>
      </trkpt>
      <trkpt lat="48.38417" lon="2.70476">
        <ele>131</ele>
        <time>2026-02-08T09:06:11.844+00:00</time>
      </trkpt>
      <trkpt lat="48.3842" lon="2.70472">
        <ele>131</ele>
        <time>2026-02-08T09:06:15.964+00:00</time>
      </trkpt>
      <trkpt lat="48.38423" lon="2.7047">
        <ele>131</ele>
        <time>2026-02-08T09:06:20.102+00:00</time>
      </trkpt>
      <trkpt lat="48.38424" lon="2.70465">
        <ele>131</ele>
        <time>2026-02-08T09:06:24.429+00:00</time>
      </trkpt>
      <trkpt lat="48.38423" lon="2.70458">
        <ele>130</ele>
        <time>2026-02-08T09:06:28.668+00:00</time>
      </trkpt>
      <trkpt lat="48.38422" lon="2.70451">
        <ele>130</ele>
        <time>2026-02-08T09:06:33.407+00:00</time>
      </trkpt>
      <trkpt lat="48.38423" lon="2.70444">
        <ele>130</ele>
        <time>2026-02-08T09:06:37.669+00:00</time>
      </trkpt>
      <trkpt lat="48.38423" lon="2.70438">
        <ele>130</ele>
        <time>2026-02-08T09:06:41.994+00:00</time>
      </trkpt>
      <trkpt lat="48.38419" lon="2.70434">
        <ele>130</ele>
        <time>2026-02-08T09:06:46.405+00:00</time>
      </trkpt>
      <trkpt lat="48.38416" lon="2.70429">
        <ele>130</ele>
        <time>2026-02-08T09:06:50.994+00:00</time>
      </trkpt>
      <trkpt lat="48.38412" lon="2.70423">
        <ele>130</ele>
        <time>2026-02-08T09:06:55.807+00:00</time>
      </trkpt>
      <trkpt lat="48.3841" lon="2.70416">
        <ele>130</ele>
        <time>2026-02-08T09:07:00.330+00:00</time>
      </trkpt>
      <trkpt lat="48.38409" lon="2.70409">
        <ele>130</ele>
        <time>2026-02-08T09:07:04.993+00:00</time>
      </trkpt>
      <trkpt lat="48.38409" lon="2.70402">
        <ele>129</ele>
        <time>2026-02-08T09:07:09.993+00:00</time>
      </trkpt>
      <trkpt lat="48.38408" lon="2.70397">
        <ele>129</ele>
        <time>2026-02-08T09:07:13.994+00:00</time>
      </trkpt>
      <trkpt lat="48.38406" lon="2.70391">
        <ele>129</ele>
        <time>2026-02-08T09:07:18.407+00:00</time>
      </trkpt>
      <trkpt lat="48.38408" lon="2.70385">
        <ele>129</ele>
        <time>2026-02-08T09:07:22.509+00:00</time>
      </trkpt>
      <trkpt lat="48.38409" lon="2.7038">
        <ele>129</ele>
        <time>2026-02-08T09:07:26.605+00:00</time>
      </trkpt>
      <trkpt lat="48.38409" lon="2.70373">
        <ele>129</ele>
        <time>2026-02-08T09:07:30.993+00:00</time>
      </trkpt>
      <trkpt lat="48.3841" lon="2.70367">
        <ele>129</ele>
        <time>2026-02-08T09:07:35.290+00:00</time>
      </trkpt>
      <trkpt lat="48.3841" lon="2.70363">
        <ele>129</ele>
        <time>2026-02-08T09:07:38.013+00:00</time>
      </trkpt>
      <trkpt lat="48.38412" lon="2.70359">
        <ele>129</ele>
        <time>2026-02-08T09:07:46.827+00:00</time>
      </trkpt>
      <trkpt lat="48.38418" lon="2.70354">
        <ele>129</ele>
        <time>2026-02-08T09:07:50.994+00:00</time>
      </trkpt>
      <trkpt lat="48.3842" lon="2.70349">
        <ele>129</ele>
        <time>2026-02-08T09:07:53.621+00:00</time>
      </trkpt>
      <trkpt lat="48.38423" lon="2.70345">
        <ele>128</ele>
        <time>2026-02-08T09:08:02.993+00:00</time>
      </trkpt>
      <trkpt lat="48.38426" lon="2.70341">
        <ele>128</ele>
        <time>2026-02-08T09:08:07.963+00:00</time>
      </trkpt>
      <trkpt lat="48.38427" lon="2.70334">
        <ele>128</ele>
        <time>2026-02-08T09:08:12.146+00:00</time>
      </trkpt>
      <trkpt lat="48.38425" lon="2.70327">
        <ele>128</ele>
        <time>2026-02-08T09:08:16.993+00:00</time>
      </trkpt>
      <trkpt lat="48.38426" lon="2.70322">
        <ele>128</ele>
        <time>2026-02-08T09:08:21.487+00:00</time>
      </trkpt>
      <trkpt lat="48.38428" lon="2.70317">
        <ele>127</ele>
        <time>2026-02-08T09:08:25.506+00:00</time>
      </trkpt>
      <trkpt lat="48.3843" lon="2.70311">
        <ele>127</ele>
        <time>2026-02-08T09:08:29.849+00:00</time>
      </trkpt>
      <trkpt lat="48.3843" lon="2.70304">
        <ele>127</ele>
        <time>2026-02-08T09:08:34.446+00:00</time>
      </trkpt>
      <trkpt lat="48.3843" lon="2.70297">
        <ele>127</ele>
        <time>2026-02-08T09:08:38.994+00:00</time>
      </trkpt>
      <trkpt lat="48.3843" lon="2.70289">
        <ele>126</ele>
        <time>2026-02-08T09:08:43.686+00:00</time>
      </trkpt>
      <trkpt lat="48.38434" lon="2.70283">
        <ele>127</ele>
        <time>2026-02-08T09:08:47.968+00:00</time>
      </trkpt>
      <trkpt lat="48.3844" lon="2.70279">
        <ele>127</ele>
        <time>2026-02-08T09:08:52.327+00:00</time>
      </trkpt>
      <trkpt lat="48.38444" lon="2.70273">
        <ele>127</ele>
        <time>2026-02-08T09:08:56.910+00:00</time>
      </trkpt>
      <trkpt lat="48.38446" lon="2.70265">
        <ele>127</ele>
        <time>2026-02-08T09:09:00.994+00:00</time>
      </trkpt>
      <trkpt lat="48.38448" lon="2.70257">
        <ele>128</ele>
        <time>2026-02-08T09:09:05.994+00:00</time>
      </trkpt>
      <trkpt lat="48.38452" lon="2.70253">
        <ele>128</ele>
        <time>2026-02-08T09:09:10.866+00:00</time>
      </trkpt>
      <trkpt lat="48.38453" lon="2.70238">
        <ele>128</ele>
        <time>2026-02-08T09:09:29.447+00:00</time>
      </trkpt>
      <trkpt lat="48.38453" lon="2.70236">
        <ele>129</ele>
        <time>2026-02-08T09:09:33.747+00:00</time>
      </trkpt>
      <trkpt lat="48.38455" lon="2.70229">
        <ele>129</ele>
        <time>2026-02-08T09:09:37.994+00:00</time>
      </trkpt>
      <trkpt lat="48.38458" lon="2.70224">
        <ele>129</ele>
        <time>2026-02-08T09:09:42.585+00:00</time>
      </trkpt>
      <trkpt lat="48.38461" lon="2.70222">
        <ele>124</ele>
        <time>2026-02-08T09:09:46.766+00:00</time>
      </trkpt>
      <trkpt lat="48.38459" lon="2.70218">
        <ele>124</ele>
        <time>2026-02-08T09:09:51.329+00:00</time>
      </trkpt>
      <trkpt lat="48.38457" lon="2.70213">
        <ele>129</ele>
        <time>2026-02-08T09:09:55.526+00:00</time>
      </trkpt>
      <trkpt lat="48.38457" lon="2.70208">
        <ele>129</ele>
        <time>2026-02-08T09:09:59.546+00:00</time>
      </trkpt>
      <trkpt lat="48.38457" lon="2.70203">
        <ele>128</ele>
        <time>2026-02-08T09:10:03.994+00:00</time>
      </trkpt>
      <trkpt lat="48.38459" lon="2.70197">
        <ele>125</ele>
        <time>2026-02-08T09:10:08.323+00:00</time>
      </trkpt>
      <trkpt lat="48.38459" lon="2.70191">
        <ele>125</ele>
        <time>2026-02-08T09:10:12.994+00:00</time>
      </trkpt>
      <trkpt lat="48.38461" lon="2.70184">
        <ele>125</ele>
        <time>2026-02-08T09:10:17.993+00:00</time>
      </trkpt>
      <trkpt lat="48.38464" lon="2.7018">
        <ele>124</ele>
        <time>2026-02-08T09:10:22.048+00:00</time>
      </trkpt>
      <trkpt lat="48.38466" lon="2.70185">
        <ele>125</ele>
        <time>2026-02-08T09:10:26.408+00:00</time>
      </trkpt>
      <trkpt lat="48.38468" lon="2.7019">
        <ele>125</ele>
        <time>2026-02-08T09:10:30.503+00:00</time>
      </trkpt>
      <trkpt lat="48.38471" lon="2.70189">
        <ele>125</ele>
        <time>2026-02-08T09:10:34.993+00:00</time>
      </trkpt>
      <trkpt lat="48.38474" lon="2.70188">
        <ele>125</ele>
        <time>2026-02-08T09:10:39.324+00:00</time>
      </trkpt>
      <trkpt lat="48.38476" lon="2.70183">
        <ele>125</ele>
        <time>2026-02-08T09:10:43.564+00:00</time>
      </trkpt>
      <trkpt lat="48.38477" lon="2.70176">
        <ele>124</ele>
        <time>2026-02-08T09:10:47.831+00:00</time>
      </trkpt>
      <trkpt lat="48.38477" lon="2.70169">
        <ele>124</ele>
        <time>2026-02-08T09:10:52.001+00:00</time>
      </trkpt>
      <trkpt lat="48.38475" lon="2.70163">
        <ele>124</ele>
        <time>2026-02-08T09:10:56.445+00:00</time>
      </trkpt>
      <trkpt lat="48.38472" lon="2.70158">
        <ele>124</ele>
        <time>2026-02-08T09:11:00.994+00:00</time>
      </trkpt>
      <trkpt lat="48.38469" lon="2.70156">
        <ele>124</ele>
        <time>2026-02-08T09:11:09.658+00:00</time>
      </trkpt>
      <trkpt lat="48.38466" lon="2.70155">
        <ele>124</ele>
        <time>2026-02-08T09:11:13.822+00:00</time>
      </trkpt>
      <trkpt lat="48.38464" lon="2.70154">
        <ele>124</ele>
        <time>2026-02-08T09:11:18.545+00:00</time>
      </trkpt>
      <trkpt lat="48.38463" lon="2.70152">
        <ele>126</ele>
        <time>2026-02-08T09:11:22.626+00:00</time>
      </trkpt>
      <trkpt lat="48.38461" lon="2.70148">
        <ele>126</ele>
        <time>2026-02-08T09:11:26.747+00:00</time>
      </trkpt>
      <trkpt lat="48.38462" lon="2.70149">
        <ele>126</ele>
        <time>2026-02-08T09:11:30.994+00:00</time>
      </trkpt>
      <trkpt lat="48.38462" lon="2.70149">
        <ele>126</ele>
        <time>2026-02-08T09:11:35.993+00:00</time>
      </trkpt>
      <trkpt lat="48.38462" lon="2.70149">
        <ele>126</ele>
        <time>2026-02-08T09:11:42.340+00:00</time>
      </trkpt>
      <trkpt lat="48.38463" lon="2.7014">
        <ele>126</ele>
        <time>2026-02-08T09:11:46.460+00:00</time>
      </trkpt>
      <trkpt lat="48.38462" lon="2.70134">
        <ele>126</ele>
        <time>2026-02-08T09:11:50.906+00:00</time>
      </trkpt>
      <trkpt lat="48.38464" lon="2.70128">
        <ele>126</ele>
        <time>2026-02-08T09:11:55.666+00:00</time>
      </trkpt>
      <trkpt lat="48.3846" lon="2.70128">
        <ele>126</ele>
        <time>2026-02-08T09:11:59.994+00:00</time>
      </trkpt>
      <trkpt lat="48.38459" lon="2.70127">
        <ele>126</ele>
        <time>2026-02-08T09:12:04.964+00:00</time>
      </trkpt>
      <trkpt lat="48.38457" lon="2.70124">
        <ele>127</ele>
        <time>2026-02-08T09:12:09.920+00:00</time>
      </trkpt>
      <trkpt lat="48.38454" lon="2.7012">
        <ele>127</ele>
        <time>2026-02-08T09:12:14.993+00:00</time>
      </trkpt>
      <trkpt lat="48.38452" lon="2.70116">
        <ele>127</ele>
        <time>2026-02-08T09:12:19.986+00:00</time>
      </trkpt>
      <trkpt lat="48.3845" lon="2.70112">
        <ele>127</ele>
        <time>2026-02-08T09:12:24.763+00:00</time>
      </trkpt>
      <trkpt lat="48.38449" lon="2.70107">
        <ele>127</ele>
        <time>2026-02-08T09:12:28.993+00:00</time>
      </trkpt>
      <trkpt lat="48.38448" lon="2.70102">
        <ele>127</ele>
        <time>2026-02-08T09:12:33.805+00:00</time>
      </trkpt>
      <trkpt lat="48.38448" lon="2.70098">
        <ele>127</ele>
        <time>2026-02-08T09:12:38.446+00:00</time>
      </trkpt>
      <trkpt lat="48.38448" lon="2.70093">
        <ele>126</ele>
        <time>2026-02-08T09:12:42.993+00:00</time>
      </trkpt>
      <trkpt lat="48.38449" lon="2.70088">
        <ele>126</ele>
        <time>2026-02-08T09:12:47.267+00:00</time>
      </trkpt>
      <trkpt lat="48.38452" lon="2.70084">
        <ele>126</ele>
        <time>2026-02-08T09:12:51.994+00:00</time>
      </trkpt>
      <trkpt lat="48.38453" lon="2.7008">
        <ele>126</ele>
        <time>2026-02-08T09:12:56.539+00:00</time>
      </trkpt>
      <trkpt lat="48.38453" lon="2.70075">
        <ele>126</ele>
        <time>2026-02-08T09:13:00.566+00:00</time>
      </trkpt>
      <trkpt lat="48.38454" lon="2.70071">
        <ele>126</ele>
        <time>2026-02-08T09:13:04.994+00:00</time>
      </trkpt>
      <trkpt lat="48.38455" lon="2.70067">
        <ele>124</ele>
        <time>2026-02-08T09:13:09.463+00:00</time>
      </trkpt>
      <trkpt lat="48.38456" lon="2.70062">
        <ele>124</ele>
        <time>2026-02-08T09:13:13.925+00:00</time>
      </trkpt>
      <trkpt lat="48.38458" lon="2.70057">
        <ele>124</ele>
        <time>2026-02-08T09:13:18.198+00:00</time>
      </trkpt>
      <trkpt lat="48.3846" lon="2.70052">
        <ele>128</ele>
        <time>2026-02-08T09:13:22.685+00:00</time>
      </trkpt>
      <trkpt lat="48.38463" lon="2.70049">
        <ele>128</ele>
        <time>2026-02-08T09:13:26.994+00:00</time>
      </trkpt>
      <trkpt lat="48.38467" lon="2.70045">
        <ele>128</ele>
        <time>2026-02-08T09:13:31.642+00:00</time>
      </trkpt>
      <trkpt lat="48.38468" lon="2.70041">
        <ele>126</ele>
        <time>2026-02-08T09:13:35.882+00:00</time>
      </trkpt>
      <trkpt lat="48.38469" lon="2.70035">
        <ele>126</ele>
        <time>2026-02-08T09:13:39.994+00:00</time>
      </trkpt>
      <trkpt lat="48.38471" lon="2.70027">
        <ele>126</ele>
        <time>2026-02-08T09:13:44.881+00:00</time>
      </trkpt>
      <trkpt lat="48.38468" lon="2.70022">
        <ele>126</ele>
        <time>2026-02-08T09:13:49.522+00:00</time>
      </trkpt>
      <trkpt lat="48.38468" lon="2.70016">
        <ele>126</ele>
        <time>2026-02-08T09:13:53.994+00:00</time>
      </trkpt>
      <trkpt lat="48.3847" lon="2.7001">
        <ele>126</ele>
        <time>2026-02-08T09:13:58.881+00:00</time>
      </trkpt>
      <trkpt lat="48.38471" lon="2.70005">
        <ele>126</ele>
        <time>2026-02-08T09:14:03.461+00:00</time>
      </trkpt>
      <trkpt lat="48.38469" lon="2.69999">
        <ele>126</ele>
        <time>2026-02-08T09:14:07.624+00:00</time>
      </trkpt>
      <trkpt lat="48.38469" lon="2.69993">
        <ele>126</ele>
        <time>2026-02-08T09:14:11.746+00:00</time>
      </trkpt>
      <trkpt lat="48.3847" lon="2.69984">
        <ele>123</ele>
        <time>2026-02-08T09:14:16.846+00:00</time>
      </trkpt>
      <trkpt lat="48.38472" lon="2.69978">
        <ele>123</ele>
        <time>2026-02-08T09:14:21.101+00:00</time>
      </trkpt>
      <trkpt lat="48.38471" lon="2.69973">
        <ele>123</ele>
        <time>2026-02-08T09:14:25.299+00:00</time>
      </trkpt>
      <trkpt lat="48.38469" lon="2.69967">
        <ele>123</ele>
        <time>2026-02-08T09:14:29.428+00:00</time>
      </trkpt>
      <trkpt lat="48.38468" lon="2.6996">
        <ele>123</ele>
        <time>2026-02-08T09:14:33.993+00:00</time>
      </trkpt>
      <trkpt lat="48.38467" lon="2.69955">
        <ele>124</ele>
        <time>2026-02-08T09:14:38.388+00:00</time>
      </trkpt>
      <trkpt lat="48.38465" lon="2.69949">
        <ele>124</ele>
        <time>2026-02-08T09:14:42.620+00:00</time>
      </trkpt>
      <trkpt lat="48.38467" lon="2.69943">
        <ele>124</ele>
        <time>2026-02-08T09:14:46.800+00:00</time>
      </trkpt>
      <trkpt lat="48.38467" lon="2.69936">
        <ele>124</ele>
        <time>2026-02-08T09:14:51.304+00:00</time>
      </trkpt>
      <trkpt lat="48.38468" lon="2.69929">
        <ele>122</ele>
        <time>2026-02-08T09:14:55.994+00:00</time>
      </trkpt>
      <trkpt lat="48.38469" lon="2.69921">
        <ele>122</ele>
        <time>2026-02-08T09:15:00.994+00:00</time>
      </trkpt>
      <trkpt lat="48.38471" lon="2.69914">
        <ele>122</ele>
        <time>2026-02-08T09:15:05.772+00:00</time>
      </trkpt>
      <trkpt lat="48.38473" lon="2.69908">
        <ele>122</ele>
        <time>2026-02-08T09:15:09.900+00:00</time>
      </trkpt>
      <trkpt lat="48.38471" lon="2.69903">
        <ele>122</ele>
        <time>2026-02-08T09:15:13.993+00:00</time>
      </trkpt>
      <trkpt lat="48.38471" lon="2.69899">
        <ele>123</ele>
        <time>2026-02-08T09:15:18.526+00:00</time>
      </trkpt>
      <trkpt lat="48.38472" lon="2.69895">
        <ele>123</ele>
        <time>2026-02-08T09:15:32.993+00:00</time>
      </trkpt>
      <trkpt lat="48.38472" lon="2.69893">
        <ele>123</ele>
        <time>2026-02-08T09:15:37.993+00:00</time>
      </trkpt>
      <trkpt lat="48.38473" lon="2.69891">
        <ele>123</ele>
        <time>2026-02-08T09:15:42.112+00:00</time>
      </trkpt>
      <trkpt lat="48.38476" lon="2.69888">
        <ele>123</ele>
        <time>2026-02-08T09:15:46.505+00:00</time>
      </trkpt>
      <trkpt lat="48.38476" lon="2.69885">
        <ele>123</ele>
        <time>2026-02-08T09:15:50.993+00:00</time>
      </trkpt>
      <trkpt lat="48.38478" lon="2.6988">
        <ele>123</ele>
        <time>2026-02-08T09:15:55.802+00:00</time>
      </trkpt>
      <trkpt lat="48.3848" lon="2.69875">
        <ele>123</ele>
        <time>2026-02-08T09:15:59.994+00:00</time>
      </trkpt>
      <trkpt lat="48.38482" lon="2.69872">
        <ele>119</ele>
        <time>2026-02-08T09:16:04.765+00:00</time>
      </trkpt>
      <trkpt lat="48.38486" lon="2.69867">
        <ele>119</ele>
        <time>2026-02-08T09:16:09.741+00:00</time>
      </trkpt>
      <trkpt lat="48.38488" lon="2.69864">
        <ele>117</ele>
        <time>2026-02-08T09:16:13.994+00:00</time>
      </trkpt>
      <trkpt lat="48.38491" lon="2.6986">
        <ele>117</ele>
        <time>2026-02-08T09:16:18.584+00:00</time>
      </trkpt>
      <trkpt lat="48.38492" lon="2.69855">
        <ele>117</ele>
        <time>2026-02-08T09:16:22.994+00:00</time>
      </trkpt>
      <trkpt lat="48.38487" lon="2.6985">
        <ele>117</ele>
        <time>2026-02-08T09:16:27.740+00:00</time>
      </trkpt>
      <trkpt lat="48.38482" lon="2.69848">
        <ele>119</ele>
        <time>2026-02-08T09:16:32.185+00:00</time>
      </trkpt>
      <trkpt lat="48.38477" lon="2.69847">
        <ele>117</ele>
        <time>2026-02-08T09:16:36.885+00:00</time>
      </trkpt>
      <trkpt lat="48.38476" lon="2.69841">
        <ele>117</ele>
        <time>2026-02-08T09:16:40.993+00:00</time>
      </trkpt>
      <trkpt lat="48.38474" lon="2.69839">
        <ele>117</ele>
        <time>2026-02-08T09:16:44.994+00:00</time>
      </trkpt>
      <trkpt lat="48.3847" lon="2.69838">
        <ele>117</ele>
        <time>2026-02-08T09:16:49.886+00:00</time>
      </trkpt>
      <trkpt lat="48.38468" lon="2.6984">
        <ele>117</ele>
        <time>2026-02-08T09:16:53.993+00:00</time>
      </trkpt>
      <trkpt lat="48.38464" lon="2.69839">
        <ele>117</ele>
        <time>2026-02-08T09:16:58.424+00:00</time>
      </trkpt>
      <trkpt lat="48.3846" lon="2.69836">
        <ele>117</ele>
        <time>2026-02-08T09:17:02.994+00:00</time>
      </trkpt>
      <trkpt lat="48.38458" lon="2.69832">
        <ele>114</ele>
        <time>2026-02-08T09:17:07.363+00:00</time>
      </trkpt>
      <trkpt lat="48.38457" lon="2.69828">
        <ele>114</ele>
        <time>2026-02-08T09:17:11.994+00:00</time>
      </trkpt>
      <trkpt lat="48.38456" lon="2.69824">
        <ele>114</ele>
        <time>2026-02-08T09:17:16.725+00:00</time>
      </trkpt>
      <trkpt lat="48.38454" lon="2.6982">
        <ele>114</ele>
        <time>2026-02-08T09:17:20.993+00:00</time>
      </trkpt>
      <trkpt lat="48.38452" lon="2.69816">
        <ele>112</ele>
        <time>2026-02-08T09:17:24.994+00:00</time>
      </trkpt>
      <trkpt lat="48.38449" lon="2.69814">
        <ele>112</ele>
        <time>2026-02-08T09:17:29.440+00:00</time>
      </trkpt>
      <trkpt lat="48.38446" lon="2.69812">
        <ele>112</ele>
        <time>2026-02-08T09:17:33.544+00:00</time>
      </trkpt>
      <trkpt lat="48.38444" lon="2.69808">
        <ele>112</ele>
        <time>2026-02-08T09:17:37.723+00:00</time>
      </trkpt>
      <trkpt lat="48.38441" lon="2.6981">
        <ele>112</ele>
        <time>2026-02-08T09:17:41.994+00:00</time>
      </trkpt>
      <trkpt lat="48.38438" lon="2.69804">
        <ele>112</ele>
        <time>2026-02-08T09:17:46.993+00:00</time>
      </trkpt>
      <trkpt lat="48.38438" lon="2.69797">
        <ele>112</ele>
        <time>2026-02-08T09:17:51.900+00:00</time>
      </trkpt>
      <trkpt lat="48.38437" lon="2.69794">
        <ele>112</ele>
        <time>2026-02-08T09:17:55.994+00:00</time>
      </trkpt>
      <trkpt lat="48.38432" lon="2.6979">
        <ele>111</ele>
        <time>2026-02-08T09:18:00.926+00:00</time>
      </trkpt>
      <trkpt lat="48.38427" lon="2.6979">
        <ele>107</ele>
        <time>2026-02-08T09:18:05.805+00:00</time>
      </trkpt>
      <trkpt lat="48.38423" lon="2.69791">
        <ele>107</ele>
        <time>2026-02-08T09:18:10.263+00:00</time>
      </trkpt>
      <trkpt lat="48.38419" lon="2.69788">
        <ele>107</ele>
        <time>2026-02-08T09:18:14.541+00:00</time>
      </trkpt>
      <trkpt lat="48.38416" lon="2.69784">
        <ele>107</ele>
        <time>2026-02-08T09:18:18.824+00:00</time>
      </trkpt>
      <trkpt lat="48.38412" lon="2.69787">
        <ele>107</ele>
        <time>2026-02-08T09:18:22.993+00:00</time>
      </trkpt>
      <trkpt lat="48.3841" lon="2.6978">
        <ele>107</ele>
        <time>2026-02-08T09:18:27.566+00:00</time>
      </trkpt>
      <trkpt lat="48.38409" lon="2.69774">
        <ele>107</ele>
        <time>2026-02-08T09:18:31.993+00:00</time>
      </trkpt>
      <trkpt lat="48.38405" lon="2.69771">
        <ele>107</ele>
        <time>2026-02-08T09:18:36.643+00:00</time>
      </trkpt>
      <trkpt lat="48.38403" lon="2.69764">
        <ele>107</ele>
        <time>2026-02-08T09:18:40.993+00:00</time>
      </trkpt>
      <trkpt lat="48.38399" lon="2.69764">
        <ele>101</ele>
        <time>2026-02-08T09:18:44.993+00:00</time>
      </trkpt>
      <trkpt lat="48.38396" lon="2.69769">
        <ele>101</ele>
        <time>2026-02-08T09:18:49.199+00:00</time>
      </trkpt>
      <trkpt lat="48.38392" lon="2.69769">
        <ele>101</ele>
        <time>2026-02-08T09:18:53.406+00:00</time>
      </trkpt>
      <trkpt lat="48.38387" lon="2.69771">
        <ele>101</ele>
        <time>2026-02-08T09:18:57.993+00:00</time>
      </trkpt>
      <trkpt lat="48.38382" lon="2.69766">
        <ele>101</ele>
        <time>2026-02-08T09:19:02.959+00:00</time>
      </trkpt>
      <trkpt lat="48.38378" lon="2.69767">
        <ele>101</ele>
        <time>2026-02-08T09:19:07.284+00:00</time>
      </trkpt>
      <trkpt lat="48.38374" lon="2.69768">
        <ele>97</ele>
        <time>2026-02-08T09:19:11.410+00:00</time>
      </trkpt>
      <trkpt lat="48.3837" lon="2.69771">
        <ele>97</ele>
        <time>2026-02-08T09:19:15.823+00:00</time>
      </trkpt>
      <trkpt lat="48.38366" lon="2.69771">
        <ele>97</ele>
        <time>2026-02-08T09:19:19.865+00:00</time>
      </trkpt>
      <trkpt lat="48.38362" lon="2.69776">
        <ele>97</ele>
        <time>2026-02-08T09:19:23.883+00:00</time>
      </trkpt>
      <trkpt lat="48.38359" lon="2.69779">
        <ele>97</ele>
        <time>2026-02-08T09:19:26.801+00:00</time>
      </trkpt>
      <trkpt lat="48.38351" lon="2.69783">
        <ele>97</ele>
        <time>2026-02-08T09:19:35.600+00:00</time>
      </trkpt>
      <trkpt lat="48.38347" lon="2.69786">
        <ele>98</ele>
        <time>2026-02-08T09:19:39.806+00:00</time>
      </trkpt>
      <trkpt lat="48.3834" lon="2.69783">
        <ele>98</ele>
        <time>2026-02-08T09:19:44.165+00:00</time>
      </trkpt>
      <trkpt lat="48.38333" lon="2.69781">
        <ele>98</ele>
        <time>2026-02-08T09:19:48.584+00:00</time>
      </trkpt>
      <trkpt lat="48.38327" lon="2.6978">
        <ele>98</ele>
        <time>2026-02-08T09:19:52.661+00:00</time>
      </trkpt>
      <trkpt lat="48.38321" lon="2.69784">
        <ele>98</ele>
        <time>2026-02-08T09:19:57.302+00:00</time>
      </trkpt>
      <trkpt lat="48.38317" lon="2.69791">
        <ele>100</ele>
        <time>2026-02-08T09:20:01.661+00:00</time>
      </trkpt>
      <trkpt lat="48.38312" lon="2.69795">
        <ele>101</ele>
        <time>2026-02-08T09:20:05.993+00:00</time>
      </trkpt>
      <trkpt lat="48.38306" lon="2.69797">
        <ele>101</ele>
        <time>2026-02-08T09:20:10.720+00:00</time>
      </trkpt>
      <trkpt lat="48.38301" lon="2.69798">
        <ele>101</ele>
        <time>2026-02-08T09:20:14.901+00:00</time>
      </trkpt>
      <trkpt lat="48.38297" lon="2.69801">
        <ele>101</ele>
        <time>2026-02-08T09:20:19.993+00:00</time>
      </trkpt>
      <trkpt lat="48.38292" lon="2.69804">
        <ele>101</ele>
        <time>2026-02-08T09:20:24.864+00:00</time>
      </trkpt>
      <trkpt lat="48.38287" lon="2.69807">
        <ele>104</ele>
        <time>2026-02-08T09:20:29.412+00:00</time>
      </trkpt>
      <trkpt lat="48.38283" lon="2.6981">
        <ele>104</ele>
        <time>2026-02-08T09:20:33.702+00:00</time>
      </trkpt>
      <trkpt lat="48.38279" lon="2.69813">
        <ele>104</ele>
        <time>2026-02-08T09:20:37.993+00:00</time>
      </trkpt>
      <trkpt lat="48.38275" lon="2.69815">
        <ele>104</ele>
        <time>2026-02-08T09:20:42.415+00:00</time>
      </trkpt>
      <trkpt lat="48.38271" lon="2.69817">
        <ele>104</ele>
        <time>2026-02-08T09:20:46.994+00:00</time>
      </trkpt>
      <trkpt lat="48.38266" lon="2.69819">
        <ele>104</ele>
        <time>2026-02-08T09:20:51.761+00:00</time>
      </trkpt>
      <trkpt lat="48.38262" lon="2.69822">
        <ele>108</ele>
        <time>2026-02-08T09:20:56.181+00:00</time>
      </trkpt>
      <trkpt lat="48.38257" lon="2.69825">
        <ele>108</ele>
        <time>2026-02-08T09:21:00.480+00:00</time>
      </trkpt>
      <trkpt lat="48.38253" lon="2.69827">
        <ele>108</ele>
        <time>2026-02-08T09:21:04.719+00:00</time>
      </trkpt>
      <trkpt lat="48.38248" lon="2.69829">
        <ele>108</ele>
        <time>2026-02-08T09:21:08.993+00:00</time>
      </trkpt>
      <trkpt lat="48.38243" lon="2.69832">
        <ele>108</ele>
        <time>2026-02-08T09:21:13.582+00:00</time>
      </trkpt>
      <trkpt lat="48.38238" lon="2.69835">
        <ele>108</ele>
        <time>2026-02-08T09:21:17.941+00:00</time>
      </trkpt>
      <trkpt lat="48.38234" lon="2.69838">
        <ele>113</ele>
        <time>2026-02-08T09:21:22.139+00:00</time>
      </trkpt>
      <trkpt lat="48.38229" lon="2.69841">
        <ele>113</ele>
        <time>2026-02-08T09:21:26.994+00:00</time>
      </trkpt>
      <trkpt lat="48.38225" lon="2.69843">
        <ele>113</ele>
        <time>2026-02-08T09:21:31.122+00:00</time>
      </trkpt>
      <trkpt lat="48.38221" lon="2.69845">
        <ele>113</ele>
        <time>2026-02-08T09:21:35.994+00:00</time>
      </trkpt>
      <trkpt lat="48.38218" lon="2.69848">
        <ele>114</ele>
        <time>2026-02-08T09:21:40.446+00:00</time>
      </trkpt>
      <trkpt lat="48.38215" lon="2.69851">
        <ele>114</ele>
        <time>2026-02-08T09:21:44.719+00:00</time>
      </trkpt>
      <trkpt lat="48.38212" lon="2.69853">
        <ele>114</ele>
        <time>2026-02-08T09:21:48.994+00:00</time>
      </trkpt>
      <trkpt lat="48.38208" lon="2.69855">
        <ele>118</ele>
        <time>2026-02-08T09:21:53.600+00:00</time>
      </trkpt>
      <trkpt lat="48.38205" lon="2.69856">
        <ele>118</ele>
        <time>2026-02-08T09:21:57.703+00:00</time>
      </trkpt>
      <trkpt lat="48.38203" lon="2.69857">
        <ele>118</ele>
        <time>2026-02-08T09:22:01.994+00:00</time>
      </trkpt>
      <trkpt lat="48.38198" lon="2.69858">
        <ele>118</ele>
        <time>2026-02-08T09:22:06.746+00:00</time>
      </trkpt>
      <trkpt lat="48.38195" lon="2.69861">
        <ele>118</ele>
        <time>2026-02-08T09:22:10.994+00:00</time>
      </trkpt>
      <trkpt lat="48.3819" lon="2.69862">
        <ele>118</ele>
        <time>2026-02-08T09:22:15.362+00:00</time>
      </trkpt>
      <trkpt lat="48.38186" lon="2.69864">
        <ele>118</ele>
        <time>2026-02-08T09:22:19.781+00:00</time>
      </trkpt>
      <trkpt lat="48.38183" lon="2.69866">
        <ele>118</ele>
        <time>2026-02-08T09:22:23.824+00:00</time>
      </trkpt>
      <trkpt lat="48.38179" lon="2.69868">
        <ele>122</ele>
        <time>2026-02-08T09:22:27.859+00:00</time>
      </trkpt>
      <trkpt lat="48.38176" lon="2.6987">
        <ele>122</ele>
        <time>2026-02-08T09:22:31.993+00:00</time>
      </trkpt>
      <trkpt lat="48.38172" lon="2.69871">
        <ele>122</ele>
        <time>2026-02-08T09:22:37.004+00:00</time>
      </trkpt>
      <trkpt lat="48.3817" lon="2.69873">
        <ele>122</ele>
        <time>2026-02-08T09:22:40.993+00:00</time>
      </trkpt>
      <trkpt lat="48.38167" lon="2.69874">
        <ele>122</ele>
        <time>2026-02-08T09:22:45.859+00:00</time>
      </trkpt>
      <trkpt lat="48.38165" lon="2.69874">
        <ele>122</ele>
        <time>2026-02-08T09:22:49.994+00:00</time>
      </trkpt>
      <trkpt lat="48.38163" lon="2.69876">
        <ele>123</ele>
        <time>2026-02-08T09:22:54.662+00:00</time>
      </trkpt>
      <trkpt lat="48.3816" lon="2.69878">
        <ele>123</ele>
        <time>2026-02-08T09:22:58.994+00:00</time>
      </trkpt>
      <trkpt lat="48.38157" lon="2.69881">
        <ele>123</ele>
        <time>2026-02-08T09:23:03.993+00:00</time>
      </trkpt>
      <trkpt lat="48.38154" lon="2.69884">
        <ele>123</ele>
        <time>2026-02-08T09:23:08.994+00:00</time>
      </trkpt>
      <trkpt lat="48.38151" lon="2.69888">
        <ele>127</ele>
        <time>2026-02-08T09:23:13.703+00:00</time>
      </trkpt>
      <trkpt lat="48.38147" lon="2.69889">
        <ele>127</ele>
        <time>2026-02-08T09:23:17.994+00:00</time>
      </trkpt>
      <trkpt lat="48.38143" lon="2.69891">
        <ele>127</ele>
        <time>2026-02-08T09:23:22.643+00:00</time>
      </trkpt>
      <trkpt lat="48.38139" lon="2.69893">
        <ele>127</ele>
        <time>2026-02-08T09:23:27.003+00:00</time>
      </trkpt>
      <trkpt lat="48.38136" lon="2.69896">
        <ele>127</ele>
        <time>2026-02-08T09:23:30.993+00:00</time>
      </trkpt>
      <trkpt lat="48.38132" lon="2.69899">
        <ele>127</ele>
        <time>2026-02-08T09:23:35.559+00:00</time>
      </trkpt>
      <trkpt lat="48.38128" lon="2.69902">
        <ele>127</ele>
        <time>2026-02-08T09:23:39.722+00:00</time>
      </trkpt>
      <trkpt lat="48.38123" lon="2.69905">
        <ele>127</ele>
        <time>2026-02-08T09:23:44.005+00:00</time>
      </trkpt>
      <trkpt lat="48.38118" lon="2.69907">
        <ele>127</ele>
        <time>2026-02-08T09:23:48.483+00:00</time>
      </trkpt>
      <trkpt lat="48.38114" lon="2.6991">
        <ele>127</ele>
        <time>2026-02-08T09:23:52.782+00:00</time>
      </trkpt>
      <trkpt lat="48.3811" lon="2.69913">
        <ele>127</ele>
        <time>2026-02-08T09:23:56.994+00:00</time>
      </trkpt>
      <trkpt lat="48.38105" lon="2.69915">
        <ele>127</ele>
        <time>2026-02-08T09:24:01.202+00:00</time>
      </trkpt>
      <trkpt lat="48.381" lon="2.69919">
        <ele>127</ele>
        <time>2026-02-08T09:24:05.544+00:00</time>
      </trkpt>
      <trkpt lat="48.38096" lon="2.69922">
        <ele>128</ele>
        <time>2026-02-08T09:24:09.638+00:00</time>
      </trkpt>
      <trkpt lat="48.38092" lon="2.69926">
        <ele>128</ele>
        <time>2026-02-08T09:24:13.758+00:00</time>
      </trkpt>
      <trkpt lat="48.38087" lon="2.6993">
        <ele>128</ele>
        <time>2026-02-08T09:24:18.093+00:00</time>
      </trkpt>
      <trkpt lat="48.38082" lon="2.69935">
        <ele>128</ele>
        <time>2026-02-08T09:24:22.981+00:00</time>
      </trkpt>
      <trkpt lat="48.38078" lon="2.6994">
        <ele>128</ele>
        <time>2026-02-08T09:24:26.993+00:00</time>
      </trkpt>
      <trkpt lat="48.38073" lon="2.69944">
        <ele>128</ele>
        <time>2026-02-08T09:24:31.579+00:00</time>
      </trkpt>
      <trkpt lat="48.38068" lon="2.69947">
        <ele>129</ele>
        <time>2026-02-08T09:24:35.785+00:00</time>
      </trkpt>
      <trkpt lat="48.38062" lon="2.69948">
        <ele>129</ele>
        <time>2026-02-08T09:24:39.803+00:00</time>
      </trkpt>
      <trkpt lat="48.38057" lon="2.6995">
        <ele>129</ele>
        <time>2026-02-08T09:24:43.993+00:00</time>
      </trkpt>
      <trkpt lat="48.38052" lon="2.69953">
        <ele>129</ele>
        <time>2026-02-08T09:24:48.993+00:00</time>
      </trkpt>
      <trkpt lat="48.38047" lon="2.69956">
        <ele>129</ele>
        <time>2026-02-08T09:24:53.993+00:00</time>
      </trkpt>
      <trkpt lat="48.38042" lon="2.69961">
        <ele>129</ele>
        <time>2026-02-08T09:24:58.827+00:00</time>
      </trkpt>
      <trkpt lat="48.38038" lon="2.69964">
        <ele>131</ele>
        <time>2026-02-08T09:25:02.994+00:00</time>
      </trkpt>
      <trkpt lat="48.38034" lon="2.69968">
        <ele>131</ele>
        <time>2026-02-08T09:25:06.994+00:00</time>
      </trkpt>
      <trkpt lat="48.3803" lon="2.69973">
        <ele>131</ele>
        <time>2026-02-08T09:25:11.921+00:00</time>
      </trkpt>
      <trkpt lat="48.38026" lon="2.69975">
        <ele>131</ele>
        <time>2026-02-08T09:25:15.994+00:00</time>
      </trkpt>
      <trkpt lat="48.38026" lon="2.69974">
        <ele>131</ele>
        <time>2026-02-08T09:25:20.682+00:00</time>
      </trkpt>
      <trkpt lat="48.38023" lon="2.69977">
        <ele>131</ele>
        <time>2026-02-08T09:25:25.203+00:00</time>
      </trkpt>
      <trkpt lat="48.38018" lon="2.69981">
        <ele>131</ele>
        <time>2026-02-08T09:25:29.340+00:00</time>
      </trkpt>
      <trkpt lat="48.38012" lon="2.69984">
        <ele>131</ele>
        <time>2026-02-08T09:25:33.994+00:00</time>
      </trkpt>
      <trkpt lat="48.38008" lon="2.69987">
        <ele>132</ele>
        <time>2026-02-08T09:25:37.993+00:00</time>
      </trkpt>
      <trkpt lat="48.38003" lon="2.69991">
        <ele>132</ele>
        <time>2026-02-08T09:25:42.725+00:00</time>
      </trkpt>
      <trkpt lat="48.37998" lon="2.69994">
        <ele>132</ele>
        <time>2026-02-08T09:25:46.994+00:00</time>
      </trkpt>
      <trkpt lat="48.37993" lon="2.69997">
        <ele>132</ele>
        <time>2026-02-08T09:25:51.904+00:00</time>
      </trkpt>
      <trkpt lat="48.37989" lon="2.70001">
        <ele>132</ele>
        <time>2026-02-08T09:25:56.220+00:00</time>
      </trkpt>
      <trkpt lat="48.37985" lon="2.70004">
        <ele>131</ele>
        <time>2026-02-08T09:26:00.861+00:00</time>
      </trkpt>
      <trkpt lat="48.37981" lon="2.70007">
        <ele>131</ele>
        <time>2026-02-08T09:26:04.994+00:00</time>
      </trkpt>
      <trkpt lat="48.37976" lon="2.70012">
        <ele>131</ele>
        <time>2026-02-08T09:26:09.826+00:00</time>
      </trkpt>
      <trkpt lat="48.37971" lon="2.70015">
        <ele>131</ele>
        <time>2026-02-08T09:26:13.993+00:00</time>
      </trkpt>
      <trkpt lat="48.37966" lon="2.70018">
        <ele>131</ele>
        <time>2026-02-08T09:26:18.263+00:00</time>
      </trkpt>
      <trkpt lat="48.37961" lon="2.70021">
        <ele>131</ele>
        <time>2026-02-08T09:26:22.520+00:00</time>
      </trkpt>
      <trkpt lat="48.37956" lon="2.70023">
        <ele>131</ele>
        <time>2026-02-08T09:26:26.993+00:00</time>
      </trkpt>
      <trkpt lat="48.37951" lon="2.70022">
        <ele>131</ele>
        <time>2026-02-08T09:26:31.726+00:00</time>
      </trkpt>
      <trkpt lat="48.37947" lon="2.7002">
        <ele>131</ele>
        <time>2026-02-08T09:26:36.392+00:00</time>
      </trkpt>
      <trkpt lat="48.37943" lon="2.70016">
        <ele>131</ele>
        <time>2026-02-08T09:26:40.993+00:00</time>
      </trkpt>
      <trkpt lat="48.37941" lon="2.70014">
        <ele>131</ele>
        <time>2026-02-08T09:26:45.994+00:00</time>
      </trkpt>
      <trkpt lat="48.37941" lon="2.70013">
        <ele>131</ele>
        <time>2026-02-08T09:27:17.993+00:00</time>
      </trkpt>
      <trkpt lat="48.37938" lon="2.70011">
        <ele>131</ele>
        <time>2026-02-08T09:27:22.425+00:00</time>
      </trkpt>
      <trkpt lat="48.37934" lon="2.70006">
        <ele>131</ele>
        <time>2026-02-08T09:27:26.705+00:00</time>
      </trkpt>
      <trkpt lat="48.3793" lon="2.70003">
        <ele>132</ele>
        <time>2026-02-08T09:27:30.993+00:00</time>
      </trkpt>
      <trkpt lat="48.37925" lon="2.70001">
        <ele>132</ele>
        <time>2026-02-08T09:27:35.603+00:00</time>
      </trkpt>
      <trkpt lat="48.37922" lon="2.69998">
        <ele>132</ele>
        <time>2026-02-08T09:27:39.723+00:00</time>
      </trkpt>
      <trkpt lat="48.37918" lon="2.69992">
        <ele>132</ele>
        <time>2026-02-08T09:27:44.526+00:00</time>
      </trkpt>
      <trkpt lat="48.37915" lon="2.69987">
        <ele>132</ele>
        <time>2026-02-08T09:27:48.561+00:00</time>
      </trkpt>
      <trkpt lat="48.37911" lon="2.69983">
        <ele>131</ele>
        <time>2026-02-08T09:27:52.740+00:00</time>
      </trkpt>
      <trkpt lat="48.37907" lon="2.69978">
        <ele>131</ele>
        <time>2026-02-08T09:27:56.993+00:00</time>
      </trkpt>
      <trkpt lat="48.37904" lon="2.69974">
        <ele>131</ele>
        <time>2026-02-08T09:28:00.993+00:00</time>
      </trkpt>
      <trkpt lat="48.379" lon="2.69968">
        <ele>130</ele>
        <time>2026-02-08T09:28:06.023+00:00</time>
      </trkpt>
      <trkpt lat="48.37897" lon="2.69964">
        <ele>130</ele>
        <time>2026-02-08T09:28:10.767+00:00</time>
      </trkpt>
      <trkpt lat="48.37892" lon="2.69961">
        <ele>130</ele>
        <time>2026-02-08T09:28:15.409+00:00</time>
      </trkpt>
      <trkpt lat="48.37887" lon="2.69957">
        <ele>129</ele>
        <time>2026-02-08T09:28:19.963+00:00</time>
      </trkpt>
      <trkpt lat="48.37883" lon="2.69953">
        <ele>129</ele>
        <time>2026-02-08T09:28:24.527+00:00</time>
      </trkpt>
      <trkpt lat="48.37878" lon="2.6995">
        <ele>129</ele>
        <time>2026-02-08T09:28:28.993+00:00</time>
      </trkpt>
      <trkpt lat="48.37873" lon="2.69945">
        <ele>127</ele>
        <time>2026-02-08T09:28:33.681+00:00</time>
      </trkpt>
      <trkpt lat="48.37869" lon="2.6994">
        <ele>127</ele>
        <time>2026-02-08T09:28:37.980+00:00</time>
      </trkpt>
      <trkpt lat="48.37866" lon="2.69936">
        <ele>127</ele>
        <time>2026-02-08T09:28:41.993+00:00</time>
      </trkpt>
      <trkpt lat="48.37862" lon="2.69931">
        <ele>127</ele>
        <time>2026-02-08T09:28:46.246+00:00</time>
      </trkpt>
      <trkpt lat="48.37859" lon="2.69926">
        <ele>126</ele>
        <time>2026-02-08T09:28:50.324+00:00</time>
      </trkpt>
      <trkpt lat="48.37855" lon="2.69922">
        <ele>126</ele>
        <time>2026-02-08T09:28:54.445+00:00</time>
      </trkpt>
      <trkpt lat="48.37851" lon="2.6992">
        <ele>126</ele>
        <time>2026-02-08T09:28:58.684+00:00</time>
      </trkpt>
      <trkpt lat="48.37847" lon="2.69916">
        <ele>126</ele>
        <time>2026-02-08T09:29:02.992+00:00</time>
      </trkpt>
      <trkpt lat="48.37843" lon="2.69912">
        <ele>125</ele>
        <time>2026-02-08T09:29:07.925+00:00</time>
      </trkpt>
      <trkpt lat="48.37839" lon="2.69908">
        <ele>125</ele>
        <time>2026-02-08T09:29:12.103+00:00</time>
      </trkpt>
      <trkpt lat="48.37836" lon="2.69902">
        <ele>123</ele>
        <time>2026-02-08T09:29:16.993+00:00</time>
      </trkpt>
      <trkpt lat="48.37832" lon="2.69898">
        <ele>123</ele>
        <time>2026-02-08T09:29:21.992+00:00</time>
      </trkpt>
      <trkpt lat="48.37828" lon="2.69893">
        <ele>123</ele>
        <time>2026-02-08T09:29:26.992+00:00</time>
      </trkpt>
      <trkpt lat="48.37825" lon="2.69889">
        <ele>123</ele>
        <time>2026-02-08T09:29:31.992+00:00</time>
      </trkpt>
      <trkpt lat="48.37822" lon="2.69885">
        <ele>123</ele>
        <time>2026-02-08T09:29:36.604+00:00</time>
      </trkpt>
      <trkpt lat="48.37819" lon="2.69882">
        <ele>123</ele>
        <time>2026-02-08T09:29:40.962+00:00</time>
      </trkpt>
      <trkpt lat="48.37816" lon="2.6988">
        <ele>123</ele>
        <time>2026-02-08T09:29:44.993+00:00</time>
      </trkpt>
      <trkpt lat="48.37813" lon="2.69878">
        <ele>123</ele>
        <time>2026-02-08T09:29:49.486+00:00</time>
      </trkpt>
      <trkpt lat="48.37809" lon="2.69877">
        <ele>123</ele>
        <time>2026-02-08T09:29:53.992+00:00</time>
      </trkpt>
      <trkpt lat="48.37806" lon="2.69874">
        <ele>121</ele>
        <time>2026-02-08T09:29:58.586+00:00</time>
      </trkpt>
      <trkpt lat="48.37804" lon="2.6987">
        <ele>121</ele>
        <time>2026-02-08T09:30:02.622+00:00</time>
      </trkpt>
      <trkpt lat="48.37799" lon="2.69866">
        <ele>121</ele>
        <time>2026-02-08T09:30:06.802+00:00</time>
      </trkpt>
      <trkpt lat="48.37795" lon="2.69863">
        <ele>121</ele>
        <time>2026-02-08T09:30:11.443+00:00</time>
      </trkpt>
      <trkpt lat="48.37792" lon="2.69858">
        <ele>121</ele>
        <time>2026-02-08T09:30:15.992+00:00</time>
      </trkpt>
      <trkpt lat="48.37788" lon="2.6985">
        <ele>123</ele>
        <time>2026-02-08T09:30:29.502+00:00</time>
      </trkpt>
      <trkpt lat="48.37784" lon="2.69845">
        <ele>122</ele>
        <time>2026-02-08T09:30:33.992+00:00</time>
      </trkpt>
      <trkpt lat="48.3778" lon="2.6984">
        <ele>122</ele>
        <time>2026-02-08T09:30:38.186+00:00</time>
      </trkpt>
      <trkpt lat="48.37777" lon="2.69834">
        <ele>122</ele>
        <time>2026-02-08T09:30:42.993+00:00</time>
      </trkpt>
      <trkpt lat="48.37775" lon="2.69835">
        <ele>122</ele>
        <time>2026-02-08T09:30:47.682+00:00</time>
      </trkpt>
      <trkpt lat="48.37771" lon="2.69834">
        <ele>122</ele>
        <time>2026-02-08T09:30:51.982+00:00</time>
      </trkpt>
      <trkpt lat="48.37766" lon="2.69834">
        <ele>122</ele>
        <time>2026-02-08T09:30:55.993+00:00</time>
      </trkpt>
      <trkpt lat="48.3776" lon="2.69833">
        <ele>125</ele>
        <time>2026-02-08T09:31:00.993+00:00</time>
      </trkpt>
      <trkpt lat="48.37754" lon="2.69832">
        <ele>125</ele>
        <time>2026-02-08T09:31:05.347+00:00</time>
      </trkpt>
      <trkpt lat="48.3775" lon="2.69833">
        <ele>125</ele>
        <time>2026-02-08T09:31:09.605+00:00</time>
      </trkpt>
      <trkpt lat="48.37746" lon="2.69835">
        <ele>125</ele>
        <time>2026-02-08T09:31:13.993+00:00</time>
      </trkpt>
      <trkpt lat="48.37742" lon="2.69835">
        <ele>125</ele>
        <time>2026-02-08T09:31:17.993+00:00</time>
      </trkpt>
      <trkpt lat="48.37738" lon="2.69834">
        <ele>125</ele>
        <time>2026-02-08T09:31:22.462+00:00</time>
      </trkpt>
      <trkpt lat="48.37733" lon="2.69834">
        <ele>127</ele>
        <time>2026-02-08T09:31:26.761+00:00</time>
      </trkpt>
      <trkpt lat="48.37729" lon="2.69833">
        <ele>127</ele>
        <time>2026-02-08T09:31:30.993+00:00</time>
      </trkpt>
      <trkpt lat="48.37725" lon="2.69834">
        <ele>127</ele>
        <time>2026-02-08T09:31:35.445+00:00</time>
      </trkpt>
      <trkpt lat="48.37722" lon="2.69839">
        <ele>127</ele>
        <time>2026-02-08T09:31:39.506+00:00</time>
      </trkpt>
      <trkpt lat="48.37719" lon="2.69844">
        <ele>127</ele>
        <time>2026-02-08T09:31:43.993+00:00</time>
      </trkpt>
      <trkpt lat="48.37716" lon="2.69849">
        <ele>126</ele>
        <time>2026-02-08T09:31:48.747+00:00</time>
      </trkpt>
      <trkpt lat="48.37713" lon="2.69853">
        <ele>126</ele>
        <time>2026-02-08T09:31:53.002+00:00</time>
      </trkpt>
      <trkpt lat="48.37709" lon="2.69856">
        <ele>126</ele>
        <time>2026-02-08T09:31:57.686+00:00</time>
      </trkpt>
      <trkpt lat="48.37708" lon="2.69861">
        <ele>129</ele>
        <time>2026-02-08T09:32:01.992+00:00</time>
      </trkpt>
      <trkpt lat="48.37703" lon="2.69861">
        <ele>129</ele>
        <time>2026-02-08T09:32:06.164+00:00</time>
      </trkpt>
      <trkpt lat="48.37699" lon="2.69863">
        <ele>129</ele>
        <time>2026-02-08T09:32:10.567+00:00</time>
      </trkpt>
      <trkpt lat="48.37695" lon="2.69866">
        <ele>129</ele>
        <time>2026-02-08T09:32:14.722+00:00</time>
      </trkpt>
      <trkpt lat="48.37692" lon="2.6987">
        <ele>129</ele>
        <time>2026-02-08T09:32:18.884+00:00</time>
      </trkpt>
      <trkpt lat="48.3769" lon="2.69874">
        <ele>129</ele>
        <time>2026-02-08T09:32:23.009+00:00</time>
      </trkpt>
      <trkpt lat="48.37687" lon="2.69879">
        <ele>128</ele>
        <time>2026-02-08T09:32:27.926+00:00</time>
      </trkpt>
      <trkpt lat="48.37686" lon="2.69885">
        <ele>128</ele>
        <time>2026-02-08T09:32:32.183+00:00</time>
      </trkpt>
      <trkpt lat="48.37685" lon="2.69891">
        <ele>128</ele>
        <time>2026-02-08T09:32:36.619+00:00</time>
      </trkpt>
      <trkpt lat="48.37682" lon="2.69899">
        <ele>128</ele>
        <time>2026-02-08T09:32:41.346+00:00</time>
      </trkpt>
      <trkpt lat="48.3768" lon="2.69906">
        <ele>130</ele>
        <time>2026-02-08T09:32:45.561+00:00</time>
      </trkpt>
      <trkpt lat="48.37679" lon="2.69912">
        <ele>130</ele>
        <time>2026-02-08T09:32:49.723+00:00</time>
      </trkpt>
      <trkpt lat="48.37677" lon="2.69918">
        <ele>130</ele>
        <time>2026-02-08T09:32:53.920+00:00</time>
      </trkpt>
      <trkpt lat="48.37676" lon="2.69923">
        <ele>130</ele>
        <time>2026-02-08T09:32:58.305+00:00</time>
      </trkpt>
      <trkpt lat="48.37673" lon="2.69929">
        <ele>130</ele>
        <time>2026-02-08T09:33:02.527+00:00</time>
      </trkpt>
      <trkpt lat="48.37671" lon="2.69935">
        <ele>129</ele>
        <time>2026-02-08T09:33:06.650+00:00</time>
      </trkpt>
      <trkpt lat="48.37668" lon="2.69941">
        <ele>129</ele>
        <time>2026-02-08T09:33:10.982+00:00</time>
      </trkpt>
      <trkpt lat="48.37666" lon="2.69946">
        <ele>129</ele>
        <time>2026-02-08T09:33:14.986+00:00</time>
      </trkpt>
      <trkpt lat="48.37664" lon="2.69952">
        <ele>129</ele>
        <time>2026-02-08T09:33:19.426+00:00</time>
      </trkpt>
      <trkpt lat="48.37664" lon="2.69958">
        <ele>129</ele>
        <time>2026-02-08T09:33:23.992+00:00</time>
      </trkpt>
      <trkpt lat="48.37664" lon="2.69958">
        <ele>129</ele>
        <time>2026-02-08T09:33:33.903+00:00</time>
      </trkpt>
      <trkpt lat="48.37664" lon="2.69965">
        <ele>129</ele>
        <time>2026-02-08T09:33:38.766+00:00</time>
      </trkpt>
      <trkpt lat="48.37662" lon="2.69976">
        <ele>129</ele>
        <time>2026-02-08T09:33:42.993+00:00</time>
      </trkpt>
      <trkpt lat="48.37659" lon="2.69981">
        <ele>129</ele>
        <time>2026-02-08T09:33:47.903+00:00</time>
      </trkpt>
      <trkpt lat="48.37654" lon="2.69982">
        <ele>129</ele>
        <time>2026-02-08T09:33:52.006+00:00</time>
      </trkpt>
      <trkpt lat="48.37649" lon="2.69982">
        <ele>128</ele>
        <time>2026-02-08T09:33:56.544+00:00</time>
      </trkpt>
      <trkpt lat="48.37644" lon="2.69983">
        <ele>128</ele>
        <time>2026-02-08T09:34:00.905+00:00</time>
      </trkpt>
      <trkpt lat="48.3764" lon="2.69987">
        <ele>128</ele>
        <time>2026-02-08T09:34:04.993+00:00</time>
      </trkpt>
      <trkpt lat="48.37635" lon="2.69991">
        <ele>128</ele>
        <time>2026-02-08T09:34:08.993+00:00</time>
      </trkpt>
      <trkpt lat="48.37631" lon="2.69994">
        <ele>128</ele>
        <time>2026-02-08T09:34:12.993+00:00</time>
      </trkpt>
      <trkpt lat="48.37626" lon="2.69988">
        <ele>128</ele>
        <time>2026-02-08T09:34:17.845+00:00</time>
      </trkpt>
      <trkpt lat="48.37625" lon="2.69981">
        <ele>128</ele>
        <time>2026-02-08T09:34:21.993+00:00</time>
      </trkpt>
      <trkpt lat="48.37624" lon="2.69973">
        <ele>128</ele>
        <time>2026-02-08T09:34:26.623+00:00</time>
      </trkpt>
      <trkpt lat="48.37622" lon="2.69966">
        <ele>128</ele>
        <time>2026-02-08T09:34:31.161+00:00</time>
      </trkpt>
      <trkpt lat="48.3762" lon="2.69959">
        <ele>128</ele>
        <time>2026-02-08T09:34:35.581+00:00</time>
      </trkpt>
      <trkpt lat="48.37615" lon="2.69959">
        <ele>128</ele>
        <time>2026-02-08T09:34:39.992+00:00</time>
      </trkpt>
      <trkpt lat="48.37609" lon="2.69961">
        <ele>128</ele>
        <time>2026-02-08T09:34:44.992+00:00</time>
      </trkpt>
      <trkpt lat="48.37605" lon="2.69966">
        <ele>128</ele>
        <time>2026-02-08T09:34:49.127+00:00</time>
      </trkpt>
      <trkpt lat="48.37603" lon="2.69973">
        <ele>128</ele>
        <time>2026-02-08T09:34:53.417+00:00</time>
      </trkpt>
      <trkpt lat="48.37601" lon="2.69979">
        <ele>128</ele>
        <time>2026-02-08T09:34:57.504+00:00</time>
      </trkpt>
      <trkpt lat="48.37598" lon="2.69986">
        <ele>128</ele>
        <time>2026-02-08T09:35:01.762+00:00</time>
      </trkpt>
      <trkpt lat="48.37596" lon="2.69993">
        <ele>126</ele>
        <time>2026-02-08T09:35:06.418+00:00</time>
      </trkpt>
      <trkpt lat="48.37594" lon="2.7">
        <ele>126</ele>
        <time>2026-02-08T09:35:10.966+00:00</time>
      </trkpt>
      <trkpt lat="48.37591" lon="2.70006">
        <ele>126</ele>
        <time>2026-02-08T09:35:14.993+00:00</time>
      </trkpt>
      <trkpt lat="48.37585" lon="2.7001">
        <ele>126</ele>
        <time>2026-02-08T09:35:19.993+00:00</time>
      </trkpt>
      <trkpt lat="48.3758" lon="2.70011">
        <ele>126</ele>
        <time>2026-02-08T09:35:24.325+00:00</time>
      </trkpt>
      <trkpt lat="48.37575" lon="2.70011">
        <ele>126</ele>
        <time>2026-02-08T09:35:28.846+00:00</time>
      </trkpt>
      <trkpt lat="48.37569" lon="2.70011">
        <ele>124</ele>
        <time>2026-02-08T09:35:33.905+00:00</time>
      </trkpt>
      <trkpt lat="48.37565" lon="2.70012">
        <ele>124</ele>
        <time>2026-02-08T09:35:37.993+00:00</time>
      </trkpt>
      <trkpt lat="48.37561" lon="2.70013">
        <ele>124</ele>
        <time>2026-02-08T09:35:41.993+00:00</time>
      </trkpt>
      <trkpt lat="48.37556" lon="2.70015">
        <ele>125</ele>
        <time>2026-02-08T09:35:46.786+00:00</time>
      </trkpt>
      <trkpt lat="48.37552" lon="2.70015">
        <ele>125</ele>
        <time>2026-02-08T09:35:50.992+00:00</time>
      </trkpt>
      <trkpt lat="48.37546" lon="2.70016">
        <ele>125</ele>
        <time>2026-02-08T09:35:55.992+00:00</time>
      </trkpt>
      <trkpt lat="48.37542" lon="2.70014">
        <ele>125</ele>
        <time>2026-02-08T09:35:59.992+00:00</time>
      </trkpt>
      <trkpt lat="48.37541" lon="2.7001">
        <ele>124</ele>
        <time>2026-02-08T09:36:04.240+00:00</time>
      </trkpt>
      <trkpt lat="48.37537" lon="2.70006">
        <ele>124</ele>
        <time>2026-02-08T09:36:08.968+00:00</time>
      </trkpt>
      <trkpt lat="48.37533" lon="2.70005">
        <ele>124</ele>
        <time>2026-02-08T09:36:12.992+00:00</time>
      </trkpt>
      <trkpt lat="48.37528" lon="2.70004">
        <ele>124</ele>
        <time>2026-02-08T09:36:17.625+00:00</time>
      </trkpt>
      <trkpt lat="48.37524" lon="2.70004">
        <ele>124</ele>
        <time>2026-02-08T09:36:21.924+00:00</time>
      </trkpt>
      <trkpt lat="48.3752" lon="2.70004">
        <ele>124</ele>
        <time>2026-02-08T09:36:26.881+00:00</time>
      </trkpt>
      <trkpt lat="48.37515" lon="2.70006">
        <ele>124</ele>
        <time>2026-02-08T09:36:30.992+00:00</time>
      </trkpt>
      <trkpt lat="48.37509" lon="2.70004">
        <ele>126</ele>
        <time>2026-02-08T09:36:35.993+00:00</time>
      </trkpt>
      <trkpt lat="48.37504" lon="2.7">
        <ele>126</ele>
        <time>2026-02-08T09:36:40.992+00:00</time>
      </trkpt>
      <trkpt lat="48.37498" lon="2.70001">
        <ele>126</ele>
        <time>2026-02-08T09:36:45.844+00:00</time>
      </trkpt>
      <trkpt lat="48.37496" lon="2.70008">
        <ele>126</ele>
        <time>2026-02-08T09:36:50.008+00:00</time>
      </trkpt>
      <trkpt lat="48.37495" lon="2.70014">
        <ele>126</ele>
        <time>2026-02-08T09:36:53.993+00:00</time>
      </trkpt>
      <trkpt lat="48.37492" lon="2.70021">
        <ele>126</ele>
        <time>2026-02-08T09:36:58.406+00:00</time>
      </trkpt>
      <trkpt lat="48.3749" lon="2.70028">
        <ele>126</ele>
        <time>2026-02-08T09:37:02.564+00:00</time>
      </trkpt>
      <trkpt lat="48.37488" lon="2.70035">
        <ele>126</ele>
        <time>2026-02-08T09:37:06.993+00:00</time>
      </trkpt>
      <trkpt lat="48.37486" lon="2.70043">
        <ele>127</ele>
        <time>2026-02-08T09:37:11.992+00:00</time>
      </trkpt>
      <trkpt lat="48.37483" lon="2.70051">
        <ele>127</ele>
        <time>2026-02-08T09:37:16.726+00:00</time>
      </trkpt>
      <trkpt lat="48.3748" lon="2.70057">
        <ele>127</ele>
        <time>2026-02-08T09:37:20.993+00:00</time>
      </trkpt>
      <trkpt lat="48.37477" lon="2.70064">
        <ele>127</ele>
        <time>2026-02-08T09:37:25.785+00:00</time>
      </trkpt>
      <trkpt lat="48.37475" lon="2.70072">
        <ele>126</ele>
        <time>2026-02-08T09:37:30.460+00:00</time>
      </trkpt>
      <trkpt lat="48.37472" lon="2.70079">
        <ele>126</ele>
        <time>2026-02-08T09:37:34.993+00:00</time>
      </trkpt>
      <trkpt lat="48.3747" lon="2.70087">
        <ele>126</ele>
        <time>2026-02-08T09:37:39.826+00:00</time>
      </trkpt>
      <trkpt lat="48.37468" lon="2.70094">
        <ele>126</ele>
        <time>2026-02-08T09:37:43.993+00:00</time>
      </trkpt>
      <trkpt lat="48.37464" lon="2.70099">
        <ele>124</ele>
        <time>2026-02-08T09:37:48.783+00:00</time>
      </trkpt>
      <trkpt lat="48.3746" lon="2.70101">
        <ele>124</ele>
        <time>2026-02-08T09:37:52.981+00:00</time>
      </trkpt>
      <trkpt lat="48.37454" lon="2.70099">
        <ele>126</ele>
        <time>2026-02-08T09:37:57.993+00:00</time>
      </trkpt>
      <trkpt lat="48.3745" lon="2.70098">
        <ele>126</ele>
        <time>2026-02-08T09:38:02.084+00:00</time>
      </trkpt>
      <trkpt lat="48.37444" lon="2.70098">
        <ele>126</ele>
        <time>2026-02-08T09:38:06.706+00:00</time>
      </trkpt>
      <trkpt lat="48.3744" lon="2.70097">
        <ele>127</ele>
        <time>2026-02-08T09:38:11.992+00:00</time>
      </trkpt>
      <trkpt lat="48.37436" lon="2.70096">
        <ele>127</ele>
        <time>2026-02-08T09:38:16.621+00:00</time>
      </trkpt>
      <trkpt lat="48.37432" lon="2.70097">
        <ele>127</ele>
        <time>2026-02-08T09:38:20.885+00:00</time>
      </trkpt>
      <trkpt lat="48.37428" lon="2.70099">
        <ele>128</ele>
        <time>2026-02-08T09:38:25.346+00:00</time>
      </trkpt>
      <trkpt lat="48.37423" lon="2.70101">
        <ele>128</ele>
        <time>2026-02-08T09:38:29.992+00:00</time>
      </trkpt>
      <trkpt lat="48.37419" lon="2.70102">
        <ele>128</ele>
        <time>2026-02-08T09:38:34.627+00:00</time>
      </trkpt>
      <trkpt lat="48.37414" lon="2.70101">
        <ele>128</ele>
        <time>2026-02-08T09:38:39.993+00:00</time>
      </trkpt>
      <trkpt lat="48.37409" lon="2.701">
        <ele>128</ele>
        <time>2026-02-08T09:38:44.907+00:00</time>
      </trkpt>
      <trkpt lat="48.37404" lon="2.701">
        <ele>128</ele>
        <time>2026-02-08T09:38:49.411+00:00</time>
      </trkpt>
      <trkpt lat="48.374" lon="2.701">
        <ele>129</ele>
        <time>2026-02-08T09:38:53.993+00:00</time>
      </trkpt>
      <trkpt lat="48.37395" lon="2.70099">
        <ele>129</ele>
        <time>2026-02-08T09:38:58.043+00:00</time>
      </trkpt>
      <trkpt lat="48.3739" lon="2.70099">
        <ele>129</ele>
        <time>2026-02-08T09:39:02.566+00:00</time>
      </trkpt>
      <trkpt lat="48.37385" lon="2.701">
        <ele>129</ele>
        <time>2026-02-08T09:39:06.993+00:00</time>
      </trkpt>
      <trkpt lat="48.37379" lon="2.70099">
        <ele>129</ele>
        <time>2026-02-08T09:39:11.702+00:00</time>
      </trkpt>
      <trkpt lat="48.37374" lon="2.70098">
        <ele>130</ele>
        <time>2026-02-08T09:39:15.993+00:00</time>
      </trkpt>
      <trkpt lat="48.37369" lon="2.70099">
        <ele>130</ele>
        <time>2026-02-08T09:39:20.522+00:00</time>
      </trkpt>
      <trkpt lat="48.37363" lon="2.70101">
        <ele>130</ele>
        <time>2026-02-08T09:39:24.992+00:00</time>
      </trkpt>
      <trkpt lat="48.37358" lon="2.70101">
        <ele>130</ele>
        <time>2026-02-08T09:39:29.727+00:00</time>
      </trkpt>
      <trkpt lat="48.37353" lon="2.70102">
        <ele>130</ele>
        <time>2026-02-08T09:39:33.966+00:00</time>
      </trkpt>
      <trkpt lat="48.37348" lon="2.70103">
        <ele>130</ele>
        <time>2026-02-08T09:39:37.993+00:00</time>
      </trkpt>
      <trkpt lat="48.37343" lon="2.70103">
        <ele>130</ele>
        <time>2026-02-08T09:39:42.864+00:00</time>
      </trkpt>
      <trkpt lat="48.37338" lon="2.70104">
        <ele>130</ele>
        <time>2026-02-08T09:39:46.984+00:00</time>
      </trkpt>
      <trkpt lat="48.37334" lon="2.70105">
        <ele>130</ele>
        <time>2026-02-08T09:39:50.992+00:00</time>
      </trkpt>
      <trkpt lat="48.37328" lon="2.70104">
        <ele>130</ele>
        <time>2026-02-08T09:39:55.992+00:00</time>
      </trkpt>
      <trkpt lat="48.37322" lon="2.70104">
        <ele>130</ele>
        <time>2026-02-08T09:40:00.863+00:00</time>
      </trkpt>
      <trkpt lat="48.37317" lon="2.70103">
        <ele>130</ele>
        <time>2026-02-08T09:40:04.993+00:00</time>
      </trkpt>
      <trkpt lat="48.37312" lon="2.70103">
        <ele>130</ele>
        <time>2026-02-08T09:40:09.564+00:00</time>
      </trkpt>
      <trkpt lat="48.37307" lon="2.70104">
        <ele>130</ele>
        <time>2026-02-08T09:40:13.882+00:00</time>
      </trkpt>
      <trkpt lat="48.37302" lon="2.70105">
        <ele>130</ele>
        <time>2026-02-08T09:40:17.993+00:00</time>
      </trkpt>
      <trkpt lat="48.37296" lon="2.70108">
        <ele>130</ele>
        <time>2026-02-08T09:40:22.993+00:00</time>
      </trkpt>
      <trkpt lat="48.37292" lon="2.70109">
        <ele>131</ele>
        <time>2026-02-08T09:40:27.282+00:00</time>
      </trkpt>
      <trkpt lat="48.37285" lon="2.70107">
        <ele>131</ele>
        <time>2026-02-08T09:41:00.970+00:00</time>
      </trkpt>
      <trkpt lat="48.37283" lon="2.70104">
        <ele>131</ele>
        <time>2026-02-08T09:41:04.993+00:00</time>
      </trkpt>
      <trkpt lat="48.37281" lon="2.70096">
        <ele>129</ele>
        <time>2026-02-08T09:41:09.534+00:00</time>
      </trkpt>
      <trkpt lat="48.37279" lon="2.70089">
        <ele>129</ele>
        <time>2026-02-08T09:41:13.993+00:00</time>
      </trkpt>
      <trkpt lat="48.37277" lon="2.70083">
        <ele>129</ele>
        <time>2026-02-08T09:41:18.992+00:00</time>
      </trkpt>
      <trkpt lat="48.3727" lon="2.70069">
        <ele>128</ele>
        <time>2026-02-08T09:43:23.992+00:00</time>
      </trkpt>
      <trkpt lat="48.37269" lon="2.70067">
        <ele>128</ele>
        <time>2026-02-08T09:43:28.993+00:00</time>
      </trkpt>
      <trkpt lat="48.37269" lon="2.70066">
        <ele>128</ele>
        <time>2026-02-08T09:43:33.993+00:00</time>
      </trkpt>
      <trkpt lat="48.37269" lon="2.70066">
        <ele>128</ele>
        <time>2026-02-08T09:43:37.993+00:00</time>
      </trkpt>
      <trkpt lat="48.37268" lon="2.70065">
        <ele>128</ele>
        <time>2026-02-08T09:43:42.992+00:00</time>
      </trkpt>
      <trkpt lat="48.37266" lon="2.70064">
        <ele>128</ele>
        <time>2026-02-08T09:44:05.993+00:00</time>
      </trkpt>
      <trkpt lat="48.37266" lon="2.70063">
        <ele>128</ele>
        <time>2026-02-08T09:44:09.993+00:00</time>
      </trkpt>
      <trkpt lat="48.37264" lon="2.70062">
        <ele>128</ele>
        <time>2026-02-08T09:44:14.494+00:00</time>
      </trkpt>
      <trkpt lat="48.37262" lon="2.70058">
        <ele>130</ele>
        <time>2026-02-08T09:44:18.954+00:00</time>
      </trkpt>
      <trkpt lat="48.3726" lon="2.70052">
        <ele>130</ele>
        <time>2026-02-08T09:44:23.993+00:00</time>
      </trkpt>
      <trkpt lat="48.37259" lon="2.70049">
        <ele>130</ele>
        <time>2026-02-08T09:44:27.993+00:00</time>
      </trkpt>
      <trkpt lat="48.37258" lon="2.70047">
        <ele>130</ele>
        <time>2026-02-08T09:44:32.809+00:00</time>
      </trkpt>
      <trkpt lat="48.37256" lon="2.70043">
        <ele>130</ele>
        <time>2026-02-08T09:44:37.210+00:00</time>
      </trkpt>
      <trkpt lat="48.37252" lon="2.70037">
        <ele>129</ele>
        <time>2026-02-08T09:44:41.993+00:00</time>
      </trkpt>
      <trkpt lat="48.37249" lon="2.70032">
        <ele>129</ele>
        <time>2026-02-08T09:44:46.910+00:00</time>
      </trkpt>
      <trkpt lat="48.37246" lon="2.70028">
        <ele>129</ele>
        <time>2026-02-08T09:44:51.993+00:00</time>
      </trkpt>
      <trkpt lat="48.37242" lon="2.70024">
        <ele>129</ele>
        <time>2026-02-08T09:44:56.549+00:00</time>
      </trkpt>
      <trkpt lat="48.3724" lon="2.70018">
        <ele>129</ele>
        <time>2026-02-08T09:45:00.992+00:00</time>
      </trkpt>
      <trkpt lat="48.37238" lon="2.70013">
        <ele>129</ele>
        <time>2026-02-08T09:45:05.694+00:00</time>
      </trkpt>
      <trkpt lat="48.37235" lon="2.70009">
        <ele>129</ele>
        <time>2026-02-08T09:45:09.993+00:00</time>
      </trkpt>
      <trkpt lat="48.37232" lon="2.70004">
        <ele>129</ele>
        <time>2026-02-08T09:45:14.490+00:00</time>
      </trkpt>
      <trkpt lat="48.37228" lon="2.7">
        <ele>129</ele>
        <time>2026-02-08T09:45:18.992+00:00</time>
      </trkpt>
      <trkpt lat="48.37226" lon="2.69994">
        <ele>129</ele>
        <time>2026-02-08T09:45:23.677+00:00</time>
      </trkpt>
      <trkpt lat="48.37223" lon="2.69988">
        <ele>129</ele>
        <time>2026-02-08T09:45:28.574+00:00</time>
      </trkpt>
      <trkpt lat="48.3722" lon="2.69983">
        <ele>129</ele>
        <time>2026-02-08T09:45:32.693+00:00</time>
      </trkpt>
      <trkpt lat="48.37217" lon="2.69979">
        <ele>129</ele>
        <time>2026-02-08T09:45:36.935+00:00</time>
      </trkpt>
      <trkpt lat="48.37214" lon="2.69974">
        <ele>129</ele>
        <time>2026-02-08T09:45:41.855+00:00</time>
      </trkpt>
      <trkpt lat="48.3721" lon="2.69967">
        <ele>129</ele>
        <time>2026-02-08T09:45:46.854+00:00</time>
      </trkpt>
      <trkpt lat="48.37207" lon="2.69961">
        <ele>129</ele>
        <time>2026-02-08T09:45:51.871+00:00</time>
      </trkpt>
      <trkpt lat="48.37203" lon="2.69956">
        <ele>129</ele>
        <time>2026-02-08T09:45:55.976+00:00</time>
      </trkpt>
      <trkpt lat="48.372" lon="2.69951">
        <ele>129</ele>
        <time>2026-02-08T09:45:59.992+00:00</time>
      </trkpt>
      <trkpt lat="48.37197" lon="2.69945">
        <ele>129</ele>
        <time>2026-02-08T09:46:04.889+00:00</time>
      </trkpt>
      <trkpt lat="48.37194" lon="2.69939">
        <ele>129</ele>
        <time>2026-02-08T09:46:09.992+00:00</time>
      </trkpt>
      <trkpt lat="48.3719" lon="2.69933">
        <ele>129</ele>
        <time>2026-02-08T09:46:14.555+00:00</time>
      </trkpt>
      <trkpt lat="48.37186" lon="2.69927">
        <ele>129</ele>
        <time>2026-02-08T09:46:18.993+00:00</time>
      </trkpt>
      <trkpt lat="48.37183" lon="2.69922">
        <ele>129</ele>
        <time>2026-02-08T09:46:23.093+00:00</time>
      </trkpt>
      <trkpt lat="48.37179" lon="2.69917">
        <ele>129</ele>
        <time>2026-02-08T09:46:27.513+00:00</time>
      </trkpt>
      <trkpt lat="48.37176" lon="2.69912">
        <ele>129</ele>
        <time>2026-02-08T09:46:31.573+00:00</time>
      </trkpt>
      <trkpt lat="48.37172" lon="2.69906">
        <ele>129</ele>
        <time>2026-02-08T09:46:35.915+00:00</time>
      </trkpt>
      <trkpt lat="48.3717" lon="2.699">
        <ele>128</ele>
        <time>2026-02-08T09:46:40.098+00:00</time>
      </trkpt>
      <trkpt lat="48.37166" lon="2.69894">
        <ele>128</ele>
        <time>2026-02-08T09:46:44.514+00:00</time>
      </trkpt>
      <trkpt lat="48.37163" lon="2.69888">
        <ele>128</ele>
        <time>2026-02-08T09:46:48.890+00:00</time>
      </trkpt>
      <trkpt lat="48.37161" lon="2.69884">
        <ele>128</ele>
        <time>2026-02-08T09:46:52.993+00:00</time>
      </trkpt>
      <trkpt lat="48.37157" lon="2.69876">
        <ele>128</ele>
        <time>2026-02-08T09:46:57.993+00:00</time>
      </trkpt>
      <trkpt lat="48.37153" lon="2.6987">
        <ele>128</ele>
        <time>2026-02-08T09:47:02.874+00:00</time>
      </trkpt>
      <trkpt lat="48.37149" lon="2.69865">
        <ele>128</ele>
        <time>2026-02-08T09:47:07.813+00:00</time>
      </trkpt>
      <trkpt lat="48.37146" lon="2.69858">
        <ele>128</ele>
        <time>2026-02-08T09:47:11.993+00:00</time>
      </trkpt>
      <trkpt lat="48.37142" lon="2.69851">
        <ele>128</ele>
        <time>2026-02-08T09:47:16.557+00:00</time>
      </trkpt>
      <trkpt lat="48.37138" lon="2.69845">
        <ele>128</ele>
        <time>2026-02-08T09:47:20.856+00:00</time>
      </trkpt>
      <trkpt lat="48.37134" lon="2.6984">
        <ele>128</ele>
        <time>2026-02-08T09:47:24.950+00:00</time>
      </trkpt>
      <trkpt lat="48.37131" lon="2.69835">
        <ele>128</ele>
        <time>2026-02-08T09:47:28.993+00:00</time>
      </trkpt>
      <trkpt lat="48.37127" lon="2.69829">
        <ele>128</ele>
        <time>2026-02-08T09:47:33.549+00:00</time>
      </trkpt>
      <trkpt lat="48.37124" lon="2.69823">
        <ele>130</ele>
        <time>2026-02-08T09:47:37.837+00:00</time>
      </trkpt>
      <trkpt lat="48.3712" lon="2.6982">
        <ele>130</ele>
        <time>2026-02-08T09:47:41.992+00:00</time>
      </trkpt>
      <trkpt lat="48.37115" lon="2.69814">
        <ele>130</ele>
        <time>2026-02-08T09:47:46.993+00:00</time>
      </trkpt>
      <trkpt lat="48.37111" lon="2.6981">
        <ele>130</ele>
        <time>2026-02-08T09:47:51.293+00:00</time>
      </trkpt>
      <trkpt lat="48.37108" lon="2.69805">
        <ele>130</ele>
        <time>2026-02-08T09:47:55.516+00:00</time>
      </trkpt>
      <trkpt lat="48.37104" lon="2.69799">
        <ele>130</ele>
        <time>2026-02-08T09:47:59.733+00:00</time>
      </trkpt>
      <trkpt lat="48.37101" lon="2.69793">
        <ele>130</ele>
        <time>2026-02-08T09:48:03.996+00:00</time>
      </trkpt>
      <trkpt lat="48.37098" lon="2.69787">
        <ele>130</ele>
        <time>2026-02-08T09:48:07.993+00:00</time>
      </trkpt>
      <trkpt lat="48.37094" lon="2.69782">
        <ele>131</ele>
        <time>2026-02-08T09:48:12.356+00:00</time>
      </trkpt>
      <trkpt lat="48.37091" lon="2.69777">
        <ele>131</ele>
        <time>2026-02-08T09:48:16.570+00:00</time>
      </trkpt>
      <trkpt lat="48.37087" lon="2.69772">
        <ele>131</ele>
        <time>2026-02-08T09:48:20.992+00:00</time>
      </trkpt>
      <trkpt lat="48.37083" lon="2.69766">
        <ele>131</ele>
        <time>2026-02-08T09:48:25.992+00:00</time>
      </trkpt>
      <trkpt lat="48.37079" lon="2.69758">
        <ele>130</ele>
        <time>2026-02-08T09:48:30.993+00:00</time>
      </trkpt>
      <trkpt lat="48.37075" lon="2.69753">
        <ele>130</ele>
        <time>2026-02-08T09:48:35.628+00:00</time>
      </trkpt>
      <trkpt lat="48.3707" lon="2.6975">
        <ele>130</ele>
        <time>2026-02-08T09:48:39.993+00:00</time>
      </trkpt>
      <trkpt lat="48.37067" lon="2.69743">
        <ele>130</ele>
        <time>2026-02-08T09:48:44.628+00:00</time>
      </trkpt>
      <trkpt lat="48.37063" lon="2.69738">
        <ele>130</ele>
        <time>2026-02-08T09:48:48.992+00:00</time>
      </trkpt>
      <trkpt lat="48.37058" lon="2.69733">
        <ele>128</ele>
        <time>2026-02-08T09:48:53.697+00:00</time>
      </trkpt>
      <trkpt lat="48.37055" lon="2.69727">
        <ele>128</ele>
        <time>2026-02-08T09:48:57.992+00:00</time>
      </trkpt>
      <trkpt lat="48.37051" lon="2.69721">
        <ele>128</ele>
        <time>2026-02-08T09:49:02.595+00:00</time>
      </trkpt>
      <trkpt lat="48.37048" lon="2.69714">
        <ele>128</ele>
        <time>2026-02-08T09:49:06.993+00:00</time>
      </trkpt>
      <trkpt lat="48.37044" lon="2.69708">
        <ele>127</ele>
        <time>2026-02-08T09:49:11.654+00:00</time>
      </trkpt>
      <trkpt lat="48.37039" lon="2.69705">
        <ele>125</ele>
        <time>2026-02-08T09:49:15.991+00:00</time>
      </trkpt>
      <trkpt lat="48.37037" lon="2.69698">
        <ele>125</ele>
        <time>2026-02-08T09:49:20.733+00:00</time>
      </trkpt>
      <trkpt lat="48.37034" lon="2.6969">
        <ele>125</ele>
        <time>2026-02-08T09:49:25.493+00:00</time>
      </trkpt>
      <trkpt lat="48.37032" lon="2.69684">
        <ele>125</ele>
        <time>2026-02-08T09:49:29.991+00:00</time>
      </trkpt>
      <trkpt lat="48.37029" lon="2.69678">
        <ele>124</ele>
        <time>2026-02-08T09:49:34.654+00:00</time>
      </trkpt>
      <trkpt lat="48.37026" lon="2.69672">
        <ele>124</ele>
        <time>2026-02-08T09:49:38.992+00:00</time>
      </trkpt>
      <trkpt lat="48.37022" lon="2.69668">
        <ele>124</ele>
        <time>2026-02-08T09:49:42.991+00:00</time>
      </trkpt>
      <trkpt lat="48.37017" lon="2.69663">
        <ele>124</ele>
        <time>2026-02-08T09:49:47.415+00:00</time>
      </trkpt>
      <trkpt lat="48.37014" lon="2.69656">
        <ele>124</ele>
        <time>2026-02-08T09:49:51.433+00:00</time>
      </trkpt>
      <trkpt lat="48.37013" lon="2.69648">
        <ele>123</ele>
        <time>2026-02-08T09:49:55.991+00:00</time>
      </trkpt>
      <trkpt lat="48.37009" lon="2.69642">
        <ele>123</ele>
        <time>2026-02-08T09:50:00.614+00:00</time>
      </trkpt>
      <trkpt lat="48.37005" lon="2.69636">
        <ele>123</ele>
        <time>2026-02-08T09:50:04.913+00:00</time>
      </trkpt>
      <trkpt lat="48.37002" lon="2.6963">
        <ele>123</ele>
        <time>2026-02-08T09:50:09.434+00:00</time>
      </trkpt>
      <trkpt lat="48.36999" lon="2.69622">
        <ele>122</ele>
        <time>2026-02-08T09:50:13.810+00:00</time>
      </trkpt>
      <trkpt lat="48.36995" lon="2.69614">
        <ele>122</ele>
        <time>2026-02-08T09:50:18.953+00:00</time>
      </trkpt>
      <trkpt lat="48.36991" lon="2.69608">
        <ele>122</ele>
        <time>2026-02-08T09:50:22.989+00:00</time>
      </trkpt>
      <trkpt lat="48.36987" lon="2.69604">
        <ele>122</ele>
        <time>2026-02-08T09:50:26.992+00:00</time>
      </trkpt>
      <trkpt lat="48.36983" lon="2.69599">
        <ele>121</ele>
        <time>2026-02-08T09:50:31.289+00:00</time>
      </trkpt>
      <trkpt lat="48.36978" lon="2.69595">
        <ele>120</ele>
        <time>2026-02-08T09:50:35.495+00:00</time>
      </trkpt>
      <trkpt lat="48.36974" lon="2.69589">
        <ele>120</ele>
        <time>2026-02-08T09:50:39.991+00:00</time>
      </trkpt>
      <trkpt lat="48.3697" lon="2.69584">
        <ele>120</ele>
        <time>2026-02-08T09:50:43.992+00:00</time>
      </trkpt>
      <trkpt lat="48.36965" lon="2.69579">
        <ele>120</ele>
        <time>2026-02-08T09:50:48.496+00:00</time>
      </trkpt>
      <trkpt lat="48.36962" lon="2.69574">
        <ele>120</ele>
        <time>2026-02-08T09:50:52.698+00:00</time>
      </trkpt>
      <trkpt lat="48.36959" lon="2.69568">
        <ele>118</ele>
        <time>2026-02-08T09:50:56.991+00:00</time>
      </trkpt>
      <trkpt lat="48.36954" lon="2.69563">
        <ele>113</ele>
        <time>2026-02-08T09:51:01.991+00:00</time>
      </trkpt>
      <trkpt lat="48.36951" lon="2.69557">
        <ele>113</ele>
        <time>2026-02-08T09:51:06.991+00:00</time>
      </trkpt>
      <trkpt lat="48.36946" lon="2.69552">
        <ele>113</ele>
        <time>2026-02-08T09:51:11.454+00:00</time>
      </trkpt>
      <trkpt lat="48.36943" lon="2.69545">
        <ele>113</ele>
        <time>2026-02-08T09:51:15.513+00:00</time>
      </trkpt>
      <trkpt lat="48.36939" lon="2.6954">
        <ele>111</ele>
        <time>2026-02-08T09:51:19.991+00:00</time>
      </trkpt>
      <trkpt lat="48.36934" lon="2.69535">
        <ele>111</ele>
        <time>2026-02-08T09:51:24.931+00:00</time>
      </trkpt>
      <trkpt lat="48.3693" lon="2.69528">
        <ele>111</ele>
        <time>2026-02-08T09:51:29.614+00:00</time>
      </trkpt>
      <trkpt lat="48.36925" lon="2.69521">
        <ele>111</ele>
        <time>2026-02-08T09:51:33.991+00:00</time>
      </trkpt>
      <trkpt lat="48.36921" lon="2.69514">
        <ele>111</ele>
        <time>2026-02-08T09:51:38.854+00:00</time>
      </trkpt>
      <trkpt lat="48.36917" lon="2.69507">
        <ele>111</ele>
        <time>2026-02-08T09:51:43.374+00:00</time>
      </trkpt>
      <trkpt lat="48.36913" lon="2.69502">
        <ele>111</ele>
        <time>2026-02-08T09:51:47.515+00:00</time>
      </trkpt>
      <trkpt lat="48.36909" lon="2.69499">
        <ele>111</ele>
        <time>2026-02-08T09:51:51.870+00:00</time>
      </trkpt>
      <trkpt lat="48.36906" lon="2.69494">
        <ele>111</ele>
        <time>2026-02-08T09:51:55.992+00:00</time>
      </trkpt>
      <trkpt lat="48.36903" lon="2.69489">
        <ele>111</ele>
        <time>2026-02-08T09:52:00.992+00:00</time>
      </trkpt>
      <trkpt lat="48.36901" lon="2.69483">
        <ele>113</ele>
        <time>2026-02-08T09:52:05.530+00:00</time>
      </trkpt>
      <trkpt lat="48.36898" lon="2.69479">
        <ele>113</ele>
        <time>2026-02-08T09:52:09.932+00:00</time>
      </trkpt>
      <trkpt lat="48.36895" lon="2.69475">
        <ele>113</ele>
        <time>2026-02-08T09:52:14.992+00:00</time>
      </trkpt>
      <trkpt lat="48.3689" lon="2.69469">
        <ele>113</ele>
        <time>2026-02-08T09:52:19.689+00:00</time>
      </trkpt>
      <trkpt lat="48.36886" lon="2.69464">
        <ele>113</ele>
        <time>2026-02-08T09:52:23.973+00:00</time>
      </trkpt>
      <trkpt lat="48.36882" lon="2.69459">
        <ele>113</ele>
        <time>2026-02-08T09:52:28.075+00:00</time>
      </trkpt>
      <trkpt lat="48.36878" lon="2.69456">
        <ele>114</ele>
        <time>2026-02-08T09:52:32.810+00:00</time>
      </trkpt>
      <trkpt lat="48.36874" lon="2.6945">
        <ele>117</ele>
        <time>2026-02-08T09:52:36.992+00:00</time>
      </trkpt>
      <trkpt lat="48.36871" lon="2.69444">
        <ele>117</ele>
        <time>2026-02-08T09:52:41.093+00:00</time>
      </trkpt>
      <trkpt lat="48.36866" lon="2.69441">
        <ele>117</ele>
        <time>2026-02-08T09:52:45.513+00:00</time>
      </trkpt>
      <trkpt lat="48.36861" lon="2.69438">
        <ele>117</ele>
        <time>2026-02-08T09:52:49.992+00:00</time>
      </trkpt>
      <trkpt lat="48.36857" lon="2.69442">
        <ele>117</ele>
        <time>2026-02-08T09:52:54.648+00:00</time>
      </trkpt>
      <trkpt lat="48.36857" lon="2.69453">
        <ele>117</ele>
        <time>2026-02-08T09:52:59.511+00:00</time>
      </trkpt>
      <trkpt lat="48.36857" lon="2.6946">
        <ele>117</ele>
        <time>2026-02-08T09:53:03.750+00:00</time>
      </trkpt>
      <trkpt lat="48.36857" lon="2.69467">
        <ele>117</ele>
        <time>2026-02-08T09:53:07.771+00:00</time>
      </trkpt>
      <trkpt lat="48.36857" lon="2.69473">
        <ele>117</ele>
        <time>2026-02-08T09:53:11.974+00:00</time>
      </trkpt>
      <trkpt lat="48.36857" lon="2.69477">
        <ele>117</ele>
        <time>2026-02-08T09:53:15.992+00:00</time>
      </trkpt>
      <trkpt lat="48.36857" lon="2.6948">
        <ele>117</ele>
        <time>2026-02-08T09:53:20.913+00:00</time>
      </trkpt>
      <trkpt lat="48.36857" lon="2.69486">
        <ele>117</ele>
        <time>2026-02-08T09:53:26.018+00:00</time>
      </trkpt>
      <trkpt lat="48.36856" lon="2.69492">
        <ele>115</ele>
        <time>2026-02-08T09:53:29.991+00:00</time>
      </trkpt>
      <trkpt lat="48.36854" lon="2.69499">
        <ele>115</ele>
        <time>2026-02-08T09:53:34.674+00:00</time>
      </trkpt>
      <trkpt lat="48.36853" lon="2.69504">
        <ele>115</ele>
        <time>2026-02-08T09:53:38.828+00:00</time>
      </trkpt>
      <trkpt lat="48.36853" lon="2.69511">
        <ele>115</ele>
        <time>2026-02-08T09:53:43.614+00:00</time>
      </trkpt>
      <trkpt lat="48.36853" lon="2.69518">
        <ele>112</ele>
        <time>2026-02-08T09:53:47.931+00:00</time>
      </trkpt>
      <trkpt lat="48.36853" lon="2.69523">
        <ele>112</ele>
        <time>2026-02-08T09:53:51.991+00:00</time>
      </trkpt>
      <trkpt lat="48.36851" lon="2.69529">
        <ele>112</ele>
        <time>2026-02-08T09:53:56.315+00:00</time>
      </trkpt>
      <trkpt lat="48.36851" lon="2.69537">
        <ele>112</ele>
        <time>2026-02-08T09:54:00.873+00:00</time>
      </trkpt>
      <trkpt lat="48.36851" lon="2.69545">
        <ele>111</ele>
        <time>2026-02-08T09:54:05.529+00:00</time>
      </trkpt>
      <trkpt lat="48.36851" lon="2.69552">
        <ele>111</ele>
        <time>2026-02-08T09:54:09.888+00:00</time>
      </trkpt>
      <trkpt lat="48.3685" lon="2.6956">
        <ele>111</ele>
        <time>2026-02-08T09:54:13.992+00:00</time>
      </trkpt>
      <trkpt lat="48.36849" lon="2.69566">
        <ele>111</ele>
        <time>2026-02-08T09:54:18.514+00:00</time>
      </trkpt>
      <trkpt lat="48.36849" lon="2.69573">
        <ele>111</ele>
        <time>2026-02-08T09:54:22.992+00:00</time>
      </trkpt>
      <trkpt lat="48.36848" lon="2.6958">
        <ele>111</ele>
        <time>2026-02-08T09:54:27.555+00:00</time>
      </trkpt>
      <trkpt lat="48.36848" lon="2.69588">
        <ele>111</ele>
        <time>2026-02-08T09:54:31.770+00:00</time>
      </trkpt>
      <trkpt lat="48.36848" lon="2.69595">
        <ele>111</ele>
        <time>2026-02-08T09:54:35.991+00:00</time>
      </trkpt>
      <trkpt lat="48.36848" lon="2.69603">
        <ele>113</ele>
        <time>2026-02-08T09:54:40.695+00:00</time>
      </trkpt>
      <trkpt lat="48.36847" lon="2.6961">
        <ele>117</ele>
        <time>2026-02-08T09:54:44.992+00:00</time>
      </trkpt>
      <trkpt lat="48.36846" lon="2.69619">
        <ele>117</ele>
        <time>2026-02-08T09:54:49.991+00:00</time>
      </trkpt>
      <trkpt lat="48.36846" lon="2.69626">
        <ele>118</ele>
        <time>2026-02-08T09:54:54.033+00:00</time>
      </trkpt>
      <trkpt lat="48.36845" lon="2.69634">
        <ele>118</ele>
        <time>2026-02-08T09:54:58.814+00:00</time>
      </trkpt>
      <trkpt lat="48.36844" lon="2.69642">
        <ele>118</ele>
        <time>2026-02-08T09:55:02.950+00:00</time>
      </trkpt>
      <trkpt lat="48.36844" lon="2.69649">
        <ele>118</ele>
        <time>2026-02-08T09:55:06.992+00:00</time>
      </trkpt>
      <trkpt lat="48.36843" lon="2.69658">
        <ele>117</ele>
        <time>2026-02-08T09:55:11.633+00:00</time>
      </trkpt>
      <trkpt lat="48.36842" lon="2.69666">
        <ele>117</ele>
        <time>2026-02-08T09:55:15.976+00:00</time>
      </trkpt>
      <trkpt lat="48.36841" lon="2.69672">
        <ele>117</ele>
        <time>2026-02-08T09:55:19.991+00:00</time>
      </trkpt>
      <trkpt lat="48.36841" lon="2.6968">
        <ele>117</ele>
        <time>2026-02-08T09:55:24.454+00:00</time>
      </trkpt>
      <trkpt lat="48.3684" lon="2.69687">
        <ele>116</ele>
        <time>2026-02-08T09:55:28.473+00:00</time>
      </trkpt>
      <trkpt lat="48.3684" lon="2.69695">
        <ele>116</ele>
        <time>2026-02-08T09:55:32.774+00:00</time>
      </trkpt>
      <trkpt lat="48.36841" lon="2.69703">
        <ele>116</ele>
        <time>2026-02-08T09:55:37.311+00:00</time>
      </trkpt>
      <trkpt lat="48.36841" lon="2.69712">
        <ele>115</ele>
        <time>2026-02-08T09:55:41.969+00:00</time>
      </trkpt>
      <trkpt lat="48.3684" lon="2.69721">
        <ele>115</ele>
        <time>2026-02-08T09:55:46.634+00:00</time>
      </trkpt>
      <trkpt lat="48.36839" lon="2.69729">
        <ele>115</ele>
        <time>2026-02-08T09:55:50.992+00:00</time>
      </trkpt>
      <trkpt lat="48.36838" lon="2.69738">
        <ele>116</ele>
        <time>2026-02-08T09:55:55.991+00:00</time>
      </trkpt>
      <trkpt lat="48.36837" lon="2.69746">
        <ele>116</ele>
        <time>2026-02-08T09:56:00.088+00:00</time>
      </trkpt>
      <trkpt lat="48.36837" lon="2.69754">
        <ele>116</ele>
        <time>2026-02-08T09:56:04.208+00:00</time>
      </trkpt>
      <trkpt lat="48.36837" lon="2.69762">
        <ele>116</ele>
        <time>2026-02-08T09:56:08.567+00:00</time>
      </trkpt>
      <trkpt lat="48.36836" lon="2.69769">
        <ele>117</ele>
        <time>2026-02-08T09:56:12.991+00:00</time>
      </trkpt>
      <trkpt lat="48.36834" lon="2.69777">
        <ele>117</ele>
        <time>2026-02-08T09:56:17.328+00:00</time>
      </trkpt>
      <trkpt lat="48.36833" lon="2.69785">
        <ele>117</ele>
        <time>2026-02-08T09:56:21.991+00:00</time>
      </trkpt>
      <trkpt lat="48.36833" lon="2.69794">
        <ele>118</ele>
        <time>2026-02-08T09:56:26.942+00:00</time>
      </trkpt>
      <trkpt lat="48.36833" lon="2.698">
        <ele>118</ele>
        <time>2026-02-08T09:56:30.992+00:00</time>
      </trkpt>
      <trkpt lat="48.36833" lon="2.69808">
        <ele>118</ele>
        <time>2026-02-08T09:56:35.626+00:00</time>
      </trkpt>
      <trkpt lat="48.36832" lon="2.69815">
        <ele>118</ele>
        <time>2026-02-08T09:56:39.986+00:00</time>
      </trkpt>
      <trkpt lat="48.36831" lon="2.69821">
        <ele>120</ele>
        <time>2026-02-08T09:56:43.991+00:00</time>
      </trkpt>
      <trkpt lat="48.36826" lon="2.69826">
        <ele>120</ele>
        <time>2026-02-08T09:56:48.992+00:00</time>
      </trkpt>
      <trkpt lat="48.36821" lon="2.69826">
        <ele>120</ele>
        <time>2026-02-08T09:56:53.644+00:00</time>
      </trkpt>
      <trkpt lat="48.36816" lon="2.69824">
        <ele>124</ele>
        <time>2026-02-08T09:56:57.992+00:00</time>
      </trkpt>
      <trkpt lat="48.36811" lon="2.69824">
        <ele>124</ele>
        <time>2026-02-08T09:57:02.991+00:00</time>
      </trkpt>
      <trkpt lat="48.36806" lon="2.69824">
        <ele>124</ele>
        <time>2026-02-08T09:57:07.316+00:00</time>
      </trkpt>
      <trkpt lat="48.36801" lon="2.69824">
        <ele>124</ele>
        <time>2026-02-08T09:57:11.806+00:00</time>
      </trkpt>
      <trkpt lat="48.36797" lon="2.69824">
        <ele>124</ele>
        <time>2026-02-08T09:57:16.088+00:00</time>
      </trkpt>
      <trkpt lat="48.36792" lon="2.69824">
        <ele>124</ele>
        <time>2026-02-08T09:57:20.465+00:00</time>
      </trkpt>
      <trkpt lat="48.36787" lon="2.69825">
        <ele>126</ele>
        <time>2026-02-08T09:57:24.613+00:00</time>
      </trkpt>
      <trkpt lat="48.36783" lon="2.69823">
        <ele>126</ele>
        <time>2026-02-08T09:57:28.969+00:00</time>
      </trkpt>
      <trkpt lat="48.36779" lon="2.69823">
        <ele>126</ele>
        <time>2026-02-08T09:57:32.992+00:00</time>
      </trkpt>
      <trkpt lat="48.36774" lon="2.69823">
        <ele>126</ele>
        <time>2026-02-08T09:57:37.330+00:00</time>
      </trkpt>
      <trkpt lat="48.3677" lon="2.69825">
        <ele>126</ele>
        <time>2026-02-08T09:57:41.992+00:00</time>
      </trkpt>
      <trkpt lat="48.36766" lon="2.69824">
        <ele>126</ele>
        <time>2026-02-08T09:57:45.991+00:00</time>
      </trkpt>
      <trkpt lat="48.36762" lon="2.69824">
        <ele>127</ele>
        <time>2026-02-08T09:57:50.842+00:00</time>
      </trkpt>
      <trkpt lat="48.36758" lon="2.69824">
        <ele>127</ele>
        <time>2026-02-08T09:57:55.466+00:00</time>
      </trkpt>
      <trkpt lat="48.36753" lon="2.69825">
        <ele>127</ele>
        <time>2026-02-08T09:57:59.842+00:00</time>
      </trkpt>
      <trkpt lat="48.3675" lon="2.69824">
        <ele>127</ele>
        <time>2026-02-08T09:58:03.992+00:00</time>
      </trkpt>
      <trkpt lat="48.36746" lon="2.69823">
        <ele>127</ele>
        <time>2026-02-08T09:58:08.083+00:00</time>
      </trkpt>
      <trkpt lat="48.36742" lon="2.69821">
        <ele>127</ele>
        <time>2026-02-08T09:58:12.629+00:00</time>
      </trkpt>
      <trkpt lat="48.36739" lon="2.6982">
        <ele>127</ele>
        <time>2026-02-08T09:58:16.725+00:00</time>
      </trkpt>
      <trkpt lat="48.36736" lon="2.69819">
        <ele>127</ele>
        <time>2026-02-08T09:58:20.828+00:00</time>
      </trkpt>
      <trkpt lat="48.36732" lon="2.69821">
        <ele>128</ele>
        <time>2026-02-08T09:58:25.503+00:00</time>
      </trkpt>
      <trkpt lat="48.36727" lon="2.69824">
        <ele>128</ele>
        <time>2026-02-08T09:58:29.991+00:00</time>
      </trkpt>
      <trkpt lat="48.36723" lon="2.69824">
        <ele>128</ele>
        <time>2026-02-08T09:58:34.290+00:00</time>
      </trkpt>
      <trkpt lat="48.36719" lon="2.69823">
        <ele>128</ele>
        <time>2026-02-08T09:58:38.563+00:00</time>
      </trkpt>
      <trkpt lat="48.36715" lon="2.69823">
        <ele>128</ele>
        <time>2026-02-08T09:58:42.684+00:00</time>
      </trkpt>
      <trkpt lat="48.36711" lon="2.69822">
        <ele>128</ele>
        <time>2026-02-08T09:58:46.992+00:00</time>
      </trkpt>
      <trkpt lat="48.36706" lon="2.69823">
        <ele>130</ele>
        <time>2026-02-08T09:58:51.786+00:00</time>
      </trkpt>
      <trkpt lat="48.36701" lon="2.69824">
        <ele>130</ele>
        <time>2026-02-08T09:58:55.992+00:00</time>
      </trkpt>
      <trkpt lat="48.36697" lon="2.69824">
        <ele>130</ele>
        <time>2026-02-08T09:58:59.993+00:00</time>
      </trkpt>
      <trkpt lat="48.36692" lon="2.69824">
        <ele>130</ele>
        <time>2026-02-08T09:59:04.462+00:00</time>
      </trkpt>
      <trkpt lat="48.36687" lon="2.69823">
        <ele>130</ele>
        <time>2026-02-08T09:59:08.992+00:00</time>
      </trkpt>
      <trkpt lat="48.36682" lon="2.69823">
        <ele>130</ele>
        <time>2026-02-08T09:59:13.949+00:00</time>
      </trkpt>
      <trkpt lat="48.36677" lon="2.69822">
        <ele>133</ele>
        <time>2026-02-08T09:59:18.401+00:00</time>
      </trkpt>
      <trkpt lat="48.36672" lon="2.69822">
        <ele>133</ele>
        <time>2026-02-08T09:59:22.905+00:00</time>
      </trkpt>
      <trkpt lat="48.36667" lon="2.69822">
        <ele>133</ele>
        <time>2026-02-08T09:59:26.992+00:00</time>
      </trkpt>
      <trkpt lat="48.36661" lon="2.69822">
        <ele>133</ele>
        <time>2026-02-08T09:59:31.847+00:00</time>
      </trkpt>
      <trkpt lat="48.36656" lon="2.69822">
        <ele>133</ele>
        <time>2026-02-08T09:59:36.992+00:00</time>
      </trkpt>
      <trkpt lat="48.36651" lon="2.69823">
        <ele>134</ele>
        <time>2026-02-08T09:59:41.410+00:00</time>
      </trkpt>
      <trkpt lat="48.36646" lon="2.69822">
        <ele>134</ele>
        <time>2026-02-08T09:59:45.992+00:00</time>
      </trkpt>
      <trkpt lat="48.36641" lon="2.69821">
        <ele>134</ele>
        <time>2026-02-08T09:59:50.991+00:00</time>
      </trkpt>
      <trkpt lat="48.36635" lon="2.69821">
        <ele>134</ele>
        <time>2026-02-08T09:59:55.767+00:00</time>
      </trkpt>
      <trkpt lat="48.3663" lon="2.69821">
        <ele>134</ele>
        <time>2026-02-08T09:59:59.991+00:00</time>
      </trkpt>
      <trkpt lat="48.36625" lon="2.69821">
        <ele>134</ele>
        <time>2026-02-08T10:00:04.468+00:00</time>
      </trkpt>
      <trkpt lat="48.36621" lon="2.69821">
        <ele>135</ele>
        <time>2026-02-08T10:00:08.529+00:00</time>
      </trkpt>
      <trkpt lat="48.36615" lon="2.69822">
        <ele>135</ele>
        <time>2026-02-08T10:00:13.011+00:00</time>
      </trkpt>
      <trkpt lat="48.3661" lon="2.69821">
        <ele>135</ele>
        <time>2026-02-08T10:00:17.992+00:00</time>
      </trkpt>
      <trkpt lat="48.36604" lon="2.69822">
        <ele>135</ele>
        <time>2026-02-08T10:00:22.827+00:00</time>
      </trkpt>
      <trkpt lat="48.36597" lon="2.69823">
        <ele>135</ele>
        <time>2026-02-08T10:00:27.991+00:00</time>
      </trkpt>
      <trkpt lat="48.36592" lon="2.69823">
        <ele>135</ele>
        <time>2026-02-08T10:00:32.364+00:00</time>
      </trkpt>
      <trkpt lat="48.36588" lon="2.69822">
        <ele>135</ele>
        <time>2026-02-08T10:00:36.929+00:00</time>
      </trkpt>
      <trkpt lat="48.36584" lon="2.69822">
        <ele>135</ele>
        <time>2026-02-08T10:00:40.991+00:00</time>
      </trkpt>
      <trkpt lat="48.36578" lon="2.69823">
        <ele>135</ele>
        <time>2026-02-08T10:00:45.991+00:00</time>
      </trkpt>
      <trkpt lat="48.36572" lon="2.69823">
        <ele>135</ele>
        <time>2026-02-08T10:00:50.785+00:00</time>
      </trkpt>
      <trkpt lat="48.36567" lon="2.69824">
        <ele>135</ele>
        <time>2026-02-08T10:00:54.991+00:00</time>
      </trkpt>
      <trkpt lat="48.36562" lon="2.69824">
        <ele>135</ele>
        <time>2026-02-08T10:00:59.510+00:00</time>
      </trkpt>
      <trkpt lat="48.36557" lon="2.69824">
        <ele>135</ele>
        <time>2026-02-08T10:01:03.605+00:00</time>
      </trkpt>
      <trkpt lat="48.36552" lon="2.69824">
        <ele>135</ele>
        <time>2026-02-08T10:01:07.965+00:00</time>
      </trkpt>
      <trkpt lat="48.36547" lon="2.69824">
        <ele>135</ele>
        <time>2026-02-08T10:01:11.992+00:00</time>
      </trkpt>
      <trkpt lat="48.36541" lon="2.69822">
        <ele>135</ele>
        <time>2026-02-08T10:01:16.992+00:00</time>
      </trkpt>
      <trkpt lat="48.36536" lon="2.69821">
        <ele>135</ele>
        <time>2026-02-08T10:01:21.904+00:00</time>
      </trkpt>
      <trkpt lat="48.3653" lon="2.69824">
        <ele>135</ele>
        <time>2026-02-08T10:01:25.992+00:00</time>
      </trkpt>
      <trkpt lat="48.36524" lon="2.69826">
        <ele>135</ele>
        <time>2026-02-08T10:01:30.992+00:00</time>
      </trkpt>
      <trkpt lat="48.36519" lon="2.69827">
        <ele>135</ele>
        <time>2026-02-08T10:01:35.784+00:00</time>
      </trkpt>
      <trkpt lat="48.36513" lon="2.69827">
        <ele>134</ele>
        <time>2026-02-08T10:01:39.991+00:00</time>
      </trkpt>
      <trkpt lat="48.36508" lon="2.69827">
        <ele>134</ele>
        <time>2026-02-08T10:01:44.443+00:00</time>
      </trkpt>
      <trkpt lat="48.36503" lon="2.69828">
        <ele>134</ele>
        <time>2026-02-08T10:01:48.606+00:00</time>
      </trkpt>
      <trkpt lat="48.36498" lon="2.69827">
        <ele>134</ele>
        <time>2026-02-08T10:01:52.992+00:00</time>
      </trkpt>
      <trkpt lat="48.36492" lon="2.69827">
        <ele>134</ele>
        <time>2026-02-08T10:01:57.930+00:00</time>
      </trkpt>
      <trkpt lat="48.36487" lon="2.69825">
        <ele>134</ele>
        <time>2026-02-08T10:02:01.991+00:00</time>
      </trkpt>
      <trkpt lat="48.36481" lon="2.69824">
        <ele>134</ele>
        <time>2026-02-08T10:02:06.590+00:00</time>
      </trkpt>
      <trkpt lat="48.36475" lon="2.69823">
        <ele>134</ele>
        <time>2026-02-08T10:02:10.992+00:00</time>
      </trkpt>
      <trkpt lat="48.3647" lon="2.69824">
        <ele>134</ele>
        <time>2026-02-08T10:02:15.590+00:00</time>
      </trkpt>
      <trkpt lat="48.36465" lon="2.69825">
        <ele>134</ele>
        <time>2026-02-08T10:02:19.991+00:00</time>
      </trkpt>
      <trkpt lat="48.36459" lon="2.69826">
        <ele>134</ele>
        <time>2026-02-08T10:02:24.623+00:00</time>
      </trkpt>
      <trkpt lat="48.36454" lon="2.69826">
        <ele>134</ele>
        <time>2026-02-08T10:02:28.625+00:00</time>
      </trkpt>
      <trkpt lat="48.36448" lon="2.69825">
        <ele>134</ele>
        <time>2026-02-08T10:02:33.862+00:00</time>
      </trkpt>
      <trkpt lat="48.36443" lon="2.69824">
        <ele>134</ele>
        <time>2026-02-08T10:02:37.991+00:00</time>
      </trkpt>
      <trkpt lat="48.36437" lon="2.69822">
        <ele>134</ele>
        <time>2026-02-08T10:02:43.008+00:00</time>
      </trkpt>
      <trkpt lat="48.36431" lon="2.69822">
        <ele>134</ele>
        <time>2026-02-08T10:02:47.725+00:00</time>
      </trkpt>
      <trkpt lat="48.36426" lon="2.69821">
        <ele>135</ele>
        <time>2026-02-08T10:02:51.991+00:00</time>
      </trkpt>
      <trkpt lat="48.3642" lon="2.69821">
        <ele>135</ele>
        <time>2026-02-08T10:02:57.014+00:00</time>
      </trkpt>
      <trkpt lat="48.36414" lon="2.69823">
        <ele>135</ele>
        <time>2026-02-08T10:03:01.707+00:00</time>
      </trkpt>
      <trkpt lat="48.36408" lon="2.69824">
        <ele>135</ele>
        <time>2026-02-08T10:03:06.427+00:00</time>
      </trkpt>
      <trkpt lat="48.36404" lon="2.69825">
        <ele>135</ele>
        <time>2026-02-08T10:03:10.529+00:00</time>
      </trkpt>
      <trkpt lat="48.36399" lon="2.69827">
        <ele>137</ele>
        <time>2026-02-08T10:03:14.966+00:00</time>
      </trkpt>
      <trkpt lat="48.36394" lon="2.69829">
        <ele>137</ele>
        <time>2026-02-08T10:03:19.331+00:00</time>
      </trkpt>
      <trkpt lat="48.36389" lon="2.69829">
        <ele>137</ele>
        <time>2026-02-08T10:03:23.890+00:00</time>
      </trkpt>
      <trkpt lat="48.36384" lon="2.69829">
        <ele>137</ele>
        <time>2026-02-08T10:03:28.992+00:00</time>
      </trkpt>
      <trkpt lat="48.3638" lon="2.69826">
        <ele>137</ele>
        <time>2026-02-08T10:03:33.444+00:00</time>
      </trkpt>
      <trkpt lat="48.36379" lon="2.69829">
        <ele>137</ele>
        <time>2026-02-08T10:03:50.992+00:00</time>
      </trkpt>
      <trkpt lat="48.36379" lon="2.69829">
        <ele>137</ele>
        <time>2026-02-08T10:03:56.992+00:00</time>
      </trkpt>
      <trkpt lat="48.36378" lon="2.69829">
        <ele>137</ele>
        <time>2026-02-08T10:04:00.992+00:00</time>
      </trkpt>
      <trkpt lat="48.36374" lon="2.69828">
        <ele>137</ele>
        <time>2026-02-08T10:04:05.445+00:00</time>
      </trkpt>
      <trkpt lat="48.36369" lon="2.69828">
        <ele>137</ele>
        <time>2026-02-08T10:04:09.991+00:00</time>
      </trkpt>
      <trkpt lat="48.36366" lon="2.69828">
        <ele>137</ele>
        <time>2026-02-08T10:04:14.684+00:00</time>
      </trkpt>
      <trkpt lat="48.36363" lon="2.69827">
        <ele>137</ele>
        <time>2026-02-08T10:04:18.708+00:00</time>
      </trkpt>
      <trkpt lat="48.36359" lon="2.69826">
        <ele>137</ele>
        <time>2026-02-08T10:04:23.898+00:00</time>
      </trkpt>
      <trkpt lat="48.36354" lon="2.69826">
        <ele>137</ele>
        <time>2026-02-08T10:04:28.522+00:00</time>
      </trkpt>
      <trkpt lat="48.3635" lon="2.69827">
        <ele>137</ele>
        <time>2026-02-08T10:04:32.833+00:00</time>
      </trkpt>
      <trkpt lat="48.36346" lon="2.69827">
        <ele>137</ele>
        <time>2026-02-08T10:04:37.343+00:00</time>
      </trkpt>
      <trkpt lat="48.36341" lon="2.69826">
        <ele>137</ele>
        <time>2026-02-08T10:04:41.992+00:00</time>
      </trkpt>
      <trkpt lat="48.36336" lon="2.69826">
        <ele>137</ele>
        <time>2026-02-08T10:04:46.164+00:00</time>
      </trkpt>
      <trkpt lat="48.3633" lon="2.69826">
        <ele>137</ele>
        <time>2026-02-08T10:04:50.507+00:00</time>
      </trkpt>
      <trkpt lat="48.36325" lon="2.69826">
        <ele>137</ele>
        <time>2026-02-08T10:04:54.704+00:00</time>
      </trkpt>
      <trkpt lat="48.3632" lon="2.69825">
        <ele>137</ele>
        <time>2026-02-08T10:04:58.992+00:00</time>
      </trkpt>
      <trkpt lat="48.36314" lon="2.69824">
        <ele>135</ele>
        <time>2026-02-08T10:05:03.992+00:00</time>
      </trkpt>
      <trkpt lat="48.36308" lon="2.69824">
        <ele>135</ele>
        <time>2026-02-08T10:05:08.823+00:00</time>
      </trkpt>
      <trkpt lat="48.36303" lon="2.69826">
        <ele>135</ele>
        <time>2026-02-08T10:05:13.583+00:00</time>
      </trkpt>
      <trkpt lat="48.36297" lon="2.69826">
        <ele>135</ele>
        <time>2026-02-08T10:05:18.404+00:00</time>
      </trkpt>
      <trkpt lat="48.36291" lon="2.69826">
        <ele>134</ele>
        <time>2026-02-08T10:05:22.926+00:00</time>
      </trkpt>
      <trkpt lat="48.36285" lon="2.69827">
        <ele>134</ele>
        <time>2026-02-08T10:05:27.762+00:00</time>
      </trkpt>
      <trkpt lat="48.3628" lon="2.69828">
        <ele>134</ele>
        <time>2026-02-08T10:05:32.787+00:00</time>
      </trkpt>
      <trkpt lat="48.36275" lon="2.69829">
        <ele>134</ele>
        <time>2026-02-08T10:05:36.992+00:00</time>
      </trkpt>
      <trkpt lat="48.3627" lon="2.69829">
        <ele>134</ele>
        <time>2026-02-08T10:05:41.745+00:00</time>
      </trkpt>
      <trkpt lat="48.36265" lon="2.69828">
        <ele>134</ele>
        <time>2026-02-08T10:05:45.991+00:00</time>
      </trkpt>
      <trkpt lat="48.36261" lon="2.69829">
        <ele>135</ele>
        <time>2026-02-08T10:05:49.992+00:00</time>
      </trkpt>
      <trkpt lat="48.36256" lon="2.69829">
        <ele>135</ele>
        <time>2026-02-08T10:05:54.568+00:00</time>
      </trkpt>
      <trkpt lat="48.36251" lon="2.69829">
        <ele>135</ele>
        <time>2026-02-08T10:05:58.929+00:00</time>
      </trkpt>
      <trkpt lat="48.36246" lon="2.69828">
        <ele>135</ele>
        <time>2026-02-08T10:06:03.422+00:00</time>
      </trkpt>
      <trkpt lat="48.36242" lon="2.69828">
        <ele>135</ele>
        <time>2026-02-08T10:06:07.991+00:00</time>
      </trkpt>
      <trkpt lat="48.36236" lon="2.69828">
        <ele>135</ele>
        <time>2026-02-08T10:06:12.992+00:00</time>
      </trkpt>
      <trkpt lat="48.36231" lon="2.69829">
        <ele>135</ele>
        <time>2026-02-08T10:06:17.346+00:00</time>
      </trkpt>
      <trkpt lat="48.36225" lon="2.69828">
        <ele>135</ele>
        <time>2026-02-08T10:06:21.910+00:00</time>
      </trkpt>
      <trkpt lat="48.3622" lon="2.69829">
        <ele>135</ele>
        <time>2026-02-08T10:06:26.866+00:00</time>
      </trkpt>
      <trkpt lat="48.36214" lon="2.69831">
        <ele>135</ele>
        <time>2026-02-08T10:06:31.806+00:00</time>
      </trkpt>
      <trkpt lat="48.36208" lon="2.69833">
        <ele>135</ele>
        <time>2026-02-08T10:06:36.848+00:00</time>
      </trkpt>
      <trkpt lat="48.36203" lon="2.69835">
        <ele>135</ele>
        <time>2026-02-08T10:06:41.429+00:00</time>
      </trkpt>
      <trkpt lat="48.36198" lon="2.69836">
        <ele>135</ele>
        <time>2026-02-08T10:06:45.686+00:00</time>
      </trkpt>
      <trkpt lat="48.36193" lon="2.69835">
        <ele>135</ele>
        <time>2026-02-08T10:06:49.992+00:00</time>
      </trkpt>
      <trkpt lat="48.36188" lon="2.6983">
        <ele>135</ele>
        <time>2026-02-08T10:06:54.482+00:00</time>
      </trkpt>
      <trkpt lat="48.36182" lon="2.69828">
        <ele>135</ele>
        <time>2026-02-08T10:06:58.731+00:00</time>
      </trkpt>
      <trkpt lat="48.36178" lon="2.69826">
        <ele>134</ele>
        <time>2026-02-08T10:07:02.992+00:00</time>
      </trkpt>
      <trkpt lat="48.36172" lon="2.69825">
        <ele>134</ele>
        <time>2026-02-08T10:07:07.509+00:00</time>
      </trkpt>
      <trkpt lat="48.36167" lon="2.69827">
        <ele>134</ele>
        <time>2026-02-08T10:07:11.783+00:00</time>
      </trkpt>
      <trkpt lat="48.36162" lon="2.69828">
        <ele>134</ele>
        <time>2026-02-08T10:07:15.989+00:00</time>
      </trkpt>
      <trkpt lat="48.36157" lon="2.6983">
        <ele>134</ele>
        <time>2026-02-08T10:07:20.663+00:00</time>
      </trkpt>
      <trkpt lat="48.36151" lon="2.69832">
        <ele>133</ele>
        <time>2026-02-08T10:07:25.604+00:00</time>
      </trkpt>
      <trkpt lat="48.36147" lon="2.69831">
        <ele>133</ele>
        <time>2026-02-08T10:07:29.992+00:00</time>
      </trkpt>
      <trkpt lat="48.36141" lon="2.69829">
        <ele>133</ele>
        <time>2026-02-08T10:07:34.604+00:00</time>
      </trkpt>
      <trkpt lat="48.36136" lon="2.69829">
        <ele>133</ele>
        <time>2026-02-08T10:07:38.992+00:00</time>
      </trkpt>
      <trkpt lat="48.3613" lon="2.69828">
        <ele>133</ele>
        <time>2026-02-08T10:07:43.826+00:00</time>
      </trkpt>
      <trkpt lat="48.36125" lon="2.69829">
        <ele>134</ele>
        <time>2026-02-08T10:07:47.887+00:00</time>
      </trkpt>
      <trkpt lat="48.36119" lon="2.69829">
        <ele>134</ele>
        <time>2026-02-08T10:07:52.407+00:00</time>
      </trkpt>
      <trkpt lat="48.36114" lon="2.6983">
        <ele>134</ele>
        <time>2026-02-08T10:07:56.992+00:00</time>
      </trkpt>
      <trkpt lat="48.36109" lon="2.69834">
        <ele>134</ele>
        <time>2026-02-08T10:08:01.587+00:00</time>
      </trkpt>
      <trkpt lat="48.36108" lon="2.69842">
        <ele>134</ele>
        <time>2026-02-08T10:08:05.991+00:00</time>
      </trkpt>
      <trkpt lat="48.36111" lon="2.69852">
        <ele>136</ele>
        <time>2026-02-08T10:08:10.991+00:00</time>
      </trkpt>
      <trkpt lat="48.36112" lon="2.6986">
        <ele>136</ele>
        <time>2026-02-08T10:08:15.408+00:00</time>
      </trkpt>
      <trkpt lat="48.36112" lon="2.69869">
        <ele>136</ele>
        <time>2026-02-08T10:08:19.991+00:00</time>
      </trkpt>
      <trkpt lat="48.36113" lon="2.69878">
        <ele>137</ele>
        <time>2026-02-08T10:08:24.869+00:00</time>
      </trkpt>
      <trkpt lat="48.36113" lon="2.69886">
        <ele>137</ele>
        <time>2026-02-08T10:08:28.990+00:00</time>
      </trkpt>
      <trkpt lat="48.36114" lon="2.69894">
        <ele>137</ele>
        <time>2026-02-08T10:08:33.690+00:00</time>
      </trkpt>
      <trkpt lat="48.36114" lon="2.69901">
        <ele>137</ele>
        <time>2026-02-08T10:08:37.964+00:00</time>
      </trkpt>
      <trkpt lat="48.36114" lon="2.69908">
        <ele>138</ele>
        <time>2026-02-08T10:08:41.990+00:00</time>
      </trkpt>
      <trkpt lat="48.36115" lon="2.69916">
        <ele>138</ele>
        <time>2026-02-08T10:08:46.308+00:00</time>
      </trkpt>
      <trkpt lat="48.36114" lon="2.69923">
        <ele>138</ele>
        <time>2026-02-08T10:08:50.342+00:00</time>
      </trkpt>
      <trkpt lat="48.36114" lon="2.69931">
        <ele>138</ele>
        <time>2026-02-08T10:08:54.583+00:00</time>
      </trkpt>
      <trkpt lat="48.36114" lon="2.69939">
        <ele>138</ele>
        <time>2026-02-08T10:08:58.990+00:00</time>
      </trkpt>
      <trkpt lat="48.36114" lon="2.69947">
        <ele>138</ele>
        <time>2026-02-08T10:09:03.643+00:00</time>
      </trkpt>
      <trkpt lat="48.36114" lon="2.69956">
        <ele>138</ele>
        <time>2026-02-08T10:09:07.990+00:00</time>
      </trkpt>
      <trkpt lat="48.36116" lon="2.69964">
        <ele>138</ele>
        <time>2026-02-08T10:09:12.847+00:00</time>
      </trkpt>
      <trkpt lat="48.36118" lon="2.69971">
        <ele>138</ele>
        <time>2026-02-08T10:09:16.991+00:00</time>
      </trkpt>
      <trkpt lat="48.36118" lon="2.6998">
        <ele>138</ele>
        <time>2026-02-08T10:09:21.526+00:00</time>
      </trkpt>
      <trkpt lat="48.36118" lon="2.69987">
        <ele>138</ele>
        <time>2026-02-08T10:09:25.763+00:00</time>
      </trkpt>
      <trkpt lat="48.36118" lon="2.69995">
        <ele>138</ele>
        <time>2026-02-08T10:09:30.448+00:00</time>
      </trkpt>
      <trkpt lat="48.36117" lon="2.70004">
        <ele>138</ele>
        <time>2026-02-08T10:09:34.990+00:00</time>
      </trkpt>
      <trkpt lat="48.36118" lon="2.70013">
        <ele>138</ele>
        <time>2026-02-08T10:09:39.968+00:00</time>
      </trkpt>
      <trkpt lat="48.36119" lon="2.7002">
        <ele>137</ele>
        <time>2026-02-08T10:09:43.990+00:00</time>
      </trkpt>
      <trkpt lat="48.36122" lon="2.70028">
        <ele>137</ele>
        <time>2026-02-08T10:09:48.568+00:00</time>
      </trkpt>
      <trkpt lat="48.36123" lon="2.70035">
        <ele>137</ele>
        <time>2026-02-08T10:09:52.944+00:00</time>
      </trkpt>
      <trkpt lat="48.36123" lon="2.70043">
        <ele>137</ele>
        <time>2026-02-08T10:09:57.670+00:00</time>
      </trkpt>
      <trkpt lat="48.36124" lon="2.7005">
        <ele>137</ele>
        <time>2026-02-08T10:10:01.748+00:00</time>
      </trkpt>
      <trkpt lat="48.36124" lon="2.70057">
        <ele>137</ele>
        <time>2026-02-08T10:10:05.991+00:00</time>
      </trkpt>
      <trkpt lat="48.36125" lon="2.70066">
        <ele>137</ele>
        <time>2026-02-08T10:10:10.569+00:00</time>
      </trkpt>
      <trkpt lat="48.36125" lon="2.70073">
        <ele>137</ele>
        <time>2026-02-08T10:10:14.605+00:00</time>
      </trkpt>
      <trkpt lat="48.36124" lon="2.70081">
        <ele>137</ele>
        <time>2026-02-08T10:10:18.989+00:00</time>
      </trkpt>
      <trkpt lat="48.36124" lon="2.70088">
        <ele>137</ele>
        <time>2026-02-08T10:10:22.991+00:00</time>
      </trkpt>
      <trkpt lat="48.36124" lon="2.70097">
        <ele>137</ele>
        <time>2026-02-08T10:10:27.443+00:00</time>
      </trkpt>
      <trkpt lat="48.36125" lon="2.70104">
        <ele>135</ele>
        <time>2026-02-08T10:10:31.564+00:00</time>
      </trkpt>
      <trkpt lat="48.36127" lon="2.70113">
        <ele>135</ele>
        <time>2026-02-08T10:10:35.991+00:00</time>
      </trkpt>
      <trkpt lat="48.36127" lon="2.70122">
        <ele>135</ele>
        <time>2026-02-08T10:10:40.948+00:00</time>
      </trkpt>
      <trkpt lat="48.36128" lon="2.70129">
        <ele>135</ele>
        <time>2026-02-08T10:10:44.990+00:00</time>
      </trkpt>
      <trkpt lat="48.36128" lon="2.70138">
        <ele>135</ele>
        <time>2026-02-08T10:10:49.889+00:00</time>
      </trkpt>
      <trkpt lat="48.36129" lon="2.70146">
        <ele>135</ele>
        <time>2026-02-08T10:10:53.991+00:00</time>
      </trkpt>
      <trkpt lat="48.36129" lon="2.70155">
        <ele>136</ele>
        <time>2026-02-08T10:10:58.659+00:00</time>
      </trkpt>
      <trkpt lat="48.36129" lon="2.70162">
        <ele>136</ele>
        <time>2026-02-08T10:11:02.991+00:00</time>
      </trkpt>
      <trkpt lat="48.3613" lon="2.70171">
        <ele>136</ele>
        <time>2026-02-08T10:11:08.001+00:00</time>
      </trkpt>
      <trkpt lat="48.36131" lon="2.70178">
        <ele>136</ele>
        <time>2026-02-08T10:11:12.098+00:00</time>
      </trkpt>
      <trkpt lat="48.36132" lon="2.70185">
        <ele>136</ele>
        <time>2026-02-08T10:11:16.990+00:00</time>
      </trkpt>
      <trkpt lat="48.36133" lon="2.7019">
        <ele>136</ele>
        <time>2026-02-08T10:11:21.984+00:00</time>
      </trkpt>
      <trkpt lat="48.36131" lon="2.70194">
        <ele>136</ele>
        <time>2026-02-08T10:11:26.718+00:00</time>
      </trkpt>
      <trkpt lat="48.36125" lon="2.70195">
        <ele>136</ele>
        <time>2026-02-08T10:11:31.803+00:00</time>
      </trkpt>
      <trkpt lat="48.36119" lon="2.70193">
        <ele>137</ele>
        <time>2026-02-08T10:11:36.521+00:00</time>
      </trkpt>
      <trkpt lat="48.36114" lon="2.70192">
        <ele>137</ele>
        <time>2026-02-08T10:11:40.990+00:00</time>
      </trkpt>
      <trkpt lat="48.36108" lon="2.70191">
        <ele>137</ele>
        <time>2026-02-08T10:11:45.991+00:00</time>
      </trkpt>
      <trkpt lat="48.36103" lon="2.70192">
        <ele>137</ele>
        <time>2026-02-08T10:11:50.563+00:00</time>
      </trkpt>
      <trkpt lat="48.36098" lon="2.70191">
        <ele>137</ele>
        <time>2026-02-08T10:11:54.990+00:00</time>
      </trkpt>
      <trkpt lat="48.36093" lon="2.7019">
        <ele>137</ele>
        <time>2026-02-08T10:11:59.436+00:00</time>
      </trkpt>
      <trkpt lat="48.36087" lon="2.70191">
        <ele>137</ele>
        <time>2026-02-08T10:12:03.863+00:00</time>
      </trkpt>
      <trkpt lat="48.36083" lon="2.7019">
        <ele>137</ele>
        <time>2026-02-08T10:12:07.991+00:00</time>
      </trkpt>
      <trkpt lat="48.36078" lon="2.70191">
        <ele>137</ele>
        <time>2026-02-08T10:12:12.799+00:00</time>
      </trkpt>
      <trkpt lat="48.36072" lon="2.70191">
        <ele>137</ele>
        <time>2026-02-08T10:12:17.803+00:00</time>
      </trkpt>
      <trkpt lat="48.36069" lon="2.70191">
        <ele>135</ele>
        <time>2026-02-08T10:12:21.990+00:00</time>
      </trkpt>
      <trkpt lat="48.36069" lon="2.70193">
        <ele>135</ele>
        <time>2026-02-08T10:12:26.991+00:00</time>
      </trkpt>
      <trkpt lat="48.36069" lon="2.70195">
        <ele>135</ele>
        <time>2026-02-08T10:12:31.702+00:00</time>
      </trkpt>
      <trkpt lat="48.36063" lon="2.70196">
        <ele>135</ele>
        <time>2026-02-08T10:12:35.958+00:00</time>
      </trkpt>
      <trkpt lat="48.36059" lon="2.70195">
        <ele>135</ele>
        <time>2026-02-08T10:12:39.991+00:00</time>
      </trkpt>
      <trkpt lat="48.36054" lon="2.70195">
        <ele>135</ele>
        <time>2026-02-08T10:12:44.660+00:00</time>
      </trkpt>
      <trkpt lat="48.3605" lon="2.70194">
        <ele>135</ele>
        <time>2026-02-08T10:12:48.662+00:00</time>
      </trkpt>
      <trkpt lat="48.36046" lon="2.70194">
        <ele>135</ele>
        <time>2026-02-08T10:12:52.842+00:00</time>
      </trkpt>
      <trkpt lat="48.36041" lon="2.70195">
        <ele>135</ele>
        <time>2026-02-08T10:12:56.990+00:00</time>
      </trkpt>
      <trkpt lat="48.36037" lon="2.70195">
        <ele>135</ele>
        <time>2026-02-08T10:13:00.990+00:00</time>
      </trkpt>
      <trkpt lat="48.36031" lon="2.70195">
        <ele>135</ele>
        <time>2026-02-08T10:13:05.442+00:00</time>
      </trkpt>
      <trkpt lat="48.36025" lon="2.70195">
        <ele>135</ele>
        <time>2026-02-08T10:13:09.990+00:00</time>
      </trkpt>
      <trkpt lat="48.36019" lon="2.70195">
        <ele>135</ele>
        <time>2026-02-08T10:13:14.964+00:00</time>
      </trkpt>
      <trkpt lat="48.36014" lon="2.70195">
        <ele>135</ele>
        <time>2026-02-08T10:13:18.991+00:00</time>
      </trkpt>
      <trkpt lat="48.3601" lon="2.70194">
        <ele>136</ele>
        <time>2026-02-08T10:13:23.399+00:00</time>
      </trkpt>
      <trkpt lat="48.36005" lon="2.70193">
        <ele>136</ele>
        <time>2026-02-08T10:13:27.803+00:00</time>
      </trkpt>
      <trkpt lat="48.36" lon="2.70193">
        <ele>136</ele>
        <time>2026-02-08T10:13:32.623+00:00</time>
      </trkpt>
      <trkpt lat="48.35995" lon="2.70194">
        <ele>136</ele>
        <time>2026-02-08T10:13:36.718+00:00</time>
      </trkpt>
      <trkpt lat="48.35991" lon="2.70195">
        <ele>136</ele>
        <time>2026-02-08T10:13:40.990+00:00</time>
      </trkpt>
      <trkpt lat="48.35986" lon="2.70196">
        <ele>137</ele>
        <time>2026-02-08T10:13:45.641+00:00</time>
      </trkpt>
      <trkpt lat="48.35982" lon="2.70197">
        <ele>137</ele>
        <time>2026-02-08T10:13:49.821+00:00</time>
      </trkpt>
      <trkpt lat="48.35977" lon="2.70198">
        <ele>137</ele>
        <time>2026-02-08T10:13:53.990+00:00</time>
      </trkpt>
      <trkpt lat="48.35972" lon="2.70199">
        <ele>137</ele>
        <time>2026-02-08T10:13:58.524+00:00</time>
      </trkpt>
      <trkpt lat="48.35967" lon="2.70199">
        <ele>137</ele>
        <time>2026-02-08T10:14:02.662+00:00</time>
      </trkpt>
      <trkpt lat="48.35961" lon="2.70199">
        <ele>137</ele>
        <time>2026-02-08T10:14:06.991+00:00</time>
      </trkpt>
      <trkpt lat="48.35956" lon="2.70199">
        <ele>136</ele>
        <time>2026-02-08T10:14:11.321+00:00</time>
      </trkpt>
      <trkpt lat="48.35951" lon="2.70199">
        <ele>136</ele>
        <time>2026-02-08T10:14:15.603+00:00</time>
      </trkpt>
      <trkpt lat="48.35946" lon="2.70199">
        <ele>136</ele>
        <time>2026-02-08T10:14:19.861+00:00</time>
      </trkpt>
      <trkpt lat="48.35941" lon="2.70201">
        <ele>136</ele>
        <time>2026-02-08T10:14:23.991+00:00</time>
      </trkpt>
      <trkpt lat="48.35937" lon="2.70203">
        <ele>136</ele>
        <time>2026-02-08T10:14:28.477+00:00</time>
      </trkpt>
      <trkpt lat="48.35932" lon="2.70203">
        <ele>136</ele>
        <time>2026-02-08T10:14:32.991+00:00</time>
      </trkpt>
      <trkpt lat="48.35926" lon="2.702">
        <ele>136</ele>
        <time>2026-02-08T10:14:37.199+00:00</time>
      </trkpt>
      <trkpt lat="48.35921" lon="2.702">
        <ele>136</ele>
        <time>2026-02-08T10:14:41.555+00:00</time>
      </trkpt>
      <trkpt lat="48.35916" lon="2.70199">
        <ele>136</ele>
        <time>2026-02-08T10:14:45.990+00:00</time>
      </trkpt>
      <trkpt lat="48.3591" lon="2.702">
        <ele>136</ele>
        <time>2026-02-08T10:14:50.539+00:00</time>
      </trkpt>
      <trkpt lat="48.35906" lon="2.702">
        <ele>136</ele>
        <time>2026-02-08T10:14:54.933+00:00</time>
      </trkpt>
      <trkpt lat="48.359" lon="2.70202">
        <ele>135</ele>
        <time>2026-02-08T10:14:59.411+00:00</time>
      </trkpt>
      <trkpt lat="48.35894" lon="2.70204">
        <ele>135</ele>
        <time>2026-02-08T10:15:03.883+00:00</time>
      </trkpt>
      <trkpt lat="48.35889" lon="2.70205">
        <ele>135</ele>
        <time>2026-02-08T10:15:08.397+00:00</time>
      </trkpt>
      <trkpt lat="48.35884" lon="2.70205">
        <ele>135</ele>
        <time>2026-02-08T10:15:12.883+00:00</time>
      </trkpt>
      <trkpt lat="48.35878" lon="2.70204">
        <ele>135</ele>
        <time>2026-02-08T10:15:17.411+00:00</time>
      </trkpt>
      <trkpt lat="48.35873" lon="2.70205">
        <ele>135</ele>
        <time>2026-02-08T10:15:22.013+00:00</time>
      </trkpt>
      <trkpt lat="48.35868" lon="2.70205">
        <ele>135</ele>
        <time>2026-02-08T10:15:25.991+00:00</time>
      </trkpt>
      <trkpt lat="48.35861" lon="2.70204">
        <ele>135</ele>
        <time>2026-02-08T10:15:30.990+00:00</time>
      </trkpt>
      <trkpt lat="48.35855" lon="2.70204">
        <ele>135</ele>
        <time>2026-02-08T10:15:35.781+00:00</time>
      </trkpt>
      <trkpt lat="48.3585" lon="2.70205">
        <ele>135</ele>
        <time>2026-02-08T10:15:39.990+00:00</time>
      </trkpt>
      <trkpt lat="48.35846" lon="2.70206">
        <ele>136</ele>
        <time>2026-02-08T10:15:44.204+00:00</time>
      </trkpt>
      <trkpt lat="48.3584" lon="2.70206">
        <ele>136</ele>
        <time>2026-02-08T10:15:48.902+00:00</time>
      </trkpt>
      <trkpt lat="48.35835" lon="2.70208">
        <ele>136</ele>
        <time>2026-02-08T10:15:52.990+00:00</time>
      </trkpt>
      <trkpt lat="48.35829" lon="2.70209">
        <ele>134</ele>
        <time>2026-02-08T10:15:57.476+00:00</time>
      </trkpt>
      <trkpt lat="48.35824" lon="2.70209">
        <ele>134</ele>
        <time>2026-02-08T10:16:01.878+00:00</time>
      </trkpt>
      <trkpt lat="48.35819" lon="2.70208">
        <ele>137</ele>
        <time>2026-02-08T10:16:05.990+00:00</time>
      </trkpt>
      <trkpt lat="48.35814" lon="2.70209">
        <ele>135</ele>
        <time>2026-02-08T10:16:10.598+00:00</time>
      </trkpt>
      <trkpt lat="48.35809" lon="2.7021">
        <ele>135</ele>
        <time>2026-02-08T10:16:14.837+00:00</time>
      </trkpt>
      <trkpt lat="48.35803" lon="2.70211">
        <ele>135</ele>
        <time>2026-02-08T10:16:19.478+00:00</time>
      </trkpt>
      <trkpt lat="48.35797" lon="2.70212">
        <ele>135</ele>
        <time>2026-02-08T10:16:23.991+00:00</time>
      </trkpt>
      <trkpt lat="48.3579" lon="2.70211">
        <ele>135</ele>
        <time>2026-02-08T10:16:28.943+00:00</time>
      </trkpt>
      <trkpt lat="48.35784" lon="2.7021">
        <ele>135</ele>
        <time>2026-02-08T10:16:33.991+00:00</time>
      </trkpt>
      <trkpt lat="48.35778" lon="2.70212">
        <ele>135</ele>
        <time>2026-02-08T10:16:37.990+00:00</time>
      </trkpt>
      <trkpt lat="48.35771" lon="2.70213">
        <ele>135</ele>
        <time>2026-02-08T10:16:43+00:00</time>
      </trkpt>
      <trkpt lat="48.35765" lon="2.70214">
        <ele>135</ele>
        <time>2026-02-08T10:16:47.597+00:00</time>
      </trkpt>
      <trkpt lat="48.35761" lon="2.70215">
        <ele>135</ele>
        <time>2026-02-08T10:16:51.641+00:00</time>
      </trkpt>
      <trkpt lat="48.35756" lon="2.70214">
        <ele>135</ele>
        <time>2026-02-08T10:16:55.677+00:00</time>
      </trkpt>
      <trkpt lat="48.35751" lon="2.70214">
        <ele>135</ele>
        <time>2026-02-08T10:16:59.704+00:00</time>
      </trkpt>
      <trkpt lat="48.35745" lon="2.70216">
        <ele>135</ele>
        <time>2026-02-08T10:17:04.677+00:00</time>
      </trkpt>
      <trkpt lat="48.35739" lon="2.70217">
        <ele>135</ele>
        <time>2026-02-08T10:17:09.404+00:00</time>
      </trkpt>
      <trkpt lat="48.35734" lon="2.70216">
        <ele>137</ele>
        <time>2026-02-08T10:17:13.991+00:00</time>
      </trkpt>
      <trkpt lat="48.35729" lon="2.70216">
        <ele>137</ele>
        <time>2026-02-08T10:17:17.990+00:00</time>
      </trkpt>
      <trkpt lat="48.35723" lon="2.70217">
        <ele>137</ele>
        <time>2026-02-08T10:17:22.991+00:00</time>
      </trkpt>
      <trkpt lat="48.35717" lon="2.70218">
        <ele>137</ele>
        <time>2026-02-08T10:17:27.677+00:00</time>
      </trkpt>
      <trkpt lat="48.35712" lon="2.70218">
        <ele>137</ele>
        <time>2026-02-08T10:17:31.990+00:00</time>
      </trkpt>
      <trkpt lat="48.35705" lon="2.70218">
        <ele>137</ele>
        <time>2026-02-08T10:17:36.704+00:00</time>
      </trkpt>
      <trkpt lat="48.35699" lon="2.70219">
        <ele>137</ele>
        <time>2026-02-08T10:17:40.990+00:00</time>
      </trkpt>
      <trkpt lat="48.35693" lon="2.70219">
        <ele>137</ele>
        <time>2026-02-08T10:17:45.636+00:00</time>
      </trkpt>
      <trkpt lat="48.35688" lon="2.7022">
        <ele>137</ele>
        <time>2026-02-08T10:17:49.990+00:00</time>
      </trkpt>
      <trkpt lat="48.35682" lon="2.7022">
        <ele>137</ele>
        <time>2026-02-08T10:17:54.483+00:00</time>
      </trkpt>
      <trkpt lat="48.35676" lon="2.70219">
        <ele>136</ele>
        <time>2026-02-08T10:17:58.877+00:00</time>
      </trkpt>
      <trkpt lat="48.3567" lon="2.7022">
        <ele>136</ele>
        <time>2026-02-08T10:18:03.296+00:00</time>
      </trkpt>
      <trkpt lat="48.35664" lon="2.70222">
        <ele>136</ele>
        <time>2026-02-08T10:18:07.783+00:00</time>
      </trkpt>
      <trkpt lat="48.35659" lon="2.70221">
        <ele>136</ele>
        <time>2026-02-08T10:18:12.405+00:00</time>
      </trkpt>
      <trkpt lat="48.35653" lon="2.70221">
        <ele>136</ele>
        <time>2026-02-08T10:18:16.904+00:00</time>
      </trkpt>
      <trkpt lat="48.35648" lon="2.70222">
        <ele>135</ele>
        <time>2026-02-08T10:18:20.981+00:00</time>
      </trkpt>
      <trkpt lat="48.35643" lon="2.70223">
        <ele>135</ele>
        <time>2026-02-08T10:18:25.401+00:00</time>
      </trkpt>
      <trkpt lat="48.35639" lon="2.70225">
        <ele>135</ele>
        <time>2026-02-08T10:18:29.624+00:00</time>
      </trkpt>
      <trkpt lat="48.35635" lon="2.70226">
        <ele>135</ele>
        <time>2026-02-08T10:18:33.991+00:00</time>
      </trkpt>
      <trkpt lat="48.35629" lon="2.70222">
        <ele>135</ele>
        <time>2026-02-08T10:19:08.990+00:00</time>
      </trkpt>
      <trkpt lat="48.35628" lon="2.70222">
        <ele>135</ele>
        <time>2026-02-08T10:19:13.990+00:00</time>
      </trkpt>
      <trkpt lat="48.35627" lon="2.70219">
        <ele>135</ele>
        <time>2026-02-08T10:19:17.991+00:00</time>
      </trkpt>
      <trkpt lat="48.35625" lon="2.70212">
        <ele>135</ele>
        <time>2026-02-08T10:19:22.991+00:00</time>
      </trkpt>
      <trkpt lat="48.35628" lon="2.70206">
        <ele>135</ele>
        <time>2026-02-08T10:19:27.990+00:00</time>
      </trkpt>
      <trkpt lat="48.35629" lon="2.70207">
        <ele>135</ele>
        <time>2026-02-08T10:19:31.990+00:00</time>
      </trkpt>
      <trkpt lat="48.35631" lon="2.70208">
        <ele>135</ele>
        <time>2026-02-08T10:19:36.991+00:00</time>
      </trkpt>
      <trkpt lat="48.35634" lon="2.70208">
        <ele>135</ele>
        <time>2026-02-08T10:19:41.562+00:00</time>
      </trkpt>
      <trkpt lat="48.3564" lon="2.70211">
        <ele>135</ele>
        <time>2026-02-08T10:19:45.862+00:00</time>
      </trkpt>
      <trkpt lat="48.35646" lon="2.70214">
        <ele>135</ele>
        <time>2026-02-08T10:25:15.990+00:00</time>
      </trkpt>
      <trkpt lat="48.35646" lon="2.70214">
        <ele>135</ele>
        <time>2026-02-08T10:25:33.989+00:00</time>
      </trkpt>
      <trkpt lat="48.35646" lon="2.70213">
        <ele>135</ele>
        <time>2026-02-08T10:25:38.990+00:00</time>
      </trkpt>
      <trkpt lat="48.35646" lon="2.70205">
        <ele>135</ele>
        <time>2026-02-08T10:25:43.990+00:00</time>
      </trkpt>
      <trkpt lat="48.35646" lon="2.70199">
        <ele>135</ele>
        <time>2026-02-08T10:25:48.456+00:00</time>
      </trkpt>
      <trkpt lat="48.35652" lon="2.702">
        <ele>135</ele>
        <time>2026-02-08T10:25:52.605+00:00</time>
      </trkpt>
      <trkpt lat="48.35657" lon="2.70202">
        <ele>137</ele>
        <time>2026-02-08T10:25:56.990+00:00</time>
      </trkpt>
      <trkpt lat="48.35662" lon="2.70207">
        <ele>137</ele>
        <time>2026-02-08T10:26:01.347+00:00</time>
      </trkpt>
      <trkpt lat="48.35667" lon="2.70209">
        <ele>136</ele>
        <time>2026-02-08T10:26:05.408+00:00</time>
      </trkpt>
      <trkpt lat="48.35673" lon="2.70192">
        <ele>137</ele>
        <time>2026-02-08T10:26:23.990+00:00</time>
      </trkpt>
      <trkpt lat="48.35672" lon="2.70192">
        <ele>137</ele>
        <time>2026-02-08T10:26:27.990+00:00</time>
      </trkpt>
      <trkpt lat="48.35672" lon="2.70192">
        <ele>137</ele>
        <time>2026-02-08T10:26:33.989+00:00</time>
      </trkpt>
      <trkpt lat="48.35672" lon="2.70191">
        <ele>137</ele>
        <time>2026-02-08T10:26:42.990+00:00</time>
      </trkpt>
      <trkpt lat="48.35672" lon="2.70191">
        <ele>137</ele>
        <time>2026-02-08T10:26:46.990+00:00</time>
      </trkpt>
      <trkpt lat="48.35672" lon="2.70191">
        <ele>137</ele>
        <time>2026-02-08T10:26:55.989+00:00</time>
      </trkpt>
      <trkpt lat="48.35674" lon="2.70195">
        <ele>137</ele>
        <time>2026-02-08T10:27:00.693+00:00</time>
      </trkpt>
      <trkpt lat="48.35673" lon="2.70205">
        <ele>137</ele>
        <time>2026-02-08T10:27:04.989+00:00</time>
      </trkpt>
      <trkpt lat="48.35669" lon="2.7021">
        <ele>136</ele>
        <time>2026-02-08T10:27:09.447+00:00</time>
      </trkpt>
      <trkpt lat="48.35665" lon="2.70213">
        <ele>136</ele>
        <time>2026-02-08T10:27:13.611+00:00</time>
      </trkpt>
      <trkpt lat="48.35659" lon="2.70213">
        <ele>136</ele>
        <time>2026-02-08T10:27:17.989+00:00</time>
      </trkpt>
      <trkpt lat="48.35653" lon="2.70212">
        <ele>135</ele>
        <time>2026-02-08T10:27:22.955+00:00</time>
      </trkpt>
      <trkpt lat="48.35646" lon="2.70212">
        <ele>135</ele>
        <time>2026-02-08T10:27:27.837+00:00</time>
      </trkpt>
      <trkpt lat="48.35642" lon="2.70214">
        <ele>135</ele>
        <time>2026-02-08T10:28:53.990+00:00</time>
      </trkpt>
      <trkpt lat="48.35642" lon="2.70214">
        <ele>135</ele>
        <time>2026-02-08T10:29:16.990+00:00</time>
      </trkpt>
      <trkpt lat="48.3564" lon="2.70213">
        <ele>135</ele>
        <time>2026-02-08T10:29:20.990+00:00</time>
      </trkpt>
      <trkpt lat="48.35636" lon="2.70212">
        <ele>135</ele>
        <time>2026-02-08T10:29:25.989+00:00</time>
      </trkpt>
      <trkpt lat="48.35631" lon="2.7021">
        <ele>135</ele>
        <time>2026-02-08T10:29:30.989+00:00</time>
      </trkpt>
      <trkpt lat="48.3563" lon="2.70212">
        <ele>135</ele>
        <time>2026-02-08T10:30:55.989+00:00</time>
      </trkpt>
      <trkpt lat="48.35629" lon="2.70215">
        <ele>135</ele>
        <time>2026-02-08T10:30:59.990+00:00</time>
      </trkpt>
      <trkpt lat="48.3563" lon="2.70217">
        <ele>135</ele>
        <time>2026-02-08T10:31:04.989+00:00</time>
      </trkpt>
      <trkpt lat="48.3563" lon="2.70223">
        <ele>135</ele>
        <time>2026-02-08T10:31:09.989+00:00</time>
      </trkpt>
      <trkpt lat="48.3563" lon="2.70225">
        <ele>135</ele>
        <time>2026-02-08T10:31:13.989+00:00</time>
      </trkpt>
      <trkpt lat="48.3563" lon="2.70225">
        <ele>135</ele>
        <time>2026-02-08T10:31:17.990+00:00</time>
      </trkpt>
      <trkpt lat="48.3563" lon="2.70225">
        <ele>135</ele>
        <time>2026-02-08T10:31:25.990+00:00</time>
      </trkpt>
      <trkpt lat="48.35627" lon="2.70229">
        <ele>135</ele>
        <time>2026-02-08T10:31:30.436+00:00</time>
      </trkpt>
      <trkpt lat="48.35624" lon="2.70236">
        <ele>135</ele>
        <time>2026-02-08T10:31:34.801+00:00</time>
      </trkpt>
      <trkpt lat="48.35623" lon="2.70243">
        <ele>137</ele>
        <time>2026-02-08T10:31:38.990+00:00</time>
      </trkpt>
      <trkpt lat="48.35624" lon="2.70251">
        <ele>137</ele>
        <time>2026-02-08T10:31:43.854+00:00</time>
      </trkpt>
      <trkpt lat="48.35624" lon="2.70259">
        <ele>137</ele>
        <time>2026-02-08T10:31:48.434+00:00</time>
      </trkpt>
      <trkpt lat="48.35623" lon="2.70267">
        <ele>137</ele>
        <time>2026-02-08T10:31:52.990+00:00</time>
      </trkpt>
      <trkpt lat="48.35623" lon="2.70276">
        <ele>137</ele>
        <time>2026-02-08T10:31:57.692+00:00</time>
      </trkpt>
      <trkpt lat="48.35623" lon="2.70284">
        <ele>137</ele>
        <time>2026-02-08T10:32:02.527+00:00</time>
      </trkpt>
      <trkpt lat="48.35624" lon="2.70291">
        <ele>137</ele>
        <time>2026-02-08T10:32:06.554+00:00</time>
      </trkpt>
      <trkpt lat="48.35624" lon="2.70298">
        <ele>137</ele>
        <time>2026-02-08T10:32:10.995+00:00</time>
      </trkpt>
      <trkpt lat="48.35624" lon="2.70307">
        <ele>137</ele>
        <time>2026-02-08T10:32:15.799+00:00</time>
      </trkpt>
      <trkpt lat="48.35623" lon="2.70315">
        <ele>137</ele>
        <time>2026-02-08T10:32:20.454+00:00</time>
      </trkpt>
      <trkpt lat="48.35622" lon="2.70323">
        <ele>136</ele>
        <time>2026-02-08T10:32:24.949+00:00</time>
      </trkpt>
      <trkpt lat="48.35622" lon="2.70332">
        <ele>136</ele>
        <time>2026-02-08T10:32:29.743+00:00</time>
      </trkpt>
      <trkpt lat="48.35622" lon="2.70339">
        <ele>136</ele>
        <time>2026-02-08T10:32:33.847+00:00</time>
      </trkpt>
      <trkpt lat="48.35622" lon="2.70346">
        <ele>136</ele>
        <time>2026-02-08T10:32:37.989+00:00</time>
      </trkpt>
      <trkpt lat="48.35622" lon="2.70354">
        <ele>136</ele>
        <time>2026-02-08T10:32:42.882+00:00</time>
      </trkpt>
      <trkpt lat="48.35621" lon="2.70362">
        <ele>136</ele>
        <time>2026-02-08T10:32:47.464+00:00</time>
      </trkpt>
      <trkpt lat="48.35621" lon="2.7037">
        <ele>136</ele>
        <time>2026-02-08T10:32:51.990+00:00</time>
      </trkpt>
      <trkpt lat="48.35621" lon="2.70379">
        <ele>135</ele>
        <time>2026-02-08T10:32:56.822+00:00</time>
      </trkpt>
      <trkpt lat="48.35621" lon="2.70389">
        <ele>135</ele>
        <time>2026-02-08T10:33:01.344+00:00</time>
      </trkpt>
      <trkpt lat="48.35621" lon="2.70398">
        <ele>135</ele>
        <time>2026-02-08T10:33:05.865+00:00</time>
      </trkpt>
      <trkpt lat="48.35621" lon="2.70407">
        <ele>134</ele>
        <time>2026-02-08T10:33:09.990+00:00</time>
      </trkpt>
      <trkpt lat="48.3562" lon="2.70416">
        <ele>134</ele>
        <time>2026-02-08T10:33:14.646+00:00</time>
      </trkpt>
      <trkpt lat="48.3562" lon="2.70424">
        <ele>134</ele>
        <time>2026-02-08T10:33:18.990+00:00</time>
      </trkpt>
      <trkpt lat="48.35621" lon="2.70432">
        <ele>136</ele>
        <time>2026-02-08T10:33:23.530+00:00</time>
      </trkpt>
      <trkpt lat="48.3562" lon="2.70441">
        <ele>136</ele>
        <time>2026-02-08T10:33:28.009+00:00</time>
      </trkpt>
      <trkpt lat="48.3562" lon="2.7045">
        <ele>136</ele>
        <time>2026-02-08T10:33:32.633+00:00</time>
      </trkpt>
      <trkpt lat="48.3562" lon="2.70458">
        <ele>136</ele>
        <time>2026-02-08T10:33:37.010+00:00</time>
      </trkpt>
      <trkpt lat="48.35619" lon="2.70466">
        <ele>136</ele>
        <time>2026-02-08T10:33:40.989+00:00</time>
      </trkpt>
      <trkpt lat="48.35619" lon="2.70473">
        <ele>136</ele>
        <time>2026-02-08T10:33:44.989+00:00</time>
      </trkpt>
      <trkpt lat="48.35619" lon="2.70482">
        <ele>136</ele>
        <time>2026-02-08T10:33:49.590+00:00</time>
      </trkpt>
      <trkpt lat="48.35619" lon="2.70491">
        <ele>137</ele>
        <time>2026-02-08T10:33:53.989+00:00</time>
      </trkpt>
      <trkpt lat="48.35618" lon="2.70499">
        <ele>137</ele>
        <time>2026-02-08T10:33:58.395+00:00</time>
      </trkpt>
      <trkpt lat="48.35619" lon="2.70506">
        <ele>137</ele>
        <time>2026-02-08T10:34:02.507+00:00</time>
      </trkpt>
      <trkpt lat="48.35618" lon="2.70515">
        <ele>138</ele>
        <time>2026-02-08T10:34:06.989+00:00</time>
      </trkpt>
      <trkpt lat="48.35617" lon="2.70522">
        <ele>138</ele>
        <time>2026-02-08T10:34:11.128+00:00</time>
      </trkpt>
      <trkpt lat="48.35616" lon="2.7053">
        <ele>138</ele>
        <time>2026-02-08T10:34:15.330+00:00</time>
      </trkpt>
      <trkpt lat="48.35616" lon="2.70538">
        <ele>138</ele>
        <time>2026-02-08T10:34:19.928+00:00</time>
      </trkpt>
      <trkpt lat="48.35616" lon="2.70546">
        <ele>138</ele>
        <time>2026-02-08T10:34:24.428+00:00</time>
      </trkpt>
      <trkpt lat="48.35615" lon="2.70554">
        <ele>138</ele>
        <time>2026-02-08T10:34:28.989+00:00</time>
      </trkpt>
      <trkpt lat="48.35615" lon="2.70563">
        <ele>138</ele>
        <time>2026-02-08T10:34:33.587+00:00</time>
      </trkpt>
      <trkpt lat="48.35616" lon="2.70571">
        <ele>138</ele>
        <time>2026-02-08T10:34:37.989+00:00</time>
      </trkpt>
      <trkpt lat="48.35616" lon="2.70579">
        <ele>138</ele>
        <time>2026-02-08T10:34:42.152+00:00</time>
      </trkpt>
      <trkpt lat="48.35615" lon="2.70587">
        <ele>138</ele>
        <time>2026-02-08T10:34:46.594+00:00</time>
      </trkpt>
      <trkpt lat="48.35615" lon="2.70595">
        <ele>138</ele>
        <time>2026-02-08T10:34:50.790+00:00</time>
      </trkpt>
      <trkpt lat="48.35615" lon="2.70603">
        <ele>138</ele>
        <time>2026-02-08T10:34:55.329+00:00</time>
      </trkpt>
      <trkpt lat="48.35614" lon="2.70612">
        <ele>138</ele>
        <time>2026-02-08T10:34:59.892+00:00</time>
      </trkpt>
      <trkpt lat="48.35613" lon="2.70621">
        <ele>138</ele>
        <time>2026-02-08T10:35:04.343+00:00</time>
      </trkpt>
      <trkpt lat="48.35614" lon="2.70629">
        <ele>138</ele>
        <time>2026-02-08T10:35:08.967+00:00</time>
      </trkpt>
      <trkpt lat="48.35614" lon="2.70637">
        <ele>138</ele>
        <time>2026-02-08T10:35:12.988+00:00</time>
      </trkpt>
      <trkpt lat="48.35615" lon="2.70645">
        <ele>138</ele>
        <time>2026-02-08T10:35:17.613+00:00</time>
      </trkpt>
      <trkpt lat="48.35614" lon="2.70652">
        <ele>138</ele>
        <time>2026-02-08T10:35:21.674+00:00</time>
      </trkpt>
      <trkpt lat="48.35613" lon="2.70659">
        <ele>137</ele>
        <time>2026-02-08T10:35:25.765+00:00</time>
      </trkpt>
      <trkpt lat="48.35613" lon="2.70669">
        <ele>137</ele>
        <time>2026-02-08T10:35:30.666+00:00</time>
      </trkpt>
      <trkpt lat="48.35614" lon="2.70677">
        <ele>137</ele>
        <time>2026-02-08T10:35:34.989+00:00</time>
      </trkpt>
      <trkpt lat="48.35613" lon="2.70685">
        <ele>136</ele>
        <time>2026-02-08T10:35:39.487+00:00</time>
      </trkpt>
      <trkpt lat="48.35613" lon="2.70692">
        <ele>136</ele>
        <time>2026-02-08T10:35:44.011+00:00</time>
      </trkpt>
      <trkpt lat="48.35611" lon="2.707">
        <ele>136</ele>
        <time>2026-02-08T10:35:48.695+00:00</time>
      </trkpt>
      <trkpt lat="48.35612" lon="2.70708">
        <ele>136</ele>
        <time>2026-02-08T10:35:53.409+00:00</time>
      </trkpt>
      <trkpt lat="48.35613" lon="2.70716">
        <ele>137</ele>
        <time>2026-02-08T10:35:57.989+00:00</time>
      </trkpt>
      <trkpt lat="48.35613" lon="2.70725">
        <ele>137</ele>
        <time>2026-02-08T10:36:03.010+00:00</time>
      </trkpt>
      <trkpt lat="48.35613" lon="2.70733">
        <ele>137</ele>
        <time>2026-02-08T10:36:07.646+00:00</time>
      </trkpt>
      <trkpt lat="48.35613" lon="2.7074">
        <ele>137</ele>
        <time>2026-02-08T10:36:12.275+00:00</time>
      </trkpt>
      <trkpt lat="48.35612" lon="2.70748">
        <ele>137</ele>
        <time>2026-02-08T10:36:16.722+00:00</time>
      </trkpt>
      <trkpt lat="48.35612" lon="2.70757">
        <ele>137</ele>
        <time>2026-02-08T10:36:21.414+00:00</time>
      </trkpt>
      <trkpt lat="48.35611" lon="2.70765">
        <ele>137</ele>
        <time>2026-02-08T10:36:25.989+00:00</time>
      </trkpt>
      <trkpt lat="48.35611" lon="2.70774">
        <ele>137</ele>
        <time>2026-02-08T10:36:30.988+00:00</time>
      </trkpt>
      <trkpt lat="48.35611" lon="2.70782">
        <ele>137</ele>
        <time>2026-02-08T10:36:35.969+00:00</time>
      </trkpt>
      <trkpt lat="48.35611" lon="2.7079">
        <ele>137</ele>
        <time>2026-02-08T10:36:40.567+00:00</time>
      </trkpt>
      <trkpt lat="48.3561" lon="2.70798">
        <ele>137</ele>
        <time>2026-02-08T10:36:44.988+00:00</time>
      </trkpt>
      <trkpt lat="48.35611" lon="2.70806">
        <ele>137</ele>
        <time>2026-02-08T10:36:49.747+00:00</time>
      </trkpt>
      <trkpt lat="48.3561" lon="2.70814">
        <ele>137</ele>
        <time>2026-02-08T10:36:53.989+00:00</time>
      </trkpt>
      <trkpt lat="48.3561" lon="2.70822">
        <ele>137</ele>
        <time>2026-02-08T10:36:58.693+00:00</time>
      </trkpt>
      <trkpt lat="48.35609" lon="2.7083">
        <ele>137</ele>
        <time>2026-02-08T10:37:02.989+00:00</time>
      </trkpt>
      <trkpt lat="48.35609" lon="2.70838">
        <ele>137</ele>
        <time>2026-02-08T10:37:07.526+00:00</time>
      </trkpt>
      <trkpt lat="48.35609" lon="2.70846">
        <ele>137</ele>
        <time>2026-02-08T10:37:11.989+00:00</time>
      </trkpt>
      <trkpt lat="48.35608" lon="2.70855">
        <ele>136</ele>
        <time>2026-02-08T10:37:16.471+00:00</time>
      </trkpt>
      <trkpt lat="48.35607" lon="2.70862">
        <ele>136</ele>
        <time>2026-02-08T10:37:20.533+00:00</time>
      </trkpt>
      <trkpt lat="48.35608" lon="2.7087">
        <ele>136</ele>
        <time>2026-02-08T10:37:24.988+00:00</time>
      </trkpt>
      <trkpt lat="48.35607" lon="2.70879">
        <ele>136</ele>
        <time>2026-02-08T10:37:29.546+00:00</time>
      </trkpt>
      <trkpt lat="48.35607" lon="2.70887">
        <ele>136</ele>
        <time>2026-02-08T10:37:33.989+00:00</time>
      </trkpt>
      <trkpt lat="48.35607" lon="2.70895">
        <ele>136</ele>
        <time>2026-02-08T10:37:38.534+00:00</time>
      </trkpt>
      <trkpt lat="48.35607" lon="2.70903">
        <ele>136</ele>
        <time>2026-02-08T10:37:42.989+00:00</time>
      </trkpt>
      <trkpt lat="48.35606" lon="2.70911">
        <ele>137</ele>
        <time>2026-02-08T10:37:47.849+00:00</time>
      </trkpt>
      <trkpt lat="48.35606" lon="2.7092">
        <ele>137</ele>
        <time>2026-02-08T10:37:52.528+00:00</time>
      </trkpt>
      <trkpt lat="48.35606" lon="2.70927">
        <ele>137</ele>
        <time>2026-02-08T10:37:56.988+00:00</time>
      </trkpt>
      <trkpt lat="48.35606" lon="2.70936">
        <ele>138</ele>
        <time>2026-02-08T10:38:01.746+00:00</time>
      </trkpt>
      <trkpt lat="48.35608" lon="2.70945">
        <ele>138</ele>
        <time>2026-02-08T10:38:06.490+00:00</time>
      </trkpt>
      <trkpt lat="48.35611" lon="2.70952">
        <ele>138</ele>
        <time>2026-02-08T10:38:10.989+00:00</time>
      </trkpt>
      <trkpt lat="48.35614" lon="2.70958">
        <ele>138</ele>
        <time>2026-02-08T10:38:15.233+00:00</time>
      </trkpt>
      <trkpt lat="48.35616" lon="2.70965">
        <ele>138</ele>
        <time>2026-02-08T10:38:19.736+00:00</time>
      </trkpt>
      <trkpt lat="48.35619" lon="2.70971">
        <ele>138</ele>
        <time>2026-02-08T10:38:23.988+00:00</time>
      </trkpt>
      <trkpt lat="48.35622" lon="2.70977">
        <ele>138</ele>
        <time>2026-02-08T10:38:27.989+00:00</time>
      </trkpt>
      <trkpt lat="48.35626" lon="2.70983">
        <ele>141</ele>
        <time>2026-02-08T10:38:32.744+00:00</time>
      </trkpt>
      <trkpt lat="48.35629" lon="2.70988">
        <ele>140</ele>
        <time>2026-02-08T10:38:36.988+00:00</time>
      </trkpt>
      <trkpt lat="48.35634" lon="2.70994">
        <ele>140</ele>
        <time>2026-02-08T10:38:41.702+00:00</time>
      </trkpt>
      <trkpt lat="48.35637" lon="2.71">
        <ele>140</ele>
        <time>2026-02-08T10:38:45.989+00:00</time>
      </trkpt>
      <trkpt lat="48.35641" lon="2.71007">
        <ele>140</ele>
        <time>2026-02-08T10:38:50.554+00:00</time>
      </trkpt>
      <trkpt lat="48.35645" lon="2.71014">
        <ele>139</ele>
        <time>2026-02-08T10:38:54.989+00:00</time>
      </trkpt>
      <trkpt lat="48.35649" lon="2.71021">
        <ele>139</ele>
        <time>2026-02-08T10:38:59.551+00:00</time>
      </trkpt>
      <trkpt lat="48.35652" lon="2.71027">
        <ele>139</ele>
        <time>2026-02-08T10:39:03.824+00:00</time>
      </trkpt>
      <trkpt lat="48.35656" lon="2.71033">
        <ele>143</ele>
        <time>2026-02-08T10:39:07.989+00:00</time>
      </trkpt>
      <trkpt lat="48.35661" lon="2.7104">
        <ele>143</ele>
        <time>2026-02-08T10:39:12.824+00:00</time>
      </trkpt>
      <trkpt lat="48.35664" lon="2.71047">
        <ele>143</ele>
        <time>2026-02-08T10:39:16.988+00:00</time>
      </trkpt>
      <trkpt lat="48.35668" lon="2.71053">
        <ele>143</ele>
        <time>2026-02-08T10:39:21.628+00:00</time>
      </trkpt>
      <trkpt lat="48.35672" lon="2.71059">
        <ele>143</ele>
        <time>2026-02-08T10:39:25.629+00:00</time>
      </trkpt>
      <trkpt lat="48.35676" lon="2.71066">
        <ele>143</ele>
        <time>2026-02-08T10:39:30.747+00:00</time>
      </trkpt>
      <trkpt lat="48.35679" lon="2.71074">
        <ele>142</ele>
        <time>2026-02-08T10:39:35.290+00:00</time>
      </trkpt>
      <trkpt lat="48.35682" lon="2.71081">
        <ele>142</ele>
        <time>2026-02-08T10:39:39.902+00:00</time>
      </trkpt>
      <trkpt lat="48.35686" lon="2.71087">
        <ele>142</ele>
        <time>2026-02-08T10:39:43.988+00:00</time>
      </trkpt>
      <trkpt lat="48.35687" lon="2.71094">
        <ele>142</ele>
        <time>2026-02-08T10:39:48.322+00:00</time>
      </trkpt>
      <trkpt lat="48.3569" lon="2.71101">
        <ele>139</ele>
        <time>2026-02-08T10:39:52.327+00:00</time>
      </trkpt>
      <trkpt lat="48.35694" lon="2.71109">
        <ele>139</ele>
        <time>2026-02-08T10:39:56.849+00:00</time>
      </trkpt>
      <trkpt lat="48.35697" lon="2.71117">
        <ele>139</ele>
        <time>2026-02-08T10:40:01.414+00:00</time>
      </trkpt>
      <trkpt lat="48.357" lon="2.71124">
        <ele>139</ele>
        <time>2026-02-08T10:40:05.982+00:00</time>
      </trkpt>
      <trkpt lat="48.35705" lon="2.71127">
        <ele>136</ele>
        <time>2026-02-08T10:40:10.593+00:00</time>
      </trkpt>
      <trkpt lat="48.35709" lon="2.71132">
        <ele>136</ele>
        <time>2026-02-08T10:40:14.628+00:00</time>
      </trkpt>
      <trkpt lat="48.35713" lon="2.71137">
        <ele>136</ele>
        <time>2026-02-08T10:40:19.014+00:00</time>
      </trkpt>
      <trkpt lat="48.35713" lon="2.71145">
        <ele>136</ele>
        <time>2026-02-08T10:40:23.450+00:00</time>
      </trkpt>
      <trkpt lat="48.35712" lon="2.71153">
        <ele>136</ele>
        <time>2026-02-08T10:40:27.787+00:00</time>
      </trkpt>
      <trkpt lat="48.35712" lon="2.71161">
        <ele>135</ele>
        <time>2026-02-08T10:40:32.428+00:00</time>
      </trkpt>
      <trkpt lat="48.35712" lon="2.71169">
        <ele>135</ele>
        <time>2026-02-08T10:40:36.971+00:00</time>
      </trkpt>
      <trkpt lat="48.35708" lon="2.71176">
        <ele>133</ele>
        <time>2026-02-08T10:40:41.748+00:00</time>
      </trkpt>
      <trkpt lat="48.35707" lon="2.71184">
        <ele>133</ele>
        <time>2026-02-08T10:40:45.989+00:00</time>
      </trkpt>
      <trkpt lat="48.35708" lon="2.71192">
        <ele>133</ele>
        <time>2026-02-08T10:40:50.614+00:00</time>
      </trkpt>
      <trkpt lat="48.35706" lon="2.71199">
        <ele>133</ele>
        <time>2026-02-08T10:40:54.915+00:00</time>
      </trkpt>
      <trkpt lat="48.35706" lon="2.71206">
        <ele>133</ele>
        <time>2026-02-08T10:40:58.988+00:00</time>
      </trkpt>
      <trkpt lat="48.35707" lon="2.71215">
        <ele>132</ele>
        <time>2026-02-08T10:41:03.988+00:00</time>
      </trkpt>
      <trkpt lat="48.35705" lon="2.71222">
        <ele>132</ele>
        <time>2026-02-08T10:41:08.068+00:00</time>
      </trkpt>
      <trkpt lat="48.35703" lon="2.71228">
        <ele>132</ele>
        <time>2026-02-08T10:41:12.422+00:00</time>
      </trkpt>
      <trkpt lat="48.357" lon="2.71234">
        <ele>132</ele>
        <time>2026-02-08T10:41:16.988+00:00</time>
      </trkpt>
      <trkpt lat="48.35696" lon="2.71238">
        <ele>132</ele>
        <time>2026-02-08T10:41:20.988+00:00</time>
      </trkpt>
      <trkpt lat="48.35693" lon="2.71242">
        <ele>132</ele>
        <time>2026-02-08T10:41:25.202+00:00</time>
      </trkpt>
      <trkpt lat="48.35689" lon="2.71245">
        <ele>132</ele>
        <time>2026-02-08T10:41:29.399+00:00</time>
      </trkpt>
      <trkpt lat="48.35685" lon="2.71249">
        <ele>132</ele>
        <time>2026-02-08T10:41:33.505+00:00</time>
      </trkpt>
      <trkpt lat="48.35681" lon="2.71251">
        <ele>132</ele>
        <time>2026-02-08T10:41:37.606+00:00</time>
      </trkpt>
      <trkpt lat="48.35678" lon="2.71255">
        <ele>129</ele>
        <time>2026-02-08T10:41:41.704+00:00</time>
      </trkpt>
      <trkpt lat="48.35673" lon="2.71257">
        <ele>129</ele>
        <time>2026-02-08T10:41:45.929+00:00</time>
      </trkpt>
      <trkpt lat="48.35672" lon="2.71266">
        <ele>129</ele>
        <time>2026-02-08T10:41:50.941+00:00</time>
      </trkpt>
      <trkpt lat="48.3567" lon="2.71273">
        <ele>129</ele>
        <time>2026-02-08T10:41:55.283+00:00</time>
      </trkpt>
      <trkpt lat="48.35665" lon="2.71279">
        <ele>129</ele>
        <time>2026-02-08T10:41:59.804+00:00</time>
      </trkpt>
      <trkpt lat="48.35664" lon="2.71285">
        <ele>129</ele>
        <time>2026-02-08T10:42:03.886+00:00</time>
      </trkpt>
      <trkpt lat="48.35664" lon="2.71292">
        <ele>129</ele>
        <time>2026-02-08T10:42:08.220+00:00</time>
      </trkpt>
      <trkpt lat="48.35664" lon="2.71298">
        <ele>129</ele>
        <time>2026-02-08T10:42:12.520+00:00</time>
      </trkpt>
      <trkpt lat="48.35663" lon="2.71302">
        <ele>129</ele>
        <time>2026-02-08T10:42:16.640+00:00</time>
      </trkpt>
      <trkpt lat="48.3566" lon="2.71301">
        <ele>129</ele>
        <time>2026-02-08T10:42:20.989+00:00</time>
      </trkpt>
      <trkpt lat="48.35655" lon="2.71296">
        <ele>129</ele>
        <time>2026-02-08T10:42:25.645+00:00</time>
      </trkpt>
      <trkpt lat="48.35651" lon="2.71295">
        <ele>125</ele>
        <time>2026-02-08T10:42:29.885+00:00</time>
      </trkpt>
      <trkpt lat="48.35646" lon="2.71296">
        <ele>125</ele>
        <time>2026-02-08T10:42:34.266+00:00</time>
      </trkpt>
      <trkpt lat="48.35642" lon="2.71295">
        <ele>125</ele>
        <time>2026-02-08T10:42:42.988+00:00</time>
      </trkpt>
      <trkpt lat="48.35643" lon="2.71295">
        <ele>125</ele>
        <time>2026-02-08T10:42:48.989+00:00</time>
      </trkpt>
      <trkpt lat="48.35641" lon="2.71296">
        <ele>125</ele>
        <time>2026-02-08T10:42:53.889+00:00</time>
      </trkpt>
      <trkpt lat="48.35638" lon="2.71305">
        <ele>125</ele>
        <time>2026-02-08T10:42:57.988+00:00</time>
      </trkpt>
      <trkpt lat="48.35639" lon="2.71314">
        <ele>125</ele>
        <time>2026-02-08T10:43:02.461+00:00</time>
      </trkpt>
      <trkpt lat="48.35637" lon="2.71321">
        <ele>126</ele>
        <time>2026-02-08T10:43:06.923+00:00</time>
      </trkpt>
      <trkpt lat="48.35635" lon="2.71326">
        <ele>126</ele>
        <time>2026-02-08T10:43:10.989+00:00</time>
      </trkpt>
      <trkpt lat="48.35633" lon="2.71331">
        <ele>126</ele>
        <time>2026-02-08T10:43:15.462+00:00</time>
      </trkpt>
      <trkpt lat="48.35628" lon="2.71333">
        <ele>126</ele>
        <time>2026-02-08T10:43:19.942+00:00</time>
      </trkpt>
      <trkpt lat="48.35625" lon="2.71336">
        <ele>126</ele>
        <time>2026-02-08T10:43:23.986+00:00</time>
      </trkpt>
      <trkpt lat="48.35622" lon="2.71332">
        <ele>121</ele>
        <time>2026-02-08T10:43:28.626+00:00</time>
      </trkpt>
      <trkpt lat="48.35619" lon="2.71329">
        <ele>121</ele>
        <time>2026-02-08T10:43:33.071+00:00</time>
      </trkpt>
      <trkpt lat="48.35615" lon="2.71329">
        <ele>121</ele>
        <time>2026-02-08T10:43:37.308+00:00</time>
      </trkpt>
      <trkpt lat="48.35613" lon="2.71335">
        <ele>121</ele>
        <time>2026-02-08T10:43:41.635+00:00</time>
      </trkpt>
      <trkpt lat="48.3561" lon="2.71333">
        <ele>121</ele>
        <time>2026-02-08T10:43:45.989+00:00</time>
      </trkpt>
      <trkpt lat="48.35605" lon="2.71335">
        <ele>121</ele>
        <time>2026-02-08T10:43:50.249+00:00</time>
      </trkpt>
      <trkpt lat="48.35601" lon="2.71335">
        <ele>121</ele>
        <time>2026-02-08T10:43:54.544+00:00</time>
      </trkpt>
      <trkpt lat="48.35597" lon="2.71333">
        <ele>121</ele>
        <time>2026-02-08T10:43:58.647+00:00</time>
      </trkpt>
      <trkpt lat="48.35594" lon="2.71335">
        <ele>118</ele>
        <time>2026-02-08T10:44:02.802+00:00</time>
      </trkpt>
      <trkpt lat="48.35593" lon="2.71341">
        <ele>118</ele>
        <time>2026-02-08T10:44:06.989+00:00</time>
      </trkpt>
      <trkpt lat="48.35594" lon="2.71349">
        <ele>119</ele>
        <time>2026-02-08T10:44:11.402+00:00</time>
      </trkpt>
      <trkpt lat="48.35597" lon="2.71354">
        <ele>122</ele>
        <time>2026-02-08T10:44:15.989+00:00</time>
      </trkpt>
      <trkpt lat="48.35598" lon="2.71359">
        <ele>122</ele>
        <time>2026-02-08T10:44:20.223+00:00</time>
      </trkpt>
      <trkpt lat="48.35599" lon="2.71363">
        <ele>122</ele>
        <time>2026-02-08T10:44:24.156+00:00</time>
      </trkpt>
      <trkpt lat="48.35598" lon="2.71369">
        <ele>122</ele>
        <time>2026-02-08T10:44:28.691+00:00</time>
      </trkpt>
      <trkpt lat="48.35596" lon="2.71376">
        <ele>120</ele>
        <time>2026-02-08T10:44:33.849+00:00</time>
      </trkpt>
      <trkpt lat="48.35595" lon="2.71382">
        <ele>120</ele>
        <time>2026-02-08T10:44:38.428+00:00</time>
      </trkpt>
      <trkpt lat="48.35593" lon="2.71388">
        <ele>120</ele>
        <time>2026-02-08T10:44:42.989+00:00</time>
      </trkpt>
      <trkpt lat="48.35593" lon="2.71395">
        <ele>120</ele>
        <time>2026-02-08T10:44:47.326+00:00</time>
      </trkpt>
      <trkpt lat="48.3559" lon="2.71399">
        <ele>120</ele>
        <time>2026-02-08T10:44:51.864+00:00</time>
      </trkpt>
      <trkpt lat="48.35587" lon="2.71404">
        <ele>121</ele>
        <time>2026-02-08T10:44:56.946+00:00</time>
      </trkpt>
      <trkpt lat="48.35585" lon="2.71409">
        <ele>121</ele>
        <time>2026-02-08T10:45:00.989+00:00</time>
      </trkpt>
      <trkpt lat="48.35583" lon="2.71415">
        <ele>121</ele>
        <time>2026-02-08T10:45:04.988+00:00</time>
      </trkpt>
      <trkpt lat="48.35579" lon="2.71419">
        <ele>121</ele>
        <time>2026-02-08T10:45:09.051+00:00</time>
      </trkpt>
      <trkpt lat="48.35575" lon="2.71423">
        <ele>121</ele>
        <time>2026-02-08T10:45:13.530+00:00</time>
      </trkpt>
      <trkpt lat="48.3557" lon="2.71422">
        <ele>121</ele>
        <time>2026-02-08T10:45:17.988+00:00</time>
      </trkpt>
      <trkpt lat="48.35569" lon="2.71431">
        <ele>120</ele>
        <time>2026-02-08T10:45:22.988+00:00</time>
      </trkpt>
      <trkpt lat="48.35561" lon="2.71432">
        <ele>120</ele>
        <time>2026-02-08T10:46:12.988+00:00</time>
      </trkpt>
      <trkpt lat="48.35561" lon="2.71431">
        <ele>120</ele>
        <time>2026-02-08T10:46:16.989+00:00</time>
      </trkpt>
      <trkpt lat="48.35559" lon="2.71434">
        <ele>120</ele>
        <time>2026-02-08T10:46:21.989+00:00</time>
      </trkpt>
      <trkpt lat="48.35553" lon="2.71437">
        <ele>120</ele>
        <time>2026-02-08T10:46:26.441+00:00</time>
      </trkpt>
      <trkpt lat="48.35547" lon="2.71439">
        <ele>120</ele>
        <time>2026-02-08T10:46:30.989+00:00</time>
      </trkpt>
      <trkpt lat="48.35542" lon="2.71442">
        <ele>120</ele>
        <time>2026-02-08T10:46:35.868+00:00</time>
      </trkpt>
      <trkpt lat="48.35537" lon="2.71446">
        <ele>118</ele>
        <time>2026-02-08T10:46:40.989+00:00</time>
      </trkpt>
      <trkpt lat="48.35534" lon="2.71451">
        <ele>118</ele>
        <time>2026-02-08T10:46:45.573+00:00</time>
      </trkpt>
      <trkpt lat="48.35532" lon="2.71456">
        <ele>118</ele>
        <time>2026-02-08T10:46:49.989+00:00</time>
      </trkpt>
      <trkpt lat="48.35529" lon="2.71462">
        <ele>119</ele>
        <time>2026-02-08T10:46:54.644+00:00</time>
      </trkpt>
      <trkpt lat="48.35527" lon="2.71469">
        <ele>119</ele>
        <time>2026-02-08T10:46:59.362+00:00</time>
      </trkpt>
      <trkpt lat="48.35525" lon="2.71474">
        <ele>119</ele>
        <time>2026-02-08T10:47:03.503+00:00</time>
      </trkpt>
      <trkpt lat="48.35521" lon="2.71476">
        <ele>119</ele>
        <time>2026-02-08T10:47:07.927+00:00</time>
      </trkpt>
      <trkpt lat="48.35522" lon="2.71483">
        <ele>119</ele>
        <time>2026-02-08T10:47:11.988+00:00</time>
      </trkpt>
      <trkpt lat="48.35524" lon="2.71491">
        <ele>118</ele>
        <time>2026-02-08T10:47:16.586+00:00</time>
      </trkpt>
      <trkpt lat="48.35527" lon="2.71497">
        <ele>118</ele>
        <time>2026-02-08T10:47:20.989+00:00</time>
      </trkpt>
      <trkpt lat="48.35529" lon="2.715">
        <ele>118</ele>
        <time>2026-02-08T10:47:24.989+00:00</time>
      </trkpt>
      <trkpt lat="48.35532" lon="2.71498">
        <ele>118</ele>
        <time>2026-02-08T10:48:33.714+00:00</time>
      </trkpt>
      <trkpt lat="48.35531" lon="2.71493">
        <ele>118</ele>
        <time>2026-02-08T10:48:37.987+00:00</time>
      </trkpt>
      <trkpt lat="48.35529" lon="2.71492">
        <ele>118</ele>
        <time>2026-02-08T10:48:42.849+00:00</time>
      </trkpt>
      <trkpt lat="48.35526" lon="2.71494">
        <ele>118</ele>
        <time>2026-02-08T10:48:47.788+00:00</time>
      </trkpt>
      <trkpt lat="48.35523" lon="2.71486">
        <ele>118</ele>
        <time>2026-02-08T10:48:51.988+00:00</time>
      </trkpt>
      <trkpt lat="48.35519" lon="2.71478">
        <ele>119</ele>
        <time>2026-02-08T10:48:56.988+00:00</time>
      </trkpt>
      <trkpt lat="48.35513" lon="2.7148">
        <ele>116</ele>
        <time>2026-02-08T10:49:01.622+00:00</time>
      </trkpt>
      <trkpt lat="48.35508" lon="2.71479">
        <ele>116</ele>
        <time>2026-02-08T10:49:05.988+00:00</time>
      </trkpt>
      <trkpt lat="48.35506" lon="2.71477">
        <ele>116</ele>
        <time>2026-02-08T10:49:10.988+00:00</time>
      </trkpt>
      <trkpt lat="48.35505" lon="2.71478">
        <ele>116</ele>
        <time>2026-02-08T10:49:15.715+00:00</time>
      </trkpt>
      <trkpt lat="48.35504" lon="2.71476">
        <ele>116</ele>
        <time>2026-02-08T10:49:19.988+00:00</time>
      </trkpt>
      <trkpt lat="48.35502" lon="2.71476">
        <ele>116</ele>
        <time>2026-02-08T10:49:24.988+00:00</time>
      </trkpt>
      <trkpt lat="48.35498" lon="2.71477">
        <ele>116</ele>
        <time>2026-02-08T10:49:29.668+00:00</time>
      </trkpt>
      <trkpt lat="48.35496" lon="2.71478">
        <ele>116</ele>
        <time>2026-02-08T10:49:33.987+00:00</time>
      </trkpt>
      <trkpt lat="48.35489" lon="2.71486">
        <ele>116</ele>
        <time>2026-02-08T10:50:01.988+00:00</time>
      </trkpt>
      <trkpt lat="48.35488" lon="2.71485">
        <ele>116</ele>
        <time>2026-02-08T10:50:06.988+00:00</time>
      </trkpt>
      <trkpt lat="48.35488" lon="2.71485">
        <ele>116</ele>
        <time>2026-02-08T10:50:13.706+00:00</time>
      </trkpt>
      <trkpt lat="48.35486" lon="2.71483">
        <ele>116</ele>
        <time>2026-02-08T10:50:17.988+00:00</time>
      </trkpt>
      <trkpt lat="48.35486" lon="2.71482">
        <ele>114</ele>
        <time>2026-02-08T10:50:21.987+00:00</time>
      </trkpt>
      <trkpt lat="48.35485" lon="2.71481">
        <ele>114</ele>
        <time>2026-02-08T10:50:26.228+00:00</time>
      </trkpt>
      <trkpt lat="48.35483" lon="2.71476">
        <ele>114</ele>
        <time>2026-02-08T10:50:30.567+00:00</time>
      </trkpt>
      <trkpt lat="48.35481" lon="2.71468">
        <ele>114</ele>
        <time>2026-02-08T10:50:34.888+00:00</time>
      </trkpt>
      <trkpt lat="48.35478" lon="2.71464">
        <ele>114</ele>
        <time>2026-02-08T10:50:38.988+00:00</time>
      </trkpt>
      <trkpt lat="48.35474" lon="2.71463">
        <ele>114</ele>
        <time>2026-02-08T10:50:43.624+00:00</time>
      </trkpt>
      <trkpt lat="48.35471" lon="2.71463">
        <ele>114</ele>
        <time>2026-02-08T10:50:47.650+00:00</time>
      </trkpt>
      <trkpt lat="48.35467" lon="2.71462">
        <ele>114</ele>
        <time>2026-02-08T10:50:51.865+00:00</time>
      </trkpt>
      <trkpt lat="48.35463" lon="2.7146">
        <ele>114</ele>
        <time>2026-02-08T10:50:56.225+00:00</time>
      </trkpt>
      <trkpt lat="48.35459" lon="2.71462">
        <ele>114</ele>
        <time>2026-02-08T10:51:00.595+00:00</time>
      </trkpt>
      <trkpt lat="48.35457" lon="2.71463">
        <ele>113</ele>
        <time>2026-02-08T10:51:04.640+00:00</time>
      </trkpt>
      <trkpt lat="48.35452" lon="2.71468">
        <ele>113</ele>
        <time>2026-02-08T10:51:08.910+00:00</time>
      </trkpt>
      <trkpt lat="48.3545" lon="2.71471">
        <ele>113</ele>
        <time>2026-02-08T10:51:12.988+00:00</time>
      </trkpt>
      <trkpt lat="48.35446" lon="2.71474">
        <ele>113</ele>
        <time>2026-02-08T10:51:17.181+00:00</time>
      </trkpt>
      <trkpt lat="48.35443" lon="2.71477">
        <ele>113</ele>
        <time>2026-02-08T10:51:21.404+00:00</time>
      </trkpt>
      <trkpt lat="48.35441" lon="2.71482">
        <ele>113</ele>
        <time>2026-02-08T10:51:25.524+00:00</time>
      </trkpt>
      <trkpt lat="48.35439" lon="2.71486">
        <ele>113</ele>
        <time>2026-02-08T10:51:29.987+00:00</time>
      </trkpt>
      <trkpt lat="48.35436" lon="2.71487">
        <ele>113</ele>
        <time>2026-02-08T10:51:34.988+00:00</time>
      </trkpt>
      <trkpt lat="48.35433" lon="2.71489">
        <ele>113</ele>
        <time>2026-02-08T10:51:39.229+00:00</time>
      </trkpt>
      <trkpt lat="48.3543" lon="2.71492">
        <ele>113</ele>
        <time>2026-02-08T10:51:43.824+00:00</time>
      </trkpt>
      <trkpt lat="48.35427" lon="2.71495">
        <ele>113</ele>
        <time>2026-02-08T10:51:47.987+00:00</time>
      </trkpt>
      <trkpt lat="48.35422" lon="2.71496">
        <ele>113</ele>
        <time>2026-02-08T10:51:52.988+00:00</time>
      </trkpt>
      <trkpt lat="48.35418" lon="2.71497">
        <ele>113</ele>
        <time>2026-02-08T10:51:57.482+00:00</time>
      </trkpt>
      <trkpt lat="48.35413" lon="2.71499">
        <ele>113</ele>
        <time>2026-02-08T10:52:01.867+00:00</time>
      </trkpt>
      <trkpt lat="48.35409" lon="2.71499">
        <ele>113</ele>
        <time>2026-02-08T10:52:05.987+00:00</time>
      </trkpt>
      <trkpt lat="48.35404" lon="2.71499">
        <ele>113</ele>
        <time>2026-02-08T10:52:10.483+00:00</time>
      </trkpt>
      <trkpt lat="48.35401" lon="2.71502">
        <ele>109</ele>
        <time>2026-02-08T10:52:14.621+00:00</time>
      </trkpt>
      <trkpt lat="48.35405" lon="2.71509">
        <ele>113</ele>
        <time>2026-02-08T10:52:18.987+00:00</time>
      </trkpt>
      <trkpt lat="48.35409" lon="2.71515">
        <ele>111</ele>
        <time>2026-02-08T10:52:23.444+00:00</time>
      </trkpt>
      <trkpt lat="48.35411" lon="2.71522">
        <ele>111</ele>
        <time>2026-02-08T10:52:27.900+00:00</time>
      </trkpt>
      <trkpt lat="48.35414" lon="2.71529">
        <ele>111</ele>
        <time>2026-02-08T10:52:32.716+00:00</time>
      </trkpt>
      <trkpt lat="48.35415" lon="2.71536">
        <ele>111</ele>
        <time>2026-02-08T10:52:37.354+00:00</time>
      </trkpt>
      <trkpt lat="48.35416" lon="2.71544">
        <ele>109</ele>
        <time>2026-02-08T10:52:41.409+00:00</time>
      </trkpt>
      <trkpt lat="48.35418" lon="2.71552">
        <ele>109</ele>
        <time>2026-02-08T10:52:45.584+00:00</time>
      </trkpt>
      <trkpt lat="48.35419" lon="2.71562">
        <ele>109</ele>
        <time>2026-02-08T10:52:49.988+00:00</time>
      </trkpt>
      <trkpt lat="48.35421" lon="2.71572">
        <ele>109</ele>
        <time>2026-02-08T10:52:54.640+00:00</time>
      </trkpt>
      <trkpt lat="48.35423" lon="2.7158">
        <ele>109</ele>
        <time>2026-02-08T10:52:58.987+00:00</time>
      </trkpt>
      <trkpt lat="48.35425" lon="2.71588">
        <ele>109</ele>
        <time>2026-02-08T10:53:03.494+00:00</time>
      </trkpt>
      <trkpt lat="48.35428" lon="2.71595">
        <ele>109</ele>
        <time>2026-02-08T10:53:07.526+00:00</time>
      </trkpt>
      <trkpt lat="48.3543" lon="2.71602">
        <ele>108</ele>
        <time>2026-02-08T10:53:11.869+00:00</time>
      </trkpt>
      <trkpt lat="48.35433" lon="2.71609">
        <ele>109</ele>
        <time>2026-02-08T10:53:15.988+00:00</time>
      </trkpt>
      <trkpt lat="48.35436" lon="2.71615">
        <ele>109</ele>
        <time>2026-02-08T10:53:20.540+00:00</time>
      </trkpt>
      <trkpt lat="48.35439" lon="2.71622">
        <ele>109</ele>
        <time>2026-02-08T10:53:24.827+00:00</time>
      </trkpt>
      <trkpt lat="48.35442" lon="2.71629">
        <ele>110</ele>
        <time>2026-02-08T10:53:29.485+00:00</time>
      </trkpt>
      <trkpt lat="48.35445" lon="2.71637">
        <ele>110</ele>
        <time>2026-02-08T10:53:33.987+00:00</time>
      </trkpt>
      <trkpt lat="48.35447" lon="2.71645">
        <ele>110</ele>
        <time>2026-02-08T10:53:37.988+00:00</time>
      </trkpt>
      <trkpt lat="48.35449" lon="2.71653">
        <ele>108</ele>
        <time>2026-02-08T10:53:42.504+00:00</time>
      </trkpt>
      <trkpt lat="48.35451" lon="2.71661">
        <ele>108</ele>
        <time>2026-02-08T10:53:46.735+00:00</time>
      </trkpt>
      <trkpt lat="48.35452" lon="2.71669">
        <ele>108</ele>
        <time>2026-02-08T10:53:51.245+00:00</time>
      </trkpt>
      <trkpt lat="48.35454" lon="2.71677">
        <ele>108</ele>
        <time>2026-02-08T10:53:55.800+00:00</time>
      </trkpt>
      <trkpt lat="48.35456" lon="2.71686">
        <ele>103</ele>
        <time>2026-02-08T10:54:00.347+00:00</time>
      </trkpt>
      <trkpt lat="48.35458" lon="2.71695">
        <ele>103</ele>
        <time>2026-02-08T10:54:04.864+00:00</time>
      </trkpt>
      <trkpt lat="48.35459" lon="2.71703">
        <ele>108</ele>
        <time>2026-02-08T10:54:08.988+00:00</time>
      </trkpt>
      <trkpt lat="48.3546" lon="2.71711">
        <ele>103</ele>
        <time>2026-02-08T10:54:13.519+00:00</time>
      </trkpt>
      <trkpt lat="48.3546" lon="2.71721">
        <ele>103</ele>
        <time>2026-02-08T10:54:17.988+00:00</time>
      </trkpt>
      <trkpt lat="48.3546" lon="2.7173">
        <ele>103</ele>
        <time>2026-02-08T10:54:22.442+00:00</time>
      </trkpt>
      <trkpt lat="48.3546" lon="2.71738">
        <ele>100</ele>
        <time>2026-02-08T10:54:26.785+00:00</time>
      </trkpt>
      <trkpt lat="48.35458" lon="2.71745">
        <ele>97</ele>
        <time>2026-02-08T10:54:30.988+00:00</time>
      </trkpt>
      <trkpt lat="48.35455" lon="2.71752">
        <ele>97</ele>
        <time>2026-02-08T10:54:35.325+00:00</time>
      </trkpt>
      <trkpt lat="48.35453" lon="2.71759">
        <ele>97</ele>
        <time>2026-02-08T10:54:39.434+00:00</time>
      </trkpt>
      <trkpt lat="48.35451" lon="2.71768">
        <ele>96</ele>
        <time>2026-02-08T10:54:43.864+00:00</time>
      </trkpt>
      <trkpt lat="48.35449" lon="2.71775">
        <ele>96</ele>
        <time>2026-02-08T10:54:47.988+00:00</time>
      </trkpt>
      <trkpt lat="48.35449" lon="2.71784">
        <ele>96</ele>
        <time>2026-02-08T10:54:51.988+00:00</time>
      </trkpt>
      <trkpt lat="48.35447" lon="2.71794">
        <ele>96</ele>
        <time>2026-02-08T10:54:56.925+00:00</time>
      </trkpt>
      <trkpt lat="48.35449" lon="2.71803">
        <ele>96</ele>
        <time>2026-02-08T10:55:01.344+00:00</time>
      </trkpt>
      <trkpt lat="48.35453" lon="2.71809">
        <ele>96</ele>
        <time>2026-02-08T10:55:05.524+00:00</time>
      </trkpt>
      <trkpt lat="48.35459" lon="2.7181">
        <ele>98</ele>
        <time>2026-02-08T10:55:09.545+00:00</time>
      </trkpt>
      <trkpt lat="48.35463" lon="2.71806">
        <ele>98</ele>
        <time>2026-02-08T10:55:13.988+00:00</time>
      </trkpt>
      <trkpt lat="48.35463" lon="2.71805">
        <ele>98</ele>
        <time>2026-02-08T10:55:21.987+00:00</time>
      </trkpt>
      <trkpt lat="48.35457" lon="2.71802">
        <ele>96</ele>
        <time>2026-02-08T10:55:26.987+00:00</time>
      </trkpt>
      <trkpt lat="48.35454" lon="2.71801">
        <ele>96</ele>
        <time>2026-02-08T10:55:31.685+00:00</time>
      </trkpt>
      <trkpt lat="48.35451" lon="2.71803">
        <ele>96</ele>
        <time>2026-02-08T10:55:35.987+00:00</time>
      </trkpt>
      <trkpt lat="48.35447" lon="2.71804">
        <ele>96</ele>
        <time>2026-02-08T10:55:40.987+00:00</time>
      </trkpt>
      <trkpt lat="48.35442" lon="2.71804">
        <ele>96</ele>
        <time>2026-02-08T10:56:00.747+00:00</time>
      </trkpt>
      <trkpt lat="48.35442" lon="2.71805">
        <ele>96</ele>
        <time>2026-02-08T10:56:04.987+00:00</time>
      </trkpt>
      <trkpt lat="48.35442" lon="2.71805">
        <ele>96</ele>
        <time>2026-02-08T10:56:15.988+00:00</time>
      </trkpt>
      <trkpt lat="48.35441" lon="2.71806">
        <ele>96</ele>
        <time>2026-02-08T10:56:20.830+00:00</time>
      </trkpt>
      <trkpt lat="48.35437" lon="2.71815">
        <ele>96</ele>
        <time>2026-02-08T10:56:25.294+00:00</time>
      </trkpt>
      <trkpt lat="48.35433" lon="2.71819">
        <ele>96</ele>
        <time>2026-02-08T10:56:29.988+00:00</time>
      </trkpt>
      <trkpt lat="48.35431" lon="2.7182">
        <ele>97</ele>
        <time>2026-02-08T10:56:34.988+00:00</time>
      </trkpt>
      <trkpt lat="48.35429" lon="2.71822">
        <ele>95</ele>
        <time>2026-02-08T10:56:39.988+00:00</time>
      </trkpt>
      <trkpt lat="48.35429" lon="2.71826">
        <ele>95</ele>
        <time>2026-02-08T10:56:44.516+00:00</time>
      </trkpt>
      <trkpt lat="48.35428" lon="2.71836">
        <ele>95</ele>
        <time>2026-02-08T10:56:48.594+00:00</time>
      </trkpt>
      <trkpt lat="48.35426" lon="2.71842">
        <ele>95</ele>
        <time>2026-02-08T10:56:52.987+00:00</time>
      </trkpt>
      <trkpt lat="48.35422" lon="2.71845">
        <ele>95</ele>
        <time>2026-02-08T10:56:57.633+00:00</time>
      </trkpt>
      <trkpt lat="48.35419" lon="2.7185">
        <ele>96</ele>
        <time>2026-02-08T10:57:02.030+00:00</time>
      </trkpt>
      <trkpt lat="48.35415" lon="2.71855">
        <ele>96</ele>
        <time>2026-02-08T10:57:06.467+00:00</time>
      </trkpt>
      <trkpt lat="48.35411" lon="2.71856">
        <ele>96</ele>
        <time>2026-02-08T10:57:10.988+00:00</time>
      </trkpt>
      <trkpt lat="48.35406" lon="2.71856">
        <ele>96</ele>
        <time>2026-02-08T10:57:15.987+00:00</time>
      </trkpt>
      <trkpt lat="48.354" lon="2.71854">
        <ele>94</ele>
        <time>2026-02-08T10:57:20.974+00:00</time>
      </trkpt>
      <trkpt lat="48.35395" lon="2.71854">
        <ele>94</ele>
        <time>2026-02-08T10:57:25.754+00:00</time>
      </trkpt>
      <trkpt lat="48.3539" lon="2.71858">
        <ele>94</ele>
        <time>2026-02-08T10:57:30.794+00:00</time>
      </trkpt>
      <trkpt lat="48.35385" lon="2.71857">
        <ele>94</ele>
        <time>2026-02-08T10:57:34.987+00:00</time>
      </trkpt>
      <trkpt lat="48.3538" lon="2.71854">
        <ele>94</ele>
        <time>2026-02-08T10:57:39.598+00:00</time>
      </trkpt>
      <trkpt lat="48.35376" lon="2.71853">
        <ele>94</ele>
        <time>2026-02-08T10:57:43.695+00:00</time>
      </trkpt>
      <trkpt lat="48.35373" lon="2.71859">
        <ele>92</ele>
        <time>2026-02-08T10:57:47.988+00:00</time>
      </trkpt>
      <trkpt lat="48.35369" lon="2.71863">
        <ele>92</ele>
        <time>2026-02-08T10:57:52.053+00:00</time>
      </trkpt>
      <trkpt lat="48.35364" lon="2.71868">
        <ele>92</ele>
        <time>2026-02-08T10:57:56.914+00:00</time>
      </trkpt>
      <trkpt lat="48.35361" lon="2.71871">
        <ele>92</ele>
        <time>2026-02-08T10:58:00.987+00:00</time>
      </trkpt>
      <trkpt lat="48.35356" lon="2.71874">
        <ele>92</ele>
        <time>2026-02-08T10:58:05.657+00:00</time>
      </trkpt>
      <trkpt lat="48.35352" lon="2.71878">
        <ele>93</ele>
        <time>2026-02-08T10:58:09.854+00:00</time>
      </trkpt>
      <trkpt lat="48.35348" lon="2.71883">
        <ele>93</ele>
        <time>2026-02-08T10:58:13.988+00:00</time>
      </trkpt>
      <trkpt lat="48.35345" lon="2.7189">
        <ele>92</ele>
        <time>2026-02-08T10:58:18.677+00:00</time>
      </trkpt>
      <trkpt lat="48.35341" lon="2.71895">
        <ele>92</ele>
        <time>2026-02-08T10:58:22.988+00:00</time>
      </trkpt>
      <trkpt lat="48.35338" lon="2.719">
        <ele>92</ele>
        <time>2026-02-08T10:58:27.253+00:00</time>
      </trkpt>
      <trkpt lat="48.35335" lon="2.71906">
        <ele>95</ele>
        <time>2026-02-08T10:58:31.571+00:00</time>
      </trkpt>
      <trkpt lat="48.35331" lon="2.7191">
        <ele>95</ele>
        <time>2026-02-08T10:58:35.673+00:00</time>
      </trkpt>
      <trkpt lat="48.35329" lon="2.71917">
        <ele>95</ele>
        <time>2026-02-08T10:58:39.988+00:00</time>
      </trkpt>
      <trkpt lat="48.35326" lon="2.71924">
        <ele>95</ele>
        <time>2026-02-08T10:58:44.954+00:00</time>
      </trkpt>
      <trkpt lat="48.35325" lon="2.71933">
        <ele>98</ele>
        <time>2026-02-08T10:58:49.827+00:00</time>
      </trkpt>
      <trkpt lat="48.35325" lon="2.71941">
        <ele>98</ele>
        <time>2026-02-08T10:58:53.871+00:00</time>
      </trkpt>
      <trkpt lat="48.35325" lon="2.71948">
        <ele>98</ele>
        <time>2026-02-08T10:58:58.009+00:00</time>
      </trkpt>
      <trkpt lat="48.35325" lon="2.71955">
        <ele>98</ele>
        <time>2026-02-08T10:59:01.988+00:00</time>
      </trkpt>
      <trkpt lat="48.35323" lon="2.71962">
        <ele>98</ele>
        <time>2026-02-08T10:59:06.907+00:00</time>
      </trkpt>
      <trkpt lat="48.35321" lon="2.71968">
        <ele>98</ele>
        <time>2026-02-08T10:59:10.987+00:00</time>
      </trkpt>
      <trkpt lat="48.35318" lon="2.71974">
        <ele>97</ele>
        <time>2026-02-08T10:59:15.532+00:00</time>
      </trkpt>
      <trkpt lat="48.35315" lon="2.71983">
        <ele>97</ele>
        <time>2026-02-08T10:59:20.698+00:00</time>
      </trkpt>
      <trkpt lat="48.35313" lon="2.7199">
        <ele>97</ele>
        <time>2026-02-08T10:59:24.987+00:00</time>
      </trkpt>
      <trkpt lat="48.35311" lon="2.71999">
        <ele>97</ele>
        <time>2026-02-08T10:59:29.874+00:00</time>
      </trkpt>
      <trkpt lat="48.3531" lon="2.72007">
        <ele>97</ele>
        <time>2026-02-08T10:59:33.987+00:00</time>
      </trkpt>
      <trkpt lat="48.35308" lon="2.72013">
        <ele>97</ele>
        <time>2026-02-08T10:59:38.566+00:00</time>
      </trkpt>
      <trkpt lat="48.35304" lon="2.72018">
        <ele>97</ele>
        <time>2026-02-08T10:59:42.987+00:00</time>
      </trkpt>
      <trkpt lat="48.353" lon="2.72024">
        <ele>97</ele>
        <time>2026-02-08T10:59:47.729+00:00</time>
      </trkpt>
      <trkpt lat="48.35298" lon="2.7203">
        <ele>97</ele>
        <time>2026-02-08T10:59:51.988+00:00</time>
      </trkpt>
      <trkpt lat="48.35295" lon="2.72037">
        <ele>97</ele>
        <time>2026-02-08T10:59:56.718+00:00</time>
      </trkpt>
      <trkpt lat="48.35295" lon="2.72045">
        <ele>97</ele>
        <time>2026-02-08T11:00:00.896+00:00</time>
      </trkpt>
      <trkpt lat="48.35294" lon="2.72052">
        <ele>97</ele>
        <time>2026-02-08T11:00:04.993+00:00</time>
      </trkpt>
      <trkpt lat="48.35293" lon="2.72059">
        <ele>97</ele>
        <time>2026-02-08T11:00:09.497+00:00</time>
      </trkpt>
      <trkpt lat="48.3529" lon="2.72065">
        <ele>96</ele>
        <time>2026-02-08T11:00:13.594+00:00</time>
      </trkpt>
      <trkpt lat="48.35287" lon="2.7207">
        <ele>96</ele>
        <time>2026-02-08T11:00:17.987+00:00</time>
      </trkpt>
      <trkpt lat="48.35285" lon="2.72074">
        <ele>96</ele>
        <time>2026-02-08T11:00:21.988+00:00</time>
      </trkpt>
      <trkpt lat="48.35283" lon="2.72081">
        <ele>96</ele>
        <time>2026-02-08T11:00:26.457+00:00</time>
      </trkpt>
      <trkpt lat="48.35282" lon="2.72088">
        <ele>96</ele>
        <time>2026-02-08T11:00:30.727+00:00</time>
      </trkpt>
      <trkpt lat="48.35283" lon="2.72095">
        <ele>96</ele>
        <time>2026-02-08T11:00:34.988+00:00</time>
      </trkpt>
      <trkpt lat="48.35281" lon="2.72102">
        <ele>96</ele>
        <time>2026-02-08T11:00:39.548+00:00</time>
      </trkpt>
      <trkpt lat="48.35279" lon="2.72108">
        <ele>96</ele>
        <time>2026-02-08T11:00:43.687+00:00</time>
      </trkpt>
      <trkpt lat="48.35277" lon="2.72114">
        <ele>96</ele>
        <time>2026-02-08T11:00:47.987+00:00</time>
      </trkpt>
      <trkpt lat="48.35276" lon="2.7212">
        <ele>96</ele>
        <time>2026-02-08T11:00:52.435+00:00</time>
      </trkpt>
      <trkpt lat="48.35274" lon="2.72127">
        <ele>96</ele>
        <time>2026-02-08T11:00:56.753+00:00</time>
      </trkpt>
      <trkpt lat="48.35271" lon="2.72133">
        <ele>96</ele>
        <time>2026-02-08T11:01:00.916+00:00</time>
      </trkpt>
      <trkpt lat="48.35269" lon="2.72139">
        <ele>96</ele>
        <time>2026-02-08T11:01:05.557+00:00</time>
      </trkpt>
      <trkpt lat="48.35266" lon="2.72146">
        <ele>96</ele>
        <time>2026-02-08T11:01:09.987+00:00</time>
      </trkpt>
      <trkpt lat="48.35262" lon="2.72151">
        <ele>96</ele>
        <time>2026-02-08T11:01:14.793+00:00</time>
      </trkpt>
      <trkpt lat="48.35259" lon="2.72156">
        <ele>97</ele>
        <time>2026-02-08T11:01:18.988+00:00</time>
      </trkpt>
      <trkpt lat="48.35255" lon="2.72163">
        <ele>97</ele>
        <time>2026-02-08T11:01:23.769+00:00</time>
      </trkpt>
      <trkpt lat="48.35253" lon="2.72169">
        <ele>97</ele>
        <time>2026-02-08T11:01:27.987+00:00</time>
      </trkpt>
      <trkpt lat="48.35251" lon="2.72176">
        <ele>97</ele>
        <time>2026-02-08T11:01:32.795+00:00</time>
      </trkpt>
      <trkpt lat="48.35248" lon="2.72182">
        <ele>98</ele>
        <time>2026-02-08T11:01:36.848+00:00</time>
      </trkpt>
      <trkpt lat="48.35247" lon="2.72189">
        <ele>98</ele>
        <time>2026-02-08T11:01:40.988+00:00</time>
      </trkpt>
      <trkpt lat="48.35245" lon="2.72196">
        <ele>98</ele>
        <time>2026-02-08T11:01:45.633+00:00</time>
      </trkpt>
      <trkpt lat="48.35243" lon="2.72204">
        <ele>98</ele>
        <time>2026-02-08T11:01:49.987+00:00</time>
      </trkpt>
      <trkpt lat="48.35242" lon="2.72213">
        <ele>98</ele>
        <time>2026-02-08T11:01:54.834+00:00</time>
      </trkpt>
      <trkpt lat="48.3524" lon="2.7222">
        <ele>98</ele>
        <time>2026-02-08T11:01:58.987+00:00</time>
      </trkpt>
      <trkpt lat="48.35239" lon="2.72227">
        <ele>98</ele>
        <time>2026-02-08T11:02:03.674+00:00</time>
      </trkpt>
      <trkpt lat="48.35237" lon="2.72233">
        <ele>98</ele>
        <time>2026-02-08T11:02:07.694+00:00</time>
      </trkpt>
      <trkpt lat="48.35236" lon="2.7224">
        <ele>98</ele>
        <time>2026-02-08T11:02:11.988+00:00</time>
      </trkpt>
      <trkpt lat="48.35234" lon="2.72247">
        <ele>98</ele>
        <time>2026-02-08T11:02:16.855+00:00</time>
      </trkpt>
      <trkpt lat="48.3523" lon="2.7225">
        <ele>98</ele>
        <time>2026-02-08T11:02:20.987+00:00</time>
      </trkpt>
      <trkpt lat="48.35227" lon="2.72255">
        <ele>98</ele>
        <time>2026-02-08T11:02:24.988+00:00</time>
      </trkpt>
      <trkpt lat="48.35227" lon="2.72263">
        <ele>98</ele>
        <time>2026-02-08T11:02:29.947+00:00</time>
      </trkpt>
      <trkpt lat="48.35229" lon="2.72273">
        <ele>98</ele>
        <time>2026-02-08T11:02:34.408+00:00</time>
      </trkpt>
      <trkpt lat="48.35229" lon="2.7228">
        <ele>98</ele>
        <time>2026-02-08T11:02:38.988+00:00</time>
      </trkpt>
      <trkpt lat="48.35226" lon="2.72288">
        <ele>98</ele>
        <time>2026-02-08T11:02:43.987+00:00</time>
      </trkpt>
      <trkpt lat="48.35221" lon="2.72293">
        <ele>99</ele>
        <time>2026-02-08T11:02:48.975+00:00</time>
      </trkpt>
      <trkpt lat="48.35219" lon="2.723">
        <ele>99</ele>
        <time>2026-02-08T11:02:52.988+00:00</time>
      </trkpt>
      <trkpt lat="48.35219" lon="2.72309">
        <ele>99</ele>
        <time>2026-02-08T11:02:57.750+00:00</time>
      </trkpt>
      <trkpt lat="48.35218" lon="2.72316">
        <ele>99</ele>
        <time>2026-02-08T11:03:01.991+00:00</time>
      </trkpt>
      <trkpt lat="48.35217" lon="2.72325">
        <ele>98</ele>
        <time>2026-02-08T11:03:06.291+00:00</time>
      </trkpt>
      <trkpt lat="48.35216" lon="2.72332">
        <ele>98</ele>
        <time>2026-02-08T11:03:10.470+00:00</time>
      </trkpt>
      <trkpt lat="48.35215" lon="2.72341">
        <ele>98</ele>
        <time>2026-02-08T11:03:14.793+00:00</time>
      </trkpt>
      <trkpt lat="48.35213" lon="2.72349">
        <ele>97</ele>
        <time>2026-02-08T11:03:18.987+00:00</time>
      </trkpt>
      <trkpt lat="48.3521" lon="2.72358">
        <ele>97</ele>
        <time>2026-02-08T11:03:23.669+00:00</time>
      </trkpt>
      <trkpt lat="48.35207" lon="2.72363">
        <ele>99</ele>
        <time>2026-02-08T11:03:27.987+00:00</time>
      </trkpt>
      <trkpt lat="48.35205" lon="2.72371">
        <ele>99</ele>
        <time>2026-02-08T11:03:32.908+00:00</time>
      </trkpt>
      <trkpt lat="48.35204" lon="2.72379">
        <ele>98</ele>
        <time>2026-02-08T11:03:37.106+00:00</time>
      </trkpt>
      <trkpt lat="48.35203" lon="2.72386">
        <ele>98</ele>
        <time>2026-02-08T11:03:41.675+00:00</time>
      </trkpt>
      <trkpt lat="48.35201" lon="2.72392">
        <ele>98</ele>
        <time>2026-02-08T11:03:45.958+00:00</time>
      </trkpt>
      <trkpt lat="48.35198" lon="2.72398">
        <ele>98</ele>
        <time>2026-02-08T11:03:49.987+00:00</time>
      </trkpt>
      <trkpt lat="48.35195" lon="2.72405">
        <ele>99</ele>
        <time>2026-02-08T11:03:54.987+00:00</time>
      </trkpt>
      <trkpt lat="48.35192" lon="2.72411">
        <ele>99</ele>
        <time>2026-02-08T11:03:59.616+00:00</time>
      </trkpt>
      <trkpt lat="48.3519" lon="2.72419">
        <ele>99</ele>
        <time>2026-02-08T11:04:03.987+00:00</time>
      </trkpt>
      <trkpt lat="48.35189" lon="2.72428">
        <ele>99</ele>
        <time>2026-02-08T11:04:08.753+00:00</time>
      </trkpt>
      <trkpt lat="48.35189" lon="2.72437">
        <ele>100</ele>
        <time>2026-02-08T11:04:13.353+00:00</time>
      </trkpt>
      <trkpt lat="48.35188" lon="2.72444">
        <ele>100</ele>
        <time>2026-02-08T11:04:17.443+00:00</time>
      </trkpt>
      <trkpt lat="48.35188" lon="2.72452">
        <ele>100</ele>
        <time>2026-02-08T11:04:21.756+00:00</time>
      </trkpt>
      <trkpt lat="48.35188" lon="2.7246">
        <ele>100</ele>
        <time>2026-02-08T11:04:25.954+00:00</time>
      </trkpt>
      <trkpt lat="48.35188" lon="2.72469">
        <ele>100</ele>
        <time>2026-02-08T11:04:30.518+00:00</time>
      </trkpt>
      <trkpt lat="48.35188" lon="2.72477">
        <ele>100</ele>
        <time>2026-02-08T11:04:34.986+00:00</time>
      </trkpt>
      <trkpt lat="48.35189" lon="2.72485">
        <ele>100</ele>
        <time>2026-02-08T11:04:39.531+00:00</time>
      </trkpt>
      <trkpt lat="48.3519" lon="2.72493">
        <ele>100</ele>
        <time>2026-02-08T11:04:43.987+00:00</time>
      </trkpt>
      <trkpt lat="48.3519" lon="2.72501">
        <ele>100</ele>
        <time>2026-02-08T11:04:48.609+00:00</time>
      </trkpt>
      <trkpt lat="48.3519" lon="2.72509">
        <ele>100</ele>
        <time>2026-02-08T11:04:52.818+00:00</time>
      </trkpt>
      <trkpt lat="48.3519" lon="2.72516">
        <ele>100</ele>
        <time>2026-02-08T11:04:56.954+00:00</time>
      </trkpt>
      <trkpt lat="48.3519" lon="2.72523">
        <ele>100</ele>
        <time>2026-02-08T11:05:01.050+00:00</time>
      </trkpt>
      <trkpt lat="48.3519" lon="2.7253">
        <ele>100</ele>
        <time>2026-02-08T11:05:05.628+00:00</time>
      </trkpt>
      <trkpt lat="48.3519" lon="2.72538">
        <ele>100</ele>
        <time>2026-02-08T11:05:09.737+00:00</time>
      </trkpt>
      <trkpt lat="48.3519" lon="2.72545">
        <ele>99</ele>
        <time>2026-02-08T11:05:13.987+00:00</time>
      </trkpt>
      <trkpt lat="48.3519" lon="2.72552">
        <ele>99</ele>
        <time>2026-02-08T11:05:18.334+00:00</time>
      </trkpt>
      <trkpt lat="48.3519" lon="2.72558">
        <ele>99</ele>
        <time>2026-02-08T11:05:22.863+00:00</time>
      </trkpt>
      <trkpt lat="48.35189" lon="2.72566">
        <ele>99</ele>
        <time>2026-02-08T11:05:26.966+00:00</time>
      </trkpt>
      <trkpt lat="48.35189" lon="2.72573">
        <ele>100</ele>
        <time>2026-02-08T11:05:31.591+00:00</time>
      </trkpt>
      <trkpt lat="48.35189" lon="2.7258">
        <ele>100</ele>
        <time>2026-02-08T11:05:35.655+00:00</time>
      </trkpt>
      <trkpt lat="48.35189" lon="2.72587">
        <ele>100</ele>
        <time>2026-02-08T11:05:39.986+00:00</time>
      </trkpt>
      <trkpt lat="48.35187" lon="2.72594">
        <ele>100</ele>
        <time>2026-02-08T11:05:44.567+00:00</time>
      </trkpt>
      <trkpt lat="48.35186" lon="2.72601">
        <ele>100</ele>
        <time>2026-02-08T11:05:48.792+00:00</time>
      </trkpt>
      <trkpt lat="48.35186" lon="2.72608">
        <ele>100</ele>
        <time>2026-02-08T11:05:52.987+00:00</time>
      </trkpt>
      <trkpt lat="48.35185" lon="2.72616">
        <ele>100</ele>
        <time>2026-02-08T11:05:57.574+00:00</time>
      </trkpt>
      <trkpt lat="48.35185" lon="2.72623">
        <ele>100</ele>
        <time>2026-02-08T11:06:01.853+00:00</time>
      </trkpt>
      <trkpt lat="48.35186" lon="2.72631">
        <ele>101</ele>
        <time>2026-02-08T11:06:05.987+00:00</time>
      </trkpt>
      <trkpt lat="48.35185" lon="2.72639">
        <ele>101</ele>
        <time>2026-02-08T11:06:10.433+00:00</time>
      </trkpt>
      <trkpt lat="48.35185" lon="2.72646">
        <ele>101</ele>
        <time>2026-02-08T11:06:14.529+00:00</time>
      </trkpt>
      <trkpt lat="48.35185" lon="2.72653">
        <ele>101</ele>
        <time>2026-02-08T11:06:18.987+00:00</time>
      </trkpt>
      <trkpt lat="48.35185" lon="2.72661">
        <ele>102</ele>
        <time>2026-02-08T11:06:23.973+00:00</time>
      </trkpt>
      <trkpt lat="48.35184" lon="2.72668">
        <ele>102</ele>
        <time>2026-02-08T11:06:27.987+00:00</time>
      </trkpt>
      <trkpt lat="48.35184" lon="2.72675">
        <ele>102</ele>
        <time>2026-02-08T11:06:31.987+00:00</time>
      </trkpt>
      <trkpt lat="48.35183" lon="2.72682">
        <ele>104</ele>
        <time>2026-02-08T11:06:36.510+00:00</time>
      </trkpt>
      <trkpt lat="48.35183" lon="2.72689">
        <ele>104</ele>
        <time>2026-02-08T11:06:40.939+00:00</time>
      </trkpt>
      <trkpt lat="48.35183" lon="2.72696">
        <ele>104</ele>
        <time>2026-02-08T11:06:45.357+00:00</time>
      </trkpt>
      <trkpt lat="48.35184" lon="2.72703">
        <ele>104</ele>
        <time>2026-02-08T11:06:49.730+00:00</time>
      </trkpt>
      <trkpt lat="48.35185" lon="2.7271">
        <ele>106</ele>
        <time>2026-02-08T11:06:54.318+00:00</time>
      </trkpt>
      <trkpt lat="48.35186" lon="2.72718">
        <ele>106</ele>
        <time>2026-02-08T11:06:58.970+00:00</time>
      </trkpt>
      <trkpt lat="48.35185" lon="2.72725">
        <ele>106</ele>
        <time>2026-02-08T11:07:03.150+00:00</time>
      </trkpt>
      <trkpt lat="48.35184" lon="2.72731">
        <ele>106</ele>
        <time>2026-02-08T11:07:07.169+00:00</time>
      </trkpt>
      <trkpt lat="48.35184" lon="2.7274">
        <ele>105</ele>
        <time>2026-02-08T11:07:11.987+00:00</time>
      </trkpt>
      <trkpt lat="48.35185" lon="2.72748">
        <ele>105</ele>
        <time>2026-02-08T11:07:16.534+00:00</time>
      </trkpt>
      <trkpt lat="48.35184" lon="2.72754">
        <ele>105</ele>
        <time>2026-02-08T11:07:20.678+00:00</time>
      </trkpt>
      <trkpt lat="48.35181" lon="2.72761">
        <ele>105</ele>
        <time>2026-02-08T11:07:24.987+00:00</time>
      </trkpt>
      <trkpt lat="48.3518" lon="2.72768">
        <ele>106</ele>
        <time>2026-02-08T11:07:29.987+00:00</time>
      </trkpt>
      <trkpt lat="48.35178" lon="2.72777">
        <ele>106</ele>
        <time>2026-02-08T11:07:34.986+00:00</time>
      </trkpt>
      <trkpt lat="48.35176" lon="2.72783">
        <ele>106</ele>
        <time>2026-02-08T11:07:39.171+00:00</time>
      </trkpt>
      <trkpt lat="48.35175" lon="2.72792">
        <ele>106</ele>
        <time>2026-02-08T11:07:43.487+00:00</time>
      </trkpt>
      <trkpt lat="48.35173" lon="2.72799">
        <ele>105</ele>
        <time>2026-02-08T11:07:47.986+00:00</time>
      </trkpt>
      <trkpt lat="48.35171" lon="2.72807">
        <ele>105</ele>
        <time>2026-02-08T11:07:52.986+00:00</time>
      </trkpt>
      <trkpt lat="48.35171" lon="2.72816">
        <ele>105</ele>
        <time>2026-02-08T11:07:57.986+00:00</time>
      </trkpt>
      <trkpt lat="48.3517" lon="2.72824">
        <ele>105</ele>
        <time>2026-02-08T11:08:02.635+00:00</time>
      </trkpt>
      <trkpt lat="48.35169" lon="2.7283">
        <ele>105</ele>
        <time>2026-02-08T11:08:06.733+00:00</time>
      </trkpt>
      <trkpt lat="48.35168" lon="2.72838">
        <ele>105</ele>
        <time>2026-02-08T11:08:10.986+00:00</time>
      </trkpt>
      <trkpt lat="48.35168" lon="2.72845">
        <ele>105</ele>
        <time>2026-02-08T11:08:15.414+00:00</time>
      </trkpt>
      <trkpt lat="48.35168" lon="2.72853">
        <ele>105</ele>
        <time>2026-02-08T11:08:19.987+00:00</time>
      </trkpt>
      <trkpt lat="48.35167" lon="2.72859">
        <ele>105</ele>
        <time>2026-02-08T11:08:24.482+00:00</time>
      </trkpt>
      <trkpt lat="48.35166" lon="2.72867">
        <ele>105</ele>
        <time>2026-02-08T11:08:28.670+00:00</time>
      </trkpt>
      <trkpt lat="48.35166" lon="2.72874">
        <ele>105</ele>
        <time>2026-02-08T11:08:32.987+00:00</time>
      </trkpt>
      <trkpt lat="48.35164" lon="2.72882">
        <ele>106</ele>
        <time>2026-02-08T11:08:37.693+00:00</time>
      </trkpt>
      <trkpt lat="48.35162" lon="2.72889">
        <ele>106</ele>
        <time>2026-02-08T11:08:41.987+00:00</time>
      </trkpt>
      <trkpt lat="48.3516" lon="2.72898">
        <ele>106</ele>
        <time>2026-02-08T11:08:46.971+00:00</time>
      </trkpt>
      <trkpt lat="48.35161" lon="2.72904">
        <ele>107</ele>
        <time>2026-02-08T11:08:50.986+00:00</time>
      </trkpt>
      <trkpt lat="48.35161" lon="2.72912">
        <ele>107</ele>
        <time>2026-02-08T11:08:55.767+00:00</time>
      </trkpt>
      <trkpt lat="48.3516" lon="2.7292">
        <ele>107</ele>
        <time>2026-02-08T11:08:59.987+00:00</time>
      </trkpt>
      <trkpt lat="48.3516" lon="2.72927">
        <ele>107</ele>
        <time>2026-02-08T11:09:03.986+00:00</time>
      </trkpt>
      <trkpt lat="48.35159" lon="2.72935">
        <ele>107</ele>
        <time>2026-02-08T11:09:08.453+00:00</time>
      </trkpt>
      <trkpt lat="48.35158" lon="2.72941">
        <ele>107</ele>
        <time>2026-02-08T11:09:12.532+00:00</time>
      </trkpt>
      <trkpt lat="48.35158" lon="2.72948">
        <ele>107</ele>
        <time>2026-02-08T11:09:16.794+00:00</time>
      </trkpt>
      <trkpt lat="48.35158" lon="2.72956">
        <ele>107</ele>
        <time>2026-02-08T11:09:21.436+00:00</time>
      </trkpt>
      <trkpt lat="48.35159" lon="2.72964">
        <ele>107</ele>
        <time>2026-02-08T11:09:25.987+00:00</time>
      </trkpt>
      <trkpt lat="48.35159" lon="2.72973">
        <ele>107</ele>
        <time>2026-02-08T11:09:30.987+00:00</time>
      </trkpt>
      <trkpt lat="48.35159" lon="2.72981">
        <ele>107</ele>
        <time>2026-02-08T11:09:35.819+00:00</time>
      </trkpt>
      <trkpt lat="48.35159" lon="2.72987">
        <ele>108</ele>
        <time>2026-02-08T11:09:39.987+00:00</time>
      </trkpt>
      <trkpt lat="48.35159" lon="2.72994">
        <ele>108</ele>
        <time>2026-02-08T11:09:44.440+00:00</time>
      </trkpt>
      <trkpt lat="48.35159" lon="2.73003">
        <ele>108</ele>
        <time>2026-02-08T11:09:48.986+00:00</time>
      </trkpt>
      <trkpt lat="48.35159" lon="2.73011">
        <ele>108</ele>
        <time>2026-02-08T11:09:53.496+00:00</time>
      </trkpt>
      <trkpt lat="48.35157" lon="2.73019">
        <ele>109</ele>
        <time>2026-02-08T11:09:57.986+00:00</time>
      </trkpt>
      <trkpt lat="48.35154" lon="2.73027">
        <ele>109</ele>
        <time>2026-02-08T11:10:02.986+00:00</time>
      </trkpt>
      <trkpt lat="48.35153" lon="2.73035">
        <ele>109</ele>
        <time>2026-02-08T11:10:07.986+00:00</time>
      </trkpt>
      <trkpt lat="48.35152" lon="2.73043">
        <ele>110</ele>
        <time>2026-02-08T11:10:12.509+00:00</time>
      </trkpt>
      <trkpt lat="48.35153" lon="2.7305">
        <ele>109</ele>
        <time>2026-02-08T11:10:16.987+00:00</time>
      </trkpt>
      <trkpt lat="48.35154" lon="2.73057">
        <ele>109</ele>
        <time>2026-02-08T11:10:21.409+00:00</time>
      </trkpt>
      <trkpt lat="48.35153" lon="2.73065">
        <ele>109</ele>
        <time>2026-02-08T11:10:25.613+00:00</time>
      </trkpt>
      <trkpt lat="48.35152" lon="2.73073">
        <ele>110</ele>
        <time>2026-02-08T11:10:29.987+00:00</time>
      </trkpt>
      <trkpt lat="48.35151" lon="2.73082">
        <ele>110</ele>
        <time>2026-02-08T11:10:34.650+00:00</time>
      </trkpt>
      <trkpt lat="48.35149" lon="2.73089">
        <ele>110</ele>
        <time>2026-02-08T11:10:38.770+00:00</time>
      </trkpt>
      <trkpt lat="48.35148" lon="2.73097">
        <ele>110</ele>
        <time>2026-02-08T11:10:43.313+00:00</time>
      </trkpt>
      <trkpt lat="48.3515" lon="2.73105">
        <ele>109</ele>
        <time>2026-02-08T11:10:47.987+00:00</time>
      </trkpt>
      <trkpt lat="48.35151" lon="2.73112">
        <ele>109</ele>
        <time>2026-02-08T11:10:52.058+00:00</time>
      </trkpt>
      <trkpt lat="48.35151" lon="2.7312">
        <ele>109</ele>
        <time>2026-02-08T11:10:56.683+00:00</time>
      </trkpt>
      <trkpt lat="48.35149" lon="2.73126">
        <ele>109</ele>
        <time>2026-02-08T11:11:01.324+00:00</time>
      </trkpt>
      <trkpt lat="48.35149" lon="2.73134">
        <ele>109</ele>
        <time>2026-02-08T11:11:33.986+00:00</time>
      </trkpt>
      <trkpt lat="48.35149" lon="2.73134">
        <ele>109</ele>
        <time>2026-02-08T11:11:39.987+00:00</time>
      </trkpt>
      <trkpt lat="48.35149" lon="2.73135">
        <ele>109</ele>
        <time>2026-02-08T11:11:44.987+00:00</time>
      </trkpt>
      <trkpt lat="48.35148" lon="2.73138">
        <ele>109</ele>
        <time>2026-02-08T11:11:49.402+00:00</time>
      </trkpt>
      <trkpt lat="48.35148" lon="2.73146">
        <ele>109</ele>
        <time>2026-02-08T11:11:53.905+00:00</time>
      </trkpt>
      <trkpt lat="48.35146" lon="2.73152">
        <ele>109</ele>
        <time>2026-02-08T11:11:58.140+00:00</time>
      </trkpt>
      <trkpt lat="48.35146" lon="2.73158">
        <ele>109</ele>
        <time>2026-02-08T11:12:02.481+00:00</time>
      </trkpt>
      <trkpt lat="48.35146" lon="2.73164">
        <ele>109</ele>
        <time>2026-02-08T11:12:06.656+00:00</time>
      </trkpt>
      <trkpt lat="48.35145" lon="2.73171">
        <ele>109</ele>
        <time>2026-02-08T11:12:10.900+00:00</time>
      </trkpt>
      <trkpt lat="48.35145" lon="2.73178">
        <ele>109</ele>
        <time>2026-02-08T11:12:15.986+00:00</time>
      </trkpt>
      <trkpt lat="48.35143" lon="2.73185">
        <ele>109</ele>
        <time>2026-02-08T11:12:20.986+00:00</time>
      </trkpt>
      <trkpt lat="48.35142" lon="2.73192">
        <ele>109</ele>
        <time>2026-02-08T11:12:25.923+00:00</time>
      </trkpt>
      <trkpt lat="48.35141" lon="2.73197">
        <ele>109</ele>
        <time>2026-02-08T11:12:29.982+00:00</time>
      </trkpt>
      <trkpt lat="48.35142" lon="2.73205">
        <ele>109</ele>
        <time>2026-02-08T11:12:34.375+00:00</time>
      </trkpt>
      <trkpt lat="48.35142" lon="2.73212">
        <ele>109</ele>
        <time>2026-02-08T11:12:38.962+00:00</time>
      </trkpt>
      <trkpt lat="48.35141" lon="2.73218">
        <ele>109</ele>
        <time>2026-02-08T11:12:42.987+00:00</time>
      </trkpt>
      <trkpt lat="48.35138" lon="2.73225">
        <ele>109</ele>
        <time>2026-02-08T11:12:47.986+00:00</time>
      </trkpt>
      <trkpt lat="48.35137" lon="2.73233">
        <ele>109</ele>
        <time>2026-02-08T11:12:52.663+00:00</time>
      </trkpt>
      <trkpt lat="48.35136" lon="2.7324">
        <ele>111</ele>
        <time>2026-02-08T11:12:56.759+00:00</time>
      </trkpt>
      <trkpt lat="48.35137" lon="2.73246">
        <ele>111</ele>
        <time>2026-02-08T11:13:00.798+00:00</time>
      </trkpt>
      <trkpt lat="48.35137" lon="2.73253">
        <ele>111</ele>
        <time>2026-02-08T11:13:04.986+00:00</time>
      </trkpt>
      <trkpt lat="48.35136" lon="2.73261">
        <ele>111</ele>
        <time>2026-02-08T11:13:09.603+00:00</time>
      </trkpt>
      <trkpt lat="48.35137" lon="2.73269">
        <ele>113</ele>
        <time>2026-02-08T11:13:13.946+00:00</time>
      </trkpt>
      <trkpt lat="48.35136" lon="2.73276">
        <ele>113</ele>
        <time>2026-02-08T11:13:17.986+00:00</time>
      </trkpt>
      <trkpt lat="48.35134" lon="2.73284">
        <ele>113</ele>
        <time>2026-02-08T11:13:22.742+00:00</time>
      </trkpt>
      <trkpt lat="48.35134" lon="2.73292">
        <ele>114</ele>
        <time>2026-02-08T11:13:26.987+00:00</time>
      </trkpt>
      <trkpt lat="48.35136" lon="2.73299">
        <ele>114</ele>
        <time>2026-02-08T11:13:31.696+00:00</time>
      </trkpt>
      <trkpt lat="48.35137" lon="2.73306">
        <ele>114</ele>
        <time>2026-02-08T11:13:35.986+00:00</time>
      </trkpt>
      <trkpt lat="48.35136" lon="2.73314">
        <ele>114</ele>
        <time>2026-02-08T11:13:40.219+00:00</time>
      </trkpt>
      <trkpt lat="48.35137" lon="2.73321">
        <ele>114</ele>
        <time>2026-02-08T11:13:44.221+00:00</time>
      </trkpt>
      <trkpt lat="48.35137" lon="2.73329">
        <ele>114</ele>
        <time>2026-02-08T11:13:48.700+00:00</time>
      </trkpt>
      <trkpt lat="48.35136" lon="2.73337">
        <ele>114</ele>
        <time>2026-02-08T11:13:53.320+00:00</time>
      </trkpt>
      <trkpt lat="48.35135" lon="2.73344">
        <ele>114</ele>
        <time>2026-02-08T11:13:57.675+00:00</time>
      </trkpt>
      <trkpt lat="48.35134" lon="2.7335">
        <ele>116</ele>
        <time>2026-02-08T11:14:01.737+00:00</time>
      </trkpt>
      <trkpt lat="48.35134" lon="2.73356">
        <ele>116</ele>
        <time>2026-02-08T11:14:06.335+00:00</time>
      </trkpt>
      <trkpt lat="48.35134" lon="2.73364">
        <ele>116</ele>
        <time>2026-02-08T11:14:10.904+00:00</time>
      </trkpt>
      <trkpt lat="48.35133" lon="2.73371">
        <ele>116</ele>
        <time>2026-02-08T11:14:15.679+00:00</time>
      </trkpt>
      <trkpt lat="48.35132" lon="2.73378">
        <ele>117</ele>
        <time>2026-02-08T11:14:19.987+00:00</time>
      </trkpt>
      <trkpt lat="48.35132" lon="2.73387">
        <ele>117</ele>
        <time>2026-02-08T11:14:24.456+00:00</time>
      </trkpt>
      <trkpt lat="48.35131" lon="2.73394">
        <ele>117</ele>
        <time>2026-02-08T11:14:28.987+00:00</time>
      </trkpt>
      <trkpt lat="48.3513" lon="2.734">
        <ele>117</ele>
        <time>2026-02-08T11:14:33.619+00:00</time>
      </trkpt>
      <trkpt lat="48.35129" lon="2.73404">
        <ele>118</ele>
        <time>2026-02-08T11:14:42.987+00:00</time>
      </trkpt>
      <trkpt lat="48.35129" lon="2.73403">
        <ele>118</ele>
        <time>2026-02-08T11:14:51.985+00:00</time>
      </trkpt>
      <trkpt lat="48.3513" lon="2.73409">
        <ele>118</ele>
        <time>2026-02-08T11:14:56.986+00:00</time>
      </trkpt>
      <trkpt lat="48.35132" lon="2.73413">
        <ele>118</ele>
        <time>2026-02-08T11:15:00.985+00:00</time>
      </trkpt>
      <trkpt lat="48.35136" lon="2.7342">
        <ele>118</ele>
        <time>2026-02-08T11:15:05.743+00:00</time>
      </trkpt>
      <trkpt lat="48.3514" lon="2.73426">
        <ele>118</ele>
        <time>2026-02-08T11:15:09.986+00:00</time>
      </trkpt>
      <trkpt lat="48.35145" lon="2.73428">
        <ele>118</ele>
        <time>2026-02-08T11:15:13.986+00:00</time>
      </trkpt>
      <trkpt lat="48.35149" lon="2.7343">
        <ele>118</ele>
        <time>2026-02-08T11:15:18.983+00:00</time>
      </trkpt>
      <trkpt lat="48.35156" lon="2.73428">
        <ele>115</ele>
        <time>2026-02-08T11:15:23.897+00:00</time>
      </trkpt>
      <trkpt lat="48.35161" lon="2.73429">
        <ele>115</ele>
        <time>2026-02-08T11:15:28.986+00:00</time>
      </trkpt>
      <trkpt lat="48.35166" lon="2.73434">
        <ele>116</ele>
        <time>2026-02-08T11:15:33.703+00:00</time>
      </trkpt>
      <trkpt lat="48.35168" lon="2.7344">
        <ele>116</ele>
        <time>2026-02-08T11:15:38.421+00:00</time>
      </trkpt>
      <trkpt lat="48.3517" lon="2.73446">
        <ele>116</ele>
        <time>2026-02-08T11:15:42.517+00:00</time>
      </trkpt>
      <trkpt lat="48.35171" lon="2.73453">
        <ele>116</ele>
        <time>2026-02-08T11:15:46.782+00:00</time>
      </trkpt>
      <trkpt lat="48.35173" lon="2.7346">
        <ele>115</ele>
        <time>2026-02-08T11:15:51.483+00:00</time>
      </trkpt>
      <trkpt lat="48.35175" lon="2.73466">
        <ele>115</ele>
        <time>2026-02-08T11:15:55.997+00:00</time>
      </trkpt>
      <trkpt lat="48.35178" lon="2.7347">
        <ele>115</ele>
        <time>2026-02-08T11:16:00.986+00:00</time>
      </trkpt>
      <trkpt lat="48.35182" lon="2.73474">
        <ele>118</ele>
        <time>2026-02-08T11:16:05.782+00:00</time>
      </trkpt>
      <trkpt lat="48.35185" lon="2.73479">
        <ele>118</ele>
        <time>2026-02-08T11:16:09.986+00:00</time>
      </trkpt>
      <trkpt lat="48.35187" lon="2.73485">
        <ele>118</ele>
        <time>2026-02-08T11:16:14.438+00:00</time>
      </trkpt>
      <trkpt lat="48.35189" lon="2.73491">
        <ele>118</ele>
        <time>2026-02-08T11:16:18.797+00:00</time>
      </trkpt>
      <trkpt lat="48.3519" lon="2.73497">
        <ele>118</ele>
        <time>2026-02-08T11:16:23.114+00:00</time>
      </trkpt>
      <trkpt lat="48.3519" lon="2.73502">
        <ele>118</ele>
        <time>2026-02-08T11:16:27.411+00:00</time>
      </trkpt>
      <trkpt lat="48.35192" lon="2.73507">
        <ele>118</ele>
        <time>2026-02-08T11:16:31.475+00:00</time>
      </trkpt>
      <trkpt lat="48.35194" lon="2.7351">
        <ele>118</ele>
        <time>2026-02-08T11:16:35.524+00:00</time>
      </trkpt>
      <trkpt lat="48.35198" lon="2.7351">
        <ele>118</ele>
        <time>2026-02-08T11:16:39.662+00:00</time>
      </trkpt>
      <trkpt lat="48.35201" lon="2.73511">
        <ele>118</ele>
        <time>2026-02-08T11:16:44.362+00:00</time>
      </trkpt>
      <trkpt lat="48.35204" lon="2.73512">
        <ele>118</ele>
        <time>2026-02-08T11:16:48.986+00:00</time>
      </trkpt>
      <trkpt lat="48.35208" lon="2.73513">
        <ele>118</ele>
        <time>2026-02-08T11:16:53.603+00:00</time>
      </trkpt>
      <trkpt lat="48.35216" lon="2.73522">
        <ele>126</ele>
        <time>2026-02-08T11:17:11.985+00:00</time>
      </trkpt>
      <trkpt lat="48.35215" lon="2.73525">
        <ele>126</ele>
        <time>2026-02-08T11:17:16.877+00:00</time>
      </trkpt>
      <trkpt lat="48.35214" lon="2.7353">
        <ele>126</ele>
        <time>2026-02-08T11:17:20.986+00:00</time>
      </trkpt>
      <trkpt lat="48.35214" lon="2.73534">
        <ele>126</ele>
        <time>2026-02-08T11:17:25.986+00:00</time>
      </trkpt>
      <trkpt lat="48.35216" lon="2.73537">
        <ele>126</ele>
        <time>2026-02-08T11:17:30.986+00:00</time>
      </trkpt>
      <trkpt lat="48.35218" lon="2.73539">
        <ele>126</ele>
        <time>2026-02-08T11:17:35.562+00:00</time>
      </trkpt>
      <trkpt lat="48.3522" lon="2.73541">
        <ele>126</ele>
        <time>2026-02-08T11:17:39.874+00:00</time>
      </trkpt>
      <trkpt lat="48.35222" lon="2.73544">
        <ele>125</ele>
        <time>2026-02-08T11:17:44.618+00:00</time>
      </trkpt>
      <trkpt lat="48.35223" lon="2.73548">
        <ele>125</ele>
        <time>2026-02-08T11:17:48.653+00:00</time>
      </trkpt>
      <trkpt lat="48.35226" lon="2.73551">
        <ele>125</ele>
        <time>2026-02-08T11:17:52.918+00:00</time>
      </trkpt>
      <trkpt lat="48.35228" lon="2.73555">
        <ele>125</ele>
        <time>2026-02-08T11:17:57.643+00:00</time>
      </trkpt>
      <trkpt lat="48.35229" lon="2.73559">
        <ele>125</ele>
        <time>2026-02-08T11:18:01.719+00:00</time>
      </trkpt>
      <trkpt lat="48.35228" lon="2.73566">
        <ele>125</ele>
        <time>2026-02-08T11:18:06.923+00:00</time>
      </trkpt>
      <trkpt lat="48.35227" lon="2.73571">
        <ele>124</ele>
        <time>2026-02-08T11:18:10.986+00:00</time>
      </trkpt>
      <trkpt lat="48.35225" lon="2.73575">
        <ele>124</ele>
        <time>2026-02-08T11:18:15.986+00:00</time>
      </trkpt>
      <trkpt lat="48.35224" lon="2.7358">
        <ele>124</ele>
        <time>2026-02-08T11:18:20.235+00:00</time>
      </trkpt>
      <trkpt lat="48.35224" lon="2.73584">
        <ele>124</ele>
        <time>2026-02-08T11:18:24.557+00:00</time>
      </trkpt>
      <trkpt lat="48.35224" lon="2.73588">
        <ele>124</ele>
        <time>2026-02-08T11:18:28.960+00:00</time>
      </trkpt>
      <trkpt lat="48.35226" lon="2.73592">
        <ele>124</ele>
        <time>2026-02-08T11:18:33.683+00:00</time>
      </trkpt>
      <trkpt lat="48.35228" lon="2.73597">
        <ele>124</ele>
        <time>2026-02-08T11:18:37.986+00:00</time>
      </trkpt>
      <trkpt lat="48.35229" lon="2.73602">
        <ele>125</ele>
        <time>2026-02-08T11:18:42.763+00:00</time>
      </trkpt>
      <trkpt lat="48.35233" lon="2.73604">
        <ele>125</ele>
        <time>2026-02-08T11:18:46.985+00:00</time>
      </trkpt>
      <trkpt lat="48.35237" lon="2.73607">
        <ele>128</ele>
        <time>2026-02-08T11:18:51.542+00:00</time>
      </trkpt>
      <trkpt lat="48.35241" lon="2.73606">
        <ele>128</ele>
        <time>2026-02-08T11:18:55.985+00:00</time>
      </trkpt>
      <trkpt lat="48.35245" lon="2.73608">
        <ele>128</ele>
        <time>2026-02-08T11:19:00.985+00:00</time>
      </trkpt>
      <trkpt lat="48.35248" lon="2.73609">
        <ele>128</ele>
        <time>2026-02-08T11:19:05.985+00:00</time>
      </trkpt>
      <trkpt lat="48.35251" lon="2.7361">
        <ele>128</ele>
        <time>2026-02-08T11:19:10.854+00:00</time>
      </trkpt>
      <trkpt lat="48.35255" lon="2.7361">
        <ele>128</ele>
        <time>2026-02-08T11:19:15.184+00:00</time>
      </trkpt>
      <trkpt lat="48.35259" lon="2.73608">
        <ele>128</ele>
        <time>2026-02-08T11:19:19.443+00:00</time>
      </trkpt>
      <trkpt lat="48.35263" lon="2.73607">
        <ele>128</ele>
        <time>2026-02-08T11:19:23.681+00:00</time>
      </trkpt>
      <trkpt lat="48.35267" lon="2.73606">
        <ele>130</ele>
        <time>2026-02-08T11:19:27.976+00:00</time>
      </trkpt>
      <trkpt lat="48.35272" lon="2.73606">
        <ele>130</ele>
        <time>2026-02-08T11:19:31.986+00:00</time>
      </trkpt>
      <trkpt lat="48.35275" lon="2.73608">
        <ele>130</ele>
        <time>2026-02-08T11:19:36.700+00:00</time>
      </trkpt>
      <trkpt lat="48.35279" lon="2.73609">
        <ele>130</ele>
        <time>2026-02-08T11:19:41.401+00:00</time>
      </trkpt>
      <trkpt lat="48.35283" lon="2.73612">
        <ele>130</ele>
        <time>2026-02-08T11:19:45.898+00:00</time>
      </trkpt>
      <trkpt lat="48.35285" lon="2.73618">
        <ele>130</ele>
        <time>2026-02-08T11:19:50.894+00:00</time>
      </trkpt>
      <trkpt lat="48.35288" lon="2.73624">
        <ele>130</ele>
        <time>2026-02-08T11:19:55.397+00:00</time>
      </trkpt>
      <trkpt lat="48.35289" lon="2.73631">
        <ele>130</ele>
        <time>2026-02-08T11:19:59.986+00:00</time>
      </trkpt>
      <trkpt lat="48.35289" lon="2.73639">
        <ele>130</ele>
        <time>2026-02-08T11:20:04.985+00:00</time>
      </trkpt>
      <trkpt lat="48.35288" lon="2.73645">
        <ele>130</ele>
        <time>2026-02-08T11:20:09.343+00:00</time>
      </trkpt>
      <trkpt lat="48.35288" lon="2.73652">
        <ele>130</ele>
        <time>2026-02-08T11:20:13.924+00:00</time>
      </trkpt>
      <trkpt lat="48.35288" lon="2.73658">
        <ele>130</ele>
        <time>2026-02-08T11:20:17.986+00:00</time>
      </trkpt>
      <trkpt lat="48.35286" lon="2.73665">
        <ele>130</ele>
        <time>2026-02-08T11:20:22.741+00:00</time>
      </trkpt>
      <trkpt lat="48.35287" lon="2.73672">
        <ele>130</ele>
        <time>2026-02-08T11:20:26.956+00:00</time>
      </trkpt>
      <trkpt lat="48.35288" lon="2.73679">
        <ele>130</ele>
        <time>2026-02-08T11:20:31.178+00:00</time>
      </trkpt>
      <trkpt lat="48.35287" lon="2.73687">
        <ele>131</ele>
        <time>2026-02-08T11:20:35.516+00:00</time>
      </trkpt>
      <trkpt lat="48.35287" lon="2.73694">
        <ele>131</ele>
        <time>2026-02-08T11:20:39.561+00:00</time>
      </trkpt>
      <trkpt lat="48.35286" lon="2.73701">
        <ele>131</ele>
        <time>2026-02-08T11:20:43.986+00:00</time>
      </trkpt>
      <trkpt lat="48.35286" lon="2.73709">
        <ele>132</ele>
        <time>2026-02-08T11:20:48.986+00:00</time>
      </trkpt>
      <trkpt lat="48.35289" lon="2.73715">
        <ele>132</ele>
        <time>2026-02-08T11:20:53.902+00:00</time>
      </trkpt>
      <trkpt lat="48.35292" lon="2.73722">
        <ele>134</ele>
        <time>2026-02-08T11:20:58.364+00:00</time>
      </trkpt>
      <trkpt lat="48.35293" lon="2.73728">
        <ele>134</ele>
        <time>2026-02-08T11:21:02.573+00:00</time>
      </trkpt>
      <trkpt lat="48.35295" lon="2.73733">
        <ele>134</ele>
        <time>2026-02-08T11:21:06.986+00:00</time>
      </trkpt>
      <trkpt lat="48.35297" lon="2.73739">
        <ele>134</ele>
        <time>2026-02-08T11:21:11.677+00:00</time>
      </trkpt>
      <trkpt lat="48.35298" lon="2.73745">
        <ele>134</ele>
        <time>2026-02-08T11:21:15.985+00:00</time>
      </trkpt>
      <trkpt lat="48.35299" lon="2.73749">
        <ele>134</ele>
        <time>2026-02-08T11:21:20.986+00:00</time>
      </trkpt>
      <trkpt lat="48.35299" lon="2.73748">
        <ele>134</ele>
        <time>2026-02-08T11:21:24.986+00:00</time>
      </trkpt>
      <trkpt lat="48.35301" lon="2.73752">
        <ele>134</ele>
        <time>2026-02-08T11:21:29.325+00:00</time>
      </trkpt>
      <trkpt lat="48.35301" lon="2.7376">
        <ele>134</ele>
        <time>2026-02-08T11:21:33.986+00:00</time>
      </trkpt>
      <trkpt lat="48.35304" lon="2.73766">
        <ele>134</ele>
        <time>2026-02-08T11:21:38.683+00:00</time>
      </trkpt>
      <trkpt lat="48.35308" lon="2.7377">
        <ele>134</ele>
        <time>2026-02-08T11:21:42.778+00:00</time>
      </trkpt>
      <trkpt lat="48.3531" lon="2.73774">
        <ele>134</ele>
        <time>2026-02-08T11:21:46.986+00:00</time>
      </trkpt>
      <trkpt lat="48.35312" lon="2.73779">
        <ele>134</ele>
        <time>2026-02-08T11:21:51.238+00:00</time>
      </trkpt>
      <trkpt lat="48.35317" lon="2.73784">
        <ele>134</ele>
        <time>2026-02-08T11:21:55.585+00:00</time>
      </trkpt>
      <trkpt lat="48.35321" lon="2.73786">
        <ele>133</ele>
        <time>2026-02-08T11:21:59.738+00:00</time>
      </trkpt>
      <trkpt lat="48.35324" lon="2.73789">
        <ele>133</ele>
        <time>2026-02-08T11:22:03.985+00:00</time>
      </trkpt>
      <trkpt lat="48.35328" lon="2.73792">
        <ele>133</ele>
        <time>2026-02-08T11:22:08.603+00:00</time>
      </trkpt>
      <trkpt lat="48.35332" lon="2.73795">
        <ele>133</ele>
        <time>2026-02-08T11:22:12.818+00:00</time>
      </trkpt>
      <trkpt lat="48.35335" lon="2.73799">
        <ele>133</ele>
        <time>2026-02-08T11:22:16.986+00:00</time>
      </trkpt>
      <trkpt lat="48.35336" lon="2.73804">
        <ele>133</ele>
        <time>2026-02-08T11:22:21.504+00:00</time>
      </trkpt>
      <trkpt lat="48.35336" lon="2.73806">
        <ele>133</ele>
        <time>2026-02-08T11:22:25.986+00:00</time>
      </trkpt>
      <trkpt lat="48.35336" lon="2.73808">
        <ele>133</ele>
        <time>2026-02-08T11:22:30.986+00:00</time>
      </trkpt>
      <trkpt lat="48.35337" lon="2.73815">
        <ele>133</ele>
        <time>2026-02-08T11:22:35.985+00:00</time>
      </trkpt>
      <trkpt lat="48.3534" lon="2.73815">
        <ele>133</ele>
        <time>2026-02-08T11:22:40.985+00:00</time>
      </trkpt>
      <trkpt lat="48.35342" lon="2.73809">
        <ele>133</ele>
        <time>2026-02-08T11:22:45.985+00:00</time>
      </trkpt>
      <trkpt lat="48.35345" lon="2.73806">
        <ele>133</ele>
        <time>2026-02-08T11:22:50.317+00:00</time>
      </trkpt>
      <trkpt lat="48.35349" lon="2.73803">
        <ele>130</ele>
        <time>2026-02-08T11:22:54.959+00:00</time>
      </trkpt>
      <trkpt lat="48.35353" lon="2.73801">
        <ele>130</ele>
        <time>2026-02-08T11:22:59.985+00:00</time>
      </trkpt>
      <trkpt lat="48.35357" lon="2.73805">
        <ele>130</ele>
        <time>2026-02-08T11:23:04.985+00:00</time>
      </trkpt>
      <trkpt lat="48.35359" lon="2.73805">
        <ele>130</ele>
        <time>2026-02-08T11:23:08.985+00:00</time>
      </trkpt>
      <trkpt lat="48.35363" lon="2.73806">
        <ele>130</ele>
        <time>2026-02-08T11:23:13.040+00:00</time>
      </trkpt>
      <trkpt lat="48.35363" lon="2.73805">
        <ele>130</ele>
        <time>2026-02-08T11:23:17.720+00:00</time>
      </trkpt>
      <trkpt lat="48.35368" lon="2.73805">
        <ele>130</ele>
        <time>2026-02-08T11:23:21.985+00:00</time>
      </trkpt>
      <trkpt lat="48.35371" lon="2.73807">
        <ele>130</ele>
        <time>2026-02-08T11:23:26.337+00:00</time>
      </trkpt>
      <trkpt lat="48.35376" lon="2.73808">
        <ele>128</ele>
        <time>2026-02-08T11:23:30.985+00:00</time>
      </trkpt>
      <trkpt lat="48.3538" lon="2.73806">
        <ele>128</ele>
        <time>2026-02-08T11:23:35.413+00:00</time>
      </trkpt>
      <trkpt lat="48.35384" lon="2.73808">
        <ele>128</ele>
        <time>2026-02-08T11:23:39.985+00:00</time>
      </trkpt>
      <trkpt lat="48.35388" lon="2.73808">
        <ele>128</ele>
        <time>2026-02-08T11:23:44.099+00:00</time>
      </trkpt>
      <trkpt lat="48.35393" lon="2.7381">
        <ele>128</ele>
        <time>2026-02-08T11:23:48.314+00:00</time>
      </trkpt>
      <trkpt lat="48.35398" lon="2.73813">
        <ele>128</ele>
        <time>2026-02-08T11:23:52.775+00:00</time>
      </trkpt>
      <trkpt lat="48.35403" lon="2.73812">
        <ele>127</ele>
        <time>2026-02-08T11:23:56.985+00:00</time>
      </trkpt>
      <trkpt lat="48.35408" lon="2.73812">
        <ele>127</ele>
        <time>2026-02-08T11:24:01.158+00:00</time>
      </trkpt>
      <trkpt lat="48.35413" lon="2.73814">
        <ele>127</ele>
        <time>2026-02-08T11:24:05.658+00:00</time>
      </trkpt>
      <trkpt lat="48.35417" lon="2.73815">
        <ele>127</ele>
        <time>2026-02-08T11:24:09.985+00:00</time>
      </trkpt>
      <trkpt lat="48.35422" lon="2.73813">
        <ele>127</ele>
        <time>2026-02-08T11:24:14.986+00:00</time>
      </trkpt>
      <trkpt lat="48.35426" lon="2.73811">
        <ele>127</ele>
        <time>2026-02-08T11:24:19.198+00:00</time>
      </trkpt>
      <trkpt lat="48.35431" lon="2.7381">
        <ele>129</ele>
        <time>2026-02-08T11:24:23.694+00:00</time>
      </trkpt>
      <trkpt lat="48.35437" lon="2.7381">
        <ele>129</ele>
        <time>2026-02-08T11:24:27.720+00:00</time>
      </trkpt>
      <trkpt lat="48.35442" lon="2.73812">
        <ele>129</ele>
        <time>2026-02-08T11:24:31.986+00:00</time>
      </trkpt>
      <trkpt lat="48.35447" lon="2.7381">
        <ele>129</ele>
        <time>2026-02-08T11:24:36.985+00:00</time>
      </trkpt>
      <trkpt lat="48.35452" lon="2.73808">
        <ele>129</ele>
        <time>2026-02-08T11:24:41.217+00:00</time>
      </trkpt>
      <trkpt lat="48.35456" lon="2.73802">
        <ele>129</ele>
        <time>2026-02-08T11:24:45.559+00:00</time>
      </trkpt>
      <trkpt lat="48.35459" lon="2.73796">
        <ele>131</ele>
        <time>2026-02-08T11:24:49.837+00:00</time>
      </trkpt>
      <trkpt lat="48.35463" lon="2.73792">
        <ele>131</ele>
        <time>2026-02-08T11:24:54.004+00:00</time>
      </trkpt>
      <trkpt lat="48.35467" lon="2.73788">
        <ele>130</ele>
        <time>2026-02-08T11:24:58.599+00:00</time>
      </trkpt>
      <trkpt lat="48.35469" lon="2.73783">
        <ele>130</ele>
        <time>2026-02-08T11:25:02.763+00:00</time>
      </trkpt>
      <trkpt lat="48.3547" lon="2.73776">
        <ele>130</ele>
        <time>2026-02-08T11:25:07.463+00:00</time>
      </trkpt>
      <trkpt lat="48.35471" lon="2.7377">
        <ele>130</ele>
        <time>2026-02-08T11:25:11.521+00:00</time>
      </trkpt>
      <trkpt lat="48.35473" lon="2.73765">
        <ele>130</ele>
        <time>2026-02-08T11:25:15.985+00:00</time>
      </trkpt>
      <trkpt lat="48.35473" lon="2.7376">
        <ele>130</ele>
        <time>2026-02-08T11:25:20.218+00:00</time>
      </trkpt>
      <trkpt lat="48.35474" lon="2.73755">
        <ele>130</ele>
        <time>2026-02-08T11:25:24.985+00:00</time>
      </trkpt>
      <trkpt lat="48.35474" lon="2.73749">
        <ele>130</ele>
        <time>2026-02-08T11:25:29.722+00:00</time>
      </trkpt>
      <trkpt lat="48.35475" lon="2.73745">
        <ele>130</ele>
        <time>2026-02-08T11:25:33.986+00:00</time>
      </trkpt>
      <trkpt lat="48.35477" lon="2.7374">
        <ele>130</ele>
        <time>2026-02-08T11:25:38.718+00:00</time>
      </trkpt>
      <trkpt lat="48.3548" lon="2.73737">
        <ele>130</ele>
        <time>2026-02-08T11:25:42.986+00:00</time>
      </trkpt>
      <trkpt lat="48.35482" lon="2.73744">
        <ele>130</ele>
        <time>2026-02-08T11:25:47.985+00:00</time>
      </trkpt>
      <trkpt lat="48.35483" lon="2.7375">
        <ele>130</ele>
        <time>2026-02-08T11:25:52.616+00:00</time>
      </trkpt>
      <trkpt lat="48.35485" lon="2.73753">
        <ele>130</ele>
        <time>2026-02-08T11:25:56.986+00:00</time>
      </trkpt>
      <trkpt lat="48.35486" lon="2.73758">
        <ele>130</ele>
        <time>2026-02-08T11:26:01.986+00:00</time>
      </trkpt>
      <trkpt lat="48.35488" lon="2.73754">
        <ele>133</ele>
        <time>2026-02-08T11:26:06.723+00:00</time>
      </trkpt>
      <trkpt lat="48.3549" lon="2.73753">
        <ele>133</ele>
        <time>2026-02-08T11:26:10.986+00:00</time>
      </trkpt>
      <trkpt lat="48.35494" lon="2.73757">
        <ele>133</ele>
        <time>2026-02-08T11:26:15.458+00:00</time>
      </trkpt>
      <trkpt lat="48.35496" lon="2.73759">
        <ele>133</ele>
        <time>2026-02-08T11:26:19.985+00:00</time>
      </trkpt>
      <trkpt lat="48.355" lon="2.73761">
        <ele>133</ele>
        <time>2026-02-08T11:26:24.259+00:00</time>
      </trkpt>
      <trkpt lat="48.35505" lon="2.73763">
        <ele>133</ele>
        <time>2026-02-08T11:26:28.985+00:00</time>
      </trkpt>
      <trkpt lat="48.35511" lon="2.73762">
        <ele>133</ele>
        <time>2026-02-08T11:26:33.558+00:00</time>
      </trkpt>
      <trkpt lat="48.35515" lon="2.73761">
        <ele>137</ele>
        <time>2026-02-08T11:26:37.654+00:00</time>
      </trkpt>
      <trkpt lat="48.3552" lon="2.73764">
        <ele>137</ele>
        <time>2026-02-08T11:26:41.986+00:00</time>
      </trkpt>
      <trkpt lat="48.35524" lon="2.73766">
        <ele>137</ele>
        <time>2026-02-08T11:26:46.457+00:00</time>
      </trkpt>
      <trkpt lat="48.35528" lon="2.73768">
        <ele>137</ele>
        <time>2026-02-08T11:26:50.986+00:00</time>
      </trkpt>
      <trkpt lat="48.35533" lon="2.73772">
        <ele>137</ele>
        <time>2026-02-08T11:26:55.284+00:00</time>
      </trkpt>
      <trkpt lat="48.35537" lon="2.73777">
        <ele>137</ele>
        <time>2026-02-08T11:26:59.719+00:00</time>
      </trkpt>
      <trkpt lat="48.35543" lon="2.7378">
        <ele>137</ele>
        <time>2026-02-08T11:27:03.985+00:00</time>
      </trkpt>
      <trkpt lat="48.35548" lon="2.73782">
        <ele>137</ele>
        <time>2026-02-08T11:27:08.703+00:00</time>
      </trkpt>
      <trkpt lat="48.35552" lon="2.73785">
        <ele>137</ele>
        <time>2026-02-08T11:27:12.985+00:00</time>
      </trkpt>
      <trkpt lat="48.35556" lon="2.73791">
        <ele>137</ele>
        <time>2026-02-08T11:27:17.985+00:00</time>
      </trkpt>
      <trkpt lat="48.3556" lon="2.73796">
        <ele>138</ele>
        <time>2026-02-08T11:27:22.984+00:00</time>
      </trkpt>
      <trkpt lat="48.35564" lon="2.73801">
        <ele>138</ele>
        <time>2026-02-08T11:27:27.733+00:00</time>
      </trkpt>
      <trkpt lat="48.35569" lon="2.73804">
        <ele>138</ele>
        <time>2026-02-08T11:27:32.480+00:00</time>
      </trkpt>
      <trkpt lat="48.35575" lon="2.73806">
        <ele>138</ele>
        <time>2026-02-08T11:27:36.984+00:00</time>
      </trkpt>
      <trkpt lat="48.3558" lon="2.7381">
        <ele>138</ele>
        <time>2026-02-08T11:27:41.980+00:00</time>
      </trkpt>
      <trkpt lat="48.35584" lon="2.73816">
        <ele>138</ele>
        <time>2026-02-08T11:27:46.805+00:00</time>
      </trkpt>
      <trkpt lat="48.35588" lon="2.73821">
        <ele>138</ele>
        <time>2026-02-08T11:27:51.411+00:00</time>
      </trkpt>
      <trkpt lat="48.35593" lon="2.73823">
        <ele>138</ele>
        <time>2026-02-08T11:27:55.984+00:00</time>
      </trkpt>
      <trkpt lat="48.35599" lon="2.73825">
        <ele>137</ele>
        <time>2026-02-08T11:28:00.715+00:00</time>
      </trkpt>
      <trkpt lat="48.35605" lon="2.73826">
        <ele>137</ele>
        <time>2026-02-08T11:28:05.535+00:00</time>
      </trkpt>
      <trkpt lat="48.35609" lon="2.73829">
        <ele>137</ele>
        <time>2026-02-08T11:28:09.520+00:00</time>
      </trkpt>
      <trkpt lat="48.35614" lon="2.73832">
        <ele>137</ele>
        <time>2026-02-08T11:28:13.985+00:00</time>
      </trkpt>
      <trkpt lat="48.35619" lon="2.73835">
        <ele>137</ele>
        <time>2026-02-08T11:28:18.481+00:00</time>
      </trkpt>
      <trkpt lat="48.35624" lon="2.73837">
        <ele>137</ele>
        <time>2026-02-08T11:28:22.984+00:00</time>
      </trkpt>
      <trkpt lat="48.35629" lon="2.73843">
        <ele>136</ele>
        <time>2026-02-08T11:28:27.835+00:00</time>
      </trkpt>
      <trkpt lat="48.35634" lon="2.73848">
        <ele>137</ele>
        <time>2026-02-08T11:28:32.937+00:00</time>
      </trkpt>
      <trkpt lat="48.35638" lon="2.73851">
        <ele>137</ele>
        <time>2026-02-08T11:28:37.362+00:00</time>
      </trkpt>
      <trkpt lat="48.35642" lon="2.73855">
        <ele>137</ele>
        <time>2026-02-08T11:28:41.456+00:00</time>
      </trkpt>
      <trkpt lat="48.35647" lon="2.73856">
        <ele>137</ele>
        <time>2026-02-08T11:28:45.889+00:00</time>
      </trkpt>
      <trkpt lat="48.35651" lon="2.73858">
        <ele>137</ele>
        <time>2026-02-08T11:28:49.984+00:00</time>
      </trkpt>
      <trkpt lat="48.35657" lon="2.73859">
        <ele>133</ele>
        <time>2026-02-08T11:28:54.398+00:00</time>
      </trkpt>
      <trkpt lat="48.35658" lon="2.73862">
        <ele>133</ele>
        <time>2026-02-08T11:28:58.985+00:00</time>
      </trkpt>
      <trkpt lat="48.3566" lon="2.73866">
        <ele>133</ele>
        <time>2026-02-08T11:29:03.635+00:00</time>
      </trkpt>
      <trkpt lat="48.35662" lon="2.7387">
        <ele>133</ele>
        <time>2026-02-08T11:29:07.670+00:00</time>
      </trkpt>
      <trkpt lat="48.35662" lon="2.73877">
        <ele>130</ele>
        <time>2026-02-08T11:29:12.085+00:00</time>
      </trkpt>
      <trkpt lat="48.35661" lon="2.73883">
        <ele>130</ele>
        <time>2026-02-08T11:29:16.137+00:00</time>
      </trkpt>
      <trkpt lat="48.35659" lon="2.7389">
        <ele>130</ele>
        <time>2026-02-08T11:29:20.777+00:00</time>
      </trkpt>
      <trkpt lat="48.35666" lon="2.73896">
        <ele>130</ele>
        <time>2026-02-08T11:29:47.985+00:00</time>
      </trkpt>
      <trkpt lat="48.35666" lon="2.73898">
        <ele>130</ele>
        <time>2026-02-08T11:29:52.984+00:00</time>
      </trkpt>
      <trkpt lat="48.35666" lon="2.73898">
        <ele>130</ele>
        <time>2026-02-08T11:29:59.985+00:00</time>
      </trkpt>
      <trkpt lat="48.35666" lon="2.73899">
        <ele>130</ele>
        <time>2026-02-08T11:30:04.484+00:00</time>
      </trkpt>
      <trkpt lat="48.35668" lon="2.73903">
        <ele>127</ele>
        <time>2026-02-08T11:30:08.984+00:00</time>
      </trkpt>
      <trkpt lat="48.3567" lon="2.73909">
        <ele>127</ele>
        <time>2026-02-08T11:30:13.976+00:00</time>
      </trkpt>
      <trkpt lat="48.35675" lon="2.73909">
        <ele>127</ele>
        <time>2026-02-08T11:30:18.984+00:00</time>
      </trkpt>
      <trkpt lat="48.35677" lon="2.73905">
        <ele>127</ele>
        <time>2026-02-08T11:30:23.944+00:00</time>
      </trkpt>
      <trkpt lat="48.3568" lon="2.739">
        <ele>130</ele>
        <time>2026-02-08T11:30:27.985+00:00</time>
      </trkpt>
      <trkpt lat="48.35689" lon="2.73896">
        <ele>123</ele>
        <time>2026-02-08T11:30:40.419+00:00</time>
      </trkpt>
      <trkpt lat="48.35688" lon="2.73904">
        <ele>120</ele>
        <time>2026-02-08T11:30:44.642+00:00</time>
      </trkpt>
      <trkpt lat="48.35686" lon="2.7391">
        <ele>120</ele>
        <time>2026-02-08T11:30:48.838+00:00</time>
      </trkpt>
      <trkpt lat="48.35683" lon="2.73916">
        <ele>120</ele>
        <time>2026-02-08T11:30:52.984+00:00</time>
      </trkpt>
      <trkpt lat="48.35678" lon="2.73918">
        <ele>127</ele>
        <time>2026-02-08T11:30:57.597+00:00</time>
      </trkpt>
      <trkpt lat="48.35684" lon="2.73922">
        <ele>120</ele>
        <time>2026-02-08T11:31:37.985+00:00</time>
      </trkpt>
      <trkpt lat="48.35685" lon="2.73921">
        <ele>120</ele>
        <time>2026-02-08T11:31:41.985+00:00</time>
      </trkpt>
      <trkpt lat="48.35688" lon="2.73919">
        <ele>120</ele>
        <time>2026-02-08T11:31:46.357+00:00</time>
      </trkpt>
      <trkpt lat="48.35692" lon="2.73917">
        <ele>120</ele>
        <time>2026-02-08T11:31:50.985+00:00</time>
      </trkpt>
      <trkpt lat="48.35694" lon="2.73916">
        <ele>120</ele>
        <time>2026-02-08T11:31:54.985+00:00</time>
      </trkpt>
      <trkpt lat="48.35702" lon="2.7391">
        <ele>120</ele>
        <time>2026-02-08T11:33:04.984+00:00</time>
      </trkpt>
      <trkpt lat="48.35703" lon="2.73913">
        <ele>120</ele>
        <time>2026-02-08T11:33:08.985+00:00</time>
      </trkpt>
      <trkpt lat="48.35704" lon="2.73913">
        <ele>120</ele>
        <time>2026-02-08T11:33:13.984+00:00</time>
      </trkpt>
      <trkpt lat="48.35706" lon="2.73913">
        <ele>120</ele>
        <time>2026-02-08T11:33:17.984+00:00</time>
      </trkpt>
      <trkpt lat="48.35707" lon="2.73915">
        <ele>120</ele>
        <time>2026-02-08T11:33:22.985+00:00</time>
      </trkpt>
      <trkpt lat="48.3571" lon="2.73914">
        <ele>110</ele>
        <time>2026-02-08T11:33:48.984+00:00</time>
      </trkpt>
      <trkpt lat="48.3571" lon="2.73913">
        <ele>110</ele>
        <time>2026-02-08T11:33:53.985+00:00</time>
      </trkpt>
      <trkpt lat="48.35712" lon="2.73913">
        <ele>110</ele>
        <time>2026-02-08T11:33:58.855+00:00</time>
      </trkpt>
      <trkpt lat="48.35715" lon="2.73913">
        <ele>110</ele>
        <time>2026-02-08T11:34:02.821+00:00</time>
      </trkpt>
      <trkpt lat="48.35716" lon="2.73912">
        <ele>110</ele>
        <time>2026-02-08T11:34:06.984+00:00</time>
      </trkpt>
      <trkpt lat="48.35723" lon="2.73912">
        <ele>110</ele>
        <time>2026-02-08T11:34:15.878+00:00</time>
      </trkpt>
      <trkpt lat="48.35727" lon="2.73911">
        <ele>110</ele>
        <time>2026-02-08T11:34:20.540+00:00</time>
      </trkpt>
      <trkpt lat="48.35727" lon="2.73911">
        <ele>110</ele>
        <time>2026-02-08T11:34:24.627+00:00</time>
      </trkpt>
      <trkpt lat="48.35729" lon="2.73911">
        <ele>110</ele>
        <time>2026-02-08T11:34:28.984+00:00</time>
      </trkpt>
      <trkpt lat="48.35731" lon="2.73911">
        <ele>110</ele>
        <time>2026-02-08T11:34:33.984+00:00</time>
      </trkpt>
      <trkpt lat="48.35733" lon="2.73912">
        <ele>110</ele>
        <time>2026-02-08T11:34:38.680+00:00</time>
      </trkpt>
      <trkpt lat="48.35737" lon="2.73914">
        <ele>102</ele>
        <time>2026-02-08T11:34:42.985+00:00</time>
      </trkpt>
      <trkpt lat="48.35742" lon="2.73917">
        <ele>102</ele>
        <time>2026-02-08T11:34:47.654+00:00</time>
      </trkpt>
      <trkpt lat="48.35747" lon="2.7392">
        <ele>102</ele>
        <time>2026-02-08T11:34:51.821+00:00</time>
      </trkpt>
      <trkpt lat="48.35752" lon="2.73921">
        <ele>102</ele>
        <time>2026-02-08T11:34:55.985+00:00</time>
      </trkpt>
      <trkpt lat="48.35757" lon="2.73923">
        <ele>102</ele>
        <time>2026-02-08T11:35:00.100+00:00</time>
      </trkpt>
      <trkpt lat="48.35763" lon="2.73924">
        <ele>102</ele>
        <time>2026-02-08T11:35:04.656+00:00</time>
      </trkpt>
      <trkpt lat="48.35768" lon="2.73922">
        <ele>98</ele>
        <time>2026-02-08T11:35:08.889+00:00</time>
      </trkpt>
      <trkpt lat="48.35773" lon="2.73924">
        <ele>98</ele>
        <time>2026-02-08T11:35:12.985+00:00</time>
      </trkpt>
      <trkpt lat="48.35777" lon="2.73923">
        <ele>98</ele>
        <time>2026-02-08T11:35:17.635+00:00</time>
      </trkpt>
      <trkpt lat="48.35782" lon="2.73927">
        <ele>98</ele>
        <time>2026-02-08T11:35:21.920+00:00</time>
      </trkpt>
      <trkpt lat="48.35787" lon="2.7393">
        <ele>98</ele>
        <time>2026-02-08T11:35:26.377+00:00</time>
      </trkpt>
      <trkpt lat="48.35793" lon="2.73931">
        <ele>95</ele>
        <time>2026-02-08T11:35:30.899+00:00</time>
      </trkpt>
      <trkpt lat="48.35798" lon="2.73932">
        <ele>95</ele>
        <time>2026-02-08T11:35:35.322+00:00</time>
      </trkpt>
      <trkpt lat="48.35804" lon="2.73933">
        <ele>95</ele>
        <time>2026-02-08T11:35:39.704+00:00</time>
      </trkpt>
      <trkpt lat="48.3581" lon="2.73934">
        <ele>95</ele>
        <time>2026-02-08T11:35:43.985+00:00</time>
      </trkpt>
      <trkpt lat="48.35816" lon="2.73935">
        <ele>95</ele>
        <time>2026-02-08T11:35:48.619+00:00</time>
      </trkpt>
      <trkpt lat="48.35822" lon="2.73935">
        <ele>92</ele>
        <time>2026-02-08T11:35:52.978+00:00</time>
      </trkpt>
      <trkpt lat="48.35827" lon="2.73935">
        <ele>92</ele>
        <time>2026-02-08T11:35:56.985+00:00</time>
      </trkpt>
      <trkpt lat="48.35834" lon="2.73936">
        <ele>92</ele>
        <time>2026-02-08T11:36:01.979+00:00</time>
      </trkpt>
      <trkpt lat="48.35839" lon="2.73937">
        <ele>92</ele>
        <time>2026-02-08T11:36:05.985+00:00</time>
      </trkpt>
      <trkpt lat="48.35845" lon="2.7394">
        <ele>92</ele>
        <time>2026-02-08T11:36:10.984+00:00</time>
      </trkpt>
      <trkpt lat="48.35851" lon="2.73943">
        <ele>93</ele>
        <time>2026-02-08T11:36:15.837+00:00</time>
      </trkpt>
      <trkpt lat="48.35857" lon="2.73946">
        <ele>93</ele>
        <time>2026-02-08T11:36:20.300+00:00</time>
      </trkpt>
      <trkpt lat="48.35862" lon="2.73947">
        <ele>93</ele>
        <time>2026-02-08T11:36:24.984+00:00</time>
      </trkpt>
      <trkpt lat="48.35868" lon="2.73949">
        <ele>93</ele>
        <time>2026-02-08T11:36:29.985+00:00</time>
      </trkpt>
      <trkpt lat="48.35872" lon="2.73949">
        <ele>93</ele>
        <time>2026-02-08T11:36:34.780+00:00</time>
      </trkpt>
      <trkpt lat="48.35873" lon="2.73949">
        <ele>93</ele>
        <time>2026-02-08T11:36:38.985+00:00</time>
      </trkpt>
      <trkpt lat="48.35873" lon="2.73946">
        <ele>93</ele>
        <time>2026-02-08T11:38:10.985+00:00</time>
      </trkpt>
      <trkpt lat="48.35876" lon="2.73954">
        <ele>96</ele>
        <time>2026-02-08T11:38:15.364+00:00</time>
      </trkpt>
      <trkpt lat="48.35882" lon="2.73958">
        <ele>96</ele>
        <time>2026-02-08T11:38:19.985+00:00</time>
      </trkpt>
      <trkpt lat="48.35888" lon="2.73959">
        <ele>96</ele>
        <time>2026-02-08T11:38:24.220+00:00</time>
      </trkpt>
      <trkpt lat="48.35893" lon="2.73959">
        <ele>96</ele>
        <time>2026-02-08T11:38:28.340+00:00</time>
      </trkpt>
      <trkpt lat="48.35899" lon="2.7396">
        <ele>96</ele>
        <time>2026-02-08T11:38:32.905+00:00</time>
      </trkpt>
      <trkpt lat="48.35903" lon="2.73961">
        <ele>97</ele>
        <time>2026-02-08T11:38:36.984+00:00</time>
      </trkpt>
      <trkpt lat="48.35908" lon="2.73963">
        <ele>97</ele>
        <time>2026-02-08T11:38:41.376+00:00</time>
      </trkpt>
      <trkpt lat="48.35913" lon="2.73964">
        <ele>97</ele>
        <time>2026-02-08T11:38:45.985+00:00</time>
      </trkpt>
      <trkpt lat="48.35918" lon="2.73966">
        <ele>97</ele>
        <time>2026-02-08T11:38:50.554+00:00</time>
      </trkpt>
      <trkpt lat="48.35922" lon="2.73971">
        <ele>97</ele>
        <time>2026-02-08T11:38:55.338+00:00</time>
      </trkpt>
      <trkpt lat="48.35925" lon="2.73973">
        <ele>97</ele>
        <time>2026-02-08T11:38:59.523+00:00</time>
      </trkpt>
      <trkpt lat="48.35929" lon="2.73972">
        <ele>97</ele>
        <time>2026-02-08T11:39:03.943+00:00</time>
      </trkpt>
      <trkpt lat="48.35936" lon="2.73968">
        <ele>97</ele>
        <time>2026-02-08T11:39:22.985+00:00</time>
      </trkpt>
      <trkpt lat="48.35936" lon="2.73973">
        <ele>97</ele>
        <time>2026-02-08T11:39:26.985+00:00</time>
      </trkpt>
      <trkpt lat="48.35936" lon="2.73974">
        <ele>97</ele>
        <time>2026-02-08T11:39:31.683+00:00</time>
      </trkpt>
      <trkpt lat="48.35937" lon="2.73978">
        <ele>97</ele>
        <time>2026-02-08T11:39:35.958+00:00</time>
      </trkpt>
      <trkpt lat="48.35939" lon="2.73975">
        <ele>97</ele>
        <time>2026-02-08T11:39:40.295+00:00</time>
      </trkpt>
      <trkpt lat="48.35946" lon="2.73977">
        <ele>97</ele>
        <time>2026-02-08T11:39:44.941+00:00</time>
      </trkpt>
      <trkpt lat="48.3595" lon="2.73979">
        <ele>97</ele>
        <time>2026-02-08T11:39:48.983+00:00</time>
      </trkpt>
      <trkpt lat="48.35954" lon="2.73977">
        <ele>97</ele>
        <time>2026-02-08T11:39:53.984+00:00</time>
      </trkpt>
      <trkpt lat="48.35959" lon="2.73976">
        <ele>99</ele>
        <time>2026-02-08T11:39:58.464+00:00</time>
      </trkpt>
      <trkpt lat="48.35963" lon="2.73976">
        <ele>99</ele>
        <time>2026-02-08T11:40:02.984+00:00</time>
      </trkpt>
      <trkpt lat="48.35965" lon="2.73976">
        <ele>99</ele>
        <time>2026-02-08T11:40:07.477+00:00</time>
      </trkpt>
      <trkpt lat="48.35968" lon="2.73977">
        <ele>99</ele>
        <time>2026-02-08T11:40:11.984+00:00</time>
      </trkpt>
      <trkpt lat="48.35972" lon="2.73982">
        <ele>99</ele>
        <time>2026-02-08T11:40:16.482+00:00</time>
      </trkpt>
      <trkpt lat="48.35976" lon="2.73985">
        <ele>99</ele>
        <time>2026-02-08T11:40:20.983+00:00</time>
      </trkpt>
      <trkpt lat="48.3598" lon="2.7399">
        <ele>102</ele>
        <time>2026-02-08T11:40:25.902+00:00</time>
      </trkpt>
      <trkpt lat="48.35984" lon="2.73994">
        <ele>102</ele>
        <time>2026-02-08T11:40:29.984+00:00</time>
      </trkpt>
      <trkpt lat="48.35989" lon="2.73998">
        <ele>104</ele>
        <time>2026-02-08T11:40:34.983+00:00</time>
      </trkpt>
      <trkpt lat="48.35993" lon="2.74002">
        <ele>104</ele>
        <time>2026-02-08T11:40:39.634+00:00</time>
      </trkpt>
      <trkpt lat="48.35997" lon="2.74006">
        <ele>104</ele>
        <time>2026-02-08T11:40:43.813+00:00</time>
      </trkpt>
      <trkpt lat="48.36002" lon="2.74008">
        <ele>104</ele>
        <time>2026-02-08T11:40:47.984+00:00</time>
      </trkpt>
      <trkpt lat="48.36006" lon="2.74012">
        <ele>104</ele>
        <time>2026-02-08T11:40:52.474+00:00</time>
      </trkpt>
      <trkpt lat="48.36011" lon="2.74015">
        <ele>108</ele>
        <time>2026-02-08T11:40:56.983+00:00</time>
      </trkpt>
      <trkpt lat="48.36015" lon="2.74019">
        <ele>108</ele>
        <time>2026-02-08T11:41:00.984+00:00</time>
      </trkpt>
      <trkpt lat="48.36019" lon="2.74021">
        <ele>108</ele>
        <time>2026-02-08T11:41:05.147+00:00</time>
      </trkpt>
      <trkpt lat="48.36024" lon="2.74025">
        <ele>108</ele>
        <time>2026-02-08T11:41:09.327+00:00</time>
      </trkpt>
      <trkpt lat="48.36028" lon="2.74028">
        <ele>108</ele>
        <time>2026-02-08T11:41:13.415+00:00</time>
      </trkpt>
      <trkpt lat="48.36032" lon="2.74032">
        <ele>108</ele>
        <time>2026-02-08T11:41:17.538+00:00</time>
      </trkpt>
      <trkpt lat="48.36037" lon="2.74035">
        <ele>108</ele>
        <time>2026-02-08T11:41:21.626+00:00</time>
      </trkpt>
      <trkpt lat="48.3604" lon="2.74039">
        <ele>108</ele>
        <time>2026-02-08T11:41:25.705+00:00</time>
      </trkpt>
      <trkpt lat="48.36045" lon="2.74043">
        <ele>109</ele>
        <time>2026-02-08T11:41:29.983+00:00</time>
      </trkpt>
      <trkpt lat="48.36051" lon="2.74048">
        <ele>109</ele>
        <time>2026-02-08T11:41:34.709+00:00</time>
      </trkpt>
      <trkpt lat="48.36054" lon="2.74053">
        <ele>109</ele>
        <time>2026-02-08T11:41:38.830+00:00</time>
      </trkpt>
      <trkpt lat="48.36058" lon="2.74057">
        <ele>109</ele>
        <time>2026-02-08T11:41:42.903+00:00</time>
      </trkpt>
      <trkpt lat="48.36061" lon="2.74064">
        <ele>109</ele>
        <time>2026-02-08T11:41:47.460+00:00</time>
      </trkpt>
      <trkpt lat="48.36064" lon="2.74068">
        <ele>109</ele>
        <time>2026-02-08T11:41:51.444+00:00</time>
      </trkpt>
      <trkpt lat="48.36066" lon="2.74075">
        <ele>112</ele>
        <time>2026-02-08T11:41:55.803+00:00</time>
      </trkpt>
      <trkpt lat="48.36068" lon="2.74081">
        <ele>112</ele>
        <time>2026-02-08T11:41:59.983+00:00</time>
      </trkpt>
      <trkpt lat="48.36071" lon="2.74087">
        <ele>109</ele>
        <time>2026-02-08T11:42:03.984+00:00</time>
      </trkpt>
      <trkpt lat="48.36072" lon="2.74094">
        <ele>109</ele>
        <time>2026-02-08T11:42:08.660+00:00</time>
      </trkpt>
      <trkpt lat="48.36072" lon="2.74101">
        <ele>111</ele>
        <time>2026-02-08T11:42:12.781+00:00</time>
      </trkpt>
      <trkpt lat="48.36072" lon="2.74109">
        <ele>111</ele>
        <time>2026-02-08T11:42:17.041+00:00</time>
      </trkpt>
      <trkpt lat="48.36073" lon="2.74117">
        <ele>111</ele>
        <time>2026-02-08T11:42:21.607+00:00</time>
      </trkpt>
      <trkpt lat="48.36074" lon="2.74124">
        <ele>111</ele>
        <time>2026-02-08T11:42:25.864+00:00</time>
      </trkpt>
      <trkpt lat="48.36074" lon="2.74132">
        <ele>112</ele>
        <time>2026-02-08T11:42:29.925+00:00</time>
      </trkpt>
      <trkpt lat="48.36075" lon="2.74138">
        <ele>112</ele>
        <time>2026-02-08T11:42:33.984+00:00</time>
      </trkpt>
      <trkpt lat="48.36076" lon="2.74147">
        <ele>112</ele>
        <time>2026-02-08T11:42:48.984+00:00</time>
      </trkpt>
      <trkpt lat="48.36076" lon="2.74148">
        <ele>112</ele>
        <time>2026-02-08T11:42:55.983+00:00</time>
      </trkpt>
      <trkpt lat="48.36076" lon="2.7415">
        <ele>112</ele>
        <time>2026-02-08T11:43:00.437+00:00</time>
      </trkpt>
      <trkpt lat="48.36074" lon="2.74158">
        <ele>114</ele>
        <time>2026-02-08T11:43:04.984+00:00</time>
      </trkpt>
      <trkpt lat="48.36071" lon="2.74163">
        <ele>114</ele>
        <time>2026-02-08T11:43:09.349+00:00</time>
      </trkpt>
      <trkpt lat="48.36069" lon="2.74167">
        <ele>121</ele>
        <time>2026-02-08T11:43:13.645+00:00</time>
      </trkpt>
      <trkpt lat="48.36067" lon="2.74169">
        <ele>121</ele>
        <time>2026-02-08T11:43:17.765+00:00</time>
      </trkpt>
      <trkpt lat="48.36062" lon="2.74171">
        <ele>121</ele>
        <time>2026-02-08T11:43:21.983+00:00</time>
      </trkpt>
      <trkpt lat="48.36058" lon="2.7417">
        <ele>121</ele>
        <time>2026-02-08T11:43:25.983+00:00</time>
      </trkpt>
      <trkpt lat="48.36055" lon="2.74166">
        <ele>121</ele>
        <time>2026-02-08T11:43:29.984+00:00</time>
      </trkpt>
      <trkpt lat="48.36053" lon="2.74159">
        <ele>121</ele>
        <time>2026-02-08T11:43:34.742+00:00</time>
      </trkpt>
      <trkpt lat="48.36049" lon="2.74153">
        <ele>121</ele>
        <time>2026-02-08T11:43:39.520+00:00</time>
      </trkpt>
      <trkpt lat="48.36047" lon="2.74149">
        <ele>118</ele>
        <time>2026-02-08T11:43:43.905+00:00</time>
      </trkpt>
      <trkpt lat="48.36043" lon="2.74145">
        <ele>118</ele>
        <time>2026-02-08T11:43:48.284+00:00</time>
      </trkpt>
      <trkpt lat="48.3604" lon="2.74142">
        <ele>123</ele>
        <time>2026-02-08T11:43:52.330+00:00</time>
      </trkpt>
      <trkpt lat="48.36036" lon="2.7414">
        <ele>123</ele>
        <time>2026-02-08T11:43:56.766+00:00</time>
      </trkpt>
      <trkpt lat="48.36032" lon="2.74137">
        <ele>123</ele>
        <time>2026-02-08T11:44:00.828+00:00</time>
      </trkpt>
      <trkpt lat="48.36027" lon="2.74135">
        <ele>123</ele>
        <time>2026-02-08T11:44:04.984+00:00</time>
      </trkpt>
      <trkpt lat="48.36022" lon="2.74134">
        <ele>123</ele>
        <time>2026-02-08T11:44:09.141+00:00</time>
      </trkpt>
      <trkpt lat="48.36017" lon="2.74133">
        <ele>123</ele>
        <time>2026-02-08T11:44:13.825+00:00</time>
      </trkpt>
      <trkpt lat="48.36011" lon="2.74134">
        <ele>123</ele>
        <time>2026-02-08T11:44:18.883+00:00</time>
      </trkpt>
      <trkpt lat="48.36007" lon="2.74138">
        <ele>123</ele>
        <time>2026-02-08T11:44:23.124+00:00</time>
      </trkpt>
      <trkpt lat="48.36002" lon="2.7414">
        <ele>123</ele>
        <time>2026-02-08T11:44:27.586+00:00</time>
      </trkpt>
      <trkpt lat="48.35997" lon="2.74143">
        <ele>123</ele>
        <time>2026-02-08T11:44:31.638+00:00</time>
      </trkpt>
      <trkpt lat="48.35994" lon="2.74146">
        <ele>123</ele>
        <time>2026-02-08T11:44:35.729+00:00</time>
      </trkpt>
      <trkpt lat="48.35989" lon="2.74148">
        <ele>123</ele>
        <time>2026-02-08T11:44:40.910+00:00</time>
      </trkpt>
      <trkpt lat="48.35983" lon="2.7415">
        <ele>121</ele>
        <time>2026-02-08T11:44:45.684+00:00</time>
      </trkpt>
      <trkpt lat="48.35979" lon="2.74154">
        <ele>124</ele>
        <time>2026-02-08T11:44:50.083+00:00</time>
      </trkpt>
      <trkpt lat="48.35977" lon="2.74159">
        <ele>124</ele>
        <time>2026-02-08T11:44:54.984+00:00</time>
      </trkpt>
      <trkpt lat="48.35975" lon="2.74163">
        <ele>124</ele>
        <time>2026-02-08T11:44:59.442+00:00</time>
      </trkpt>
      <trkpt lat="48.35972" lon="2.74167">
        <ele>124</ele>
        <time>2026-02-08T11:45:03.940+00:00</time>
      </trkpt>
      <trkpt lat="48.35968" lon="2.74171">
        <ele>124</ele>
        <time>2026-02-08T11:45:07.984+00:00</time>
      </trkpt>
      <trkpt lat="48.35966" lon="2.74175">
        <ele>124</ele>
        <time>2026-02-08T11:45:12.418+00:00</time>
      </trkpt>
      <trkpt lat="48.35964" lon="2.7418">
        <ele>124</ele>
        <time>2026-02-08T11:45:16.598+00:00</time>
      </trkpt>
      <trkpt lat="48.35962" lon="2.74185">
        <ele>127</ele>
        <time>2026-02-08T11:45:20.685+00:00</time>
      </trkpt>
      <trkpt lat="48.35959" lon="2.74191">
        <ele>127</ele>
        <time>2026-02-08T11:45:25.422+00:00</time>
      </trkpt>
      <trkpt lat="48.35957" lon="2.74196">
        <ele>121</ele>
        <time>2026-02-08T11:45:29.468+00:00</time>
      </trkpt>
      <trkpt lat="48.35956" lon="2.74202">
        <ele>121</ele>
        <time>2026-02-08T11:45:33.887+00:00</time>
      </trkpt>
      <trkpt lat="48.35955" lon="2.74208">
        <ele>121</ele>
        <time>2026-02-08T11:45:37.984+00:00</time>
      </trkpt>
      <trkpt lat="48.35954" lon="2.74215">
        <ele>122</ele>
        <time>2026-02-08T11:45:42.984+00:00</time>
      </trkpt>
      <trkpt lat="48.35954" lon="2.74221">
        <ele>122</ele>
        <time>2026-02-08T11:45:47.412+00:00</time>
      </trkpt>
      <trkpt lat="48.35956" lon="2.74228">
        <ele>122</ele>
        <time>2026-02-08T11:45:51.901+00:00</time>
      </trkpt>
      <trkpt lat="48.35959" lon="2.74232">
        <ele>128</ele>
        <time>2026-02-08T11:45:55.918+00:00</time>
      </trkpt>
      <trkpt lat="48.35963" lon="2.74236">
        <ele>128</ele>
        <time>2026-02-08T11:46:00.445+00:00</time>
      </trkpt>
      <trkpt lat="48.35968" lon="2.74236">
        <ele>128</ele>
        <time>2026-02-08T11:46:04.984+00:00</time>
      </trkpt>
      <trkpt lat="48.35972" lon="2.74231">
        <ele>128</ele>
        <time>2026-02-08T11:46:09.483+00:00</time>
      </trkpt>
      <trkpt lat="48.35974" lon="2.74222">
        <ele>128</ele>
        <time>2026-02-08T11:46:13.920+00:00</time>
      </trkpt>
      <trkpt lat="48.35977" lon="2.74215">
        <ele>128</ele>
        <time>2026-02-08T11:46:18.206+00:00</time>
      </trkpt>
      <trkpt lat="48.35981" lon="2.74208">
        <ele>127</ele>
        <time>2026-02-08T11:46:22.545+00:00</time>
      </trkpt>
      <trkpt lat="48.35984" lon="2.74202">
        <ele>127</ele>
        <time>2026-02-08T11:46:27.024+00:00</time>
      </trkpt>
      <trkpt lat="48.35988" lon="2.74199">
        <ele>129</ele>
        <time>2026-02-08T11:46:31.665+00:00</time>
      </trkpt>
      <trkpt lat="48.35991" lon="2.74196">
        <ele>129</ele>
        <time>2026-02-08T11:46:35.701+00:00</time>
      </trkpt>
      <trkpt lat="48.35994" lon="2.74191">
        <ele>129</ele>
        <time>2026-02-08T11:46:40.166+00:00</time>
      </trkpt>
      <trkpt lat="48.35997" lon="2.74189">
        <ele>129</ele>
        <time>2026-02-08T11:46:44.185+00:00</time>
      </trkpt>
      <trkpt lat="48.36003" lon="2.74189">
        <ele>129</ele>
        <time>2026-02-08T11:46:48.928+00:00</time>
      </trkpt>
      <trkpt lat="48.36006" lon="2.74196">
        <ele>129</ele>
        <time>2026-02-08T11:46:53.984+00:00</time>
      </trkpt>
      <trkpt lat="48.36006" lon="2.74205">
        <ele>129</ele>
        <time>2026-02-08T11:46:58.722+00:00</time>
      </trkpt>
      <trkpt lat="48.36009" lon="2.74209">
        <ele>132</ele>
        <time>2026-02-08T11:47:02.984+00:00</time>
      </trkpt>
      <trkpt lat="48.36008" lon="2.74215">
        <ele>132</ele>
        <time>2026-02-08T11:47:07.586+00:00</time>
      </trkpt>
      <trkpt lat="48.3601" lon="2.74222">
        <ele>132</ele>
        <time>2026-02-08T11:47:11.984+00:00</time>
      </trkpt>
      <trkpt lat="48.36012" lon="2.74227">
        <ele>132</ele>
        <time>2026-02-08T11:47:16.282+00:00</time>
      </trkpt>
      <trkpt lat="48.36015" lon="2.74232">
        <ele>132</ele>
        <time>2026-02-08T11:47:20.720+00:00</time>
      </trkpt>
      <trkpt lat="48.36018" lon="2.74237">
        <ele>134</ele>
        <time>2026-02-08T11:47:24.984+00:00</time>
      </trkpt>
      <trkpt lat="48.36019" lon="2.74243">
        <ele>134</ele>
        <time>2026-02-08T11:47:28.984+00:00</time>
      </trkpt>
      <trkpt lat="48.36021" lon="2.7425">
        <ele>134</ele>
        <time>2026-02-08T11:47:33.644+00:00</time>
      </trkpt>
      <trkpt lat="48.36022" lon="2.74256">
        <ele>134</ele>
        <time>2026-02-08T11:47:37.983+00:00</time>
      </trkpt>
      <trkpt lat="48.36023" lon="2.74263">
        <ele>134</ele>
        <time>2026-02-08T11:47:42.423+00:00</time>
      </trkpt>
      <trkpt lat="48.36025" lon="2.74269">
        <ele>135</ele>
        <time>2026-02-08T11:47:46.800+00:00</time>
      </trkpt>
      <trkpt lat="48.36024" lon="2.7427">
        <ele>135</ele>
        <time>2026-02-08T11:47:52.984+00:00</time>
      </trkpt>
      <trkpt lat="48.36024" lon="2.74277">
        <ele>135</ele>
        <time>2026-02-08T11:47:57.199+00:00</time>
      </trkpt>
      <trkpt lat="48.36026" lon="2.74284">
        <ele>135</ele>
        <time>2026-02-08T11:48:01.782+00:00</time>
      </trkpt>
      <trkpt lat="48.36028" lon="2.74291">
        <ele>135</ele>
        <time>2026-02-08T11:48:05.984+00:00</time>
      </trkpt>
      <trkpt lat="48.3603" lon="2.74299">
        <ele>136</ele>
        <time>2026-02-08T11:48:10.705+00:00</time>
      </trkpt>
      <trkpt lat="48.36031" lon="2.74307">
        <ele>136</ele>
        <time>2026-02-08T11:48:14.984+00:00</time>
      </trkpt>
      <trkpt lat="48.36031" lon="2.74313">
        <ele>136</ele>
        <time>2026-02-08T11:48:19.184+00:00</time>
      </trkpt>
      <trkpt lat="48.36034" lon="2.7432">
        <ele>137</ele>
        <time>2026-02-08T11:48:23.399+00:00</time>
      </trkpt>
      <trkpt lat="48.36036" lon="2.74326">
        <ele>137</ele>
        <time>2026-02-08T11:48:27.741+00:00</time>
      </trkpt>
      <trkpt lat="48.36037" lon="2.74333">
        <ele>137</ele>
        <time>2026-02-08T11:48:31.983+00:00</time>
      </trkpt>
      <trkpt lat="48.36035" lon="2.74336">
        <ele>137</ele>
        <time>2026-02-08T11:48:36.984+00:00</time>
      </trkpt>
      <trkpt lat="48.36034" lon="2.74341">
        <ele>137</ele>
        <time>2026-02-08T11:48:40.984+00:00</time>
      </trkpt>
      <trkpt lat="48.36036" lon="2.74351">
        <ele>137</ele>
        <time>2026-02-08T11:48:45.658+00:00</time>
      </trkpt>
      <trkpt lat="48.36037" lon="2.7436">
        <ele>137</ele>
        <time>2026-02-08T11:48:49.701+00:00</time>
      </trkpt>
      <trkpt lat="48.36038" lon="2.74368">
        <ele>137</ele>
        <time>2026-02-08T11:48:53.881+00:00</time>
      </trkpt>
      <trkpt lat="48.36036" lon="2.74376">
        <ele>137</ele>
        <time>2026-02-08T11:48:57.984+00:00</time>
      </trkpt>
      <trkpt lat="48.36031" lon="2.7438">
        <ele>137</ele>
        <time>2026-02-08T11:49:02.438+00:00</time>
      </trkpt>
      <trkpt lat="48.36029" lon="2.74387">
        <ele>137</ele>
        <time>2026-02-08T11:49:06.721+00:00</time>
      </trkpt>
      <trkpt lat="48.36027" lon="2.74392">
        <ele>137</ele>
        <time>2026-02-08T11:49:10.983+00:00</time>
      </trkpt>
      <trkpt lat="48.36027" lon="2.744">
        <ele>137</ele>
        <time>2026-02-08T11:49:15.984+00:00</time>
      </trkpt>
      <trkpt lat="48.36026" lon="2.74407">
        <ele>137</ele>
        <time>2026-02-08T11:49:20.542+00:00</time>
      </trkpt>
      <trkpt lat="48.36027" lon="2.74414">
        <ele>137</ele>
        <time>2026-02-08T11:49:24.984+00:00</time>
      </trkpt>
      <trkpt lat="48.36026" lon="2.74423">
        <ele>137</ele>
        <time>2026-02-08T11:49:29.984+00:00</time>
      </trkpt>
      <trkpt lat="48.36025" lon="2.74431">
        <ele>136</ele>
        <time>2026-02-08T11:49:34.984+00:00</time>
      </trkpt>
      <trkpt lat="48.36024" lon="2.74438">
        <ele>136</ele>
        <time>2026-02-08T11:49:39.542+00:00</time>
      </trkpt>
      <trkpt lat="48.36024" lon="2.74445">
        <ele>136</ele>
        <time>2026-02-08T11:49:43.619+00:00</time>
      </trkpt>
      <trkpt lat="48.36023" lon="2.74452">
        <ele>136</ele>
        <time>2026-02-08T11:49:47.680+00:00</time>
      </trkpt>
      <trkpt lat="48.36022" lon="2.74459">
        <ele>136</ele>
        <time>2026-02-08T11:49:51.983+00:00</time>
      </trkpt>
      <trkpt lat="48.3602" lon="2.74464">
        <ele>136</ele>
        <time>2026-02-08T11:49:55.990+00:00</time>
      </trkpt>
      <trkpt lat="48.36019" lon="2.74471">
        <ele>136</ele>
        <time>2026-02-08T11:50:00.421+00:00</time>
      </trkpt>
      <trkpt lat="48.36018" lon="2.74478">
        <ele>136</ele>
        <time>2026-02-08T11:50:04.983+00:00</time>
      </trkpt>
      <trkpt lat="48.36018" lon="2.74486">
        <ele>136</ele>
        <time>2026-02-08T11:50:09.760+00:00</time>
      </trkpt>
      <trkpt lat="48.36018" lon="2.74493">
        <ele>136</ele>
        <time>2026-02-08T11:50:13.984+00:00</time>
      </trkpt>
      <trkpt lat="48.36017" lon="2.745">
        <ele>136</ele>
        <time>2026-02-08T11:50:18.205+00:00</time>
      </trkpt>
      <trkpt lat="48.36016" lon="2.74507">
        <ele>136</ele>
        <time>2026-02-08T11:50:22.958+00:00</time>
      </trkpt>
      <trkpt lat="48.36015" lon="2.74514">
        <ele>137</ele>
        <time>2026-02-08T11:50:27.420+00:00</time>
      </trkpt>
      <trkpt lat="48.36014" lon="2.74522">
        <ele>137</ele>
        <time>2026-02-08T11:50:31.644+00:00</time>
      </trkpt>
      <trkpt lat="48.36014" lon="2.74529">
        <ele>134</ele>
        <time>2026-02-08T11:50:35.984+00:00</time>
      </trkpt>
      <trkpt lat="48.36012" lon="2.74538">
        <ele>134</ele>
        <time>2026-02-08T11:50:40.746+00:00</time>
      </trkpt>
      <trkpt lat="48.36011" lon="2.74546">
        <ele>134</ele>
        <time>2026-02-08T11:50:44.984+00:00</time>
      </trkpt>
      <trkpt lat="48.36011" lon="2.74554">
        <ele>134</ele>
        <time>2026-02-08T11:50:49.226+00:00</time>
      </trkpt>
      <trkpt lat="48.3601" lon="2.74563">
        <ele>134</ele>
        <time>2026-02-08T11:50:53.423+00:00</time>
      </trkpt>
      <trkpt lat="48.36007" lon="2.74569">
        <ele>134</ele>
        <time>2026-02-08T11:50:57.983+00:00</time>
      </trkpt>
      <trkpt lat="48.36007" lon="2.74577">
        <ele>134</ele>
        <time>2026-02-08T11:51:01.984+00:00</time>
      </trkpt>
      <trkpt lat="48.36006" lon="2.74585">
        <ele>134</ele>
        <time>2026-02-08T11:51:06.984+00:00</time>
      </trkpt>
      <trkpt lat="48.36004" lon="2.74588">
        <ele>134</ele>
        <time>2026-02-08T11:51:10.984+00:00</time>
      </trkpt>
      <trkpt lat="48.36001" lon="2.74595">
        <ele>134</ele>
        <time>2026-02-08T11:51:15.862+00:00</time>
      </trkpt>
      <trkpt lat="48.36002" lon="2.74603">
        <ele>133</ele>
        <time>2026-02-08T11:51:20.983+00:00</time>
      </trkpt>
      <trkpt lat="48.36002" lon="2.74609">
        <ele>133</ele>
        <time>2026-02-08T11:51:24.984+00:00</time>
      </trkpt>
      <trkpt lat="48.36004" lon="2.74616">
        <ele>133</ele>
        <time>2026-02-08T11:51:29.984+00:00</time>
      </trkpt>
      <trkpt lat="48.36006" lon="2.74624">
        <ele>133</ele>
        <time>2026-02-08T11:51:34.984+00:00</time>
      </trkpt>
      <trkpt lat="48.36008" lon="2.74632">
        <ele>133</ele>
        <time>2026-02-08T11:51:38.984+00:00</time>
      </trkpt>
      <trkpt lat="48.36011" lon="2.74639">
        <ele>133</ele>
        <time>2026-02-08T11:51:42.984+00:00</time>
      </trkpt>
      <trkpt lat="48.36016" lon="2.7465">
        <ele>136</ele>
        <time>2026-02-08T11:51:47.863+00:00</time>
      </trkpt>
      <trkpt lat="48.36018" lon="2.74657">
        <ele>134</ele>
        <time>2026-02-08T11:51:51.983+00:00</time>
      </trkpt>
      <trkpt lat="48.36021" lon="2.74664">
        <ele>134</ele>
        <time>2026-02-08T11:51:56.984+00:00</time>
      </trkpt>
      <trkpt lat="48.36024" lon="2.74671">
        <ele>134</ele>
        <time>2026-02-08T11:52:01.984+00:00</time>
      </trkpt>
      <trkpt lat="48.36029" lon="2.74678">
        <ele>134</ele>
        <time>2026-02-08T11:52:06.984+00:00</time>
      </trkpt>
      <trkpt lat="48.36033" lon="2.74686">
        <ele>133</ele>
        <time>2026-02-08T11:52:11.984+00:00</time>
      </trkpt>
      <trkpt lat="48.36037" lon="2.7469">
        <ele>133</ele>
        <time>2026-02-08T11:52:15.984+00:00</time>
      </trkpt>
      <trkpt lat="48.3604" lon="2.74697">
        <ele>133</ele>
        <time>2026-02-08T11:52:20.364+00:00</time>
      </trkpt>
      <trkpt lat="48.36042" lon="2.74706">
        <ele>137</ele>
        <time>2026-02-08T11:52:24.984+00:00</time>
      </trkpt>
      <trkpt lat="48.36045" lon="2.74711">
        <ele>135</ele>
        <time>2026-02-08T11:52:29.501+00:00</time>
      </trkpt>
      <trkpt lat="48.36047" lon="2.74718">
        <ele>135</ele>
        <time>2026-02-08T11:52:33.622+00:00</time>
      </trkpt>
      <trkpt lat="48.3605" lon="2.74724">
        <ele>135</ele>
        <time>2026-02-08T11:52:37.984+00:00</time>
      </trkpt>
      <trkpt lat="48.36053" lon="2.74731">
        <ele>135</ele>
        <time>2026-02-08T11:52:42.623+00:00</time>
      </trkpt>
      <trkpt lat="48.36055" lon="2.74739">
        <ele>132</ele>
        <time>2026-02-08T11:52:46.983+00:00</time>
      </trkpt>
      <trkpt lat="48.36057" lon="2.74748">
        <ele>132</ele>
        <time>2026-02-08T11:52:51.982+00:00</time>
      </trkpt>
      <trkpt lat="48.3606" lon="2.74755">
        <ele>132</ele>
        <time>2026-02-08T11:52:56.266+00:00</time>
      </trkpt>
      <trkpt lat="48.36063" lon="2.74762">
        <ele>132</ele>
        <time>2026-02-08T11:53:00.803+00:00</time>
      </trkpt>
      <trkpt lat="48.36066" lon="2.74768">
        <ele>129</ele>
        <time>2026-02-08T11:53:05.983+00:00</time>
      </trkpt>
      <trkpt lat="48.36069" lon="2.74774">
        <ele>129</ele>
        <time>2026-02-08T11:53:10.983+00:00</time>
      </trkpt>
      <trkpt lat="48.36071" lon="2.74777">
        <ele>134</ele>
        <time>2026-02-08T11:53:14.983+00:00</time>
      </trkpt>
      <trkpt lat="48.36071" lon="2.74779">
        <ele>134</ele>
        <time>2026-02-08T11:53:18.982+00:00</time>
      </trkpt>
      <trkpt lat="48.36072" lon="2.74784">
        <ele>134</ele>
        <time>2026-02-08T11:53:23.747+00:00</time>
      </trkpt>
      <trkpt lat="48.36074" lon="2.74788">
        <ele>134</ele>
        <time>2026-02-08T11:53:27.982+00:00</time>
      </trkpt>
      <trkpt lat="48.36075" lon="2.74794">
        <ele>134</ele>
        <time>2026-02-08T11:53:32.840+00:00</time>
      </trkpt>
      <trkpt lat="48.36077" lon="2.74799">
        <ele>134</ele>
        <time>2026-02-08T11:53:37.984+00:00</time>
      </trkpt>
      <trkpt lat="48.3608" lon="2.74805">
        <ele>134</ele>
        <time>2026-02-08T11:53:42.778+00:00</time>
      </trkpt>
      <trkpt lat="48.36084" lon="2.74813">
        <ele>134</ele>
        <time>2026-02-08T11:53:47.982+00:00</time>
      </trkpt>
      <trkpt lat="48.36086" lon="2.74819">
        <ele>134</ele>
        <time>2026-02-08T11:53:52.445+00:00</time>
      </trkpt>
      <trkpt lat="48.36089" lon="2.74825">
        <ele>132</ele>
        <time>2026-02-08T11:53:56.779+00:00</time>
      </trkpt>
      <trkpt lat="48.36092" lon="2.7483">
        <ele>132</ele>
        <time>2026-02-08T11:54:00.982+00:00</time>
      </trkpt>
      <trkpt lat="48.36096" lon="2.74836">
        <ele>132</ele>
        <time>2026-02-08T11:54:05.824+00:00</time>
      </trkpt>
      <trkpt lat="48.36098" lon="2.74843">
        <ele>137</ele>
        <time>2026-02-08T11:54:10.463+00:00</time>
      </trkpt>
      <trkpt lat="48.361" lon="2.74849">
        <ele>136</ele>
        <time>2026-02-08T11:54:14.584+00:00</time>
      </trkpt>
      <trkpt lat="48.36102" lon="2.74856">
        <ele>136</ele>
        <time>2026-02-08T11:54:18.983+00:00</time>
      </trkpt>
      <trkpt lat="48.36103" lon="2.74863">
        <ele>136</ele>
        <time>2026-02-08T11:54:23.619+00:00</time>
      </trkpt>
      <trkpt lat="48.36103" lon="2.7487">
        <ele>136</ele>
        <time>2026-02-08T11:54:27.982+00:00</time>
      </trkpt>
      <trkpt lat="48.36104" lon="2.74877">
        <ele>134</ele>
        <time>2026-02-08T11:54:32.982+00:00</time>
      </trkpt>
      <trkpt lat="48.36106" lon="2.74884">
        <ele>134</ele>
        <time>2026-02-08T11:54:37.467+00:00</time>
      </trkpt>
      <trkpt lat="48.36107" lon="2.74892">
        <ele>134</ele>
        <time>2026-02-08T11:54:41.740+00:00</time>
      </trkpt>
      <trkpt lat="48.36107" lon="2.749">
        <ele>134</ele>
        <time>2026-02-08T11:54:45.983+00:00</time>
      </trkpt>
      <trkpt lat="48.36108" lon="2.74908">
        <ele>133</ele>
        <time>2026-02-08T11:54:50.982+00:00</time>
      </trkpt>
      <trkpt lat="48.3611" lon="2.74915">
        <ele>133</ele>
        <time>2026-02-08T11:54:54.983+00:00</time>
      </trkpt>
      <trkpt lat="48.36112" lon="2.74923">
        <ele>133</ele>
        <time>2026-02-08T11:54:59.983+00:00</time>
      </trkpt>
      <trkpt lat="48.36113" lon="2.74928">
        <ele>133</ele>
        <time>2026-02-08T11:55:03.982+00:00</time>
      </trkpt>
      <trkpt lat="48.36114" lon="2.74936">
        <ele>132</ele>
        <time>2026-02-08T11:55:08.983+00:00</time>
      </trkpt>
      <trkpt lat="48.36114" lon="2.74942">
        <ele>132</ele>
        <time>2026-02-08T11:55:12.982+00:00</time>
      </trkpt>
      <trkpt lat="48.36115" lon="2.74948">
        <ele>132</ele>
        <time>2026-02-08T11:55:17.641+00:00</time>
      </trkpt>
      <trkpt lat="48.36109" lon="2.74954">
        <ele>132</ele>
        <time>2026-02-08T11:55:21.982+00:00</time>
      </trkpt>
      <trkpt lat="48.36106" lon="2.74958">
        <ele>132</ele>
        <time>2026-02-08T11:55:26.625+00:00</time>
      </trkpt>
      <trkpt lat="48.36105" lon="2.74958">
        <ele>132</ele>
        <time>2026-02-08T11:55:31.324+00:00</time>
      </trkpt>
      <trkpt lat="48.36105" lon="2.74961">
        <ele>132</ele>
        <time>2026-02-08T11:55:35.685+00:00</time>
      </trkpt>
      <trkpt lat="48.36106" lon="2.74967">
        <ele>132</ele>
        <time>2026-02-08T11:55:39.982+00:00</time>
      </trkpt>
      <trkpt lat="48.36107" lon="2.74974">
        <ele>132</ele>
        <time>2026-02-08T11:55:44.198+00:00</time>
      </trkpt>
      <trkpt lat="48.36107" lon="2.74981">
        <ele>132</ele>
        <time>2026-02-08T11:55:48.763+00:00</time>
      </trkpt>
      <trkpt lat="48.36103" lon="2.74989">
        <ele>132</ele>
        <time>2026-02-08T11:55:53.985+00:00</time>
      </trkpt>
      <trkpt lat="48.36104" lon="2.74997">
        <ele>132</ele>
        <time>2026-02-08T11:55:57.983+00:00</time>
      </trkpt>
      <trkpt lat="48.36109" lon="2.75001">
        <ele>132</ele>
        <time>2026-02-08T11:56:02.983+00:00</time>
      </trkpt>
      <trkpt lat="48.36115" lon="2.75003">
        <ele>132</ele>
        <time>2026-02-08T11:56:07.983+00:00</time>
      </trkpt>
      <trkpt lat="48.36118" lon="2.75002">
        <ele>132</ele>
        <time>2026-02-08T11:56:11.982+00:00</time>
      </trkpt>
      <trkpt lat="48.36123" lon="2.75003">
        <ele>132</ele>
        <time>2026-02-08T11:56:16.733+00:00</time>
      </trkpt>
      <trkpt lat="48.36125" lon="2.75008">
        <ele>136</ele>
        <time>2026-02-08T11:56:20.736+00:00</time>
      </trkpt>
      <trkpt lat="48.36126" lon="2.75016">
        <ele>135</ele>
        <time>2026-02-08T11:56:24.982+00:00</time>
      </trkpt>
      <trkpt lat="48.36125" lon="2.75025">
        <ele>135</ele>
        <time>2026-02-08T11:56:28.983+00:00</time>
      </trkpt>
      <trkpt lat="48.36124" lon="2.75034">
        <ele>131</ele>
        <time>2026-02-08T11:56:33.797+00:00</time>
      </trkpt>
      <trkpt lat="48.36124" lon="2.75042">
        <ele>130</ele>
        <time>2026-02-08T11:56:38.499+00:00</time>
      </trkpt>
      <trkpt lat="48.36121" lon="2.75049">
        <ele>130</ele>
        <time>2026-02-08T11:56:42.849+00:00</time>
      </trkpt>
      <trkpt lat="48.3612" lon="2.75059">
        <ele>130</ele>
        <time>2026-02-08T11:56:47.982+00:00</time>
      </trkpt>
      <trkpt lat="48.36119" lon="2.75066">
        <ele>130</ele>
        <time>2026-02-08T11:56:52.097+00:00</time>
      </trkpt>
      <trkpt lat="48.36119" lon="2.75074">
        <ele>129</ele>
        <time>2026-02-08T11:56:56.431+00:00</time>
      </trkpt>
      <trkpt lat="48.36118" lon="2.75082">
        <ele>129</ele>
        <time>2026-02-08T11:57:00.983+00:00</time>
      </trkpt>
      <trkpt lat="48.36118" lon="2.75091">
        <ele>129</ele>
        <time>2026-02-08T11:57:05.983+00:00</time>
      </trkpt>
      <trkpt lat="48.36116" lon="2.751">
        <ele>129</ele>
        <time>2026-02-08T11:57:10.894+00:00</time>
      </trkpt>
      <trkpt lat="48.36116" lon="2.75108">
        <ele>129</ele>
        <time>2026-02-08T11:57:14.982+00:00</time>
      </trkpt>
      <trkpt lat="48.36114" lon="2.75116">
        <ele>129</ele>
        <time>2026-02-08T11:57:19.475+00:00</time>
      </trkpt>
      <trkpt lat="48.36114" lon="2.75124">
        <ele>129</ele>
        <time>2026-02-08T11:57:23.877+00:00</time>
      </trkpt>
      <trkpt lat="48.36113" lon="2.75133">
        <ele>130</ele>
        <time>2026-02-08T11:57:28.595+00:00</time>
      </trkpt>
      <trkpt lat="48.36112" lon="2.7514">
        <ele>130</ele>
        <time>2026-02-08T11:57:32.631+00:00</time>
      </trkpt>
      <trkpt lat="48.36111" lon="2.75147">
        <ele>130</ele>
        <time>2026-02-08T11:57:36.938+00:00</time>
      </trkpt>
      <trkpt lat="48.3611" lon="2.75155">
        <ele>132</ele>
        <time>2026-02-08T11:57:40.982+00:00</time>
      </trkpt>
      <trkpt lat="48.36109" lon="2.75163">
        <ele>132</ele>
        <time>2026-02-08T11:57:45.598+00:00</time>
      </trkpt>
      <trkpt lat="48.36109" lon="2.75171">
        <ele>132</ele>
        <time>2026-02-08T11:57:49.983+00:00</time>
      </trkpt>
      <trkpt lat="48.36108" lon="2.75179">
        <ele>132</ele>
        <time>2026-02-08T11:57:54.838+00:00</time>
      </trkpt>
      <trkpt lat="48.36106" lon="2.75186">
        <ele>133</ele>
        <time>2026-02-08T11:57:58.983+00:00</time>
      </trkpt>
      <trkpt lat="48.36102" lon="2.75192">
        <ele>133</ele>
        <time>2026-02-08T11:58:03.395+00:00</time>
      </trkpt>
      <trkpt lat="48.36098" lon="2.75195">
        <ele>133</ele>
        <time>2026-02-08T11:58:07.533+00:00</time>
      </trkpt>
      <trkpt lat="48.36093" lon="2.75195">
        <ele>132</ele>
        <time>2026-02-08T11:58:11.983+00:00</time>
      </trkpt>
      <trkpt lat="48.36089" lon="2.75194">
        <ele>132</ele>
        <time>2026-02-08T11:58:15.983+00:00</time>
      </trkpt>
      <trkpt lat="48.36083" lon="2.75193">
        <ele>132</ele>
        <time>2026-02-08T11:58:20.982+00:00</time>
      </trkpt>
      <trkpt lat="48.36078" lon="2.75196">
        <ele>132</ele>
        <time>2026-02-08T11:58:25.756+00:00</time>
      </trkpt>
      <trkpt lat="48.36072" lon="2.75198">
        <ele>132</ele>
        <time>2026-02-08T11:58:30.397+00:00</time>
      </trkpt>
      <trkpt lat="48.36067" lon="2.75201">
        <ele>126</ele>
        <time>2026-02-08T11:58:34.877+00:00</time>
      </trkpt>
      <trkpt lat="48.36063" lon="2.75207">
        <ele>126</ele>
        <time>2026-02-08T11:58:38.982+00:00</time>
      </trkpt>
      <trkpt lat="48.36061" lon="2.75216">
        <ele>125</ele>
        <time>2026-02-08T11:58:43.818+00:00</time>
      </trkpt>
      <trkpt lat="48.36062" lon="2.75223">
        <ele>125</ele>
        <time>2026-02-08T11:58:47.983+00:00</time>
      </trkpt>
      <trkpt lat="48.36061" lon="2.75232">
        <ele>125</ele>
        <time>2026-02-08T11:58:52.477+00:00</time>
      </trkpt>
      <trkpt lat="48.36061" lon="2.75239">
        <ele>124</ele>
        <time>2026-02-08T11:58:56.913+00:00</time>
      </trkpt>
      <trkpt lat="48.36062" lon="2.75246">
        <ele>124</ele>
        <time>2026-02-08T11:59:01.256+00:00</time>
      </trkpt>
      <trkpt lat="48.36067" lon="2.75251">
        <ele>124</ele>
        <time>2026-02-08T11:59:48.982+00:00</time>
      </trkpt>
      <trkpt lat="48.36066" lon="2.75247">
        <ele>124</ele>
        <time>2026-02-08T11:59:53.954+00:00</time>
      </trkpt>
      <trkpt lat="48.36065" lon="2.75238">
        <ele>124</ele>
        <time>2026-02-08T11:59:57.982+00:00</time>
      </trkpt>
      <trkpt lat="48.36065" lon="2.75228">
        <ele>125</ele>
        <time>2026-02-08T12:00:02.983+00:00</time>
      </trkpt>
      <trkpt lat="48.36065" lon="2.7522">
        <ele>125</ele>
        <time>2026-02-08T12:00:07.315+00:00</time>
      </trkpt>
      <trkpt lat="48.36062" lon="2.75211">
        <ele>125</ele>
        <time>2026-02-08T12:00:41.982+00:00</time>
      </trkpt>
      <trkpt lat="48.36066" lon="2.75209">
        <ele>125</ele>
        <time>2026-02-08T12:00:45.982+00:00</time>
      </trkpt>
      <trkpt lat="48.36068" lon="2.75201">
        <ele>126</ele>
        <time>2026-02-08T12:00:50.478+00:00</time>
      </trkpt>
      <trkpt lat="48.36071" lon="2.75197">
        <ele>132</ele>
        <time>2026-02-08T12:00:54.514+00:00</time>
      </trkpt>
      <trkpt lat="48.36073" lon="2.75194">
        <ele>132</ele>
        <time>2026-02-08T12:00:58.556+00:00</time>
      </trkpt>
      <trkpt lat="48.36079" lon="2.75192">
        <ele>132</ele>
        <time>2026-02-08T12:01:06.739+00:00</time>
      </trkpt>
      <trkpt lat="48.3608" lon="2.75191">
        <ele>132</ele>
        <time>2026-02-08T12:01:12.983+00:00</time>
      </trkpt>
      <trkpt lat="48.3608" lon="2.75191">
        <ele>132</ele>
        <time>2026-02-08T12:01:17.615+00:00</time>
      </trkpt>
      <trkpt lat="48.36083" lon="2.75193">
        <ele>132</ele>
        <time>2026-02-08T12:01:21.693+00:00</time>
      </trkpt>
      <trkpt lat="48.36086" lon="2.75196">
        <ele>132</ele>
        <time>2026-02-08T12:01:26.130+00:00</time>
      </trkpt>
      <trkpt lat="48.36084" lon="2.75196">
        <ele>132</ele>
        <time>2026-02-08T12:44:34.976+00:00</time>
      </trkpt>
      <trkpt lat="48.36083" lon="2.75195">
        <ele>132</ele>
        <time>2026-02-08T12:44:39.978+00:00</time>
      </trkpt>
      <trkpt lat="48.36081" lon="2.75195">
        <ele>132</ele>
        <time>2026-02-08T12:44:44.978+00:00</time>
      </trkpt>
      <trkpt lat="48.3608" lon="2.75196">
        <ele>132</ele>
        <time>2026-02-08T12:44:49.417+00:00</time>
      </trkpt>
      <trkpt lat="48.36076" lon="2.75198">
        <ele>132</ele>
        <time>2026-02-08T12:44:53.770+00:00</time>
      </trkpt>
      <trkpt lat="48.36073" lon="2.75199">
        <ele>132</ele>
        <time>2026-02-08T12:44:57.977+00:00</time>
      </trkpt>
      <trkpt lat="48.36068" lon="2.752">
        <ele>126</ele>
        <time>2026-02-08T12:45:02.610+00:00</time>
      </trkpt>
      <trkpt lat="48.36064" lon="2.75204">
        <ele>126</ele>
        <time>2026-02-08T12:45:06.666+00:00</time>
      </trkpt>
      <trkpt lat="48.36062" lon="2.75211">
        <ele>125</ele>
        <time>2026-02-08T12:45:10.978+00:00</time>
      </trkpt>
      <trkpt lat="48.36063" lon="2.75215">
        <ele>125</ele>
        <time>2026-02-08T12:45:15.570+00:00</time>
      </trkpt>
      <trkpt lat="48.36063" lon="2.7522">
        <ele>125</ele>
        <time>2026-02-08T12:45:19.977+00:00</time>
      </trkpt>
      <trkpt lat="48.36061" lon="2.75226">
        <ele>125</ele>
        <time>2026-02-08T12:45:24.977+00:00</time>
      </trkpt>
      <trkpt lat="48.36062" lon="2.75231">
        <ele>125</ele>
        <time>2026-02-08T12:45:29.389+00:00</time>
      </trkpt>
      <trkpt lat="48.36066" lon="2.75247">
        <ele>124</ele>
        <time>2026-02-08T12:46:36.977+00:00</time>
      </trkpt>
      <trkpt lat="48.36068" lon="2.75249">
        <ele>124</ele>
        <time>2026-02-08T12:46:40.977+00:00</time>
      </trkpt>
      <trkpt lat="48.36069" lon="2.75252">
        <ele>129</ele>
        <time>2026-02-08T12:46:44.978+00:00</time>
      </trkpt>
      <trkpt lat="48.3607" lon="2.7526">
        <ele>129</ele>
        <time>2026-02-08T12:46:49.978+00:00</time>
      </trkpt>
      <trkpt lat="48.36072" lon="2.75261">
        <ele>129</ele>
        <time>2026-02-08T12:46:54.643+00:00</time>
      </trkpt>
      <trkpt lat="48.36074" lon="2.75265">
        <ele>126</ele>
        <time>2026-02-08T12:46:58.977+00:00</time>
      </trkpt>
      <trkpt lat="48.36077" lon="2.75268">
        <ele>126</ele>
        <time>2026-02-08T12:47:02.977+00:00</time>
      </trkpt>
      <trkpt lat="48.36081" lon="2.7527">
        <ele>126</ele>
        <time>2026-02-08T12:47:07.978+00:00</time>
      </trkpt>
      <trkpt lat="48.36086" lon="2.75268">
        <ele>126</ele>
        <time>2026-02-08T12:47:12.648+00:00</time>
      </trkpt>
      <trkpt lat="48.36091" lon="2.75264">
        <ele>126</ele>
        <time>2026-02-08T12:48:04.977+00:00</time>
      </trkpt>
      <trkpt lat="48.36093" lon="2.75265">
        <ele>126</ele>
        <time>2026-02-08T12:48:09.978+00:00</time>
      </trkpt>
      <trkpt lat="48.36094" lon="2.75268">
        <ele>126</ele>
        <time>2026-02-08T12:48:14.645+00:00</time>
      </trkpt>
      <trkpt lat="48.36095" lon="2.7527">
        <ele>126</ele>
        <time>2026-02-08T12:48:18.707+00:00</time>
      </trkpt>
      <trkpt lat="48.36097" lon="2.75275">
        <ele>126</ele>
        <time>2026-02-08T12:48:22.978+00:00</time>
      </trkpt>
      <trkpt lat="48.36103" lon="2.75278">
        <ele>126</ele>
        <time>2026-02-08T12:48:31.978+00:00</time>
      </trkpt>
      <trkpt lat="48.36106" lon="2.75277">
        <ele>126</ele>
        <time>2026-02-08T12:48:36.745+00:00</time>
      </trkpt>
      <trkpt lat="48.36109" lon="2.75276">
        <ele>126</ele>
        <time>2026-02-08T12:48:40.978+00:00</time>
      </trkpt>
      <trkpt lat="48.3611" lon="2.75276">
        <ele>126</ele>
        <time>2026-02-08T12:48:45.567+00:00</time>
      </trkpt>
      <trkpt lat="48.36111" lon="2.75276">
        <ele>126</ele>
        <time>2026-02-08T12:48:49.978+00:00</time>
      </trkpt>
      <trkpt lat="48.36113" lon="2.75277">
        <ele>126</ele>
        <time>2026-02-08T12:48:54.493+00:00</time>
      </trkpt>
      <trkpt lat="48.36115" lon="2.75281">
        <ele>126</ele>
        <time>2026-02-08T12:48:58.724+00:00</time>
      </trkpt>
      <trkpt lat="48.36117" lon="2.75286">
        <ele>126</ele>
        <time>2026-02-08T12:49:03.408+00:00</time>
      </trkpt>
      <trkpt lat="48.36116" lon="2.75293">
        <ele>122</ele>
        <time>2026-02-08T12:49:07.977+00:00</time>
      </trkpt>
      <trkpt lat="48.36114" lon="2.75299">
        <ele>122</ele>
        <time>2026-02-08T12:49:12.873+00:00</time>
      </trkpt>
      <trkpt lat="48.36114" lon="2.75303">
        <ele>122</ele>
        <time>2026-02-08T12:49:16.977+00:00</time>
      </trkpt>
      <trkpt lat="48.36115" lon="2.75309">
        <ele>122</ele>
        <time>2026-02-08T12:49:21.847+00:00</time>
      </trkpt>
      <trkpt lat="48.36117" lon="2.75313">
        <ele>122</ele>
        <time>2026-02-08T12:49:25.977+00:00</time>
      </trkpt>
      <trkpt lat="48.36118" lon="2.75318">
        <ele>122</ele>
        <time>2026-02-08T12:49:29.978+00:00</time>
      </trkpt>
      <trkpt lat="48.36119" lon="2.75323">
        <ele>119</ele>
        <time>2026-02-08T12:49:34.629+00:00</time>
      </trkpt>
      <trkpt lat="48.3612" lon="2.75329">
        <ele>119</ele>
        <time>2026-02-08T12:49:38.904+00:00</time>
      </trkpt>
      <trkpt lat="48.36121" lon="2.75333">
        <ele>119</ele>
        <time>2026-02-08T12:49:42.978+00:00</time>
      </trkpt>
      <trkpt lat="48.36121" lon="2.75337">
        <ele>119</ele>
        <time>2026-02-08T12:49:46.977+00:00</time>
      </trkpt>
      <trkpt lat="48.36123" lon="2.75343">
        <ele>119</ele>
        <time>2026-02-08T12:49:51.523+00:00</time>
      </trkpt>
      <trkpt lat="48.36124" lon="2.75348">
        <ele>117</ele>
        <time>2026-02-08T12:49:55.867+00:00</time>
      </trkpt>
      <trkpt lat="48.36124" lon="2.75352">
        <ele>117</ele>
        <time>2026-02-08T12:49:59.978+00:00</time>
      </trkpt>
      <trkpt lat="48.36125" lon="2.75357">
        <ele>117</ele>
        <time>2026-02-08T12:50:04.365+00:00</time>
      </trkpt>
      <trkpt lat="48.36125" lon="2.75363">
        <ele>114</ele>
        <time>2026-02-08T12:50:08.652+00:00</time>
      </trkpt>
      <trkpt lat="48.36127" lon="2.75368">
        <ele>114</ele>
        <time>2026-02-08T12:50:12.978+00:00</time>
      </trkpt>
      <trkpt lat="48.36129" lon="2.75375">
        <ele>114</ele>
        <time>2026-02-08T12:50:17.786+00:00</time>
      </trkpt>
      <trkpt lat="48.3613" lon="2.75382">
        <ele>113</ele>
        <time>2026-02-08T12:50:22.267+00:00</time>
      </trkpt>
      <trkpt lat="48.36133" lon="2.75386">
        <ele>113</ele>
        <time>2026-02-08T12:50:26.977+00:00</time>
      </trkpt>
      <trkpt lat="48.36134" lon="2.75393">
        <ele>113</ele>
        <time>2026-02-08T12:50:31.105+00:00</time>
      </trkpt>
      <trkpt lat="48.36136" lon="2.754">
        <ele>113</ele>
        <time>2026-02-08T12:50:35.951+00:00</time>
      </trkpt>
      <trkpt lat="48.36138" lon="2.75405">
        <ele>112</ele>
        <time>2026-02-08T12:50:40.345+00:00</time>
      </trkpt>
      <trkpt lat="48.36139" lon="2.75411">
        <ele>112</ele>
        <time>2026-02-08T12:50:44.628+00:00</time>
      </trkpt>
      <trkpt lat="48.36141" lon="2.75417">
        <ele>112</ele>
        <time>2026-02-08T12:50:48.808+00:00</time>
      </trkpt>
      <trkpt lat="48.36142" lon="2.75423">
        <ele>112</ele>
        <time>2026-02-08T12:50:53.245+00:00</time>
      </trkpt>
      <trkpt lat="48.36144" lon="2.75429">
        <ele>112</ele>
        <time>2026-02-08T12:50:57.504+00:00</time>
      </trkpt>
      <trkpt lat="48.36145" lon="2.75433">
        <ele>111</ele>
        <time>2026-02-08T12:51:01.727+00:00</time>
      </trkpt>
      <trkpt lat="48.36146" lon="2.75438">
        <ele>111</ele>
        <time>2026-02-08T12:51:06.206+00:00</time>
      </trkpt>
      <trkpt lat="48.36148" lon="2.75445">
        <ele>111</ele>
        <time>2026-02-08T12:51:10.976+00:00</time>
      </trkpt>
      <trkpt lat="48.36149" lon="2.7545">
        <ele>111</ele>
        <time>2026-02-08T12:51:15.378+00:00</time>
      </trkpt>
      <trkpt lat="48.36151" lon="2.75454">
        <ele>111</ele>
        <time>2026-02-08T12:51:19.706+00:00</time>
      </trkpt>
      <trkpt lat="48.36153" lon="2.75459">
        <ele>109</ele>
        <time>2026-02-08T12:51:23.979+00:00</time>
      </trkpt>
      <trkpt lat="48.36155" lon="2.75465">
        <ele>109</ele>
        <time>2026-02-08T12:51:28.977+00:00</time>
      </trkpt>
      <trkpt lat="48.36156" lon="2.75469">
        <ele>109</ele>
        <time>2026-02-08T12:51:33.633+00:00</time>
      </trkpt>
      <trkpt lat="48.36158" lon="2.75474">
        <ele>109</ele>
        <time>2026-02-08T12:51:37.977+00:00</time>
      </trkpt>
      <trkpt lat="48.36159" lon="2.75479">
        <ele>109</ele>
        <time>2026-02-08T12:51:42.545+00:00</time>
      </trkpt>
      <trkpt lat="48.36161" lon="2.75484">
        <ele>109</ele>
        <time>2026-02-08T12:51:46.845+00:00</time>
      </trkpt>
      <trkpt lat="48.36163" lon="2.7549">
        <ele>109</ele>
        <time>2026-02-08T12:51:51.170+00:00</time>
      </trkpt>
      <trkpt lat="48.36164" lon="2.75495">
        <ele>109</ele>
        <time>2026-02-08T12:51:55.769+00:00</time>
      </trkpt>
      <trkpt lat="48.36165" lon="2.75503">
        <ele>109</ele>
        <time>2026-02-08T12:51:59.967+00:00</time>
      </trkpt>
      <trkpt lat="48.36168" lon="2.75509">
        <ele>109</ele>
        <time>2026-02-08T12:52:04.551+00:00</time>
      </trkpt>
      <trkpt lat="48.3617" lon="2.75514">
        <ele>108</ele>
        <time>2026-02-08T12:52:08.977+00:00</time>
      </trkpt>
      <trkpt lat="48.36172" lon="2.75521">
        <ele>108</ele>
        <time>2026-02-08T12:52:13.492+00:00</time>
      </trkpt>
      <trkpt lat="48.36174" lon="2.75527">
        <ele>108</ele>
        <time>2026-02-08T12:52:17.883+00:00</time>
      </trkpt>
      <trkpt lat="48.36176" lon="2.75532">
        <ele>108</ele>
        <time>2026-02-08T12:52:22.108+00:00</time>
      </trkpt>
      <trkpt lat="48.36178" lon="2.75537">
        <ele>108</ele>
        <time>2026-02-08T12:52:26.484+00:00</time>
      </trkpt>
      <trkpt lat="48.36179" lon="2.75544">
        <ele>105</ele>
        <time>2026-02-08T12:52:30.887+00:00</time>
      </trkpt>
      <trkpt lat="48.3618" lon="2.7555">
        <ele>105</ele>
        <time>2026-02-08T12:52:35.341+00:00</time>
      </trkpt>
      <trkpt lat="48.36183" lon="2.75557">
        <ele>101</ele>
        <time>2026-02-08T12:52:39.977+00:00</time>
      </trkpt>
      <trkpt lat="48.36185" lon="2.75563">
        <ele>101</ele>
        <time>2026-02-08T12:52:44.977+00:00</time>
      </trkpt>
      <trkpt lat="48.36188" lon="2.75568">
        <ele>101</ele>
        <time>2026-02-08T12:52:49.589+00:00</time>
      </trkpt>
      <trkpt lat="48.36192" lon="2.75573">
        <ele>100</ele>
        <time>2026-02-08T12:52:53.847+00:00</time>
      </trkpt>
      <trkpt lat="48.36197" lon="2.75575">
        <ele>100</ele>
        <time>2026-02-08T12:52:57.967+00:00</time>
      </trkpt>
      <trkpt lat="48.36202" lon="2.75573">
        <ele>100</ele>
        <time>2026-02-08T12:53:02.729+00:00</time>
      </trkpt>
      <trkpt lat="48.36206" lon="2.75573">
        <ele>100</ele>
        <time>2026-02-08T12:53:07.315+00:00</time>
      </trkpt>
      <trkpt lat="48.36211" lon="2.7557">
        <ele>100</ele>
        <time>2026-02-08T12:53:11.433+00:00</time>
      </trkpt>
      <trkpt lat="48.36215" lon="2.75565">
        <ele>100</ele>
        <time>2026-02-08T12:53:15.689+00:00</time>
      </trkpt>
      <trkpt lat="48.36219" lon="2.75561">
        <ele>100</ele>
        <time>2026-02-08T12:53:19.750+00:00</time>
      </trkpt>
      <trkpt lat="48.36222" lon="2.75556">
        <ele>100</ele>
        <time>2026-02-08T12:53:23.828+00:00</time>
      </trkpt>
      <trkpt lat="48.36227" lon="2.75553">
        <ele>100</ele>
        <time>2026-02-08T12:53:27.976+00:00</time>
      </trkpt>
      <trkpt lat="48.36232" lon="2.75549">
        <ele>100</ele>
        <time>2026-02-08T12:53:32.607+00:00</time>
      </trkpt>
      <trkpt lat="48.36237" lon="2.75545">
        <ele>102</ele>
        <time>2026-02-08T12:53:36.976+00:00</time>
      </trkpt>
      <trkpt lat="48.36242" lon="2.75541">
        <ele>102</ele>
        <time>2026-02-08T12:53:41.310+00:00</time>
      </trkpt>
      <trkpt lat="48.36245" lon="2.75538">
        <ele>102</ele>
        <time>2026-02-08T12:53:45.686+00:00</time>
      </trkpt>
      <trkpt lat="48.36249" lon="2.75535">
        <ele>102</ele>
        <time>2026-02-08T12:53:49.688+00:00</time>
      </trkpt>
      <trkpt lat="48.36254" lon="2.75531">
        <ele>102</ele>
        <time>2026-02-08T12:53:53.977+00:00</time>
      </trkpt>
      <trkpt lat="48.36264" lon="2.75524">
        <ele>102</ele>
        <time>2026-02-08T12:53:58.425+00:00</time>
      </trkpt>
      <trkpt lat="48.3627" lon="2.75521">
        <ele>102</ele>
        <time>2026-02-08T12:54:02.964+00:00</time>
      </trkpt>
      <trkpt lat="48.36272" lon="2.75517">
        <ele>102</ele>
        <time>2026-02-08T12:54:06.976+00:00</time>
      </trkpt>
      <trkpt lat="48.36276" lon="2.75512">
        <ele>103</ele>
        <time>2026-02-08T12:54:11.923+00:00</time>
      </trkpt>
      <trkpt lat="48.36279" lon="2.75508">
        <ele>103</ele>
        <time>2026-02-08T12:54:16.445+00:00</time>
      </trkpt>
      <trkpt lat="48.36281" lon="2.75503">
        <ele>103</ele>
        <time>2026-02-08T12:54:20.976+00:00</time>
      </trkpt>
      <trkpt lat="48.36284" lon="2.755">
        <ele>103</ele>
        <time>2026-02-08T12:54:24.976+00:00</time>
      </trkpt>
      <trkpt lat="48.36286" lon="2.75496">
        <ele>103</ele>
        <time>2026-02-08T12:54:29.686+00:00</time>
      </trkpt>
      <trkpt lat="48.36289" lon="2.75493">
        <ele>103</ele>
        <time>2026-02-08T12:54:34.310+00:00</time>
      </trkpt>
      <trkpt lat="48.36292" lon="2.7549">
        <ele>102</ele>
        <time>2026-02-08T12:54:38.883+00:00</time>
      </trkpt>
      <trkpt lat="48.36295" lon="2.75488">
        <ele>102</ele>
        <time>2026-02-08T12:54:42.927+00:00</time>
      </trkpt>
      <trkpt lat="48.36298" lon="2.75486">
        <ele>103</ele>
        <time>2026-02-08T12:54:46.947+00:00</time>
      </trkpt>
      <trkpt lat="48.36302" lon="2.75482">
        <ele>103</ele>
        <time>2026-02-08T12:54:51.921+00:00</time>
      </trkpt>
      <trkpt lat="48.36305" lon="2.75478">
        <ele>103</ele>
        <time>2026-02-08T12:54:56.203+00:00</time>
      </trkpt>
      <trkpt lat="48.36308" lon="2.75475">
        <ele>103</ele>
        <time>2026-02-08T12:55:00.623+00:00</time>
      </trkpt>
      <trkpt lat="48.36311" lon="2.75472">
        <ele>103</ele>
        <time>2026-02-08T12:55:04.966+00:00</time>
      </trkpt>
      <trkpt lat="48.36313" lon="2.75468">
        <ele>103</ele>
        <time>2026-02-08T12:55:09.976+00:00</time>
      </trkpt>
      <trkpt lat="48.36315" lon="2.75465">
        <ele>103</ele>
        <time>2026-02-08T12:55:14.666+00:00</time>
      </trkpt>
      <trkpt lat="48.36319" lon="2.75463">
        <ele>103</ele>
        <time>2026-02-08T12:55:18.924+00:00</time>
      </trkpt>
      <trkpt lat="48.36322" lon="2.75461">
        <ele>102</ele>
        <time>2026-02-08T12:55:22.977+00:00</time>
      </trkpt>
      <trkpt lat="48.36323" lon="2.75458">
        <ele>103</ele>
        <time>2026-02-08T12:55:27.865+00:00</time>
      </trkpt>
      <trkpt lat="48.36326" lon="2.75456">
        <ele>103</ele>
        <time>2026-02-08T12:55:31.969+00:00</time>
      </trkpt>
      <trkpt lat="48.3633" lon="2.75454">
        <ele>103</ele>
        <time>2026-02-08T12:55:35.977+00:00</time>
      </trkpt>
      <trkpt lat="48.36332" lon="2.75452">
        <ele>103</ele>
        <time>2026-02-08T12:55:40.449+00:00</time>
      </trkpt>
      <trkpt lat="48.36334" lon="2.75453">
        <ele>103</ele>
        <time>2026-02-08T12:55:44.694+00:00</time>
      </trkpt>
      <trkpt lat="48.36339" lon="2.75452">
        <ele>103</ele>
        <time>2026-02-08T12:55:49.289+00:00</time>
      </trkpt>
      <trkpt lat="48.36344" lon="2.7545">
        <ele>103</ele>
        <time>2026-02-08T12:55:53.774+00:00</time>
      </trkpt>
      <trkpt lat="48.36348" lon="2.75446">
        <ele>101</ele>
        <time>2026-02-08T12:55:58.089+00:00</time>
      </trkpt>
      <trkpt lat="48.36353" lon="2.75444">
        <ele>101</ele>
        <time>2026-02-08T12:56:02.977+00:00</time>
      </trkpt>
      <trkpt lat="48.36357" lon="2.75441">
        <ele>101</ele>
        <time>2026-02-08T12:56:07.526+00:00</time>
      </trkpt>
      <trkpt lat="48.3636" lon="2.75439">
        <ele>101</ele>
        <time>2026-02-08T12:56:11.620+00:00</time>
      </trkpt>
      <trkpt lat="48.36364" lon="2.75435">
        <ele>101</ele>
        <time>2026-02-08T12:56:15.946+00:00</time>
      </trkpt>
      <trkpt lat="48.36368" lon="2.75432">
        <ele>101</ele>
        <time>2026-02-08T12:56:20.202+00:00</time>
      </trkpt>
      <trkpt lat="48.36373" lon="2.75428">
        <ele>102</ele>
        <time>2026-02-08T12:56:24.218+00:00</time>
      </trkpt>
      <trkpt lat="48.36378" lon="2.75425">
        <ele>100</ele>
        <time>2026-02-08T12:56:28.442+00:00</time>
      </trkpt>
      <trkpt lat="48.36384" lon="2.75421">
        <ele>100</ele>
        <time>2026-02-08T12:56:32.685+00:00</time>
      </trkpt>
      <trkpt lat="48.36391" lon="2.75416">
        <ele>100</ele>
        <time>2026-02-08T12:56:36.976+00:00</time>
      </trkpt>
      <trkpt lat="48.36397" lon="2.75412">
        <ele>100</ele>
        <time>2026-02-08T12:56:41.604+00:00</time>
      </trkpt>
      <trkpt lat="48.36403" lon="2.75407">
        <ele>100</ele>
        <time>2026-02-08T12:56:45.944+00:00</time>
      </trkpt>
      <trkpt lat="48.36409" lon="2.75401">
        <ele>101</ele>
        <time>2026-02-08T12:56:50.287+00:00</time>
      </trkpt>
      <trkpt lat="48.36415" lon="2.75397">
        <ele>101</ele>
        <time>2026-02-08T12:56:54.718+00:00</time>
      </trkpt>
      <trkpt lat="48.36419" lon="2.75393">
        <ele>101</ele>
        <time>2026-02-08T12:56:58.799+00:00</time>
      </trkpt>
      <trkpt lat="48.36424" lon="2.7539">
        <ele>101</ele>
        <time>2026-02-08T12:57:02.917+00:00</time>
      </trkpt>
      <trkpt lat="48.36427" lon="2.75386">
        <ele>101</ele>
        <time>2026-02-08T12:57:07.021+00:00</time>
      </trkpt>
      <trkpt lat="48.36432" lon="2.75382">
        <ele>100</ele>
        <time>2026-02-08T12:57:11.322+00:00</time>
      </trkpt>
      <trkpt lat="48.36437" lon="2.75379">
        <ele>100</ele>
        <time>2026-02-08T12:57:15.977+00:00</time>
      </trkpt>
      <trkpt lat="48.36442" lon="2.75375">
        <ele>101</ele>
        <time>2026-02-08T12:57:20.578+00:00</time>
      </trkpt>
      <trkpt lat="48.36447" lon="2.75371">
        <ele>101</ele>
        <time>2026-02-08T12:57:24.977+00:00</time>
      </trkpt>
      <trkpt lat="48.36451" lon="2.75368">
        <ele>101</ele>
        <time>2026-02-08T12:57:29.123+00:00</time>
      </trkpt>
      <trkpt lat="48.36456" lon="2.75364">
        <ele>101</ele>
        <time>2026-02-08T12:57:33.286+00:00</time>
      </trkpt>
      <trkpt lat="48.36461" lon="2.75361">
        <ele>100</ele>
        <time>2026-02-08T12:57:37.300+00:00</time>
      </trkpt>
      <trkpt lat="48.36466" lon="2.75358">
        <ele>100</ele>
        <time>2026-02-08T12:57:41.405+00:00</time>
      </trkpt>
      <trkpt lat="48.36471" lon="2.75354">
        <ele>100</ele>
        <time>2026-02-08T12:57:45.976+00:00</time>
      </trkpt>
      <trkpt lat="48.36475" lon="2.7535">
        <ele>100</ele>
        <time>2026-02-08T12:57:49.976+00:00</time>
      </trkpt>
      <trkpt lat="48.3648" lon="2.75346">
        <ele>101</ele>
        <time>2026-02-08T12:57:54.186+00:00</time>
      </trkpt>
      <trkpt lat="48.36484" lon="2.75344">
        <ele>101</ele>
        <time>2026-02-08T12:57:58.458+00:00</time>
      </trkpt>
      <trkpt lat="48.36489" lon="2.75342">
        <ele>102</ele>
        <time>2026-02-08T12:58:02.786+00:00</time>
      </trkpt>
      <trkpt lat="48.36493" lon="2.7534">
        <ele>102</ele>
        <time>2026-02-08T12:58:06.977+00:00</time>
      </trkpt>
      <trkpt lat="48.36498" lon="2.75337">
        <ele>102</ele>
        <time>2026-02-08T12:58:11.443+00:00</time>
      </trkpt>
      <trkpt lat="48.36501" lon="2.75334">
        <ele>102</ele>
        <time>2026-02-08T12:58:15.453+00:00</time>
      </trkpt>
      <trkpt lat="48.36504" lon="2.75332">
        <ele>102</ele>
        <time>2026-02-08T12:58:19.527+00:00</time>
      </trkpt>
      <trkpt lat="48.36509" lon="2.75331">
        <ele>102</ele>
        <time>2026-02-08T12:58:23.977+00:00</time>
      </trkpt>
      <trkpt lat="48.36513" lon="2.7533">
        <ele>102</ele>
        <time>2026-02-08T12:58:28.389+00:00</time>
      </trkpt>
      <trkpt lat="48.36517" lon="2.75329">
        <ele>104</ele>
        <time>2026-02-08T12:58:32.456+00:00</time>
      </trkpt>
      <trkpt lat="48.36522" lon="2.75328">
        <ele>104</ele>
        <time>2026-02-08T12:58:36.696+00:00</time>
      </trkpt>
      <trkpt lat="48.36528" lon="2.75325">
        <ele>104</ele>
        <time>2026-02-08T12:58:41.781+00:00</time>
      </trkpt>
      <trkpt lat="48.36532" lon="2.75325">
        <ele>104</ele>
        <time>2026-02-08T12:58:45.859+00:00</time>
      </trkpt>
      <trkpt lat="48.36538" lon="2.75326">
        <ele>104</ele>
        <time>2026-02-08T12:58:50.206+00:00</time>
      </trkpt>
      <trkpt lat="48.36544" lon="2.75326">
        <ele>108</ele>
        <time>2026-02-08T12:58:54.506+00:00</time>
      </trkpt>
      <trkpt lat="48.36548" lon="2.75326">
        <ele>108</ele>
        <time>2026-02-08T12:58:58.865+00:00</time>
      </trkpt>
      <trkpt lat="48.36552" lon="2.75326">
        <ele>108</ele>
        <time>2026-02-08T12:59:03.178+00:00</time>
      </trkpt>
      <trkpt lat="48.36556" lon="2.75325">
        <ele>108</ele>
        <time>2026-02-08T12:59:07.443+00:00</time>
      </trkpt>
      <trkpt lat="48.36561" lon="2.75323">
        <ele>108</ele>
        <time>2026-02-08T12:59:11.802+00:00</time>
      </trkpt>
      <trkpt lat="48.36565" lon="2.7532">
        <ele>108</ele>
        <time>2026-02-08T12:59:16.223+00:00</time>
      </trkpt>
      <trkpt lat="48.36569" lon="2.75319">
        <ele>108</ele>
        <time>2026-02-08T12:59:20.500+00:00</time>
      </trkpt>
      <trkpt lat="48.36573" lon="2.75318">
        <ele>113</ele>
        <time>2026-02-08T12:59:24.976+00:00</time>
      </trkpt>
      <trkpt lat="48.36578" lon="2.75317">
        <ele>113</ele>
        <time>2026-02-08T12:59:29.407+00:00</time>
      </trkpt>
      <trkpt lat="48.36584" lon="2.75315">
        <ele>113</ele>
        <time>2026-02-08T12:59:33.843+00:00</time>
      </trkpt>
      <trkpt lat="48.3659" lon="2.75313">
        <ele>113</ele>
        <time>2026-02-08T12:59:38.438+00:00</time>
      </trkpt>
      <trkpt lat="48.36595" lon="2.75313">
        <ele>113</ele>
        <time>2026-02-08T12:59:42.677+00:00</time>
      </trkpt>
      <trkpt lat="48.366" lon="2.75314">
        <ele>118</ele>
        <time>2026-02-08T12:59:46.978+00:00</time>
      </trkpt>
      <trkpt lat="48.36603" lon="2.75313">
        <ele>118</ele>
        <time>2026-02-08T12:59:51.763+00:00</time>
      </trkpt>
      <trkpt lat="48.36607" lon="2.75313">
        <ele>118</ele>
        <time>2026-02-08T12:59:56.183+00:00</time>
      </trkpt>
      <trkpt lat="48.36611" lon="2.75313">
        <ele>118</ele>
        <time>2026-02-08T13:00:00.764+00:00</time>
      </trkpt>
      <trkpt lat="48.36614" lon="2.75312">
        <ele>118</ele>
        <time>2026-02-08T13:00:04.977+00:00</time>
      </trkpt>
      <trkpt lat="48.36618" lon="2.7531">
        <ele>118</ele>
        <time>2026-02-08T13:00:09.141+00:00</time>
      </trkpt>
      <trkpt lat="48.36622" lon="2.75308">
        <ele>118</ele>
        <time>2026-02-08T13:00:13.428+00:00</time>
      </trkpt>
      <trkpt lat="48.36627" lon="2.75306">
        <ele>121</ele>
        <time>2026-02-08T13:00:17.967+00:00</time>
      </trkpt>
      <trkpt lat="48.36631" lon="2.75304">
        <ele>121</ele>
        <time>2026-02-08T13:00:21.976+00:00</time>
      </trkpt>
      <trkpt lat="48.36635" lon="2.75302">
        <ele>121</ele>
        <time>2026-02-08T13:00:26.977+00:00</time>
      </trkpt>
      <trkpt lat="48.36639" lon="2.75299">
        <ele>121</ele>
        <time>2026-02-08T13:00:31.503+00:00</time>
      </trkpt>
      <trkpt lat="48.36643" lon="2.75297">
        <ele>121</ele>
        <time>2026-02-08T13:00:35.976+00:00</time>
      </trkpt>
      <trkpt lat="48.36647" lon="2.75295">
        <ele>121</ele>
        <time>2026-02-08T13:00:39.976+00:00</time>
      </trkpt>
      <trkpt lat="48.36652" lon="2.75293">
        <ele>121</ele>
        <time>2026-02-08T13:00:44.627+00:00</time>
      </trkpt>
      <trkpt lat="48.36655" lon="2.7529">
        <ele>127</ele>
        <time>2026-02-08T13:00:49.208+00:00</time>
      </trkpt>
      <trkpt lat="48.36657" lon="2.75286">
        <ele>127</ele>
        <time>2026-02-08T13:00:53.658+00:00</time>
      </trkpt>
      <trkpt lat="48.36659" lon="2.75284">
        <ele>127</ele>
        <time>2026-02-08T13:00:57.977+00:00</time>
      </trkpt>
      <trkpt lat="48.36661" lon="2.75282">
        <ele>127</ele>
        <time>2026-02-08T13:01:02.632+00:00</time>
      </trkpt>
      <trkpt lat="48.36665" lon="2.75281">
        <ele>127</ele>
        <time>2026-02-08T13:01:06.977+00:00</time>
      </trkpt>
      <trkpt lat="48.36669" lon="2.75278">
        <ele>127</ele>
        <time>2026-02-08T13:01:11.747+00:00</time>
      </trkpt>
      <trkpt lat="48.36672" lon="2.75276">
        <ele>127</ele>
        <time>2026-02-08T13:01:15.783+00:00</time>
      </trkpt>
      <trkpt lat="48.36676" lon="2.75272">
        <ele>127</ele>
        <time>2026-02-08T13:01:20.420+00:00</time>
      </trkpt>
      <trkpt lat="48.36679" lon="2.75269">
        <ele>127</ele>
        <time>2026-02-08T13:01:24.438+00:00</time>
      </trkpt>
      <trkpt lat="48.36683" lon="2.75266">
        <ele>130</ele>
        <time>2026-02-08T13:01:28.976+00:00</time>
      </trkpt>
      <trkpt lat="48.36687" lon="2.75263">
        <ele>130</ele>
        <time>2026-02-08T13:01:33.468+00:00</time>
      </trkpt>
      <trkpt lat="48.36692" lon="2.75262">
        <ele>130</ele>
        <time>2026-02-08T13:01:37.827+00:00</time>
      </trkpt>
      <trkpt lat="48.36697" lon="2.7526">
        <ele>130</ele>
        <time>2026-02-08T13:01:42.279+00:00</time>
      </trkpt>
      <trkpt lat="48.36701" lon="2.75257">
        <ele>130</ele>
        <time>2026-02-08T13:01:46.947+00:00</time>
      </trkpt>
      <trkpt lat="48.36704" lon="2.75255">
        <ele>130</ele>
        <time>2026-02-08T13:01:51.498+00:00</time>
      </trkpt>
      <trkpt lat="48.36707" lon="2.75252">
        <ele>130</ele>
        <time>2026-02-08T13:01:55.781+00:00</time>
      </trkpt>
      <trkpt lat="48.3671" lon="2.7525">
        <ele>134</ele>
        <time>2026-02-08T13:02:00.162+00:00</time>
      </trkpt>
      <trkpt lat="48.36714" lon="2.75246">
        <ele>134</ele>
        <time>2026-02-08T13:02:04.721+00:00</time>
      </trkpt>
      <trkpt lat="48.36717" lon="2.75242">
        <ele>134</ele>
        <time>2026-02-08T13:02:08.842+00:00</time>
      </trkpt>
      <trkpt lat="48.36721" lon="2.75239">
        <ele>134</ele>
        <time>2026-02-08T13:02:13.369+00:00</time>
      </trkpt>
      <trkpt lat="48.36724" lon="2.75235">
        <ele>134</ele>
        <time>2026-02-08T13:02:17.912+00:00</time>
      </trkpt>
      <trkpt lat="48.36728" lon="2.75234">
        <ele>134</ele>
        <time>2026-02-08T13:02:22.404+00:00</time>
      </trkpt>
      <trkpt lat="48.36731" lon="2.75232">
        <ele>134</ele>
        <time>2026-02-08T13:02:26.697+00:00</time>
      </trkpt>
      <trkpt lat="48.36733" lon="2.7523">
        <ele>134</ele>
        <time>2026-02-08T13:02:30.784+00:00</time>
      </trkpt>
      <trkpt lat="48.36735" lon="2.75229">
        <ele>134</ele>
        <time>2026-02-08T13:02:34.835+00:00</time>
      </trkpt>
      <trkpt lat="48.36737" lon="2.7523">
        <ele>136</ele>
        <time>2026-02-08T13:02:39.303+00:00</time>
      </trkpt>
      <trkpt lat="48.36739" lon="2.75229">
        <ele>136</ele>
        <time>2026-02-08T13:02:43.465+00:00</time>
      </trkpt>
      <trkpt lat="48.36742" lon="2.75232">
        <ele>136</ele>
        <time>2026-02-08T13:02:47.976+00:00</time>
      </trkpt>
      <trkpt lat="48.36746" lon="2.75235">
        <ele>136</ele>
        <time>2026-02-08T13:02:52.976+00:00</time>
      </trkpt>
      <trkpt lat="48.36751" lon="2.75235">
        <ele>136</ele>
        <time>2026-02-08T13:02:57.538+00:00</time>
      </trkpt>
      <trkpt lat="48.36757" lon="2.75235">
        <ele>136</ele>
        <time>2026-02-08T13:04:40.557+00:00</time>
      </trkpt>
      <trkpt lat="48.36757" lon="2.75226">
        <ele>136</ele>
        <time>2026-02-08T13:04:44.694+00:00</time>
      </trkpt>
      <trkpt lat="48.36755" lon="2.75218">
        <ele>136</ele>
        <time>2026-02-08T13:04:48.755+00:00</time>
      </trkpt>
      <trkpt lat="48.36752" lon="2.75212">
        <ele>136</ele>
        <time>2026-02-08T13:04:52.997+00:00</time>
      </trkpt>
      <trkpt lat="48.36749" lon="2.75204">
        <ele>136</ele>
        <time>2026-02-08T13:04:57.662+00:00</time>
      </trkpt>
      <trkpt lat="48.36747" lon="2.75195">
        <ele>136</ele>
        <time>2026-02-08T13:05:01.975+00:00</time>
      </trkpt>
      <trkpt lat="48.36746" lon="2.75187">
        <ele>136</ele>
        <time>2026-02-08T13:05:06.976+00:00</time>
      </trkpt>
      <trkpt lat="48.36744" lon="2.7518">
        <ele>136</ele>
        <time>2026-02-08T13:05:11.679+00:00</time>
      </trkpt>
      <trkpt lat="48.36742" lon="2.75174">
        <ele>136</ele>
        <time>2026-02-08T13:05:15.815+00:00</time>
      </trkpt>
      <trkpt lat="48.3674" lon="2.75169">
        <ele>136</ele>
        <time>2026-02-08T13:05:19.976+00:00</time>
      </trkpt>
      <trkpt lat="48.36739" lon="2.7516">
        <ele>136</ele>
        <time>2026-02-08T13:05:24.538+00:00</time>
      </trkpt>
      <trkpt lat="48.36739" lon="2.75153">
        <ele>136</ele>
        <time>2026-02-08T13:05:28.975+00:00</time>
      </trkpt>
      <trkpt lat="48.36738" lon="2.75147">
        <ele>136</ele>
        <time>2026-02-08T13:05:32.975+00:00</time>
      </trkpt>
      <trkpt lat="48.36737" lon="2.75138">
        <ele>136</ele>
        <time>2026-02-08T13:05:43.975+00:00</time>
      </trkpt>
      <trkpt lat="48.36735" lon="2.75135">
        <ele>135</ele>
        <time>2026-02-08T13:05:52.976+00:00</time>
      </trkpt>
      <trkpt lat="48.36736" lon="2.75129">
        <ele>136</ele>
        <time>2026-02-08T13:05:57.563+00:00</time>
      </trkpt>
      <trkpt lat="48.36734" lon="2.75118">
        <ele>135</ele>
        <time>2026-02-08T13:06:01.975+00:00</time>
      </trkpt>
      <trkpt lat="48.3673" lon="2.75108">
        <ele>135</ele>
        <time>2026-02-08T13:06:06.839+00:00</time>
      </trkpt>
      <trkpt lat="48.36726" lon="2.75101">
        <ele>135</ele>
        <time>2026-02-08T13:06:10.976+00:00</time>
      </trkpt>
      <trkpt lat="48.36722" lon="2.75091">
        <ele>136</ele>
        <time>2026-02-08T13:06:15.463+00:00</time>
      </trkpt>
      <trkpt lat="48.3672" lon="2.75082">
        <ele>136</ele>
        <time>2026-02-08T13:06:19.500+00:00</time>
      </trkpt>
      <trkpt lat="48.36719" lon="2.75071">
        <ele>136</ele>
        <time>2026-02-08T13:06:23.976+00:00</time>
      </trkpt>
      <trkpt lat="48.36718" lon="2.75062">
        <ele>136</ele>
        <time>2026-02-08T13:06:28.196+00:00</time>
      </trkpt>
      <trkpt lat="48.36717" lon="2.75054">
        <ele>136</ele>
        <time>2026-02-08T13:06:32.421+00:00</time>
      </trkpt>
      <trkpt lat="48.36717" lon="2.75045">
        <ele>136</ele>
        <time>2026-02-08T13:06:36.975+00:00</time>
      </trkpt>
      <trkpt lat="48.36717" lon="2.75036">
        <ele>136</ele>
        <time>2026-02-08T13:06:41.786+00:00</time>
      </trkpt>
      <trkpt lat="48.36717" lon="2.75028">
        <ele>136</ele>
        <time>2026-02-08T13:06:45.975+00:00</time>
      </trkpt>
      <trkpt lat="48.36715" lon="2.75021">
        <ele>136</ele>
        <time>2026-02-08T13:06:49.976+00:00</time>
      </trkpt>
      <trkpt lat="48.36714" lon="2.75013">
        <ele>136</ele>
        <time>2026-02-08T13:06:54.976+00:00</time>
      </trkpt>
      <trkpt lat="48.36716" lon="2.75007">
        <ele>136</ele>
        <time>2026-02-08T13:06:59.195+00:00</time>
      </trkpt>
      <trkpt lat="48.36718" lon="2.75001">
        <ele>136</ele>
        <time>2026-02-08T13:07:03.675+00:00</time>
      </trkpt>
      <trkpt lat="48.36721" lon="2.74996">
        <ele>136</ele>
        <time>2026-02-08T13:07:07.702+00:00</time>
      </trkpt>
      <trkpt lat="48.36724" lon="2.7499">
        <ele>136</ele>
        <time>2026-02-08T13:07:11.976+00:00</time>
      </trkpt>
      <trkpt lat="48.36728" lon="2.74983">
        <ele>136</ele>
        <time>2026-02-08T13:07:16.976+00:00</time>
      </trkpt>
      <trkpt lat="48.36734" lon="2.74978">
        <ele>136</ele>
        <time>2026-02-08T13:07:21.964+00:00</time>
      </trkpt>
      <trkpt lat="48.3674" lon="2.74976">
        <ele>137</ele>
        <time>2026-02-08T13:07:26.141+00:00</time>
      </trkpt>
      <trkpt lat="48.36745" lon="2.74974">
        <ele>137</ele>
        <time>2026-02-08T13:07:30.537+00:00</time>
      </trkpt>
      <trkpt lat="48.3675" lon="2.74971">
        <ele>137</ele>
        <time>2026-02-08T13:07:34.975+00:00</time>
      </trkpt>
      <trkpt lat="48.36756" lon="2.74969">
        <ele>137</ele>
        <time>2026-02-08T13:07:39.976+00:00</time>
      </trkpt>
      <trkpt lat="48.3676" lon="2.74966">
        <ele>137</ele>
        <time>2026-02-08T13:07:44.184+00:00</time>
      </trkpt>
      <trkpt lat="48.36764" lon="2.7496">
        <ele>137</ele>
        <time>2026-02-08T13:07:48.378+00:00</time>
      </trkpt>
      <trkpt lat="48.36766" lon="2.74952">
        <ele>138</ele>
        <time>2026-02-08T13:07:52.975+00:00</time>
      </trkpt>
      <trkpt lat="48.36768" lon="2.74944">
        <ele>138</ele>
        <time>2026-02-08T13:07:57.823+00:00</time>
      </trkpt>
      <trkpt lat="48.36771" lon="2.74937">
        <ele>138</ele>
        <time>2026-02-08T13:08:01.976+00:00</time>
      </trkpt>
      <trkpt lat="48.36773" lon="2.7493">
        <ele>138</ele>
        <time>2026-02-08T13:08:05.976+00:00</time>
      </trkpt>
      <trkpt lat="48.36774" lon="2.74923">
        <ele>138</ele>
        <time>2026-02-08T13:08:10.083+00:00</time>
      </trkpt>
      <trkpt lat="48.36776" lon="2.74916">
        <ele>138</ele>
        <time>2026-02-08T13:08:14.660+00:00</time>
      </trkpt>
      <trkpt lat="48.36777" lon="2.74909">
        <ele>138</ele>
        <time>2026-02-08T13:08:19.444+00:00</time>
      </trkpt>
      <trkpt lat="48.36777" lon="2.74902">
        <ele>135</ele>
        <time>2026-02-08T13:08:23.458+00:00</time>
      </trkpt>
      <trkpt lat="48.36776" lon="2.74895">
        <ele>135</ele>
        <time>2026-02-08T13:08:27.976+00:00</time>
      </trkpt>
      <trkpt lat="48.36776" lon="2.74887">
        <ele>135</ele>
        <time>2026-02-08T13:08:32.821+00:00</time>
      </trkpt>
      <trkpt lat="48.36776" lon="2.74878">
        <ele>135</ele>
        <time>2026-02-08T13:08:37.725+00:00</time>
      </trkpt>
      <trkpt lat="48.36777" lon="2.74871">
        <ele>132</ele>
        <time>2026-02-08T13:08:42.415+00:00</time>
      </trkpt>
      <trkpt lat="48.3678" lon="2.74864">
        <ele>132</ele>
        <time>2026-02-08T13:08:46.976+00:00</time>
      </trkpt>
      <trkpt lat="48.36783" lon="2.74856">
        <ele>132</ele>
        <time>2026-02-08T13:08:51.699+00:00</time>
      </trkpt>
      <trkpt lat="48.36785" lon="2.74848">
        <ele>132</ele>
        <time>2026-02-08T13:08:56.341+00:00</time>
      </trkpt>
      <trkpt lat="48.36787" lon="2.74842">
        <ele>129</ele>
        <time>2026-02-08T13:09:00.365+00:00</time>
      </trkpt>
      <trkpt lat="48.3679" lon="2.74836">
        <ele>129</ele>
        <time>2026-02-08T13:09:04.700+00:00</time>
      </trkpt>
      <trkpt lat="48.36793" lon="2.7483">
        <ele>132</ele>
        <time>2026-02-08T13:09:08.975+00:00</time>
      </trkpt>
      <trkpt lat="48.36796" lon="2.74822">
        <ele>132</ele>
        <time>2026-02-08T13:09:13.976+00:00</time>
      </trkpt>
      <trkpt lat="48.36799" lon="2.74814">
        <ele>132</ele>
        <time>2026-02-08T13:09:18.837+00:00</time>
      </trkpt>
      <trkpt lat="48.36801" lon="2.74807">
        <ele>132</ele>
        <time>2026-02-08T13:09:22.875+00:00</time>
      </trkpt>
      <trkpt lat="48.36804" lon="2.74801">
        <ele>132</ele>
        <time>2026-02-08T13:09:26.976+00:00</time>
      </trkpt>
      <trkpt lat="48.36807" lon="2.74794">
        <ele>132</ele>
        <time>2026-02-08T13:09:31.975+00:00</time>
      </trkpt>
      <trkpt lat="48.3681" lon="2.74786">
        <ele>132</ele>
        <time>2026-02-08T13:09:36.738+00:00</time>
      </trkpt>
      <trkpt lat="48.36812" lon="2.7478">
        <ele>132</ele>
        <time>2026-02-08T13:09:40.797+00:00</time>
      </trkpt>
      <trkpt lat="48.36814" lon="2.74773">
        <ele>132</ele>
        <time>2026-02-08T13:09:44.975+00:00</time>
      </trkpt>
      <trkpt lat="48.36816" lon="2.74765">
        <ele>132</ele>
        <time>2026-02-08T13:09:49.856+00:00</time>
      </trkpt>
      <trkpt lat="48.36819" lon="2.74758">
        <ele>132</ele>
        <time>2026-02-08T13:09:53.976+00:00</time>
      </trkpt>
      <trkpt lat="48.36821" lon="2.74752">
        <ele>133</ele>
        <time>2026-02-08T13:09:57.975+00:00</time>
      </trkpt>
      <trkpt lat="48.36823" lon="2.74743">
        <ele>133</ele>
        <time>2026-02-08T13:10:02.916+00:00</time>
      </trkpt>
      <trkpt lat="48.36825" lon="2.74736">
        <ele>133</ele>
        <time>2026-02-08T13:10:06.976+00:00</time>
      </trkpt>
      <trkpt lat="48.36827" lon="2.74728">
        <ele>133</ele>
        <time>2026-02-08T13:10:11.559+00:00</time>
      </trkpt>
      <trkpt lat="48.36829" lon="2.74721">
        <ele>133</ele>
        <time>2026-02-08T13:10:15.975+00:00</time>
      </trkpt>
      <trkpt lat="48.36831" lon="2.74713">
        <ele>133</ele>
        <time>2026-02-08T13:10:20.293+00:00</time>
      </trkpt>
      <trkpt lat="48.36832" lon="2.74704">
        <ele>132</ele>
        <time>2026-02-08T13:10:24.736+00:00</time>
      </trkpt>
      <trkpt lat="48.36834" lon="2.74696">
        <ele>132</ele>
        <time>2026-02-08T13:10:28.976+00:00</time>
      </trkpt>
      <trkpt lat="48.36836" lon="2.74688">
        <ele>132</ele>
        <time>2026-02-08T13:10:33.705+00:00</time>
      </trkpt>
      <trkpt lat="48.36837" lon="2.74679">
        <ele>129</ele>
        <time>2026-02-08T13:10:38.436+00:00</time>
      </trkpt>
      <trkpt lat="48.36839" lon="2.74671">
        <ele>129</ele>
        <time>2026-02-08T13:10:42.976+00:00</time>
      </trkpt>
      <trkpt lat="48.36841" lon="2.74662">
        <ele>129</ele>
        <time>2026-02-08T13:10:47.684+00:00</time>
      </trkpt>
      <trkpt lat="48.36843" lon="2.74654">
        <ele>129</ele>
        <time>2026-02-08T13:10:52.443+00:00</time>
      </trkpt>
      <trkpt lat="48.36844" lon="2.74648">
        <ele>128</ele>
        <time>2026-02-08T13:10:56.450+00:00</time>
      </trkpt>
      <trkpt lat="48.36845" lon="2.74641">
        <ele>128</ele>
        <time>2026-02-08T13:11:00.656+00:00</time>
      </trkpt>
      <trkpt lat="48.36846" lon="2.74633">
        <ele>128</ele>
        <time>2026-02-08T13:11:04.975+00:00</time>
      </trkpt>
      <trkpt lat="48.36848" lon="2.74625">
        <ele>132</ele>
        <time>2026-02-08T13:11:09.259+00:00</time>
      </trkpt>
      <trkpt lat="48.3685" lon="2.74618">
        <ele>132</ele>
        <time>2026-02-08T13:11:13.515+00:00</time>
      </trkpt>
      <trkpt lat="48.36852" lon="2.74611">
        <ele>132</ele>
        <time>2026-02-08T13:11:17.516+00:00</time>
      </trkpt>
      <trkpt lat="48.36854" lon="2.74603">
        <ele>132</ele>
        <time>2026-02-08T13:11:21.860+00:00</time>
      </trkpt>
      <trkpt lat="48.36856" lon="2.74595">
        <ele>131</ele>
        <time>2026-02-08T13:11:26.759+00:00</time>
      </trkpt>
      <trkpt lat="48.36857" lon="2.74586">
        <ele>131</ele>
        <time>2026-02-08T13:11:30.975+00:00</time>
      </trkpt>
      <trkpt lat="48.36858" lon="2.74577">
        <ele>131</ele>
        <time>2026-02-08T13:11:35.834+00:00</time>
      </trkpt>
      <trkpt lat="48.36859" lon="2.7457">
        <ele>131</ele>
        <time>2026-02-08T13:11:39.977+00:00</time>
      </trkpt>
      <trkpt lat="48.36861" lon="2.74561">
        <ele>130</ele>
        <time>2026-02-08T13:11:44.677+00:00</time>
      </trkpt>
      <trkpt lat="48.36863" lon="2.74554">
        <ele>130</ele>
        <time>2026-02-08T13:11:48.974+00:00</time>
      </trkpt>
      <trkpt lat="48.36864" lon="2.74545">
        <ele>130</ele>
        <time>2026-02-08T13:11:53.683+00:00</time>
      </trkpt>
      <trkpt lat="48.36866" lon="2.74537">
        <ele>129</ele>
        <time>2026-02-08T13:11:57.975+00:00</time>
      </trkpt>
      <trkpt lat="48.36869" lon="2.74528">
        <ele>129</ele>
        <time>2026-02-08T13:12:02.975+00:00</time>
      </trkpt>
      <trkpt lat="48.3687" lon="2.74519">
        <ele>129</ele>
        <time>2026-02-08T13:12:07.815+00:00</time>
      </trkpt>
      <trkpt lat="48.36872" lon="2.74511">
        <ele>130</ele>
        <time>2026-02-08T13:12:11.975+00:00</time>
      </trkpt>
      <trkpt lat="48.36874" lon="2.74503">
        <ele>130</ele>
        <time>2026-02-08T13:12:16.496+00:00</time>
      </trkpt>
      <trkpt lat="48.36875" lon="2.74497">
        <ele>131</ele>
        <time>2026-02-08T13:12:20.818+00:00</time>
      </trkpt>
      <trkpt lat="48.36877" lon="2.74491">
        <ele>131</ele>
        <time>2026-02-08T13:12:24.975+00:00</time>
      </trkpt>
      <trkpt lat="48.36878" lon="2.74483">
        <ele>132</ele>
        <time>2026-02-08T13:12:29.533+00:00</time>
      </trkpt>
      <trkpt lat="48.36879" lon="2.74475">
        <ele>132</ele>
        <time>2026-02-08T13:12:33.796+00:00</time>
      </trkpt>
      <trkpt lat="48.3688" lon="2.74466">
        <ele>132</ele>
        <time>2026-02-08T13:12:38.437+00:00</time>
      </trkpt>
      <trkpt lat="48.3688" lon="2.74458">
        <ele>134</ele>
        <time>2026-02-08T13:12:42.975+00:00</time>
      </trkpt>
      <trkpt lat="48.36878" lon="2.74449">
        <ele>134</ele>
        <time>2026-02-08T13:12:47.975+00:00</time>
      </trkpt>
      <trkpt lat="48.36879" lon="2.74443">
        <ele>134</ele>
        <time>2026-02-08T13:12:52.117+00:00</time>
      </trkpt>
      <trkpt lat="48.36881" lon="2.74438">
        <ele>134</ele>
        <time>2026-02-08T13:12:56.973+00:00</time>
      </trkpt>
      <trkpt lat="48.36885" lon="2.74442">
        <ele>134</ele>
        <time>2026-02-08T13:13:00.975+00:00</time>
      </trkpt>
      <trkpt lat="48.36889" lon="2.74446">
        <ele>134</ele>
        <time>2026-02-08T13:13:04.974+00:00</time>
      </trkpt>
      <trkpt lat="48.36894" lon="2.74453">
        <ele>134</ele>
        <time>2026-02-08T13:13:09.777+00:00</time>
      </trkpt>
      <trkpt lat="48.36898" lon="2.74459">
        <ele>132</ele>
        <time>2026-02-08T13:13:13.975+00:00</time>
      </trkpt>
      <trkpt lat="48.36903" lon="2.74463">
        <ele>134</ele>
        <time>2026-02-08T13:13:18.821+00:00</time>
      </trkpt>
      <trkpt lat="48.36909" lon="2.74464">
        <ele>134</ele>
        <time>2026-02-08T13:13:22.974+00:00</time>
      </trkpt>
      <trkpt lat="48.36914" lon="2.74466">
        <ele>134</ele>
        <time>2026-02-08T13:13:27.654+00:00</time>
      </trkpt>
      <trkpt lat="48.36921" lon="2.74465">
        <ele>134</ele>
        <time>2026-02-08T13:13:32.975+00:00</time>
      </trkpt>
      <trkpt lat="48.36924" lon="2.74464">
        <ele>134</ele>
        <time>2026-02-08T13:13:56.975+00:00</time>
      </trkpt>
      <trkpt lat="48.36927" lon="2.74467">
        <ele>134</ele>
        <time>2026-02-08T13:14:01.974+00:00</time>
      </trkpt>
      <trkpt lat="48.36929" lon="2.74467">
        <ele>134</ele>
        <time>2026-02-08T13:14:06.443+00:00</time>
      </trkpt>
      <trkpt lat="48.36932" lon="2.74467">
        <ele>134</ele>
        <time>2026-02-08T13:14:10.974+00:00</time>
      </trkpt>
      <trkpt lat="48.3694" lon="2.74467">
        <ele>134</ele>
        <time>2026-02-08T13:14:15.975+00:00</time>
      </trkpt>
      <trkpt lat="48.36946" lon="2.74465">
        <ele>134</ele>
        <time>2026-02-08T13:14:20.963+00:00</time>
      </trkpt>
      <trkpt lat="48.36952" lon="2.74463">
        <ele>134</ele>
        <time>2026-02-08T13:14:24.974+00:00</time>
      </trkpt>
      <trkpt lat="48.36955" lon="2.74456">
        <ele>133</ele>
        <time>2026-02-08T13:14:29.438+00:00</time>
      </trkpt>
      <trkpt lat="48.3696" lon="2.74457">
        <ele>133</ele>
        <time>2026-02-08T13:14:33.974+00:00</time>
      </trkpt>
      <trkpt lat="48.36965" lon="2.74458">
        <ele>133</ele>
        <time>2026-02-08T13:14:38.204+00:00</time>
      </trkpt>
      <trkpt lat="48.36971" lon="2.74459">
        <ele>133</ele>
        <time>2026-02-08T13:14:42.619+00:00</time>
      </trkpt>
      <trkpt lat="48.36975" lon="2.74461">
        <ele>133</ele>
        <time>2026-02-08T13:14:46.677+00:00</time>
      </trkpt>
      <trkpt lat="48.36979" lon="2.74461">
        <ele>133</ele>
        <time>2026-02-08T13:14:50.975+00:00</time>
      </trkpt>
      <trkpt lat="48.36984" lon="2.74462">
        <ele>133</ele>
        <time>2026-02-08T13:14:55.761+00:00</time>
      </trkpt>
      <trkpt lat="48.36986" lon="2.74464">
        <ele>132</ele>
        <time>2026-02-08T13:14:59.975+00:00</time>
      </trkpt>
      <trkpt lat="48.36991" lon="2.74463">
        <ele>132</ele>
        <time>2026-02-08T13:15:04.975+00:00</time>
      </trkpt>
      <trkpt lat="48.36997" lon="2.74462">
        <ele>132</ele>
        <time>2026-02-08T13:15:09.974+00:00</time>
      </trkpt>
      <trkpt lat="48.37004" lon="2.74459">
        <ele>132</ele>
        <time>2026-02-08T13:15:14.858+00:00</time>
      </trkpt>
      <trkpt lat="48.37009" lon="2.74456">
        <ele>132</ele>
        <time>2026-02-08T13:15:19.974+00:00</time>
      </trkpt>
      <trkpt lat="48.37012" lon="2.74449">
        <ele>132</ele>
        <time>2026-02-08T13:15:24.823+00:00</time>
      </trkpt>
      <trkpt lat="48.37013" lon="2.74443">
        <ele>132</ele>
        <time>2026-02-08T13:15:28.974+00:00</time>
      </trkpt>
      <trkpt lat="48.37014" lon="2.74426">
        <ele>124</ele>
        <time>2026-02-08T13:15:47.975+00:00</time>
      </trkpt>
      <trkpt lat="48.37014" lon="2.74423">
        <ele>124</ele>
        <time>2026-02-08T13:15:52.975+00:00</time>
      </trkpt>
      <trkpt lat="48.37017" lon="2.74415">
        <ele>124</ele>
        <time>2026-02-08T13:15:57.974+00:00</time>
      </trkpt>
      <trkpt lat="48.37025" lon="2.74415">
        <ele>124</ele>
        <time>2026-02-08T13:16:02.699+00:00</time>
      </trkpt>
      <trkpt lat="48.3703" lon="2.74422">
        <ele>124</ele>
        <time>2026-02-08T13:16:06.975+00:00</time>
      </trkpt>
      <trkpt lat="48.37033" lon="2.74428">
        <ele>124</ele>
        <time>2026-02-08T13:16:11.980+00:00</time>
      </trkpt>
      <trkpt lat="48.37033" lon="2.74431">
        <ele>127</ele>
        <time>2026-02-08T13:16:15.975+00:00</time>
      </trkpt>
      <trkpt lat="48.37035" lon="2.74434">
        <ele>127</ele>
        <time>2026-02-08T13:16:20.603+00:00</time>
      </trkpt>
      <trkpt lat="48.37043" lon="2.74437">
        <ele>121</ele>
        <time>2026-02-08T13:16:24.974+00:00</time>
      </trkpt>
      <trkpt lat="48.37046" lon="2.74437">
        <ele>121</ele>
        <time>2026-02-08T13:16:29.975+00:00</time>
      </trkpt>
      <trkpt lat="48.37048" lon="2.74435">
        <ele>121</ele>
        <time>2026-02-08T13:16:33.975+00:00</time>
      </trkpt>
      <trkpt lat="48.37052" lon="2.74433">
        <ele>121</ele>
        <time>2026-02-08T13:16:38.604+00:00</time>
      </trkpt>
      <trkpt lat="48.37056" lon="2.74432">
        <ele>121</ele>
        <time>2026-02-08T13:16:42.838+00:00</time>
      </trkpt>
      <trkpt lat="48.37058" lon="2.74433">
        <ele>121</ele>
        <time>2026-02-08T13:16:47.159+00:00</time>
      </trkpt>
      <trkpt lat="48.37059" lon="2.74436">
        <ele>121</ele>
        <time>2026-02-08T13:16:51.220+00:00</time>
      </trkpt>
      <trkpt lat="48.37061" lon="2.74441">
        <ele>121</ele>
        <time>2026-02-08T13:16:55.529+00:00</time>
      </trkpt>
      <trkpt lat="48.37064" lon="2.74444">
        <ele>121</ele>
        <time>2026-02-08T13:16:59.820+00:00</time>
      </trkpt>
      <trkpt lat="48.37066" lon="2.74445">
        <ele>121</ele>
        <time>2026-02-08T13:17:03.974+00:00</time>
      </trkpt>
      <trkpt lat="48.37067" lon="2.7445">
        <ele>121</ele>
        <time>2026-02-08T13:17:08.518+00:00</time>
      </trkpt>
      <trkpt lat="48.37066" lon="2.74457">
        <ele>121</ele>
        <time>2026-02-08T13:17:12.826+00:00</time>
      </trkpt>
      <trkpt lat="48.37069" lon="2.74459">
        <ele>124</ele>
        <time>2026-02-08T13:17:16.973+00:00</time>
      </trkpt>
      <trkpt lat="48.37074" lon="2.74451">
        <ele>114</ele>
        <time>2026-02-08T13:17:20.973+00:00</time>
      </trkpt>
      <trkpt lat="48.37078" lon="2.74453">
        <ele>114</ele>
        <time>2026-02-08T13:17:25.666+00:00</time>
      </trkpt>
      <trkpt lat="48.37083" lon="2.74452">
        <ele>114</ele>
        <time>2026-02-08T13:17:29.698+00:00</time>
      </trkpt>
      <trkpt lat="48.37087" lon="2.74445">
        <ele>114</ele>
        <time>2026-02-08T13:17:33.973+00:00</time>
      </trkpt>
      <trkpt lat="48.37091" lon="2.7444">
        <ele>114</ele>
        <time>2026-02-08T13:17:38.361+00:00</time>
      </trkpt>
      <trkpt lat="48.37095" lon="2.74438">
        <ele>114</ele>
        <time>2026-02-08T13:17:42.568+00:00</time>
      </trkpt>
      <trkpt lat="48.37101" lon="2.74438">
        <ele>111</ele>
        <time>2026-02-08T13:17:47.404+00:00</time>
      </trkpt>
      <trkpt lat="48.37104" lon="2.74439">
        <ele>111</ele>
        <time>2026-02-08T13:17:51.974+00:00</time>
      </trkpt>
      <trkpt lat="48.371" lon="2.74442">
        <ele>111</ele>
        <time>2026-02-08T13:18:35.973+00:00</time>
      </trkpt>
      <trkpt lat="48.37101" lon="2.74439">
        <ele>111</ele>
        <time>2026-02-08T13:18:39.974+00:00</time>
      </trkpt>
      <trkpt lat="48.37105" lon="2.74441">
        <ele>111</ele>
        <time>2026-02-08T13:18:44.463+00:00</time>
      </trkpt>
      <trkpt lat="48.37111" lon="2.74444">
        <ele>111</ele>
        <time>2026-02-08T13:18:48.719+00:00</time>
      </trkpt>
      <trkpt lat="48.37115" lon="2.74447">
        <ele>111</ele>
        <time>2026-02-08T13:18:52.973+00:00</time>
      </trkpt>
      <trkpt lat="48.37121" lon="2.7445">
        <ele>111</ele>
        <time>2026-02-08T13:18:57.541+00:00</time>
      </trkpt>
      <trkpt lat="48.37127" lon="2.74454">
        <ele>107</ele>
        <time>2026-02-08T13:19:01.974+00:00</time>
      </trkpt>
      <trkpt lat="48.37132" lon="2.74454">
        <ele>107</ele>
        <time>2026-02-08T13:19:06.920+00:00</time>
      </trkpt>
      <trkpt lat="48.37138" lon="2.74452">
        <ele>107</ele>
        <time>2026-02-08T13:19:11.963+00:00</time>
      </trkpt>
      <trkpt lat="48.37142" lon="2.74447">
        <ele>107</ele>
        <time>2026-02-08T13:19:15.974+00:00</time>
      </trkpt>
      <trkpt lat="48.37139" lon="2.74446">
        <ele>107</ele>
        <time>2026-02-08T13:19:20.756+00:00</time>
      </trkpt>
      <trkpt lat="48.37146" lon="2.74444">
        <ele>107</ele>
        <time>2026-02-08T13:19:25.926+00:00</time>
      </trkpt>
      <trkpt lat="48.37153" lon="2.74446">
        <ele>104</ele>
        <time>2026-02-08T13:19:30.700+00:00</time>
      </trkpt>
      <trkpt lat="48.37156" lon="2.74444">
        <ele>104</ele>
        <time>2026-02-08T13:19:34.748+00:00</time>
      </trkpt>
      <trkpt lat="48.37159" lon="2.7444">
        <ele>104</ele>
        <time>2026-02-08T13:19:38.905+00:00</time>
      </trkpt>
      <trkpt lat="48.37162" lon="2.74435">
        <ele>104</ele>
        <time>2026-02-08T13:19:43.224+00:00</time>
      </trkpt>
      <trkpt lat="48.37166" lon="2.74431">
        <ele>104</ele>
        <time>2026-02-08T13:19:47.447+00:00</time>
      </trkpt>
      <trkpt lat="48.37171" lon="2.7443">
        <ele>103</ele>
        <time>2026-02-08T13:19:51.660+00:00</time>
      </trkpt>
      <trkpt lat="48.37174" lon="2.74429">
        <ele>103</ele>
        <time>2026-02-08T13:19:55.973+00:00</time>
      </trkpt>
      <trkpt lat="48.37178" lon="2.7443">
        <ele>103</ele>
        <time>2026-02-08T13:19:59.973+00:00</time>
      </trkpt>
      <trkpt lat="48.37182" lon="2.74433">
        <ele>98</ele>
        <time>2026-02-08T13:20:03.974+00:00</time>
      </trkpt>
      <trkpt lat="48.37185" lon="2.74441">
        <ele>98</ele>
        <time>2026-02-08T13:20:08.737+00:00</time>
      </trkpt>
      <trkpt lat="48.37187" lon="2.74448">
        <ele>98</ele>
        <time>2026-02-08T13:20:13.677+00:00</time>
      </trkpt>
      <trkpt lat="48.3719" lon="2.74452">
        <ele>98</ele>
        <time>2026-02-08T13:20:17.905+00:00</time>
      </trkpt>
      <trkpt lat="48.37193" lon="2.74456">
        <ele>98</ele>
        <time>2026-02-08T13:20:21.974+00:00</time>
      </trkpt>
      <trkpt lat="48.37197" lon="2.7446">
        <ele>100</ele>
        <time>2026-02-08T13:20:26.480+00:00</time>
      </trkpt>
      <trkpt lat="48.372" lon="2.74462">
        <ele>100</ele>
        <time>2026-02-08T13:20:30.722+00:00</time>
      </trkpt>
      <trkpt lat="48.37203" lon="2.74462">
        <ele>100</ele>
        <time>2026-02-08T13:20:34.973+00:00</time>
      </trkpt>
      <trkpt lat="48.37208" lon="2.74465">
        <ele>100</ele>
        <time>2026-02-08T13:20:39.974+00:00</time>
      </trkpt>
      <trkpt lat="48.37211" lon="2.74463">
        <ele>96</ele>
        <time>2026-02-08T13:20:44.098+00:00</time>
      </trkpt>
      <trkpt lat="48.37216" lon="2.74458">
        <ele>97</ele>
        <time>2026-02-08T13:20:48.747+00:00</time>
      </trkpt>
      <trkpt lat="48.3722" lon="2.74453">
        <ele>97</ele>
        <time>2026-02-08T13:20:52.779+00:00</time>
      </trkpt>
      <trkpt lat="48.37224" lon="2.74448">
        <ele>97</ele>
        <time>2026-02-08T13:20:57.439+00:00</time>
      </trkpt>
      <trkpt lat="48.37228" lon="2.74443">
        <ele>97</ele>
        <time>2026-02-08T13:21:01.445+00:00</time>
      </trkpt>
      <trkpt lat="48.37231" lon="2.74437">
        <ele>97</ele>
        <time>2026-02-08T13:21:05.818+00:00</time>
      </trkpt>
      <trkpt lat="48.37234" lon="2.74432">
        <ele>97</ele>
        <time>2026-02-08T13:21:09.939+00:00</time>
      </trkpt>
      <trkpt lat="48.37238" lon="2.74427">
        <ele>98</ele>
        <time>2026-02-08T13:21:14.421+00:00</time>
      </trkpt>
      <trkpt lat="48.37241" lon="2.74423">
        <ele>98</ele>
        <time>2026-02-08T13:21:18.562+00:00</time>
      </trkpt>
      <trkpt lat="48.37245" lon="2.74419">
        <ele>98</ele>
        <time>2026-02-08T13:21:22.974+00:00</time>
      </trkpt>
      <trkpt lat="48.37248" lon="2.74413">
        <ele>98</ele>
        <time>2026-02-08T13:21:27.924+00:00</time>
      </trkpt>
      <trkpt lat="48.3725" lon="2.74406">
        <ele>98</ele>
        <time>2026-02-08T13:21:31.974+00:00</time>
      </trkpt>
      <trkpt lat="48.37255" lon="2.744">
        <ele>97</ele>
        <time>2026-02-08T13:21:36.801+00:00</time>
      </trkpt>
      <trkpt lat="48.3726" lon="2.74398">
        <ele>97</ele>
        <time>2026-02-08T13:21:40.980+00:00</time>
      </trkpt>
      <trkpt lat="48.37264" lon="2.74394">
        <ele>95</ele>
        <time>2026-02-08T13:21:45.805+00:00</time>
      </trkpt>
      <trkpt lat="48.3727" lon="2.74392">
        <ele>95</ele>
        <time>2026-02-08T13:21:49.972+00:00</time>
      </trkpt>
      <trkpt lat="48.37276" lon="2.7439">
        <ele>95</ele>
        <time>2026-02-08T13:21:54.972+00:00</time>
      </trkpt>
      <trkpt lat="48.37283" lon="2.7439">
        <ele>95</ele>
        <time>2026-02-08T13:21:59.884+00:00</time>
      </trkpt>
      <trkpt lat="48.37288" lon="2.74386">
        <ele>95</ele>
        <time>2026-02-08T13:22:04.973+00:00</time>
      </trkpt>
      <trkpt lat="48.37293" lon="2.74384">
        <ele>94</ele>
        <time>2026-02-08T13:22:09.858+00:00</time>
      </trkpt>
      <trkpt lat="48.37297" lon="2.74384">
        <ele>94</ele>
        <time>2026-02-08T13:22:13.980+00:00</time>
      </trkpt>
      <trkpt lat="48.373" lon="2.74382">
        <ele>94</ele>
        <time>2026-02-08T13:22:17.972+00:00</time>
      </trkpt>
      <trkpt lat="48.373" lon="2.74374">
        <ele>95</ele>
        <time>2026-02-08T13:22:22.337+00:00</time>
      </trkpt>
      <trkpt lat="48.373" lon="2.74368">
        <ele>95</ele>
        <time>2026-02-08T13:22:26.542+00:00</time>
      </trkpt>
      <trkpt lat="48.373" lon="2.7436">
        <ele>95</ele>
        <time>2026-02-08T13:22:30.983+00:00</time>
      </trkpt>
      <trkpt lat="48.37301" lon="2.74353">
        <ele>95</ele>
        <time>2026-02-08T13:22:35.972+00:00</time>
      </trkpt>
      <trkpt lat="48.37301" lon="2.74345">
        <ele>95</ele>
        <time>2026-02-08T13:22:40.982+00:00</time>
      </trkpt>
      <trkpt lat="48.37302" lon="2.74338">
        <ele>95</ele>
        <time>2026-02-08T13:22:45.758+00:00</time>
      </trkpt>
      <trkpt lat="48.37302" lon="2.74331">
        <ele>95</ele>
        <time>2026-02-08T13:22:50.442+00:00</time>
      </trkpt>
      <trkpt lat="48.37303" lon="2.74324">
        <ele>95</ele>
        <time>2026-02-08T13:22:54.973+00:00</time>
      </trkpt>
      <trkpt lat="48.37304" lon="2.74315">
        <ele>94</ele>
        <time>2026-02-08T13:22:59.925+00:00</time>
      </trkpt>
      <trkpt lat="48.37305" lon="2.74308">
        <ele>94</ele>
        <time>2026-02-08T13:23:04.760+00:00</time>
      </trkpt>
      <trkpt lat="48.37305" lon="2.743">
        <ele>94</ele>
        <time>2026-02-08T13:23:09.523+00:00</time>
      </trkpt>
      <trkpt lat="48.37305" lon="2.74292">
        <ele>94</ele>
        <time>2026-02-08T13:23:13.972+00:00</time>
      </trkpt>
      <trkpt lat="48.37305" lon="2.74282">
        <ele>92</ele>
        <time>2026-02-08T13:23:18.973+00:00</time>
      </trkpt>
      <trkpt lat="48.37305" lon="2.74274">
        <ele>92</ele>
        <time>2026-02-08T13:23:23.400+00:00</time>
      </trkpt>
      <trkpt lat="48.37305" lon="2.74266">
        <ele>92</ele>
        <time>2026-02-08T13:23:27.619+00:00</time>
      </trkpt>
      <trkpt lat="48.37305" lon="2.74258">
        <ele>90</ele>
        <time>2026-02-08T13:23:31.973+00:00</time>
      </trkpt>
      <trkpt lat="48.37305" lon="2.7425">
        <ele>90</ele>
        <time>2026-02-08T13:23:36.520+00:00</time>
      </trkpt>
      <trkpt lat="48.37306" lon="2.74243">
        <ele>90</ele>
        <time>2026-02-08T13:23:40.618+00:00</time>
      </trkpt>
      <trkpt lat="48.37306" lon="2.74236">
        <ele>90</ele>
        <time>2026-02-08T13:23:44.973+00:00</time>
      </trkpt>
      <trkpt lat="48.37306" lon="2.74229">
        <ele>89</ele>
        <time>2026-02-08T13:23:49.440+00:00</time>
      </trkpt>
      <trkpt lat="48.37306" lon="2.74222">
        <ele>89</ele>
        <time>2026-02-08T13:23:53.937+00:00</time>
      </trkpt>
      <trkpt lat="48.37306" lon="2.74213">
        <ele>89</ele>
        <time>2026-02-08T13:23:58.764+00:00</time>
      </trkpt>
      <trkpt lat="48.37305" lon="2.74205">
        <ele>89</ele>
        <time>2026-02-08T13:24:03.521+00:00</time>
      </trkpt>
      <trkpt lat="48.37304" lon="2.74196">
        <ele>89</ele>
        <time>2026-02-08T13:24:07.639+00:00</time>
      </trkpt>
      <trkpt lat="48.37304" lon="2.74188">
        <ele>89</ele>
        <time>2026-02-08T13:24:11.903+00:00</time>
      </trkpt>
      <trkpt lat="48.37303" lon="2.7418">
        <ele>90</ele>
        <time>2026-02-08T13:24:16.084+00:00</time>
      </trkpt>
      <trkpt lat="48.37301" lon="2.74172">
        <ele>90</ele>
        <time>2026-02-08T13:24:20.204+00:00</time>
      </trkpt>
      <trkpt lat="48.37299" lon="2.74167">
        <ele>90</ele>
        <time>2026-02-08T13:24:24.639+00:00</time>
      </trkpt>
      <trkpt lat="48.37296" lon="2.74162">
        <ele>90</ele>
        <time>2026-02-08T13:24:28.841+00:00</time>
      </trkpt>
      <trkpt lat="48.37295" lon="2.74155">
        <ele>90</ele>
        <time>2026-02-08T13:24:32.973+00:00</time>
      </trkpt>
      <trkpt lat="48.37293" lon="2.74147">
        <ele>91</ele>
        <time>2026-02-08T13:24:37.973+00:00</time>
      </trkpt>
      <trkpt lat="48.37291" lon="2.74139">
        <ele>92</ele>
        <time>2026-02-08T13:24:42.725+00:00</time>
      </trkpt>
      <trkpt lat="48.3729" lon="2.74134">
        <ele>92</ele>
        <time>2026-02-08T13:24:46.973+00:00</time>
      </trkpt>
      <trkpt lat="48.37288" lon="2.74127">
        <ele>92</ele>
        <time>2026-02-08T13:24:51.087+00:00</time>
      </trkpt>
      <trkpt lat="48.37287" lon="2.7412">
        <ele>92</ele>
        <time>2026-02-08T13:24:55.358+00:00</time>
      </trkpt>
      <trkpt lat="48.37286" lon="2.74114">
        <ele>92</ele>
        <time>2026-02-08T13:24:59.360+00:00</time>
      </trkpt>
      <trkpt lat="48.37284" lon="2.74107">
        <ele>92</ele>
        <time>2026-02-08T13:25:03.501+00:00</time>
      </trkpt>
      <trkpt lat="48.37282" lon="2.741">
        <ele>92</ele>
        <time>2026-02-08T13:25:07.623+00:00</time>
      </trkpt>
      <trkpt lat="48.37281" lon="2.74092">
        <ele>95</ele>
        <time>2026-02-08T13:25:11.973+00:00</time>
      </trkpt>
      <trkpt lat="48.3728" lon="2.74084">
        <ele>95</ele>
        <time>2026-02-08T13:25:16.945+00:00</time>
      </trkpt>
      <trkpt lat="48.37278" lon="2.74077">
        <ele>95</ele>
        <time>2026-02-08T13:25:21.247+00:00</time>
      </trkpt>
      <trkpt lat="48.37277" lon="2.74071">
        <ele>95</ele>
        <time>2026-02-08T13:25:25.847+00:00</time>
      </trkpt>
      <trkpt lat="48.37275" lon="2.74065">
        <ele>98</ele>
        <time>2026-02-08T13:25:29.973+00:00</time>
      </trkpt>
      <trkpt lat="48.37273" lon="2.74059">
        <ele>98</ele>
        <time>2026-02-08T13:25:34.269+00:00</time>
      </trkpt>
      <trkpt lat="48.37271" lon="2.74052">
        <ele>98</ele>
        <time>2026-02-08T13:25:38.966+00:00</time>
      </trkpt>
      <trkpt lat="48.3727" lon="2.74046">
        <ele>98</ele>
        <time>2026-02-08T13:25:43.084+00:00</time>
      </trkpt>
      <trkpt lat="48.37268" lon="2.74039">
        <ele>101</ele>
        <time>2026-02-08T13:25:47.526+00:00</time>
      </trkpt>
      <trkpt lat="48.37266" lon="2.74032">
        <ele>101</ele>
        <time>2026-02-08T13:25:51.807+00:00</time>
      </trkpt>
      <trkpt lat="48.37263" lon="2.74026">
        <ele>101</ele>
        <time>2026-02-08T13:25:55.972+00:00</time>
      </trkpt>
      <trkpt lat="48.37261" lon="2.74018">
        <ele>101</ele>
        <time>2026-02-08T13:26:00.365+00:00</time>
      </trkpt>
      <trkpt lat="48.37259" lon="2.74011">
        <ele>102</ele>
        <time>2026-02-08T13:26:04.430+00:00</time>
      </trkpt>
      <trkpt lat="48.37257" lon="2.74005">
        <ele>102</ele>
        <time>2026-02-08T13:26:08.883+00:00</time>
      </trkpt>
      <trkpt lat="48.37255" lon="2.73998">
        <ele>102</ele>
        <time>2026-02-08T13:26:13.490+00:00</time>
      </trkpt>
      <trkpt lat="48.37253" lon="2.7399">
        <ele>102</ele>
        <time>2026-02-08T13:26:17.861+00:00</time>
      </trkpt>
      <trkpt lat="48.37251" lon="2.73983">
        <ele>102</ele>
        <time>2026-02-08T13:26:21.915+00:00</time>
      </trkpt>
      <trkpt lat="48.37248" lon="2.73975">
        <ele>102</ele>
        <time>2026-02-08T13:26:26.811+00:00</time>
      </trkpt>
      <trkpt lat="48.37246" lon="2.73969">
        <ele>102</ele>
        <time>2026-02-08T13:26:30.972+00:00</time>
      </trkpt>
      <trkpt lat="48.37244" lon="2.73961">
        <ele>102</ele>
        <time>2026-02-08T13:26:35.727+00:00</time>
      </trkpt>
      <trkpt lat="48.37242" lon="2.73954">
        <ele>102</ele>
        <time>2026-02-08T13:26:39.973+00:00</time>
      </trkpt>
      <trkpt lat="48.37239" lon="2.73947">
        <ele>102</ele>
        <time>2026-02-08T13:26:44.972+00:00</time>
      </trkpt>
      <trkpt lat="48.37238" lon="2.7394">
        <ele>102</ele>
        <time>2026-02-08T13:26:49.833+00:00</time>
      </trkpt>
      <trkpt lat="48.37236" lon="2.73934">
        <ele>101</ele>
        <time>2026-02-08T13:26:53.972+00:00</time>
      </trkpt>
      <trkpt lat="48.37235" lon="2.73927">
        <ele>100</ele>
        <time>2026-02-08T13:26:58.663+00:00</time>
      </trkpt>
      <trkpt lat="48.37234" lon="2.7392">
        <ele>100</ele>
        <time>2026-02-08T13:27:02.972+00:00</time>
      </trkpt>
      <trkpt lat="48.37232" lon="2.73912">
        <ele>100</ele>
        <time>2026-02-08T13:27:07.971+00:00</time>
      </trkpt>
      <trkpt lat="48.3723" lon="2.73903">
        <ele>100</ele>
        <time>2026-02-08T13:27:12.867+00:00</time>
      </trkpt>
      <trkpt lat="48.37228" lon="2.73896">
        <ele>99</ele>
        <time>2026-02-08T13:27:16.988+00:00</time>
      </trkpt>
      <trkpt lat="48.37226" lon="2.73889">
        <ele>99</ele>
        <time>2026-02-08T13:27:21.626+00:00</time>
      </trkpt>
      <trkpt lat="48.37224" lon="2.73883">
        <ele>99</ele>
        <time>2026-02-08T13:27:25.972+00:00</time>
      </trkpt>
      <trkpt lat="48.37222" lon="2.73877">
        <ele>99</ele>
        <time>2026-02-08T13:27:30.406+00:00</time>
      </trkpt>
      <trkpt lat="48.3722" lon="2.7387">
        <ele>99</ele>
        <time>2026-02-08T13:27:34.692+00:00</time>
      </trkpt>
      <trkpt lat="48.37218" lon="2.73861">
        <ele>99</ele>
        <time>2026-02-08T13:27:38.971+00:00</time>
      </trkpt>
      <trkpt lat="48.37217" lon="2.73852">
        <ele>99</ele>
        <time>2026-02-08T13:27:43.686+00:00</time>
      </trkpt>
      <trkpt lat="48.37215" lon="2.73844">
        <ele>100</ele>
        <time>2026-02-08T13:27:47.971+00:00</time>
      </trkpt>
      <trkpt lat="48.37213" lon="2.73838">
        <ele>100</ele>
        <time>2026-02-08T13:27:51.972+00:00</time>
      </trkpt>
      <trkpt lat="48.37211" lon="2.7383">
        <ele>100</ele>
        <time>2026-02-08T13:27:56.866+00:00</time>
      </trkpt>
      <trkpt lat="48.37208" lon="2.73823">
        <ele>100</ele>
        <time>2026-02-08T13:28:00.972+00:00</time>
      </trkpt>
      <trkpt lat="48.37209" lon="2.73821">
        <ele>100</ele>
        <time>2026-02-08T13:28:05.469+00:00</time>
      </trkpt>
      <trkpt lat="48.37203" lon="2.73813">
        <ele>100</ele>
        <time>2026-02-08T13:28:09.972+00:00</time>
      </trkpt>
      <trkpt lat="48.372" lon="2.73802">
        <ele>100</ele>
        <time>2026-02-08T13:28:14.887+00:00</time>
      </trkpt>
      <trkpt lat="48.372" lon="2.73792">
        <ele>100</ele>
        <time>2026-02-08T13:28:18.972+00:00</time>
      </trkpt>
      <trkpt lat="48.37198" lon="2.73783">
        <ele>101</ele>
        <time>2026-02-08T13:28:23.426+00:00</time>
      </trkpt>
      <trkpt lat="48.37196" lon="2.73776">
        <ele>101</ele>
        <time>2026-02-08T13:28:27.775+00:00</time>
      </trkpt>
      <trkpt lat="48.37194" lon="2.73769">
        <ele>101</ele>
        <time>2026-02-08T13:28:32.507+00:00</time>
      </trkpt>
      <trkpt lat="48.37192" lon="2.73762">
        <ele>102</ele>
        <time>2026-02-08T13:28:36.972+00:00</time>
      </trkpt>
      <trkpt lat="48.3719" lon="2.73754">
        <ele>102</ele>
        <time>2026-02-08T13:28:41.906+00:00</time>
      </trkpt>
      <trkpt lat="48.37188" lon="2.73746">
        <ele>102</ele>
        <time>2026-02-08T13:28:45.971+00:00</time>
      </trkpt>
      <trkpt lat="48.37186" lon="2.73738">
        <ele>102</ele>
        <time>2026-02-08T13:28:50.653+00:00</time>
      </trkpt>
      <trkpt lat="48.37183" lon="2.7373">
        <ele>101</ele>
        <time>2026-02-08T13:28:54.949+00:00</time>
      </trkpt>
      <trkpt lat="48.37181" lon="2.73722">
        <ele>101</ele>
        <time>2026-02-08T13:28:59.750+00:00</time>
      </trkpt>
      <trkpt lat="48.37179" lon="2.73715">
        <ele>100</ele>
        <time>2026-02-08T13:29:03.972+00:00</time>
      </trkpt>
      <trkpt lat="48.37173" lon="2.73702">
        <ele>99</ele>
        <time>2026-02-08T13:29:12.972+00:00</time>
      </trkpt>
      <trkpt lat="48.3717" lon="2.73693">
        <ele>99</ele>
        <time>2026-02-08T13:29:17.972+00:00</time>
      </trkpt>
      <trkpt lat="48.37169" lon="2.73685">
        <ele>99</ele>
        <time>2026-02-08T13:29:22.971+00:00</time>
      </trkpt>
      <trkpt lat="48.37168" lon="2.73678">
        <ele>99</ele>
        <time>2026-02-08T13:29:27.266+00:00</time>
      </trkpt>
      <trkpt lat="48.37166" lon="2.7367">
        <ele>99</ele>
        <time>2026-02-08T13:29:31.971+00:00</time>
      </trkpt>
      <trkpt lat="48.37165" lon="2.73661">
        <ele>99</ele>
        <time>2026-02-08T13:29:36.955+00:00</time>
      </trkpt>
      <trkpt lat="48.37163" lon="2.73655">
        <ele>99</ele>
        <time>2026-02-08T13:29:40.971+00:00</time>
      </trkpt>
      <trkpt lat="48.37161" lon="2.73649">
        <ele>99</ele>
        <time>2026-02-08T13:29:44.972+00:00</time>
      </trkpt>
      <trkpt lat="48.3716" lon="2.7364">
        <ele>99</ele>
        <time>2026-02-08T13:29:49.174+00:00</time>
      </trkpt>
      <trkpt lat="48.37159" lon="2.73633">
        <ele>99</ele>
        <time>2026-02-08T13:29:53.348+00:00</time>
      </trkpt>
      <trkpt lat="48.37157" lon="2.73625">
        <ele>99</ele>
        <time>2026-02-08T13:29:57.971+00:00</time>
      </trkpt>
      <trkpt lat="48.37155" lon="2.73617">
        <ele>99</ele>
        <time>2026-02-08T13:30:02.912+00:00</time>
      </trkpt>
      <trkpt lat="48.37153" lon="2.73609">
        <ele>99</ele>
        <time>2026-02-08T13:30:07.727+00:00</time>
      </trkpt>
      <trkpt lat="48.3715" lon="2.73601">
        <ele>99</ele>
        <time>2026-02-08T13:30:12.486+00:00</time>
      </trkpt>
      <trkpt lat="48.37147" lon="2.73594">
        <ele>98</ele>
        <time>2026-02-08T13:30:16.972+00:00</time>
      </trkpt>
      <trkpt lat="48.37144" lon="2.73585">
        <ele>98</ele>
        <time>2026-02-08T13:30:21.983+00:00</time>
      </trkpt>
      <trkpt lat="48.37142" lon="2.73576">
        <ele>98</ele>
        <time>2026-02-08T13:30:26.703+00:00</time>
      </trkpt>
      <trkpt lat="48.3714" lon="2.73568">
        <ele>97</ele>
        <time>2026-02-08T13:30:31.412+00:00</time>
      </trkpt>
      <trkpt lat="48.37137" lon="2.7356">
        <ele>97</ele>
        <time>2026-02-08T13:30:35.972+00:00</time>
      </trkpt>
      <trkpt lat="48.37136" lon="2.73552">
        <ele>97</ele>
        <time>2026-02-08T13:30:40.971+00:00</time>
      </trkpt>
      <trkpt lat="48.37135" lon="2.73543">
        <ele>97</ele>
        <time>2026-02-08T13:30:45.847+00:00</time>
      </trkpt>
      <trkpt lat="48.37133" lon="2.73536">
        <ele>96</ele>
        <time>2026-02-08T13:30:49.972+00:00</time>
      </trkpt>
      <trkpt lat="48.37131" lon="2.73529">
        <ele>96</ele>
        <time>2026-02-08T13:30:54.706+00:00</time>
      </trkpt>
      <trkpt lat="48.37129" lon="2.73522">
        <ele>96</ele>
        <time>2026-02-08T13:30:58.972+00:00</time>
      </trkpt>
      <trkpt lat="48.37128" lon="2.73514">
        <ele>96</ele>
        <time>2026-02-08T13:31:03.972+00:00</time>
      </trkpt>
      <trkpt lat="48.37126" lon="2.73506">
        <ele>97</ele>
        <time>2026-02-08T13:31:08.972+00:00</time>
      </trkpt>
      <trkpt lat="48.37124" lon="2.73499">
        <ele>96</ele>
        <time>2026-02-08T13:31:13.867+00:00</time>
      </trkpt>
      <trkpt lat="48.37122" lon="2.73493">
        <ele>96</ele>
        <time>2026-02-08T13:31:17.971+00:00</time>
      </trkpt>
      <trkpt lat="48.37119" lon="2.73486">
        <ele>96</ele>
        <time>2026-02-08T13:31:22.624+00:00</time>
      </trkpt>
      <trkpt lat="48.37117" lon="2.73479">
        <ele>96</ele>
        <time>2026-02-08T13:31:26.967+00:00</time>
      </trkpt>
      <trkpt lat="48.37115" lon="2.73473">
        <ele>96</ele>
        <time>2026-02-08T13:31:30.971+00:00</time>
      </trkpt>
      <trkpt lat="48.37112" lon="2.73465">
        <ele>96</ele>
        <time>2026-02-08T13:31:35.604+00:00</time>
      </trkpt>
      <trkpt lat="48.3711" lon="2.73456">
        <ele>96</ele>
        <time>2026-02-08T13:31:39.889+00:00</time>
      </trkpt>
      <trkpt lat="48.37108" lon="2.73449">
        <ele>96</ele>
        <time>2026-02-08T13:31:43.971+00:00</time>
      </trkpt>
      <trkpt lat="48.37107" lon="2.73441">
        <ele>96</ele>
        <time>2026-02-08T13:31:47.971+00:00</time>
      </trkpt>
      <trkpt lat="48.37105" lon="2.73433">
        <ele>96</ele>
        <time>2026-02-08T13:31:52.101+00:00</time>
      </trkpt>
      <trkpt lat="48.37102" lon="2.73426">
        <ele>96</ele>
        <time>2026-02-08T13:31:56.326+00:00</time>
      </trkpt>
      <trkpt lat="48.37099" lon="2.73418">
        <ele>96</ele>
        <time>2026-02-08T13:32:00.989+00:00</time>
      </trkpt>
      <trkpt lat="48.37097" lon="2.7341">
        <ele>94</ele>
        <time>2026-02-08T13:32:05.723+00:00</time>
      </trkpt>
      <trkpt lat="48.37095" lon="2.73402">
        <ele>93</ele>
        <time>2026-02-08T13:32:10.485+00:00</time>
      </trkpt>
      <trkpt lat="48.37093" lon="2.73393">
        <ele>93</ele>
        <time>2026-02-08T13:32:14.971+00:00</time>
      </trkpt>
      <trkpt lat="48.37091" lon="2.73383">
        <ele>93</ele>
        <time>2026-02-08T13:32:19.949+00:00</time>
      </trkpt>
      <trkpt lat="48.37089" lon="2.73374">
        <ele>93</ele>
        <time>2026-02-08T13:32:24.728+00:00</time>
      </trkpt>
      <trkpt lat="48.37086" lon="2.73367">
        <ele>93</ele>
        <time>2026-02-08T13:32:29.364+00:00</time>
      </trkpt>
      <trkpt lat="48.37083" lon="2.73359">
        <ele>93</ele>
        <time>2026-02-08T13:32:33.970+00:00</time>
      </trkpt>
      <trkpt lat="48.37081" lon="2.73351">
        <ele>93</ele>
        <time>2026-02-08T13:32:38.827+00:00</time>
      </trkpt>
      <trkpt lat="48.3708" lon="2.73344">
        <ele>92</ele>
        <time>2026-02-08T13:32:42.971+00:00</time>
      </trkpt>
      <trkpt lat="48.37077" lon="2.73337">
        <ele>92</ele>
        <time>2026-02-08T13:32:47.565+00:00</time>
      </trkpt>
      <trkpt lat="48.37075" lon="2.7333">
        <ele>92</ele>
        <time>2026-02-08T13:32:51.885+00:00</time>
      </trkpt>
      <trkpt lat="48.37074" lon="2.73323">
        <ele>92</ele>
        <time>2026-02-08T13:32:55.974+00:00</time>
      </trkpt>
      <trkpt lat="48.37072" lon="2.73315">
        <ele>92</ele>
        <time>2026-02-08T13:33:00.532+00:00</time>
      </trkpt>
      <trkpt lat="48.3707" lon="2.73308">
        <ele>92</ele>
        <time>2026-02-08T13:33:04.874+00:00</time>
      </trkpt>
      <trkpt lat="48.37067" lon="2.73302">
        <ele>90</ele>
        <time>2026-02-08T13:33:08.970+00:00</time>
      </trkpt>
      <trkpt lat="48.37065" lon="2.73294">
        <ele>90</ele>
        <time>2026-02-08T13:33:13.648+00:00</time>
      </trkpt>
      <trkpt lat="48.37064" lon="2.73287">
        <ele>90</ele>
        <time>2026-02-08T13:33:17.886+00:00</time>
      </trkpt>
      <trkpt lat="48.37061" lon="2.7328">
        <ele>90</ele>
        <time>2026-02-08T13:33:22.971+00:00</time>
      </trkpt>
      <trkpt lat="48.37057" lon="2.73273">
        <ele>90</ele>
        <time>2026-02-08T13:33:27.971+00:00</time>
      </trkpt>
      <trkpt lat="48.37053" lon="2.73268">
        <ele>90</ele>
        <time>2026-02-08T13:33:32.490+00:00</time>
      </trkpt>
      <trkpt lat="48.37049" lon="2.73265">
        <ele>90</ele>
        <time>2026-02-08T13:33:36.970+00:00</time>
      </trkpt>
      <trkpt lat="48.37043" lon="2.73261">
        <ele>90</ele>
        <time>2026-02-08T13:33:41.970+00:00</time>
      </trkpt>
      <trkpt lat="48.37039" lon="2.73256">
        <ele>90</ele>
        <time>2026-02-08T13:33:45.970+00:00</time>
      </trkpt>
      <trkpt lat="48.37034" lon="2.73252">
        <ele>90</ele>
        <time>2026-02-08T13:33:50.614+00:00</time>
      </trkpt>
      <trkpt lat="48.37029" lon="2.73246">
        <ele>90</ele>
        <time>2026-02-08T13:33:54.970+00:00</time>
      </trkpt>
      <trkpt lat="48.37024" lon="2.73241">
        <ele>90</ele>
        <time>2026-02-08T13:33:59.933+00:00</time>
      </trkpt>
      <trkpt lat="48.37018" lon="2.73237">
        <ele>90</ele>
        <time>2026-02-08T13:34:04.479+00:00</time>
      </trkpt>
      <trkpt lat="48.37014" lon="2.73233">
        <ele>93</ele>
        <time>2026-02-08T13:34:08.646+00:00</time>
      </trkpt>
      <trkpt lat="48.3701" lon="2.73228">
        <ele>93</ele>
        <time>2026-02-08T13:34:12.970+00:00</time>
      </trkpt>
      <trkpt lat="48.37006" lon="2.73223">
        <ele>93</ele>
        <time>2026-02-08T13:34:17.890+00:00</time>
      </trkpt>
      <trkpt lat="48.37002" lon="2.73219">
        <ele>93</ele>
        <time>2026-02-08T13:34:21.970+00:00</time>
      </trkpt>
      <trkpt lat="48.36997" lon="2.73215">
        <ele>93</ele>
        <time>2026-02-08T13:34:26.436+00:00</time>
      </trkpt>
      <trkpt lat="48.36993" lon="2.73211">
        <ele>93</ele>
        <time>2026-02-08T13:34:30.780+00:00</time>
      </trkpt>
      <trkpt lat="48.36989" lon="2.73206">
        <ele>92</ele>
        <time>2026-02-08T13:34:34.971+00:00</time>
      </trkpt>
      <trkpt lat="48.36985" lon="2.73203">
        <ele>96</ele>
        <time>2026-02-08T13:34:39.764+00:00</time>
      </trkpt>
      <trkpt lat="48.36981" lon="2.73199">
        <ele>96</ele>
        <time>2026-02-08T13:34:43.971+00:00</time>
      </trkpt>
      <trkpt lat="48.36977" lon="2.73193">
        <ele>96</ele>
        <time>2026-02-08T13:34:48.864+00:00</time>
      </trkpt>
      <trkpt lat="48.36972" lon="2.73187">
        <ele>96</ele>
        <time>2026-02-08T13:34:53.486+00:00</time>
      </trkpt>
      <trkpt lat="48.36967" lon="2.73183">
        <ele>96</ele>
        <time>2026-02-08T13:34:57.971+00:00</time>
      </trkpt>
      <trkpt lat="48.36963" lon="2.7318">
        <ele>93</ele>
        <time>2026-02-08T13:35:02.160+00:00</time>
      </trkpt>
      <trkpt lat="48.36958" lon="2.73176">
        <ele>94</ele>
        <time>2026-02-08T13:35:06.264+00:00</time>
      </trkpt>
      <trkpt lat="48.36954" lon="2.73171">
        <ele>94</ele>
        <time>2026-02-08T13:35:10.321+00:00</time>
      </trkpt>
      <trkpt lat="48.36951" lon="2.73165">
        <ele>94</ele>
        <time>2026-02-08T13:35:14.696+00:00</time>
      </trkpt>
      <trkpt lat="48.36947" lon="2.73161">
        <ele>94</ele>
        <time>2026-02-08T13:35:18.779+00:00</time>
      </trkpt>
      <trkpt lat="48.36942" lon="2.73157">
        <ele>94</ele>
        <time>2026-02-08T13:35:22.970+00:00</time>
      </trkpt>
      <trkpt lat="48.36937" lon="2.73153">
        <ele>92</ele>
        <time>2026-02-08T13:35:27.700+00:00</time>
      </trkpt>
      <trkpt lat="48.36932" lon="2.73147">
        <ele>92</ele>
        <time>2026-02-08T13:35:32.320+00:00</time>
      </trkpt>
      <trkpt lat="48.36928" lon="2.73142">
        <ele>92</ele>
        <time>2026-02-08T13:35:36.970+00:00</time>
      </trkpt>
      <trkpt lat="48.36923" lon="2.73137">
        <ele>92</ele>
        <time>2026-02-08T13:35:41.636+00:00</time>
      </trkpt>
      <trkpt lat="48.36918" lon="2.73129">
        <ele>92</ele>
        <time>2026-02-08T13:35:46.361+00:00</time>
      </trkpt>
      <trkpt lat="48.36921" lon="2.73127">
        <ele>92</ele>
        <time>2026-02-08T13:35:50.440+00:00</time>
      </trkpt>
      <trkpt lat="48.36916" lon="2.73119">
        <ele>90</ele>
        <time>2026-02-08T13:35:54.654+00:00</time>
      </trkpt>
      <trkpt lat="48.3691" lon="2.73114">
        <ele>90</ele>
        <time>2026-02-08T13:35:59.355+00:00</time>
      </trkpt>
      <trkpt lat="48.36905" lon="2.73109">
        <ele>90</ele>
        <time>2026-02-08T13:36:03.970+00:00</time>
      </trkpt>
      <trkpt lat="48.36898" lon="2.73107">
        <ele>90</ele>
        <time>2026-02-08T13:36:08.940+00:00</time>
      </trkpt>
      <trkpt lat="48.36893" lon="2.73103">
        <ele>90</ele>
        <time>2026-02-08T13:36:13.983+00:00</time>
      </trkpt>
      <trkpt lat="48.36888" lon="2.73098">
        <ele>90</ele>
        <time>2026-02-08T13:36:18.784+00:00</time>
      </trkpt>
      <trkpt lat="48.36884" lon="2.73093">
        <ele>88</ele>
        <time>2026-02-08T13:36:22.971+00:00</time>
      </trkpt>
      <trkpt lat="48.3688" lon="2.73088">
        <ele>88</ele>
        <time>2026-02-08T13:36:27.486+00:00</time>
      </trkpt>
      <trkpt lat="48.36876" lon="2.73083">
        <ele>88</ele>
        <time>2026-02-08T13:36:31.971+00:00</time>
      </trkpt>
      <trkpt lat="48.36872" lon="2.7308">
        <ele>92</ele>
        <time>2026-02-08T13:36:36.587+00:00</time>
      </trkpt>
      <trkpt lat="48.3687" lon="2.73083">
        <ele>92</ele>
        <time>2026-02-08T13:42:33.968+00:00</time>
      </trkpt>
      <trkpt lat="48.3687" lon="2.73083">
        <ele>92</ele>
        <time>2026-02-08T13:42:37.968+00:00</time>
      </trkpt>
      <trkpt lat="48.36874" lon="2.73086">
        <ele>92</ele>
        <time>2026-02-08T13:42:41.969+00:00</time>
      </trkpt>
      <trkpt lat="48.36876" lon="2.73088">
        <ele>88</ele>
        <time>2026-02-08T13:42:46.969+00:00</time>
      </trkpt>
      <trkpt lat="48.36876" lon="2.73089">
        <ele>88</ele>
        <time>2026-02-08T13:42:50.969+00:00</time>
      </trkpt>
      <trkpt lat="48.36877" lon="2.73089">
        <ele>88</ele>
        <time>2026-02-08T13:43:09.969+00:00</time>
      </trkpt>
      <trkpt lat="48.36873" lon="2.73084">
        <ele>92</ele>
        <time>2026-02-08T13:43:14.433+00:00</time>
      </trkpt>
      <trkpt lat="48.36871" lon="2.7308">
        <ele>92</ele>
        <time>2026-02-08T13:43:18.969+00:00</time>
      </trkpt>
      <trkpt lat="48.3687" lon="2.73078">
        <ele>92</ele>
        <time>2026-02-08T13:43:23.409+00:00</time>
      </trkpt>
      <trkpt lat="48.36868" lon="2.73075">
        <ele>92</ele>
        <time>2026-02-08T13:43:27.573+00:00</time>
      </trkpt>
      <trkpt lat="48.36865" lon="2.73071">
        <ele>92</ele>
        <time>2026-02-08T13:43:31.969+00:00</time>
      </trkpt>
      <trkpt lat="48.36863" lon="2.73068">
        <ele>91</ele>
        <time>2026-02-08T13:43:36.534+00:00</time>
      </trkpt>
      <trkpt lat="48.3686" lon="2.73065">
        <ele>91</ele>
        <time>2026-02-08T13:43:40.733+00:00</time>
      </trkpt>
      <trkpt lat="48.36856" lon="2.73061">
        <ele>91</ele>
        <time>2026-02-08T13:43:45.216+00:00</time>
      </trkpt>
      <trkpt lat="48.36851" lon="2.73058">
        <ele>91</ele>
        <time>2026-02-08T13:43:49.968+00:00</time>
      </trkpt>
      <trkpt lat="48.36847" lon="2.73055">
        <ele>91</ele>
        <time>2026-02-08T13:43:54.473+00:00</time>
      </trkpt>
      <trkpt lat="48.36844" lon="2.73052">
        <ele>94</ele>
        <time>2026-02-08T13:43:58.969+00:00</time>
      </trkpt>
      <trkpt lat="48.36841" lon="2.73048">
        <ele>94</ele>
        <time>2026-02-08T13:44:03.450+00:00</time>
      </trkpt>
      <trkpt lat="48.36838" lon="2.73043">
        <ele>94</ele>
        <time>2026-02-08T13:44:07.709+00:00</time>
      </trkpt>
      <trkpt lat="48.36835" lon="2.73039">
        <ele>92</ele>
        <time>2026-02-08T13:44:11.815+00:00</time>
      </trkpt>
      <trkpt lat="48.36832" lon="2.73036">
        <ele>92</ele>
        <time>2026-02-08T13:44:15.968+00:00</time>
      </trkpt>
      <trkpt lat="48.36828" lon="2.73032">
        <ele>92</ele>
        <time>2026-02-08T13:44:20.534+00:00</time>
      </trkpt>
      <trkpt lat="48.36824" lon="2.73029">
        <ele>92</ele>
        <time>2026-02-08T13:44:24.969+00:00</time>
      </trkpt>
      <trkpt lat="48.3682" lon="2.73026">
        <ele>92</ele>
        <time>2026-02-08T13:44:28.969+00:00</time>
      </trkpt>
      <trkpt lat="48.36816" lon="2.73021">
        <ele>95</ele>
        <time>2026-02-08T13:44:33.756+00:00</time>
      </trkpt>
      <trkpt lat="48.36812" lon="2.73017">
        <ele>95</ele>
        <time>2026-02-08T13:44:38.234+00:00</time>
      </trkpt>
      <trkpt lat="48.36809" lon="2.73012">
        <ele>94</ele>
        <time>2026-02-08T13:44:42.968+00:00</time>
      </trkpt>
      <trkpt lat="48.36806" lon="2.73008">
        <ele>94</ele>
        <time>2026-02-08T13:44:47.450+00:00</time>
      </trkpt>
      <trkpt lat="48.36801" lon="2.73004">
        <ele>94</ele>
        <time>2026-02-08T13:44:51.969+00:00</time>
      </trkpt>
      <trkpt lat="48.36797" lon="2.73001">
        <ele>94</ele>
        <time>2026-02-08T13:44:56.367+00:00</time>
      </trkpt>
      <trkpt lat="48.36793" lon="2.72995">
        <ele>94</ele>
        <time>2026-02-08T13:45:00.969+00:00</time>
      </trkpt>
      <trkpt lat="48.36789" lon="2.72991">
        <ele>95</ele>
        <time>2026-02-08T13:45:04.969+00:00</time>
      </trkpt>
      <trkpt lat="48.36785" lon="2.72987">
        <ele>95</ele>
        <time>2026-02-08T13:45:09.713+00:00</time>
      </trkpt>
      <trkpt lat="48.36782" lon="2.72981">
        <ele>95</ele>
        <time>2026-02-08T13:45:14.510+00:00</time>
      </trkpt>
      <trkpt lat="48.36783" lon="2.72974">
        <ele>95</ele>
        <time>2026-02-08T13:45:18.614+00:00</time>
      </trkpt>
      <trkpt lat="48.36788" lon="2.72968">
        <ele>95</ele>
        <time>2026-02-08T13:45:23.693+00:00</time>
      </trkpt>
      <trkpt lat="48.36792" lon="2.72964">
        <ele>93</ele>
        <time>2026-02-08T13:45:27.969+00:00</time>
      </trkpt>
      <trkpt lat="48.36796" lon="2.7296">
        <ele>93</ele>
        <time>2026-02-08T13:45:32.550+00:00</time>
      </trkpt>
      <trkpt lat="48.368" lon="2.72954">
        <ele>93</ele>
        <time>2026-02-08T13:45:36.910+00:00</time>
      </trkpt>
      <trkpt lat="48.36805" lon="2.7295">
        <ele>93</ele>
        <time>2026-02-08T13:45:40.968+00:00</time>
      </trkpt>
      <trkpt lat="48.3681" lon="2.72945">
        <ele>93</ele>
        <time>2026-02-08T13:45:45.529+00:00</time>
      </trkpt>
      <trkpt lat="48.36815" lon="2.7294">
        <ele>93</ele>
        <time>2026-02-08T13:45:49.949+00:00</time>
      </trkpt>
      <trkpt lat="48.36819" lon="2.72935">
        <ele>93</ele>
        <time>2026-02-08T13:45:53.968+00:00</time>
      </trkpt>
      <trkpt lat="48.36824" lon="2.72932">
        <ele>91</ele>
        <time>2026-02-08T13:45:58.313+00:00</time>
      </trkpt>
      <trkpt lat="48.36828" lon="2.72929">
        <ele>92</ele>
        <time>2026-02-08T13:46:02.400+00:00</time>
      </trkpt>
      <trkpt lat="48.36833" lon="2.72926">
        <ele>92</ele>
        <time>2026-02-08T13:46:06.871+00:00</time>
      </trkpt>
      <trkpt lat="48.36837" lon="2.7292">
        <ele>92</ele>
        <time>2026-02-08T13:46:11.769+00:00</time>
      </trkpt>
      <trkpt lat="48.36842" lon="2.72915">
        <ele>92</ele>
        <time>2026-02-08T13:46:15.969+00:00</time>
      </trkpt>
      <trkpt lat="48.36846" lon="2.72911">
        <ele>92</ele>
        <time>2026-02-08T13:46:20.654+00:00</time>
      </trkpt>
      <trkpt lat="48.36851" lon="2.72907">
        <ele>90</ele>
        <time>2026-02-08T13:46:24.968+00:00</time>
      </trkpt>
      <trkpt lat="48.36856" lon="2.72902">
        <ele>92</ele>
        <time>2026-02-08T13:46:29.930+00:00</time>
      </trkpt>
      <trkpt lat="48.36861" lon="2.72898">
        <ele>92</ele>
        <time>2026-02-08T13:46:34.954+00:00</time>
      </trkpt>
      <trkpt lat="48.36865" lon="2.72894">
        <ele>92</ele>
        <time>2026-02-08T13:46:39.947+00:00</time>
      </trkpt>
      <trkpt lat="48.36869" lon="2.72889">
        <ele>92</ele>
        <time>2026-02-08T13:46:44.869+00:00</time>
      </trkpt>
      <trkpt lat="48.36874" lon="2.72884">
        <ele>92</ele>
        <time>2026-02-08T13:46:49.733+00:00</time>
      </trkpt>
      <trkpt lat="48.36878" lon="2.72879">
        <ele>90</ele>
        <time>2026-02-08T13:46:53.848+00:00</time>
      </trkpt>
      <trkpt lat="48.36881" lon="2.72874">
        <ele>92</ele>
        <time>2026-02-08T13:46:57.969+00:00</time>
      </trkpt>
      <trkpt lat="48.36885" lon="2.72869">
        <ele>92</ele>
        <time>2026-02-08T13:47:02.329+00:00</time>
      </trkpt>
      <trkpt lat="48.3689" lon="2.72865">
        <ele>92</ele>
        <time>2026-02-08T13:47:06.853+00:00</time>
      </trkpt>
      <trkpt lat="48.36894" lon="2.72861">
        <ele>92</ele>
        <time>2026-02-08T13:47:10.969+00:00</time>
      </trkpt>
      <trkpt lat="48.36898" lon="2.72856">
        <ele>92</ele>
        <time>2026-02-08T13:47:15.393+00:00</time>
      </trkpt>
      <trkpt lat="48.36902" lon="2.72851">
        <ele>92</ele>
        <time>2026-02-08T13:47:19.507+00:00</time>
      </trkpt>
      <trkpt lat="48.36907" lon="2.72847">
        <ele>88</ele>
        <time>2026-02-08T13:47:23.850+00:00</time>
      </trkpt>
      <trkpt lat="48.36911" lon="2.72844">
        <ele>90</ele>
        <time>2026-02-08T13:47:27.969+00:00</time>
      </trkpt>
      <trkpt lat="48.36915" lon="2.72839">
        <ele>90</ele>
        <time>2026-02-08T13:47:32.349+00:00</time>
      </trkpt>
      <trkpt lat="48.36918" lon="2.72833">
        <ele>90</ele>
        <time>2026-02-08T13:47:36.968+00:00</time>
      </trkpt>
      <trkpt lat="48.36922" lon="2.72829">
        <ele>90</ele>
        <time>2026-02-08T13:47:41.456+00:00</time>
      </trkpt>
      <trkpt lat="48.36926" lon="2.72824">
        <ele>90</ele>
        <time>2026-02-08T13:47:45.807+00:00</time>
      </trkpt>
      <trkpt lat="48.3693" lon="2.72819">
        <ele>90</ele>
        <time>2026-02-08T13:47:49.967+00:00</time>
      </trkpt>
      <trkpt lat="48.36933" lon="2.72815">
        <ele>91</ele>
        <time>2026-02-08T13:47:54.408+00:00</time>
      </trkpt>
      <trkpt lat="48.36937" lon="2.72811">
        <ele>91</ele>
        <time>2026-02-08T13:47:58.649+00:00</time>
      </trkpt>
      <trkpt lat="48.36942" lon="2.72807">
        <ele>91</ele>
        <time>2026-02-08T13:48:02.968+00:00</time>
      </trkpt>
      <trkpt lat="48.36947" lon="2.72804">
        <ele>91</ele>
        <time>2026-02-08T13:48:06.968+00:00</time>
      </trkpt>
      <trkpt lat="48.36952" lon="2.72801">
        <ele>91</ele>
        <time>2026-02-08T13:48:11.968+00:00</time>
      </trkpt>
      <trkpt lat="48.36958" lon="2.72798">
        <ele>91</ele>
        <time>2026-02-08T13:48:16.653+00:00</time>
      </trkpt>
      <trkpt lat="48.36962" lon="2.72789">
        <ele>93</ele>
        <time>2026-02-08T13:48:20.973+00:00</time>
      </trkpt>
      <trkpt lat="48.36966" lon="2.72785">
        <ele>93</ele>
        <time>2026-02-08T13:48:24.968+00:00</time>
      </trkpt>
      <trkpt lat="48.36969" lon="2.72781">
        <ele>93</ele>
        <time>2026-02-08T13:48:28.967+00:00</time>
      </trkpt>
      <trkpt lat="48.36972" lon="2.72776">
        <ele>93</ele>
        <time>2026-02-08T13:48:33.490+00:00</time>
      </trkpt>
      <trkpt lat="48.36976" lon="2.72773">
        <ele>93</ele>
        <time>2026-02-08T13:48:37.749+00:00</time>
      </trkpt>
      <trkpt lat="48.36981" lon="2.7277">
        <ele>93</ele>
        <time>2026-02-08T13:48:41.967+00:00</time>
      </trkpt>
      <trkpt lat="48.36985" lon="2.72766">
        <ele>93</ele>
        <time>2026-02-08T13:48:46.426+00:00</time>
      </trkpt>
      <trkpt lat="48.3699" lon="2.72761">
        <ele>93</ele>
        <time>2026-02-08T13:48:50.967+00:00</time>
      </trkpt>
      <trkpt lat="48.36995" lon="2.72758">
        <ele>93</ele>
        <time>2026-02-08T13:48:55.968+00:00</time>
      </trkpt>
      <trkpt lat="48.37001" lon="2.72756">
        <ele>93</ele>
        <time>2026-02-08T13:49:00.967+00:00</time>
      </trkpt>
      <trkpt lat="48.37007" lon="2.72752">
        <ele>93</ele>
        <time>2026-02-08T13:49:05.967+00:00</time>
      </trkpt>
      <trkpt lat="48.37012" lon="2.72746">
        <ele>93</ele>
        <time>2026-02-08T13:49:10.968+00:00</time>
      </trkpt>
      <trkpt lat="48.37016" lon="2.7274">
        <ele>89</ele>
        <time>2026-02-08T13:49:15.807+00:00</time>
      </trkpt>
      <trkpt lat="48.37019" lon="2.72733">
        <ele>90</ele>
        <time>2026-02-08T13:49:19.968+00:00</time>
      </trkpt>
      <trkpt lat="48.3702" lon="2.72724">
        <ele>90</ele>
        <time>2026-02-08T13:49:24.734+00:00</time>
      </trkpt>
      <trkpt lat="48.3702" lon="2.72716">
        <ele>90</ele>
        <time>2026-02-08T13:49:28.967+00:00</time>
      </trkpt>
      <trkpt lat="48.37022" lon="2.72707">
        <ele>91</ele>
        <time>2026-02-08T13:49:33.968+00:00</time>
      </trkpt>
      <trkpt lat="48.37023" lon="2.72699">
        <ele>91</ele>
        <time>2026-02-08T13:49:38.949+00:00</time>
      </trkpt>
      <trkpt lat="48.37024" lon="2.72692">
        <ele>91</ele>
        <time>2026-02-08T13:49:43.015+00:00</time>
      </trkpt>
      <trkpt lat="48.37024" lon="2.72684">
        <ele>91</ele>
        <time>2026-02-08T13:49:47.492+00:00</time>
      </trkpt>
      <trkpt lat="48.37025" lon="2.72677">
        <ele>93</ele>
        <time>2026-02-08T13:49:51.588+00:00</time>
      </trkpt>
      <trkpt lat="48.37025" lon="2.7267">
        <ele>93</ele>
        <time>2026-02-08T13:49:55.967+00:00</time>
      </trkpt>
      <trkpt lat="48.37026" lon="2.72663">
        <ele>93</ele>
        <time>2026-02-08T13:49:59.968+00:00</time>
      </trkpt>
      <trkpt lat="48.37028" lon="2.72655">
        <ele>93</ele>
        <time>2026-02-08T13:50:04.473+00:00</time>
      </trkpt>
      <trkpt lat="48.37029" lon="2.72647">
        <ele>94</ele>
        <time>2026-02-08T13:50:08.968+00:00</time>
      </trkpt>
      <trkpt lat="48.37031" lon="2.72639">
        <ele>94</ele>
        <time>2026-02-08T13:50:13.316+00:00</time>
      </trkpt>
      <trkpt lat="48.37032" lon="2.72631">
        <ele>94</ele>
        <time>2026-02-08T13:50:17.968+00:00</time>
      </trkpt>
      <trkpt lat="48.37034" lon="2.72622">
        <ele>93</ele>
        <time>2026-02-08T13:50:22.967+00:00</time>
      </trkpt>
      <trkpt lat="48.37036" lon="2.72613">
        <ele>93</ele>
        <time>2026-02-08T13:50:27.393+00:00</time>
      </trkpt>
      <trkpt lat="48.37037" lon="2.72606">
        <ele>93</ele>
        <time>2026-02-08T13:50:31.968+00:00</time>
      </trkpt>
      <trkpt lat="48.37037" lon="2.72597">
        <ele>93</ele>
        <time>2026-02-08T13:50:36.968+00:00</time>
      </trkpt>
      <trkpt lat="48.37038" lon="2.72589">
        <ele>93</ele>
        <time>2026-02-08T13:50:41.653+00:00</time>
      </trkpt>
      <trkpt lat="48.37038" lon="2.72581">
        <ele>93</ele>
        <time>2026-02-08T13:50:45.867+00:00</time>
      </trkpt>
      <trkpt lat="48.37039" lon="2.72575">
        <ele>93</ele>
        <time>2026-02-08T13:50:49.968+00:00</time>
      </trkpt>
      <trkpt lat="48.37041" lon="2.72568">
        <ele>93</ele>
        <time>2026-02-08T13:50:54.110+00:00</time>
      </trkpt>
      <trkpt lat="48.37042" lon="2.72561">
        <ele>92</ele>
        <time>2026-02-08T13:50:58.414+00:00</time>
      </trkpt>
      <trkpt lat="48.37043" lon="2.72553">
        <ele>92</ele>
        <time>2026-02-08T13:51:02.967+00:00</time>
      </trkpt>
      <trkpt lat="48.37044" lon="2.72545">
        <ele>92</ele>
        <time>2026-02-08T13:51:07.833+00:00</time>
      </trkpt>
      <trkpt lat="48.37046" lon="2.72539">
        <ele>92</ele>
        <time>2026-02-08T13:51:11.967+00:00</time>
      </trkpt>
      <trkpt lat="48.37046" lon="2.72532">
        <ele>92</ele>
        <time>2026-02-08T13:51:16.569+00:00</time>
      </trkpt>
      <trkpt lat="48.37046" lon="2.72524">
        <ele>92</ele>
        <time>2026-02-08T13:51:20.968+00:00</time>
      </trkpt>
      <trkpt lat="48.37047" lon="2.72515">
        <ele>92</ele>
        <time>2026-02-08T13:51:25.734+00:00</time>
      </trkpt>
      <trkpt lat="48.37049" lon="2.72507">
        <ele>92</ele>
        <time>2026-02-08T13:51:30.352+00:00</time>
      </trkpt>
      <trkpt lat="48.3705" lon="2.72499">
        <ele>92</ele>
        <time>2026-02-08T13:51:34.967+00:00</time>
      </trkpt>
      <trkpt lat="48.37052" lon="2.72491">
        <ele>92</ele>
        <time>2026-02-08T13:51:39.813+00:00</time>
      </trkpt>
      <trkpt lat="48.37054" lon="2.72484">
        <ele>92</ele>
        <time>2026-02-08T13:51:43.968+00:00</time>
      </trkpt>
      <trkpt lat="48.37055" lon="2.72475">
        <ele>92</ele>
        <time>2026-02-08T13:51:48.614+00:00</time>
      </trkpt>
      <trkpt lat="48.37055" lon="2.72468">
        <ele>92</ele>
        <time>2026-02-08T13:51:52.968+00:00</time>
      </trkpt>
      <trkpt lat="48.37057" lon="2.72459">
        <ele>92</ele>
        <time>2026-02-08T13:51:57.767+00:00</time>
      </trkpt>
      <trkpt lat="48.37058" lon="2.72452">
        <ele>92</ele>
        <time>2026-02-08T13:52:01.968+00:00</time>
      </trkpt>
      <trkpt lat="48.37059" lon="2.72445">
        <ele>92</ele>
        <time>2026-02-08T13:52:06.369+00:00</time>
      </trkpt>
      <trkpt lat="48.3706" lon="2.72438">
        <ele>92</ele>
        <time>2026-02-08T13:52:10.654+00:00</time>
      </trkpt>
      <trkpt lat="48.37061" lon="2.72431">
        <ele>92</ele>
        <time>2026-02-08T13:52:14.968+00:00</time>
      </trkpt>
      <trkpt lat="48.37062" lon="2.72423">
        <ele>92</ele>
        <time>2026-02-08T13:52:19.434+00:00</time>
      </trkpt>
      <trkpt lat="48.37062" lon="2.72417">
        <ele>92</ele>
        <time>2026-02-08T13:52:23.435+00:00</time>
      </trkpt>
      <trkpt lat="48.37063" lon="2.72409">
        <ele>92</ele>
        <time>2026-02-08T13:52:27.874+00:00</time>
      </trkpt>
      <trkpt lat="48.37064" lon="2.72402">
        <ele>92</ele>
        <time>2026-02-08T13:52:32.189+00:00</time>
      </trkpt>
      <trkpt lat="48.37066" lon="2.72395">
        <ele>92</ele>
        <time>2026-02-08T13:52:36.714+00:00</time>
      </trkpt>
      <trkpt lat="48.37067" lon="2.72388">
        <ele>92</ele>
        <time>2026-02-08T13:52:41.254+00:00</time>
      </trkpt>
      <trkpt lat="48.37067" lon="2.7238">
        <ele>92</ele>
        <time>2026-02-08T13:52:45.967+00:00</time>
      </trkpt>
      <trkpt lat="48.37068" lon="2.72373">
        <ele>92</ele>
        <time>2026-02-08T13:52:50.450+00:00</time>
      </trkpt>
      <trkpt lat="48.37069" lon="2.72367">
        <ele>92</ele>
        <time>2026-02-08T13:52:54.968+00:00</time>
      </trkpt>
      <trkpt lat="48.3707" lon="2.7236">
        <ele>93</ele>
        <time>2026-02-08T13:52:59.694+00:00</time>
      </trkpt>
      <trkpt lat="48.3707" lon="2.72354">
        <ele>93</ele>
        <time>2026-02-08T13:53:03.967+00:00</time>
      </trkpt>
      <trkpt lat="48.37071" lon="2.72348">
        <ele>93</ele>
        <time>2026-02-08T13:53:07.967+00:00</time>
      </trkpt>
      <trkpt lat="48.37072" lon="2.72342">
        <ele>93</ele>
        <time>2026-02-08T13:53:12.487+00:00</time>
      </trkpt>
      <trkpt lat="48.37073" lon="2.72338">
        <ele>93</ele>
        <time>2026-02-08T13:53:16.713+00:00</time>
      </trkpt>
      <trkpt lat="48.37074" lon="2.72338">
        <ele>93</ele>
        <time>2026-02-08T13:53:20.967+00:00</time>
      </trkpt>
      <trkpt lat="48.37074" lon="2.72337">
        <ele>93</ele>
        <time>2026-02-08T13:53:25.967+00:00</time>
      </trkpt>
      <trkpt lat="48.37075" lon="2.72337">
        <ele>93</ele>
        <time>2026-02-08T13:53:30.653+00:00</time>
      </trkpt>
      <trkpt lat="48.37076" lon="2.72328">
        <ele>93</ele>
        <time>2026-02-08T13:53:35.407+00:00</time>
      </trkpt>
      <trkpt lat="48.37077" lon="2.72321">
        <ele>93</ele>
        <time>2026-02-08T13:53:39.968+00:00</time>
      </trkpt>
      <trkpt lat="48.37076" lon="2.72312">
        <ele>94</ele>
        <time>2026-02-08T13:53:44.968+00:00</time>
      </trkpt>
      <trkpt lat="48.37077" lon="2.72309">
        <ele>94</ele>
        <time>2026-02-08T13:53:49.733+00:00</time>
      </trkpt>
      <trkpt lat="48.37077" lon="2.72307">
        <ele>94</ele>
        <time>2026-02-08T13:53:53.967+00:00</time>
      </trkpt>
      <trkpt lat="48.37078" lon="2.72302">
        <ele>94</ele>
        <time>2026-02-08T13:53:58.711+00:00</time>
      </trkpt>
      <trkpt lat="48.37079" lon="2.72297">
        <ele>94</ele>
        <time>2026-02-08T13:54:02.968+00:00</time>
      </trkpt>
      <trkpt lat="48.37081" lon="2.72292">
        <ele>94</ele>
        <time>2026-02-08T13:54:06.966+00:00</time>
      </trkpt>
      <trkpt lat="48.37082" lon="2.72285">
        <ele>94</ele>
        <time>2026-02-08T13:54:11.966+00:00</time>
      </trkpt>
      <trkpt lat="48.37083" lon="2.72279">
        <ele>94</ele>
        <time>2026-02-08T13:54:16.689+00:00</time>
      </trkpt>
      <trkpt lat="48.37084" lon="2.72272">
        <ele>94</ele>
        <time>2026-02-08T13:54:21.409+00:00</time>
      </trkpt>
      <trkpt lat="48.37085" lon="2.72266">
        <ele>94</ele>
        <time>2026-02-08T13:54:25.753+00:00</time>
      </trkpt>
      <trkpt lat="48.37085" lon="2.72259">
        <ele>94</ele>
        <time>2026-02-08T13:54:29.967+00:00</time>
      </trkpt>
      <trkpt lat="48.37085" lon="2.72254">
        <ele>94</ele>
        <time>2026-02-08T13:54:34.635+00:00</time>
      </trkpt>
      <trkpt lat="48.37085" lon="2.72247">
        <ele>94</ele>
        <time>2026-02-08T13:54:38.966+00:00</time>
      </trkpt>
      <trkpt lat="48.37085" lon="2.72241">
        <ele>94</ele>
        <time>2026-02-08T13:54:43.967+00:00</time>
      </trkpt>
      <trkpt lat="48.37087" lon="2.72235">
        <ele>94</ele>
        <time>2026-02-08T13:54:47.967+00:00</time>
      </trkpt>
      <trkpt lat="48.3709" lon="2.7223">
        <ele>94</ele>
        <time>2026-02-08T13:54:52.966+00:00</time>
      </trkpt>
      <trkpt lat="48.37091" lon="2.72224">
        <ele>94</ele>
        <time>2026-02-08T13:54:56.967+00:00</time>
      </trkpt>
      <trkpt lat="48.37092" lon="2.72218">
        <ele>94</ele>
        <time>2026-02-08T13:55:01.463+00:00</time>
      </trkpt>
      <trkpt lat="48.37092" lon="2.72212">
        <ele>94</ele>
        <time>2026-02-08T13:55:05.968+00:00</time>
      </trkpt>
      <trkpt lat="48.37092" lon="2.72204">
        <ele>95</ele>
        <time>2026-02-08T13:55:10.193+00:00</time>
      </trkpt>
      <trkpt lat="48.37092" lon="2.72197">
        <ele>95</ele>
        <time>2026-02-08T13:55:14.967+00:00</time>
      </trkpt>
      <trkpt lat="48.37092" lon="2.7219">
        <ele>95</ele>
        <time>2026-02-08T13:55:19.512+00:00</time>
      </trkpt>
      <trkpt lat="48.37094" lon="2.72182">
        <ele>95</ele>
        <time>2026-02-08T13:55:23.967+00:00</time>
      </trkpt>
      <trkpt lat="48.37096" lon="2.72174">
        <ele>95</ele>
        <time>2026-02-08T13:55:27.967+00:00</time>
      </trkpt>
      <trkpt lat="48.37098" lon="2.72167">
        <ele>95</ele>
        <time>2026-02-08T13:55:32.489+00:00</time>
      </trkpt>
      <trkpt lat="48.37099" lon="2.72159">
        <ele>95</ele>
        <time>2026-02-08T13:55:36.927+00:00</time>
      </trkpt>
      <trkpt lat="48.37099" lon="2.72152">
        <ele>95</ele>
        <time>2026-02-08T13:55:41.391+00:00</time>
      </trkpt>
      <trkpt lat="48.371" lon="2.72144">
        <ele>95</ele>
        <time>2026-02-08T13:55:45.408+00:00</time>
      </trkpt>
      <trkpt lat="48.371" lon="2.72137">
        <ele>95</ele>
        <time>2026-02-08T13:55:49.930+00:00</time>
      </trkpt>
      <trkpt lat="48.37101" lon="2.72132">
        <ele>95</ele>
        <time>2026-02-08T13:55:53.966+00:00</time>
      </trkpt>
      <trkpt lat="48.37101" lon="2.72125">
        <ele>96</ele>
        <time>2026-02-08T13:55:58.967+00:00</time>
      </trkpt>
      <trkpt lat="48.37102" lon="2.72118">
        <ele>96</ele>
        <time>2026-02-08T13:56:03.966+00:00</time>
      </trkpt>
      <trkpt lat="48.37102" lon="2.72117">
        <ele>96</ele>
        <time>2026-02-08T13:56:08.873+00:00</time>
      </trkpt>
      <trkpt lat="48.37103" lon="2.72116">
        <ele>96</ele>
        <time>2026-02-08T13:56:12.967+00:00</time>
      </trkpt>
      <trkpt lat="48.37104" lon="2.7211">
        <ele>96</ele>
        <time>2026-02-08T13:56:17.578+00:00</time>
      </trkpt>
      <trkpt lat="48.37104" lon="2.72103">
        <ele>96</ele>
        <time>2026-02-08T13:56:21.854+00:00</time>
      </trkpt>
      <trkpt lat="48.37107" lon="2.72099">
        <ele>96</ele>
        <time>2026-02-08T13:56:26.536+00:00</time>
      </trkpt>
      <trkpt lat="48.3711" lon="2.72089">
        <ele>96</ele>
        <time>2026-02-08T13:56:39.967+00:00</time>
      </trkpt>
      <trkpt lat="48.37109" lon="2.72089">
        <ele>96</ele>
        <time>2026-02-08T13:56:48.967+00:00</time>
      </trkpt>
      <trkpt lat="48.37109" lon="2.72088">
        <ele>96</ele>
        <time>2026-02-08T13:56:52.967+00:00</time>
      </trkpt>
      <trkpt lat="48.37111" lon="2.72082">
        <ele>96</ele>
        <time>2026-02-08T13:56:57.536+00:00</time>
      </trkpt>
      <trkpt lat="48.37112" lon="2.72078">
        <ele>96</ele>
        <time>2026-02-08T13:57:01.872+00:00</time>
      </trkpt>
      <trkpt lat="48.37112" lon="2.72075">
        <ele>96</ele>
        <time>2026-02-08T13:57:06.794+00:00</time>
      </trkpt>
      <trkpt lat="48.37111" lon="2.72073">
        <ele>96</ele>
        <time>2026-02-08T13:57:11.966+00:00</time>
      </trkpt>
      <trkpt lat="48.3711" lon="2.7207">
        <ele>96</ele>
        <time>2026-02-08T13:57:16.513+00:00</time>
      </trkpt>
      <trkpt lat="48.37109" lon="2.72065">
        <ele>97</ele>
        <time>2026-02-08T13:57:20.669+00:00</time>
      </trkpt>
      <trkpt lat="48.37111" lon="2.72058">
        <ele>97</ele>
        <time>2026-02-08T13:57:25.413+00:00</time>
      </trkpt>
      <trkpt lat="48.37114" lon="2.72053">
        <ele>97</ele>
        <time>2026-02-08T13:57:29.876+00:00</time>
      </trkpt>
      <trkpt lat="48.37114" lon="2.72047">
        <ele>97</ele>
        <time>2026-02-08T13:57:33.967+00:00</time>
      </trkpt>
      <trkpt lat="48.37116" lon="2.7204">
        <ele>98</ele>
        <time>2026-02-08T13:57:38.966+00:00</time>
      </trkpt>
      <trkpt lat="48.37118" lon="2.72033">
        <ele>98</ele>
        <time>2026-02-08T13:57:43.966+00:00</time>
      </trkpt>
      <trkpt lat="48.37118" lon="2.72026">
        <ele>98</ele>
        <time>2026-02-08T13:57:48.368+00:00</time>
      </trkpt>
      <trkpt lat="48.37119" lon="2.72018">
        <ele>98</ele>
        <time>2026-02-08T13:57:52.709+00:00</time>
      </trkpt>
      <trkpt lat="48.3712" lon="2.72012">
        <ele>98</ele>
        <time>2026-02-08T13:57:56.977+00:00</time>
      </trkpt>
      <trkpt lat="48.3712" lon="2.72004">
        <ele>98</ele>
        <time>2026-02-08T13:58:01.653+00:00</time>
      </trkpt>
      <trkpt lat="48.37121" lon="2.71996">
        <ele>98</ele>
        <time>2026-02-08T13:58:05.966+00:00</time>
      </trkpt>
      <trkpt lat="48.37121" lon="2.7199">
        <ele>98</ele>
        <time>2026-02-08T13:58:09.967+00:00</time>
      </trkpt>
      <trkpt lat="48.37123" lon="2.71983">
        <ele>98</ele>
        <time>2026-02-08T13:58:14.477+00:00</time>
      </trkpt>
      <trkpt lat="48.37125" lon="2.71977">
        <ele>98</ele>
        <time>2026-02-08T13:58:18.967+00:00</time>
      </trkpt>
      <trkpt lat="48.3713" lon="2.71977">
        <ele>100</ele>
        <time>2026-02-08T13:58:22.967+00:00</time>
      </trkpt>
      <trkpt lat="48.37135" lon="2.71981">
        <ele>100</ele>
        <time>2026-02-08T13:58:27.967+00:00</time>
      </trkpt>
      <trkpt lat="48.3714" lon="2.71979">
        <ele>100</ele>
        <time>2026-02-08T13:58:32.967+00:00</time>
      </trkpt>
      <trkpt lat="48.37144" lon="2.71981">
        <ele>100</ele>
        <time>2026-02-08T13:58:37.773+00:00</time>
      </trkpt>
      <trkpt lat="48.3715" lon="2.71981">
        <ele>100</ele>
        <time>2026-02-08T13:58:42.413+00:00</time>
      </trkpt>
      <trkpt lat="48.37154" lon="2.71981">
        <ele>101</ele>
        <time>2026-02-08T13:58:46.629+00:00</time>
      </trkpt>
      <trkpt lat="48.3716" lon="2.71982">
        <ele>101</ele>
        <time>2026-02-08T13:58:50.835+00:00</time>
      </trkpt>
      <trkpt lat="48.37163" lon="2.71982">
        <ele>101</ele>
        <time>2026-02-08T13:58:54.967+00:00</time>
      </trkpt>
      <trkpt lat="48.3717" lon="2.71981">
        <ele>101</ele>
        <time>2026-02-08T13:58:59.967+00:00</time>
      </trkpt>
      <trkpt lat="48.37175" lon="2.71982">
        <ele>101</ele>
        <time>2026-02-08T13:59:04.095+00:00</time>
      </trkpt>
      <trkpt lat="48.3718" lon="2.71981">
        <ele>101</ele>
        <time>2026-02-08T13:59:08.439+00:00</time>
      </trkpt>
      <trkpt lat="48.37185" lon="2.71982">
        <ele>100</ele>
        <time>2026-02-08T13:59:12.730+00:00</time>
      </trkpt>
      <trkpt lat="48.3719" lon="2.71981">
        <ele>100</ele>
        <time>2026-02-08T13:59:16.967+00:00</time>
      </trkpt>
      <trkpt lat="48.37195" lon="2.7198">
        <ele>100</ele>
        <time>2026-02-08T13:59:21.109+00:00</time>
      </trkpt>
      <trkpt lat="48.37201" lon="2.71981">
        <ele>100</ele>
        <time>2026-02-08T13:59:25.966+00:00</time>
      </trkpt>
      <trkpt lat="48.37205" lon="2.71982">
        <ele>100</ele>
        <time>2026-02-08T13:59:30.351+00:00</time>
      </trkpt>
      <trkpt lat="48.3721" lon="2.71982">
        <ele>98</ele>
        <time>2026-02-08T13:59:34.514+00:00</time>
      </trkpt>
      <trkpt lat="48.37215" lon="2.71982">
        <ele>98</ele>
        <time>2026-02-08T13:59:38.967+00:00</time>
      </trkpt>
      <trkpt lat="48.37219" lon="2.71982">
        <ele>98</ele>
        <time>2026-02-08T13:59:42.954+00:00</time>
      </trkpt>
      <trkpt lat="48.37223" lon="2.71983">
        <ele>98</ele>
        <time>2026-02-08T13:59:47.272+00:00</time>
      </trkpt>
      <trkpt lat="48.37228" lon="2.71984">
        <ele>98</ele>
        <time>2026-02-08T13:59:51.810+00:00</time>
      </trkpt>
      <trkpt lat="48.37233" lon="2.71984">
        <ele>98</ele>
        <time>2026-02-08T13:59:55.966+00:00</time>
      </trkpt>
      <trkpt lat="48.37239" lon="2.71983">
        <ele>99</ele>
        <time>2026-02-08T14:00:00.454+00:00</time>
      </trkpt>
      <trkpt lat="48.37244" lon="2.71982">
        <ele>99</ele>
        <time>2026-02-08T14:00:04.670+00:00</time>
      </trkpt>
      <trkpt lat="48.37249" lon="2.71983">
        <ele>99</ele>
        <time>2026-02-08T14:00:08.909+00:00</time>
      </trkpt>
      <trkpt lat="48.37254" lon="2.71981">
        <ele>99</ele>
        <time>2026-02-08T14:00:13.270+00:00</time>
      </trkpt>
      <trkpt lat="48.37257" lon="2.71977">
        <ele>99</ele>
        <time>2026-02-08T14:00:17.775+00:00</time>
      </trkpt>
      <trkpt lat="48.3726" lon="2.71975">
        <ele>99</ele>
        <time>2026-02-08T14:00:21.836+00:00</time>
      </trkpt>
      <trkpt lat="48.37265" lon="2.71975">
        <ele>99</ele>
        <time>2026-02-08T14:00:26.975+00:00</time>
      </trkpt>
      <trkpt lat="48.3727" lon="2.71976">
        <ele>99</ele>
        <time>2026-02-08T14:00:31.794+00:00</time>
      </trkpt>
      <trkpt lat="48.37275" lon="2.71976">
        <ele>99</ele>
        <time>2026-02-08T14:00:36.813+00:00</time>
      </trkpt>
      <trkpt lat="48.37281" lon="2.71975">
        <ele>99</ele>
        <time>2026-02-08T14:00:40.934+00:00</time>
      </trkpt>
      <trkpt lat="48.37287" lon="2.71975">
        <ele>99</ele>
        <time>2026-02-08T14:00:45.593+00:00</time>
      </trkpt>
      <trkpt lat="48.37292" lon="2.71975">
        <ele>98</ele>
        <time>2026-02-08T14:00:49.909+00:00</time>
      </trkpt>
      <trkpt lat="48.37296" lon="2.71977">
        <ele>98</ele>
        <time>2026-02-08T14:00:53.966+00:00</time>
      </trkpt>
      <trkpt lat="48.37299" lon="2.71979">
        <ele>98</ele>
        <time>2026-02-08T14:00:58.834+00:00</time>
      </trkpt>
      <trkpt lat="48.37303" lon="2.7198">
        <ele>98</ele>
        <time>2026-02-08T14:01:02.966+00:00</time>
      </trkpt>
      <trkpt lat="48.37307" lon="2.71979">
        <ele>98</ele>
        <time>2026-02-08T14:01:07.350+00:00</time>
      </trkpt>
      <trkpt lat="48.37312" lon="2.71979">
        <ele>98</ele>
        <time>2026-02-08T14:01:11.736+00:00</time>
      </trkpt>
      <trkpt lat="48.37316" lon="2.71979">
        <ele>98</ele>
        <time>2026-02-08T14:01:15.893+00:00</time>
      </trkpt>
      <trkpt lat="48.37321" lon="2.71979">
        <ele>97</ele>
        <time>2026-02-08T14:01:19.965+00:00</time>
      </trkpt>
      <trkpt lat="48.37326" lon="2.71979">
        <ele>97</ele>
        <time>2026-02-08T14:01:24.966+00:00</time>
      </trkpt>
      <trkpt lat="48.37332" lon="2.71978">
        <ele>97</ele>
        <time>2026-02-08T14:01:29.774+00:00</time>
      </trkpt>
      <trkpt lat="48.37337" lon="2.71979">
        <ele>97</ele>
        <time>2026-02-08T14:01:33.966+00:00</time>
      </trkpt>
      <trkpt lat="48.37344" lon="2.71978">
        <ele>97</ele>
        <time>2026-02-08T14:01:38.965+00:00</time>
      </trkpt>
      <trkpt lat="48.3735" lon="2.71978">
        <ele>97</ele>
        <time>2026-02-08T14:01:43.914+00:00</time>
      </trkpt>
      <trkpt lat="48.37355" lon="2.71978">
        <ele>97</ele>
        <time>2026-02-08T14:01:47.965+00:00</time>
      </trkpt>
      <trkpt lat="48.37361" lon="2.71975">
        <ele>97</ele>
        <time>2026-02-08T14:01:52.633+00:00</time>
      </trkpt>
      <trkpt lat="48.37366" lon="2.71974">
        <ele>97</ele>
        <time>2026-02-08T14:01:56.965+00:00</time>
      </trkpt>
      <trkpt lat="48.37371" lon="2.71971">
        <ele>97</ele>
        <time>2026-02-08T14:02:01.234+00:00</time>
      </trkpt>
      <trkpt lat="48.37376" lon="2.71969">
        <ele>98</ele>
        <time>2026-02-08T14:02:05.577+00:00</time>
      </trkpt>
      <trkpt lat="48.37381" lon="2.71968">
        <ele>98</ele>
        <time>2026-02-08T14:02:10.355+00:00</time>
      </trkpt>
      <trkpt lat="48.37387" lon="2.71966">
        <ele>98</ele>
        <time>2026-02-08T14:02:14.965+00:00</time>
      </trkpt>
      <trkpt lat="48.37392" lon="2.71965">
        <ele>98</ele>
        <time>2026-02-08T14:02:19.913+00:00</time>
      </trkpt>
      <trkpt lat="48.37397" lon="2.71964">
        <ele>98</ele>
        <time>2026-02-08T14:02:24.213+00:00</time>
      </trkpt>
      <trkpt lat="48.37404" lon="2.71964">
        <ele>97</ele>
        <time>2026-02-08T14:02:28.614+00:00</time>
      </trkpt>
      <trkpt lat="48.3741" lon="2.71964">
        <ele>97</ele>
        <time>2026-02-08T14:02:33.376+00:00</time>
      </trkpt>
      <trkpt lat="48.37416" lon="2.71963">
        <ele>97</ele>
        <time>2026-02-08T14:02:37.497+00:00</time>
      </trkpt>
      <trkpt lat="48.37422" lon="2.71962">
        <ele>97</ele>
        <time>2026-02-08T14:02:41.965+00:00</time>
      </trkpt>
      <trkpt lat="48.37428" lon="2.71961">
        <ele>97</ele>
        <time>2026-02-08T14:02:46.893+00:00</time>
      </trkpt>
      <trkpt lat="48.37433" lon="2.71959">
        <ele>97</ele>
        <time>2026-02-08T14:02:51.814+00:00</time>
      </trkpt>
      <trkpt lat="48.37438" lon="2.71958">
        <ele>97</ele>
        <time>2026-02-08T14:02:55.966+00:00</time>
      </trkpt>
      <trkpt lat="48.37444" lon="2.71957">
        <ele>97</ele>
        <time>2026-02-08T14:03:00.492+00:00</time>
      </trkpt>
      <trkpt lat="48.37449" lon="2.71958">
        <ele>97</ele>
        <time>2026-02-08T14:03:04.966+00:00</time>
      </trkpt>
      <trkpt lat="48.37456" lon="2.71959">
        <ele>97</ele>
        <time>2026-02-08T14:03:09.477+00:00</time>
      </trkpt>
      <trkpt lat="48.37461" lon="2.71959">
        <ele>98</ele>
        <time>2026-02-08T14:03:13.966+00:00</time>
      </trkpt>
      <trkpt lat="48.37467" lon="2.71959">
        <ele>98</ele>
        <time>2026-02-08T14:03:18.966+00:00</time>
      </trkpt>
      <trkpt lat="48.37473" lon="2.71958">
        <ele>99</ele>
        <time>2026-02-08T14:03:23.873+00:00</time>
      </trkpt>
      <trkpt lat="48.37477" lon="2.71955">
        <ele>99</ele>
        <time>2026-02-08T14:03:27.965+00:00</time>
      </trkpt>
      <trkpt lat="48.37482" lon="2.7195">
        <ele>99</ele>
        <time>2026-02-08T14:03:32.635+00:00</time>
      </trkpt>
      <trkpt lat="48.37485" lon="2.71944">
        <ele>99</ele>
        <time>2026-02-08T14:03:36.965+00:00</time>
      </trkpt>
      <trkpt lat="48.3749" lon="2.71939">
        <ele>101</ele>
        <time>2026-02-08T14:03:41.833+00:00</time>
      </trkpt>
      <trkpt lat="48.37494" lon="2.71935">
        <ele>101</ele>
        <time>2026-02-08T14:03:45.966+00:00</time>
      </trkpt>
      <trkpt lat="48.37498" lon="2.71929">
        <ele>101</ele>
        <time>2026-02-08T14:03:50.733+00:00</time>
      </trkpt>
      <trkpt lat="48.37502" lon="2.71923">
        <ele>101</ele>
        <time>2026-02-08T14:03:54.965+00:00</time>
      </trkpt>
      <trkpt lat="48.37506" lon="2.71918">
        <ele>101</ele>
        <time>2026-02-08T14:03:59.379+00:00</time>
      </trkpt>
      <trkpt lat="48.37511" lon="2.71915">
        <ele>101</ele>
        <time>2026-02-08T14:04:03.649+00:00</time>
      </trkpt>
      <trkpt lat="48.37516" lon="2.71913">
        <ele>102</ele>
        <time>2026-02-08T14:04:07.694+00:00</time>
      </trkpt>
      <trkpt lat="48.37521" lon="2.71914">
        <ele>102</ele>
        <time>2026-02-08T14:04:11.966+00:00</time>
      </trkpt>
      <trkpt lat="48.37527" lon="2.71914">
        <ele>102</ele>
        <time>2026-02-08T14:04:16.695+00:00</time>
      </trkpt>
      <trkpt lat="48.37531" lon="2.71913">
        <ele>102</ele>
        <time>2026-02-08T14:04:21.175+00:00</time>
      </trkpt>
      <trkpt lat="48.37536" lon="2.71911">
        <ele>102</ele>
        <time>2026-02-08T14:04:25.757+00:00</time>
      </trkpt>
      <trkpt lat="48.3754" lon="2.71909">
        <ele>102</ele>
        <time>2026-02-08T14:04:29.929+00:00</time>
      </trkpt>
      <trkpt lat="48.37544" lon="2.71908">
        <ele>100</ele>
        <time>2026-02-08T14:04:33.965+00:00</time>
      </trkpt>
      <trkpt lat="48.3755" lon="2.71907">
        <ele>100</ele>
        <time>2026-02-08T14:04:38.966+00:00</time>
      </trkpt>
      <trkpt lat="48.37556" lon="2.71906">
        <ele>100</ele>
        <time>2026-02-08T14:04:43.914+00:00</time>
      </trkpt>
      <trkpt lat="48.37561" lon="2.71906">
        <ele>100</ele>
        <time>2026-02-08T14:04:47.966+00:00</time>
      </trkpt>
      <trkpt lat="48.37567" lon="2.71905">
        <ele>100</ele>
        <time>2026-02-08T14:04:52.856+00:00</time>
      </trkpt>
      <trkpt lat="48.37572" lon="2.71904">
        <ele>98</ele>
        <time>2026-02-08T14:04:56.966+00:00</time>
      </trkpt>
      <trkpt lat="48.37577" lon="2.71902">
        <ele>99</ele>
        <time>2026-02-08T14:05:01.397+00:00</time>
      </trkpt>
      <trkpt lat="48.37582" lon="2.71901">
        <ele>99</ele>
        <time>2026-02-08T14:05:05.681+00:00</time>
      </trkpt>
      <trkpt lat="48.37587" lon="2.719">
        <ele>99</ele>
        <time>2026-02-08T14:05:09.929+00:00</time>
      </trkpt>
      <trkpt lat="48.37592" lon="2.71899">
        <ele>99</ele>
        <time>2026-02-08T14:05:14.229+00:00</time>
      </trkpt>
      <trkpt lat="48.37597" lon="2.71898">
        <ele>99</ele>
        <time>2026-02-08T14:05:18.293+00:00</time>
      </trkpt>
      <trkpt lat="48.37602" lon="2.71896">
        <ele>100</ele>
        <time>2026-02-08T14:05:22.654+00:00</time>
      </trkpt>
      <trkpt lat="48.37606" lon="2.71895">
        <ele>100</ele>
        <time>2026-02-08T14:05:26.966+00:00</time>
      </trkpt>
      <trkpt lat="48.37611" lon="2.71894">
        <ele>100</ele>
        <time>2026-02-08T14:05:30.965+00:00</time>
      </trkpt>
      <trkpt lat="48.37616" lon="2.71893">
        <ele>100</ele>
        <time>2026-02-08T14:05:35.313+00:00</time>
      </trkpt>
      <trkpt lat="48.37621" lon="2.7189">
        <ele>100</ele>
        <time>2026-02-08T14:05:39.733+00:00</time>
      </trkpt>
      <trkpt lat="48.37625" lon="2.71887">
        <ele>102</ele>
        <time>2026-02-08T14:05:43.872+00:00</time>
      </trkpt>
      <trkpt lat="48.37629" lon="2.71886">
        <ele>102</ele>
        <time>2026-02-08T14:05:47.950+00:00</time>
      </trkpt>
      <trkpt lat="48.37633" lon="2.71882">
        <ele>102</ele>
        <time>2026-02-08T14:05:52.397+00:00</time>
      </trkpt>
      <trkpt lat="48.37632" lon="2.71875">
        <ele>102</ele>
        <time>2026-02-08T14:05:56.467+00:00</time>
      </trkpt>
      <trkpt lat="48.3763" lon="2.71867">
        <ele>102</ele>
        <time>2026-02-08T14:06:00.913+00:00</time>
      </trkpt>
      <trkpt lat="48.37628" lon="2.71858">
        <ele>102</ele>
        <time>2026-02-08T14:06:05.714+00:00</time>
      </trkpt>
      <trkpt lat="48.37626" lon="2.7185">
        <ele>102</ele>
        <time>2026-02-08T14:06:10.390+00:00</time>
      </trkpt>
      <trkpt lat="48.37625" lon="2.71842">
        <ele>103</ele>
        <time>2026-02-08T14:06:14.965+00:00</time>
      </trkpt>
      <trkpt lat="48.37623" lon="2.71833">
        <ele>103</ele>
        <time>2026-02-08T14:06:19.966+00:00</time>
      </trkpt>
      <trkpt lat="48.37622" lon="2.71825">
        <ele>103</ele>
        <time>2026-02-08T14:06:24.929+00:00</time>
      </trkpt>
      <trkpt lat="48.37621" lon="2.71817">
        <ele>105</ele>
        <time>2026-02-08T14:06:28.966+00:00</time>
      </trkpt>
      <trkpt lat="48.3762" lon="2.71809">
        <ele>105</ele>
        <time>2026-02-08T14:06:33.498+00:00</time>
      </trkpt>
      <trkpt lat="48.37618" lon="2.71801">
        <ele>105</ele>
        <time>2026-02-08T14:06:37.873+00:00</time>
      </trkpt>
      <trkpt lat="48.37617" lon="2.71794">
        <ele>105</ele>
        <time>2026-02-08T14:06:41.966+00:00</time>
      </trkpt>
      <trkpt lat="48.37615" lon="2.71786">
        <ele>106</ele>
        <time>2026-02-08T14:06:46.397+00:00</time>
      </trkpt>
      <trkpt lat="48.37613" lon="2.71779">
        <ele>106</ele>
        <time>2026-02-08T14:06:50.965+00:00</time>
      </trkpt>
      <trkpt lat="48.37612" lon="2.7177">
        <ele>106</ele>
        <time>2026-02-08T14:06:55.792+00:00</time>
      </trkpt>
      <trkpt lat="48.37612" lon="2.71761">
        <ele>107</ele>
        <time>2026-02-08T14:07:00.355+00:00</time>
      </trkpt>
      <trkpt lat="48.37611" lon="2.71754">
        <ele>107</ele>
        <time>2026-02-08T14:07:04.380+00:00</time>
      </trkpt>
      <trkpt lat="48.3761" lon="2.71745">
        <ele>107</ele>
        <time>2026-02-08T14:07:08.737+00:00</time>
      </trkpt>
      <trkpt lat="48.37609" lon="2.71738">
        <ele>107</ele>
        <time>2026-02-08T14:07:12.966+00:00</time>
      </trkpt>
      <trkpt lat="48.37607" lon="2.7173">
        <ele>105</ele>
        <time>2026-02-08T14:07:17.693+00:00</time>
      </trkpt>
      <trkpt lat="48.37605" lon="2.71722">
        <ele>105</ele>
        <time>2026-02-08T14:07:21.978+00:00</time>
      </trkpt>
      <trkpt lat="48.37604" lon="2.71716">
        <ele>105</ele>
        <time>2026-02-08T14:07:26.072+00:00</time>
      </trkpt>
      <trkpt lat="48.37603" lon="2.71708">
        <ele>105</ele>
        <time>2026-02-08T14:07:30.553+00:00</time>
      </trkpt>
      <trkpt lat="48.37602" lon="2.71702">
        <ele>104</ele>
        <time>2026-02-08T14:07:34.811+00:00</time>
      </trkpt>
      <trkpt lat="48.376" lon="2.71695">
        <ele>104</ele>
        <time>2026-02-08T14:07:38.965+00:00</time>
      </trkpt>
      <trkpt lat="48.37599" lon="2.71687">
        <ele>104</ele>
        <time>2026-02-08T14:07:43.376+00:00</time>
      </trkpt>
      <trkpt lat="48.37598" lon="2.71679">
        <ele>103</ele>
        <time>2026-02-08T14:07:47.966+00:00</time>
      </trkpt>
      <trkpt lat="48.37599" lon="2.71672">
        <ele>103</ele>
        <time>2026-02-08T14:07:52.533+00:00</time>
      </trkpt>
      <trkpt lat="48.37598" lon="2.71664">
        <ele>103</ele>
        <time>2026-02-08T14:07:57.215+00:00</time>
      </trkpt>
      <trkpt lat="48.37596" lon="2.71657">
        <ele>106</ele>
        <time>2026-02-08T14:08:01.456+00:00</time>
      </trkpt>
      <trkpt lat="48.37594" lon="2.7165">
        <ele>104</ele>
        <time>2026-02-08T14:08:05.613+00:00</time>
      </trkpt>
      <trkpt lat="48.37594" lon="2.71643">
        <ele>104</ele>
        <time>2026-02-08T14:08:09.733+00:00</time>
      </trkpt>
      <trkpt lat="48.37593" lon="2.71636">
        <ele>104</ele>
        <time>2026-02-08T14:08:13.965+00:00</time>
      </trkpt>
      <trkpt lat="48.37592" lon="2.71629">
        <ele>104</ele>
        <time>2026-02-08T14:08:18.316+00:00</time>
      </trkpt>
      <trkpt lat="48.37591" lon="2.71621">
        <ele>105</ele>
        <time>2026-02-08T14:08:22.736+00:00</time>
      </trkpt>
      <trkpt lat="48.37591" lon="2.71614">
        <ele>105</ele>
        <time>2026-02-08T14:08:26.858+00:00</time>
      </trkpt>
      <trkpt lat="48.37592" lon="2.71607">
        <ele>105</ele>
        <time>2026-02-08T14:08:30.965+00:00</time>
      </trkpt>
      <trkpt lat="48.37592" lon="2.71599">
        <ele>105</ele>
        <time>2026-02-08T14:08:35.494+00:00</time>
      </trkpt>
      <trkpt lat="48.37593" lon="2.71591">
        <ele>106</ele>
        <time>2026-02-08T14:08:39.954+00:00</time>
      </trkpt>
      <trkpt lat="48.37592" lon="2.71584">
        <ele>106</ele>
        <time>2026-02-08T14:08:43.965+00:00</time>
      </trkpt>
      <trkpt lat="48.37592" lon="2.71576">
        <ele>106</ele>
        <time>2026-02-08T14:08:48.530+00:00</time>
      </trkpt>
      <trkpt lat="48.37592" lon="2.71568">
        <ele>107</ele>
        <time>2026-02-08T14:08:52.813+00:00</time>
      </trkpt>
      <trkpt lat="48.37592" lon="2.71561">
        <ele>107</ele>
        <time>2026-02-08T14:08:57.275+00:00</time>
      </trkpt>
      <trkpt lat="48.37592" lon="2.71554">
        <ele>107</ele>
        <time>2026-02-08T14:09:01.490+00:00</time>
      </trkpt>
      <trkpt lat="48.37593" lon="2.71547">
        <ele>107</ele>
        <time>2026-02-08T14:09:05.952+00:00</time>
      </trkpt>
      <trkpt lat="48.37593" lon="2.7154">
        <ele>107</ele>
        <time>2026-02-08T14:09:10.269+00:00</time>
      </trkpt>
      <trkpt lat="48.37594" lon="2.71533">
        <ele>107</ele>
        <time>2026-02-08T14:09:14.715+00:00</time>
      </trkpt>
      <trkpt lat="48.37594" lon="2.71526">
        <ele>107</ele>
        <time>2026-02-08T14:09:18.853+00:00</time>
      </trkpt>
      <trkpt lat="48.37595" lon="2.71519">
        <ele>107</ele>
        <time>2026-02-08T14:09:22.964+00:00</time>
      </trkpt>
      <trkpt lat="48.37595" lon="2.7151">
        <ele>107</ele>
        <time>2026-02-08T14:09:27.436+00:00</time>
      </trkpt>
      <trkpt lat="48.37593" lon="2.71503">
        <ele>107</ele>
        <time>2026-02-08T14:09:31.694+00:00</time>
      </trkpt>
      <trkpt lat="48.37593" lon="2.71495">
        <ele>107</ele>
        <time>2026-02-08T14:09:35.965+00:00</time>
      </trkpt>
      <trkpt lat="48.37593" lon="2.71488">
        <ele>107</ele>
        <time>2026-02-08T14:09:40.550+00:00</time>
      </trkpt>
      <trkpt lat="48.37592" lon="2.7148">
        <ele>108</ele>
        <time>2026-02-08T14:09:44.594+00:00</time>
      </trkpt>
      <trkpt lat="48.37593" lon="2.71473">
        <ele>108</ele>
        <time>2026-02-08T14:09:48.613+00:00</time>
      </trkpt>
      <trkpt lat="48.37595" lon="2.71465">
        <ele>108</ele>
        <time>2026-02-08T14:09:52.896+00:00</time>
      </trkpt>
      <trkpt lat="48.37596" lon="2.71458">
        <ele>109</ele>
        <time>2026-02-08T14:09:56.965+00:00</time>
      </trkpt>
      <trkpt lat="48.37596" lon="2.7145">
        <ele>109</ele>
        <time>2026-02-08T14:10:01.473+00:00</time>
      </trkpt>
      <trkpt lat="48.37596" lon="2.71442">
        <ele>109</ele>
        <time>2026-02-08T14:10:05.773+00:00</time>
      </trkpt>
      <trkpt lat="48.37597" lon="2.71435">
        <ele>109</ele>
        <time>2026-02-08T14:10:09.965+00:00</time>
      </trkpt>
      <trkpt lat="48.37598" lon="2.71427">
        <ele>107</ele>
        <time>2026-02-08T14:10:14.377+00:00</time>
      </trkpt>
      <trkpt lat="48.37598" lon="2.7142">
        <ele>107</ele>
        <time>2026-02-08T14:10:18.553+00:00</time>
      </trkpt>
      <trkpt lat="48.37598" lon="2.71413">
        <ele>107</ele>
        <time>2026-02-08T14:10:22.965+00:00</time>
      </trkpt>
      <trkpt lat="48.37598" lon="2.71404">
        <ele>107</ele>
        <time>2026-02-08T14:10:27.913+00:00</time>
      </trkpt>
      <trkpt lat="48.37599" lon="2.71398">
        <ele>109</ele>
        <time>2026-02-08T14:10:32.333+00:00</time>
      </trkpt>
      <trkpt lat="48.37599" lon="2.71391">
        <ele>109</ele>
        <time>2026-02-08T14:10:36.650+00:00</time>
      </trkpt>
      <trkpt lat="48.37599" lon="2.71385">
        <ele>109</ele>
        <time>2026-02-08T14:10:40.813+00:00</time>
      </trkpt>
      <trkpt lat="48.37599" lon="2.71377">
        <ele>109</ele>
        <time>2026-02-08T14:10:45.395+00:00</time>
      </trkpt>
      <trkpt lat="48.376" lon="2.7137">
        <ele>110</ele>
        <time>2026-02-08T14:10:49.533+00:00</time>
      </trkpt>
      <trkpt lat="48.376" lon="2.71363">
        <ele>110</ele>
        <time>2026-02-08T14:10:53.964+00:00</time>
      </trkpt>
      <trkpt lat="48.376" lon="2.71355">
        <ele>110</ele>
        <time>2026-02-08T14:10:58.816+00:00</time>
      </trkpt>
      <trkpt lat="48.376" lon="2.71347">
        <ele>110</ele>
        <time>2026-02-08T14:11:03.475+00:00</time>
      </trkpt>
      <trkpt lat="48.37601" lon="2.7134">
        <ele>112</ele>
        <time>2026-02-08T14:11:07.742+00:00</time>
      </trkpt>
      <trkpt lat="48.37602" lon="2.71333">
        <ele>112</ele>
        <time>2026-02-08T14:11:12.621+00:00</time>
      </trkpt>
      <trkpt lat="48.37601" lon="2.71327">
        <ele>112</ele>
        <time>2026-02-08T14:11:17.161+00:00</time>
      </trkpt>
      <trkpt lat="48.37601" lon="2.7132">
        <ele>112</ele>
        <time>2026-02-08T14:11:21.657+00:00</time>
      </trkpt>
      <trkpt lat="48.37601" lon="2.71313">
        <ele>113</ele>
        <time>2026-02-08T14:11:25.964+00:00</time>
      </trkpt>
      <trkpt lat="48.37602" lon="2.71305">
        <ele>113</ele>
        <time>2026-02-08T14:11:30.658+00:00</time>
      </trkpt>
      <trkpt lat="48.37601" lon="2.71299">
        <ele>113</ele>
        <time>2026-02-08T14:11:34.839+00:00</time>
      </trkpt>
      <trkpt lat="48.37602" lon="2.71292">
        <ele>113</ele>
        <time>2026-02-08T14:11:38.876+00:00</time>
      </trkpt>
      <trkpt lat="48.37602" lon="2.71285">
        <ele>114</ele>
        <time>2026-02-08T14:11:42.936+00:00</time>
      </trkpt>
      <trkpt lat="48.37603" lon="2.71279">
        <ele>114</ele>
        <time>2026-02-08T14:11:46.965+00:00</time>
      </trkpt>
      <trkpt lat="48.37603" lon="2.71271">
        <ele>114</ele>
        <time>2026-02-08T14:11:51.758+00:00</time>
      </trkpt>
      <trkpt lat="48.37603" lon="2.71264">
        <ele>114</ele>
        <time>2026-02-08T14:11:56.178+00:00</time>
      </trkpt>
      <trkpt lat="48.37602" lon="2.71258">
        <ele>116</ele>
        <time>2026-02-08T14:12:00.657+00:00</time>
      </trkpt>
      <trkpt lat="48.37602" lon="2.71251">
        <ele>116</ele>
        <time>2026-02-08T14:12:04.898+00:00</time>
      </trkpt>
      <trkpt lat="48.37602" lon="2.71243">
        <ele>116</ele>
        <time>2026-02-08T14:12:09.600+00:00</time>
      </trkpt>
      <trkpt lat="48.37602" lon="2.71237">
        <ele>116</ele>
        <time>2026-02-08T14:12:13.900+00:00</time>
      </trkpt>
      <trkpt lat="48.37601" lon="2.71229">
        <ele>117</ele>
        <time>2026-02-08T14:12:18.964+00:00</time>
      </trkpt>
      <trkpt lat="48.37601" lon="2.71222">
        <ele>117</ele>
        <time>2026-02-08T14:12:23.678+00:00</time>
      </trkpt>
      <trkpt lat="48.37601" lon="2.71215">
        <ele>117</ele>
        <time>2026-02-08T14:12:27.875+00:00</time>
      </trkpt>
      <trkpt lat="48.376" lon="2.71207">
        <ele>118</ele>
        <time>2026-02-08T14:12:32.414+00:00</time>
      </trkpt>
      <trkpt lat="48.37601" lon="2.71201">
        <ele>118</ele>
        <time>2026-02-08T14:12:36.774+00:00</time>
      </trkpt>
      <trkpt lat="48.376" lon="2.71193">
        <ele>118</ele>
        <time>2026-02-08T14:12:41.315+00:00</time>
      </trkpt>
      <trkpt lat="48.37599" lon="2.71187">
        <ele>118</ele>
        <time>2026-02-08T14:12:45.640+00:00</time>
      </trkpt>
      <trkpt lat="48.37599" lon="2.7118">
        <ele>118</ele>
        <time>2026-02-08T14:12:49.964+00:00</time>
      </trkpt>
      <trkpt lat="48.37598" lon="2.71173">
        <ele>118</ele>
        <time>2026-02-08T14:12:54.438+00:00</time>
      </trkpt>
      <trkpt lat="48.37599" lon="2.71166">
        <ele>118</ele>
        <time>2026-02-08T14:12:58.965+00:00</time>
      </trkpt>
      <trkpt lat="48.376" lon="2.71158">
        <ele>118</ele>
        <time>2026-02-08T14:13:03.574+00:00</time>
      </trkpt>
      <trkpt lat="48.37601" lon="2.71151">
        <ele>117</ele>
        <time>2026-02-08T14:13:07.977+00:00</time>
      </trkpt>
      <trkpt lat="48.37601" lon="2.71143">
        <ele>117</ele>
        <time>2026-02-08T14:13:12.964+00:00</time>
      </trkpt>
      <trkpt lat="48.37602" lon="2.71137">
        <ele>117</ele>
        <time>2026-02-08T14:13:17.654+00:00</time>
      </trkpt>
      <trkpt lat="48.37604" lon="2.71129">
        <ele>117</ele>
        <time>2026-02-08T14:13:21.964+00:00</time>
      </trkpt>
      <trkpt lat="48.37604" lon="2.7112">
        <ele>118</ele>
        <time>2026-02-08T14:13:26.680+00:00</time>
      </trkpt>
      <trkpt lat="48.37605" lon="2.71113">
        <ele>118</ele>
        <time>2026-02-08T14:13:30.956+00:00</time>
      </trkpt>
      <trkpt lat="48.37605" lon="2.71106">
        <ele>118</ele>
        <time>2026-02-08T14:13:35.042+00:00</time>
      </trkpt>
      <trkpt lat="48.37606" lon="2.71098">
        <ele>118</ele>
        <time>2026-02-08T14:13:39.615+00:00</time>
      </trkpt>
      <trkpt lat="48.37608" lon="2.71092">
        <ele>119</ele>
        <time>2026-02-08T14:13:43.964+00:00</time>
      </trkpt>
      <trkpt lat="48.3761" lon="2.71084">
        <ele>119</ele>
        <time>2026-02-08T14:13:48.420+00:00</time>
      </trkpt>
      <trkpt lat="48.37611" lon="2.71078">
        <ele>119</ele>
        <time>2026-02-08T14:13:52.965+00:00</time>
      </trkpt>
      <trkpt lat="48.37612" lon="2.7107">
        <ele>119</ele>
        <time>2026-02-08T14:13:57.840+00:00</time>
      </trkpt>
      <trkpt lat="48.37614" lon="2.71064">
        <ele>121</ele>
        <time>2026-02-08T14:14:02.157+00:00</time>
      </trkpt>
      <trkpt lat="48.37615" lon="2.71057">
        <ele>121</ele>
        <time>2026-02-08T14:14:06.964+00:00</time>
      </trkpt>
      <trkpt lat="48.37616" lon="2.7105">
        <ele>121</ele>
        <time>2026-02-08T14:14:11.457+00:00</time>
      </trkpt>
      <trkpt lat="48.37617" lon="2.71043">
        <ele>121</ele>
        <time>2026-02-08T14:14:15.800+00:00</time>
      </trkpt>
      <trkpt lat="48.37617" lon="2.71037">
        <ele>122</ele>
        <time>2026-02-08T14:14:20.639+00:00</time>
      </trkpt>
      <trkpt lat="48.37617" lon="2.71029">
        <ele>122</ele>
        <time>2026-02-08T14:14:24.964+00:00</time>
      </trkpt>
      <trkpt lat="48.37618" lon="2.71022">
        <ele>122</ele>
        <time>2026-02-08T14:14:29.255+00:00</time>
      </trkpt>
      <trkpt lat="48.37619" lon="2.71014">
        <ele>122</ele>
        <time>2026-02-08T14:14:33.838+00:00</time>
      </trkpt>
      <trkpt lat="48.37621" lon="2.71007">
        <ele>123</ele>
        <time>2026-02-08T14:14:38.642+00:00</time>
      </trkpt>
      <trkpt lat="48.37623" lon="2.71">
        <ele>123</ele>
        <time>2026-02-08T14:14:42.965+00:00</time>
      </trkpt>
      <trkpt lat="48.37624" lon="2.70994">
        <ele>123</ele>
        <time>2026-02-08T14:14:47.097+00:00</time>
      </trkpt>
      <trkpt lat="48.37624" lon="2.70986">
        <ele>123</ele>
        <time>2026-02-08T14:14:51.399+00:00</time>
      </trkpt>
      <trkpt lat="48.37625" lon="2.70979">
        <ele>124</ele>
        <time>2026-02-08T14:14:55.578+00:00</time>
      </trkpt>
      <trkpt lat="48.37625" lon="2.70973">
        <ele>124</ele>
        <time>2026-02-08T14:14:59.964+00:00</time>
      </trkpt>
      <trkpt lat="48.37626" lon="2.70965">
        <ele>124</ele>
        <time>2026-02-08T14:15:04.360+00:00</time>
      </trkpt>
      <trkpt lat="48.37626" lon="2.70958">
        <ele>124</ele>
        <time>2026-02-08T14:15:08.640+00:00</time>
      </trkpt>
      <trkpt lat="48.37627" lon="2.70951">
        <ele>126</ele>
        <time>2026-02-08T14:15:12.964+00:00</time>
      </trkpt>
      <trkpt lat="48.37628" lon="2.70944">
        <ele>126</ele>
        <time>2026-02-08T14:15:17.241+00:00</time>
      </trkpt>
      <trkpt lat="48.37628" lon="2.70937">
        <ele>126</ele>
        <time>2026-02-08T14:15:21.965+00:00</time>
      </trkpt>
      <trkpt lat="48.37627" lon="2.7093">
        <ele>127</ele>
        <time>2026-02-08T14:15:26.968+00:00</time>
      </trkpt>
      <trkpt lat="48.37628" lon="2.70922">
        <ele>127</ele>
        <time>2026-02-08T14:15:31.541+00:00</time>
      </trkpt>
      <trkpt lat="48.37627" lon="2.70916">
        <ele>127</ele>
        <time>2026-02-08T14:15:35.901+00:00</time>
      </trkpt>
      <trkpt lat="48.37628" lon="2.70909">
        <ele>127</ele>
        <time>2026-02-08T14:15:40.517+00:00</time>
      </trkpt>
      <trkpt lat="48.37627" lon="2.70902">
        <ele>127</ele>
        <time>2026-02-08T14:15:44.894+00:00</time>
      </trkpt>
      <trkpt lat="48.37627" lon="2.70893">
        <ele>127</ele>
        <time>2026-02-08T14:15:49.399+00:00</time>
      </trkpt>
      <trkpt lat="48.37627" lon="2.70886">
        <ele>127</ele>
        <time>2026-02-08T14:15:53.836+00:00</time>
      </trkpt>
      <trkpt lat="48.37627" lon="2.70879">
        <ele>127</ele>
        <time>2026-02-08T14:15:58.135+00:00</time>
      </trkpt>
      <trkpt lat="48.37626" lon="2.70871">
        <ele>127</ele>
        <time>2026-02-08T14:16:02.734+00:00</time>
      </trkpt>
      <trkpt lat="48.37626" lon="2.70863">
        <ele>127</ele>
        <time>2026-02-08T14:16:07.214+00:00</time>
      </trkpt>
      <trkpt lat="48.37626" lon="2.70854">
        <ele>127</ele>
        <time>2026-02-08T14:16:11.762+00:00</time>
      </trkpt>
      <trkpt lat="48.37627" lon="2.70847">
        <ele>127</ele>
        <time>2026-02-08T14:16:15.965+00:00</time>
      </trkpt>
      <trkpt lat="48.37627" lon="2.7084">
        <ele>127</ele>
        <time>2026-02-08T14:16:20.141+00:00</time>
      </trkpt>
      <trkpt lat="48.37628" lon="2.70833">
        <ele>127</ele>
        <time>2026-02-08T14:16:24.273+00:00</time>
      </trkpt>
      <trkpt lat="48.37626" lon="2.70826">
        <ele>127</ele>
        <time>2026-02-08T14:16:28.601+00:00</time>
      </trkpt>
      <trkpt lat="48.37626" lon="2.70817">
        <ele>127</ele>
        <time>2026-02-08T14:16:33.814+00:00</time>
      </trkpt>
      <trkpt lat="48.37626" lon="2.7081">
        <ele>127</ele>
        <time>2026-02-08T14:16:38.320+00:00</time>
      </trkpt>
      <trkpt lat="48.37627" lon="2.70802">
        <ele>127</ele>
        <time>2026-02-08T14:16:42.441+00:00</time>
      </trkpt>
      <trkpt lat="48.37626" lon="2.70795">
        <ele>127</ele>
        <time>2026-02-08T14:16:46.986+00:00</time>
      </trkpt>
      <trkpt lat="48.37628" lon="2.70788">
        <ele>128</ele>
        <time>2026-02-08T14:16:50.965+00:00</time>
      </trkpt>
      <trkpt lat="48.37628" lon="2.7078">
        <ele>128</ele>
        <time>2026-02-08T14:16:55.759+00:00</time>
      </trkpt>
      <trkpt lat="48.37629" lon="2.70773">
        <ele>128</ele>
        <time>2026-02-08T14:16:59.964+00:00</time>
      </trkpt>
      <trkpt lat="48.37629" lon="2.70764">
        <ele>128</ele>
        <time>2026-02-08T14:17:04.964+00:00</time>
      </trkpt>
      <trkpt lat="48.37629" lon="2.70756">
        <ele>129</ele>
        <time>2026-02-08T14:17:09.376+00:00</time>
      </trkpt>
      <trkpt lat="48.37629" lon="2.70748">
        <ele>129</ele>
        <time>2026-02-08T14:17:13.881+00:00</time>
      </trkpt>
      <trkpt lat="48.37629" lon="2.70741">
        <ele>129</ele>
        <time>2026-02-08T14:17:18.078+00:00</time>
      </trkpt>
      <trkpt lat="48.37628" lon="2.70733">
        <ele>129</ele>
        <time>2026-02-08T14:17:22.481+00:00</time>
      </trkpt>
      <trkpt lat="48.37627" lon="2.70725">
        <ele>129</ele>
        <time>2026-02-08T14:17:26.964+00:00</time>
      </trkpt>
      <trkpt lat="48.37628" lon="2.70719">
        <ele>129</ele>
        <time>2026-02-08T14:17:30.964+00:00</time>
      </trkpt>
      <trkpt lat="48.37629" lon="2.7071">
        <ele>129</ele>
        <time>2026-02-08T14:17:35.963+00:00</time>
      </trkpt>
      <trkpt lat="48.37631" lon="2.70703">
        <ele>131</ele>
        <time>2026-02-08T14:17:40.757+00:00</time>
      </trkpt>
      <trkpt lat="48.37632" lon="2.70695">
        <ele>131</ele>
        <time>2026-02-08T14:17:44.964+00:00</time>
      </trkpt>
      <trkpt lat="48.37632" lon="2.70687">
        <ele>131</ele>
        <time>2026-02-08T14:17:49.642+00:00</time>
      </trkpt>
      <trkpt lat="48.37634" lon="2.7068">
        <ele>132</ele>
        <time>2026-02-08T14:17:53.957+00:00</time>
      </trkpt>
      <trkpt lat="48.37635" lon="2.70673">
        <ele>132</ele>
        <time>2026-02-08T14:17:58.180+00:00</time>
      </trkpt>
      <trkpt lat="48.37636" lon="2.70665">
        <ele>132</ele>
        <time>2026-02-08T14:18:02.964+00:00</time>
      </trkpt>
      <trkpt lat="48.37637" lon="2.70657">
        <ele>132</ele>
        <time>2026-02-08T14:18:07.916+00:00</time>
      </trkpt>
      <trkpt lat="48.37641" lon="2.70651">
        <ele>133</ele>
        <time>2026-02-08T14:18:12.421+00:00</time>
      </trkpt>
      <trkpt lat="48.37644" lon="2.70645">
        <ele>133</ele>
        <time>2026-02-08T14:18:16.963+00:00</time>
      </trkpt>
      <trkpt lat="48.37647" lon="2.70638">
        <ele>133</ele>
        <time>2026-02-08T14:18:21.456+00:00</time>
      </trkpt>
      <trkpt lat="48.3765" lon="2.70632">
        <ele>133</ele>
        <time>2026-02-08T14:18:25.817+00:00</time>
      </trkpt>
      <trkpt lat="48.37652" lon="2.70626">
        <ele>133</ele>
        <time>2026-02-08T14:18:30.440+00:00</time>
      </trkpt>
      <trkpt lat="48.37655" lon="2.70622">
        <ele>134</ele>
        <time>2026-02-08T14:18:34.520+00:00</time>
      </trkpt>
      <trkpt lat="48.3766" lon="2.7062">
        <ele>134</ele>
        <time>2026-02-08T14:18:38.939+00:00</time>
      </trkpt>
      <trkpt lat="48.37664" lon="2.70621">
        <ele>134</ele>
        <time>2026-02-08T14:18:43.640+00:00</time>
      </trkpt>
      <trkpt lat="48.37665" lon="2.70625">
        <ele>134</ele>
        <time>2026-02-08T14:18:47.964+00:00</time>
      </trkpt>
      <trkpt lat="48.37663" lon="2.70628">
        <ele>134</ele>
        <time>2026-02-08T14:18:54.742+00:00</time>
      </trkpt>
      <trkpt lat="48.37662" lon="2.70618">
        <ele>134</ele>
        <time>2026-02-08T14:18:58.964+00:00</time>
      </trkpt>
      <trkpt lat="48.3766" lon="2.70609">
        <ele>134</ele>
        <time>2026-02-08T14:19:03.963+00:00</time>
      </trkpt>
      <trkpt lat="48.37656" lon="2.70601">
        <ele>134</ele>
        <time>2026-02-08T14:19:08.478+00:00</time>
      </trkpt>
      <trkpt lat="48.37651" lon="2.70597">
        <ele>134</ele>
        <time>2026-02-08T14:19:12.677+00:00</time>
      </trkpt>
      <trkpt lat="48.37645" lon="2.70599">
        <ele>134</ele>
        <time>2026-02-08T14:19:16.964+00:00</time>
      </trkpt>
      <trkpt lat="48.3764" lon="2.70604">
        <ele>134</ele>
        <time>2026-02-08T14:19:21.335+00:00</time>
      </trkpt>
      <trkpt lat="48.37637" lon="2.70608">
        <ele>134</ele>
        <time>2026-02-08T14:20:37.964+00:00</time>
      </trkpt>
      <trkpt lat="48.37642" lon="2.70607">
        <ele>134</ele>
        <time>2026-02-08T14:20:41.963+00:00</time>
      </trkpt>
      <trkpt lat="48.37644" lon="2.7061">
        <ele>134</ele>
        <time>2026-02-08T14:20:46.317+00:00</time>
      </trkpt>
      <trkpt lat="48.37649" lon="2.70612">
        <ele>134</ele>
        <time>2026-02-08T14:20:50.963+00:00</time>
      </trkpt>
      <trkpt lat="48.37651" lon="2.70615">
        <ele>134</ele>
        <time>2026-02-08T14:20:55.173+00:00</time>
      </trkpt>
      <trkpt lat="48.3766" lon="2.70621">
        <ele>134</ele>
        <time>2026-02-08T14:21:12.964+00:00</time>
      </trkpt>
      <trkpt lat="48.3766" lon="2.70621">
        <ele>134</ele>
        <time>2026-02-08T14:21:17.963+00:00</time>
      </trkpt>
      <trkpt lat="48.3766" lon="2.70622">
        <ele>134</ele>
        <time>2026-02-08T14:21:26.964+00:00</time>
      </trkpt>
      <trkpt lat="48.37663" lon="2.70624">
        <ele>134</ele>
        <time>2026-02-08T14:21:31.240+00:00</time>
      </trkpt>
      <trkpt lat="48.37663" lon="2.70627">
        <ele>134</ele>
        <time>2026-02-08T14:21:35.857+00:00</time>
      </trkpt>
      <trkpt lat="48.37668" lon="2.70632">
        <ele>134</ele>
        <time>2026-02-08T14:23:53.964+00:00</time>
      </trkpt>
      <trkpt lat="48.37668" lon="2.70633">
        <ele>134</ele>
        <time>2026-02-08T14:23:57.963+00:00</time>
      </trkpt>
      <trkpt lat="48.37672" lon="2.70636">
        <ele>134</ele>
        <time>2026-02-08T14:24:02.300+00:00</time>
      </trkpt>
      <trkpt lat="48.37676" lon="2.70642">
        <ele>134</ele>
        <time>2026-02-08T14:24:06.754+00:00</time>
      </trkpt>
      <trkpt lat="48.3768" lon="2.70649">
        <ele>134</ele>
        <time>2026-02-08T14:24:11.080+00:00</time>
      </trkpt>
      <trkpt lat="48.37682" lon="2.70658">
        <ele>135</ele>
        <time>2026-02-08T14:24:15.354+00:00</time>
      </trkpt>
      <trkpt lat="48.37685" lon="2.70662">
        <ele>135</ele>
        <time>2026-02-08T14:24:19.415+00:00</time>
      </trkpt>
      <trkpt lat="48.37689" lon="2.70661">
        <ele>135</ele>
        <time>2026-02-08T14:24:23.468+00:00</time>
      </trkpt>
      <trkpt lat="48.37692" lon="2.70663">
        <ele>135</ele>
        <time>2026-02-08T14:24:27.649+00:00</time>
      </trkpt>
      <trkpt lat="48.37694" lon="2.70665">
        <ele>135</ele>
        <time>2026-02-08T14:24:31.963+00:00</time>
      </trkpt>
      <trkpt lat="48.37697" lon="2.70669">
        <ele>135</ele>
        <time>2026-02-08T14:24:36.964+00:00</time>
      </trkpt>
      <trkpt lat="48.37701" lon="2.70673">
        <ele>135</ele>
        <time>2026-02-08T14:24:41.710+00:00</time>
      </trkpt>
      <trkpt lat="48.37704" lon="2.70675">
        <ele>135</ele>
        <time>2026-02-08T14:24:45.950+00:00</time>
      </trkpt>
      <trkpt lat="48.37708" lon="2.70678">
        <ele>135</ele>
        <time>2026-02-08T14:24:50.653+00:00</time>
      </trkpt>
      <trkpt lat="48.37712" lon="2.70682">
        <ele>135</ele>
        <time>2026-02-08T14:24:54.964+00:00</time>
      </trkpt>
      <trkpt lat="48.37716" lon="2.70686">
        <ele>135</ele>
        <time>2026-02-08T14:24:59.696+00:00</time>
      </trkpt>
      <trkpt lat="48.3772" lon="2.7069">
        <ele>135</ele>
        <time>2026-02-08T14:25:03.964+00:00</time>
      </trkpt>
      <trkpt lat="48.37724" lon="2.70693">
        <ele>135</ele>
        <time>2026-02-08T14:25:08.418+00:00</time>
      </trkpt>
      <trkpt lat="48.37728" lon="2.70698">
        <ele>135</ele>
        <time>2026-02-08T14:25:12.689+00:00</time>
      </trkpt>
      <trkpt lat="48.37732" lon="2.70702">
        <ele>135</ele>
        <time>2026-02-08T14:25:16.963+00:00</time>
      </trkpt>
      <trkpt lat="48.37736" lon="2.70706">
        <ele>136</ele>
        <time>2026-02-08T14:25:21.153+00:00</time>
      </trkpt>
      <trkpt lat="48.3774" lon="2.70709">
        <ele>137</ele>
        <time>2026-02-08T14:25:25.516+00:00</time>
      </trkpt>
      <trkpt lat="48.37745" lon="2.70713">
        <ele>137</ele>
        <time>2026-02-08T14:25:29.548+00:00</time>
      </trkpt>
      <trkpt lat="48.37749" lon="2.70717">
        <ele>137</ele>
        <time>2026-02-08T14:25:33.963+00:00</time>
      </trkpt>
      <trkpt lat="48.37753" lon="2.70721">
        <ele>137</ele>
        <time>2026-02-08T14:25:38.414+00:00</time>
      </trkpt>
      <trkpt lat="48.37757" lon="2.70727">
        <ele>137</ele>
        <time>2026-02-08T14:25:42.963+00:00</time>
      </trkpt>
      <trkpt lat="48.37761" lon="2.70733">
        <ele>137</ele>
        <time>2026-02-08T14:25:47.954+00:00</time>
      </trkpt>
      <trkpt lat="48.37766" lon="2.70737">
        <ele>138</ele>
        <time>2026-02-08T14:25:52.192+00:00</time>
      </trkpt>
      <trkpt lat="48.3777" lon="2.70741">
        <ele>138</ele>
        <time>2026-02-08T14:25:56.554+00:00</time>
      </trkpt>
      <trkpt lat="48.37774" lon="2.70745">
        <ele>138</ele>
        <time>2026-02-08T14:26:00.673+00:00</time>
      </trkpt>
      <trkpt lat="48.37777" lon="2.70749">
        <ele>138</ele>
        <time>2026-02-08T14:26:04.734+00:00</time>
      </trkpt>
      <trkpt lat="48.37782" lon="2.70754">
        <ele>138</ele>
        <time>2026-02-08T14:26:09.776+00:00</time>
      </trkpt>
      <trkpt lat="48.37787" lon="2.70759">
        <ele>138</ele>
        <time>2026-02-08T14:26:14.860+00:00</time>
      </trkpt>
      <trkpt lat="48.37791" lon="2.70763">
        <ele>138</ele>
        <time>2026-02-08T14:26:19.094+00:00</time>
      </trkpt>
      <trkpt lat="48.37795" lon="2.70768">
        <ele>138</ele>
        <time>2026-02-08T14:26:23.795+00:00</time>
      </trkpt>
      <trkpt lat="48.37799" lon="2.70773">
        <ele>138</ele>
        <time>2026-02-08T14:26:28.897+00:00</time>
      </trkpt>
      <trkpt lat="48.37804" lon="2.70779">
        <ele>138</ele>
        <time>2026-02-08T14:26:33.957+00:00</time>
      </trkpt>
      <trkpt lat="48.37808" lon="2.70783">
        <ele>138</ele>
        <time>2026-02-08T14:26:38.962+00:00</time>
      </trkpt>
      <trkpt lat="48.37813" lon="2.70788">
        <ele>138</ele>
        <time>2026-02-08T14:26:43.962+00:00</time>
      </trkpt>
      <trkpt lat="48.37817" lon="2.70791">
        <ele>138</ele>
        <time>2026-02-08T14:26:48.674+00:00</time>
      </trkpt>
      <trkpt lat="48.37822" lon="2.70794">
        <ele>137</ele>
        <time>2026-02-08T14:26:52.963+00:00</time>
      </trkpt>
      <trkpt lat="48.37827" lon="2.70797">
        <ele>137</ele>
        <time>2026-02-08T14:26:57.422+00:00</time>
      </trkpt>
      <trkpt lat="48.37831" lon="2.708">
        <ele>137</ele>
        <time>2026-02-08T14:27:01.962+00:00</time>
      </trkpt>
      <trkpt lat="48.37833" lon="2.70807">
        <ele>137</ele>
        <time>2026-02-08T14:27:06.723+00:00</time>
      </trkpt>
      <trkpt lat="48.37838" lon="2.70813">
        <ele>137</ele>
        <time>2026-02-08T14:27:10.858+00:00</time>
      </trkpt>
      <trkpt lat="48.37844" lon="2.70817">
        <ele>137</ele>
        <time>2026-02-08T14:27:14.962+00:00</time>
      </trkpt>
      <trkpt lat="48.37849" lon="2.70821">
        <ele>136</ele>
        <time>2026-02-08T14:27:19.297+00:00</time>
      </trkpt>
      <trkpt lat="48.37853" lon="2.70824">
        <ele>136</ele>
        <time>2026-02-08T14:27:23.598+00:00</time>
      </trkpt>
      <trkpt lat="48.37857" lon="2.70828">
        <ele>136</ele>
        <time>2026-02-08T14:27:27.963+00:00</time>
      </trkpt>
      <trkpt lat="48.37862" lon="2.70832">
        <ele>136</ele>
        <time>2026-02-08T14:27:32.963+00:00</time>
      </trkpt>
      <trkpt lat="48.37867" lon="2.70837">
        <ele>136</ele>
        <time>2026-02-08T14:27:37.940+00:00</time>
      </trkpt>
      <trkpt lat="48.37872" lon="2.7084">
        <ele>136</ele>
        <time>2026-02-08T14:27:42.837+00:00</time>
      </trkpt>
      <trkpt lat="48.37876" lon="2.70844">
        <ele>137</ele>
        <time>2026-02-08T14:27:46.963+00:00</time>
      </trkpt>
      <trkpt lat="48.3788" lon="2.70849">
        <ele>136</ele>
        <time>2026-02-08T14:27:51.678+00:00</time>
      </trkpt>
      <trkpt lat="48.37884" lon="2.70853">
        <ele>136</ele>
        <time>2026-02-08T14:27:55.962+00:00</time>
      </trkpt>
      <trkpt lat="48.37888" lon="2.70857">
        <ele>136</ele>
        <time>2026-02-08T14:27:59.963+00:00</time>
      </trkpt>
      <trkpt lat="48.37891" lon="2.70863">
        <ele>136</ele>
        <time>2026-02-08T14:28:04.577+00:00</time>
      </trkpt>
      <trkpt lat="48.37895" lon="2.70866">
        <ele>136</ele>
        <time>2026-02-08T14:28:08.699+00:00</time>
      </trkpt>
      <trkpt lat="48.379" lon="2.7087">
        <ele>136</ele>
        <time>2026-02-08T14:28:12.963+00:00</time>
      </trkpt>
      <trkpt lat="48.37904" lon="2.70874">
        <ele>136</ele>
        <time>2026-02-08T14:28:17.701+00:00</time>
      </trkpt>
      <trkpt lat="48.37908" lon="2.70878">
        <ele>136</ele>
        <time>2026-02-08T14:28:21.958+00:00</time>
      </trkpt>
      <trkpt lat="48.37913" lon="2.70882">
        <ele>136</ele>
        <time>2026-02-08T14:28:26.414+00:00</time>
      </trkpt>
      <trkpt lat="48.37916" lon="2.70886">
        <ele>136</ele>
        <time>2026-02-08T14:28:30.439+00:00</time>
      </trkpt>
      <trkpt lat="48.3792" lon="2.7089">
        <ele>136</ele>
        <time>2026-02-08T14:28:34.593+00:00</time>
      </trkpt>
      <trkpt lat="48.37925" lon="2.70895">
        <ele>136</ele>
        <time>2026-02-08T14:28:38.962+00:00</time>
      </trkpt>
      <trkpt lat="48.3793" lon="2.709">
        <ele>136</ele>
        <time>2026-02-08T14:28:43.981+00:00</time>
      </trkpt>
      <trkpt lat="48.37934" lon="2.70904">
        <ele>137</ele>
        <time>2026-02-08T14:28:48.699+00:00</time>
      </trkpt>
      <trkpt lat="48.37938" lon="2.70908">
        <ele>137</ele>
        <time>2026-02-08T14:28:52.962+00:00</time>
      </trkpt>
      <trkpt lat="48.37943" lon="2.70913">
        <ele>137</ele>
        <time>2026-02-08T14:28:57.962+00:00</time>
      </trkpt>
      <trkpt lat="48.37948" lon="2.70918">
        <ele>137</ele>
        <time>2026-02-08T14:29:02.734+00:00</time>
      </trkpt>
      <trkpt lat="48.37952" lon="2.70922">
        <ele>137</ele>
        <time>2026-02-08T14:29:06.962+00:00</time>
      </trkpt>
      <trkpt lat="48.37957" lon="2.70928">
        <ele>137</ele>
        <time>2026-02-08T14:29:11.963+00:00</time>
      </trkpt>
      <trkpt lat="48.37962" lon="2.70933">
        <ele>137</ele>
        <time>2026-02-08T14:29:16.513+00:00</time>
      </trkpt>
      <trkpt lat="48.37965" lon="2.70939">
        <ele>137</ele>
        <time>2026-02-08T14:29:20.660+00:00</time>
      </trkpt>
      <trkpt lat="48.3797" lon="2.70943">
        <ele>137</ele>
        <time>2026-02-08T14:29:24.963+00:00</time>
      </trkpt>
      <trkpt lat="48.37975" lon="2.70948">
        <ele>137</ele>
        <time>2026-02-08T14:29:29.980+00:00</time>
      </trkpt>
      <trkpt lat="48.3798" lon="2.70952">
        <ele>137</ele>
        <time>2026-02-08T14:29:34.900+00:00</time>
      </trkpt>
      <trkpt lat="48.37984" lon="2.70957">
        <ele>137</ele>
        <time>2026-02-08T14:29:39.874+00:00</time>
      </trkpt>
      <trkpt lat="48.37988" lon="2.70961">
        <ele>136</ele>
        <time>2026-02-08T14:29:43.962+00:00</time>
      </trkpt>
      <trkpt lat="48.37993" lon="2.70966">
        <ele>136</ele>
        <time>2026-02-08T14:29:48.697+00:00</time>
      </trkpt>
      <trkpt lat="48.37997" lon="2.70971">
        <ele>136</ele>
        <time>2026-02-08T14:29:52.963+00:00</time>
      </trkpt>
      <trkpt lat="48.38001" lon="2.70974">
        <ele>136</ele>
        <time>2026-02-08T14:29:57.281+00:00</time>
      </trkpt>
      <trkpt lat="48.38006" lon="2.70979">
        <ele>136</ele>
        <time>2026-02-08T14:30:01.599+00:00</time>
      </trkpt>
      <trkpt lat="48.3801" lon="2.70985">
        <ele>136</ele>
        <time>2026-02-08T14:30:06.406+00:00</time>
      </trkpt>
      <trkpt lat="48.38015" lon="2.7099">
        <ele>135</ele>
        <time>2026-02-08T14:30:10.962+00:00</time>
      </trkpt>
      <trkpt lat="48.3802" lon="2.70996">
        <ele>135</ele>
        <time>2026-02-08T14:30:15.962+00:00</time>
      </trkpt>
      <trkpt lat="48.38025" lon="2.71001">
        <ele>135</ele>
        <time>2026-02-08T14:30:20.934+00:00</time>
      </trkpt>
      <trkpt lat="48.3803" lon="2.71008">
        <ele>135</ele>
        <time>2026-02-08T14:30:25.814+00:00</time>
      </trkpt>
      <trkpt lat="48.38034" lon="2.71013">
        <ele>135</ele>
        <time>2026-02-08T14:30:30.574+00:00</time>
      </trkpt>
      <trkpt lat="48.38038" lon="2.71018">
        <ele>135</ele>
        <time>2026-02-08T14:30:34.962+00:00</time>
      </trkpt>
      <trkpt lat="48.38043" lon="2.71023">
        <ele>134</ele>
        <time>2026-02-08T14:30:39.963+00:00</time>
      </trkpt>
      <trkpt lat="48.38047" lon="2.71028">
        <ele>134</ele>
        <time>2026-02-08T14:30:44.217+00:00</time>
      </trkpt>
      <trkpt lat="48.38051" lon="2.71032">
        <ele>134</ele>
        <time>2026-02-08T14:30:48.517+00:00</time>
      </trkpt>
      <trkpt lat="48.38054" lon="2.71037">
        <ele>134</ele>
        <time>2026-02-08T14:30:52.595+00:00</time>
      </trkpt>
      <trkpt lat="48.38057" lon="2.71043">
        <ele>135</ele>
        <time>2026-02-08T14:30:56.963+00:00</time>
      </trkpt>
      <trkpt lat="48.38062" lon="2.71048">
        <ele>135</ele>
        <time>2026-02-08T14:31:01.879+00:00</time>
      </trkpt>
      <trkpt lat="48.38066" lon="2.71051">
        <ele>135</ele>
        <time>2026-02-08T14:31:05.957+00:00</time>
      </trkpt>
      <trkpt lat="48.3807" lon="2.71055">
        <ele>134</ele>
        <time>2026-02-08T14:31:10.360+00:00</time>
      </trkpt>
      <trkpt lat="48.38074" lon="2.7106">
        <ele>134</ele>
        <time>2026-02-08T14:31:14.499+00:00</time>
      </trkpt>
      <trkpt lat="48.38078" lon="2.71066">
        <ele>134</ele>
        <time>2026-02-08T14:31:18.980+00:00</time>
      </trkpt>
      <trkpt lat="48.38083" lon="2.71068">
        <ele>134</ele>
        <time>2026-02-08T14:31:23.013+00:00</time>
      </trkpt>
      <trkpt lat="48.38087" lon="2.71073">
        <ele>135</ele>
        <time>2026-02-08T14:31:27.357+00:00</time>
      </trkpt>
      <trkpt lat="48.38091" lon="2.71079">
        <ele>135</ele>
        <time>2026-02-08T14:31:31.962+00:00</time>
      </trkpt>
      <trkpt lat="48.38096" lon="2.71083">
        <ele>135</ele>
        <time>2026-02-08T14:31:36.962+00:00</time>
      </trkpt>
      <trkpt lat="48.38101" lon="2.71089">
        <ele>134</ele>
        <time>2026-02-08T14:31:41.963+00:00</time>
      </trkpt>
      <trkpt lat="48.38105" lon="2.71095">
        <ele>134</ele>
        <time>2026-02-08T14:31:46.963+00:00</time>
      </trkpt>
      <trkpt lat="48.38109" lon="2.71101">
        <ele>133</ele>
        <time>2026-02-08T14:31:51.913+00:00</time>
      </trkpt>
      <trkpt lat="48.38113" lon="2.71107">
        <ele>133</ele>
        <time>2026-02-08T14:31:56.819+00:00</time>
      </trkpt>
      <trkpt lat="48.38117" lon="2.71112">
        <ele>133</ele>
        <time>2026-02-08T14:32:00.940+00:00</time>
      </trkpt>
      <trkpt lat="48.38121" lon="2.71117">
        <ele>133</ele>
        <time>2026-02-08T14:32:04.963+00:00</time>
      </trkpt>
      <trkpt lat="48.38125" lon="2.71123">
        <ele>130</ele>
        <time>2026-02-08T14:32:09.963+00:00</time>
      </trkpt>
      <trkpt lat="48.38129" lon="2.7113">
        <ele>129</ele>
        <time>2026-02-08T14:32:14.858+00:00</time>
      </trkpt>
      <trkpt lat="48.38133" lon="2.71135">
        <ele>129</ele>
        <time>2026-02-08T14:32:18.901+00:00</time>
      </trkpt>
      <trkpt lat="48.38136" lon="2.71141">
        <ele>129</ele>
        <time>2026-02-08T14:32:23.695+00:00</time>
      </trkpt>
      <trkpt lat="48.38139" lon="2.71145">
        <ele>129</ele>
        <time>2026-02-08T14:32:27.962+00:00</time>
      </trkpt>
      <trkpt lat="48.38143" lon="2.7115">
        <ele>129</ele>
        <time>2026-02-08T14:32:32.877+00:00</time>
      </trkpt>
      <trkpt lat="48.38145" lon="2.71155">
        <ele>127</ele>
        <time>2026-02-08T14:32:36.963+00:00</time>
      </trkpt>
      <trkpt lat="48.38146" lon="2.71162">
        <ele>127</ele>
        <time>2026-02-08T14:32:41.554+00:00</time>
      </trkpt>
      <trkpt lat="48.38148" lon="2.71167">
        <ele>127</ele>
        <time>2026-02-08T14:32:45.963+00:00</time>
      </trkpt>
      <trkpt lat="48.38151" lon="2.71172">
        <ele>127</ele>
        <time>2026-02-08T14:32:50.256+00:00</time>
      </trkpt>
      <trkpt lat="48.38152" lon="2.71176">
        <ele>127</ele>
        <time>2026-02-08T14:32:54.814+00:00</time>
      </trkpt>
      <trkpt lat="48.38154" lon="2.71181">
        <ele>120</ele>
        <time>2026-02-08T14:32:59.258+00:00</time>
      </trkpt>
      <trkpt lat="48.38156" lon="2.71187">
        <ele>120</ele>
        <time>2026-02-08T14:33:03.677+00:00</time>
      </trkpt>
      <trkpt lat="48.38158" lon="2.71194">
        <ele>120</ele>
        <time>2026-02-08T14:33:08.097+00:00</time>
      </trkpt>
      <trkpt lat="48.3816" lon="2.71199">
        <ele>120</ele>
        <time>2026-02-08T14:33:12.637+00:00</time>
      </trkpt>
      <trkpt lat="48.38161" lon="2.71204">
        <ele>120</ele>
        <time>2026-02-08T14:33:16.682+00:00</time>
      </trkpt>
      <trkpt lat="48.38163" lon="2.7121">
        <ele>118</ele>
        <time>2026-02-08T14:33:20.962+00:00</time>
      </trkpt>
      <trkpt lat="48.38166" lon="2.71217">
        <ele>118</ele>
        <time>2026-02-08T14:33:25.580+00:00</time>
      </trkpt>
      <trkpt lat="48.38168" lon="2.71224">
        <ele>118</ele>
        <time>2026-02-08T14:33:29.718+00:00</time>
      </trkpt>
      <trkpt lat="48.38171" lon="2.71229">
        <ele>118</ele>
        <time>2026-02-08T14:33:33.963+00:00</time>
      </trkpt>
      <trkpt lat="48.38173" lon="2.71232">
        <ele>118</ele>
        <time>2026-02-08T14:33:38.275+00:00</time>
      </trkpt>
      <trkpt lat="48.38175" lon="2.71237">
        <ele>117</ele>
        <time>2026-02-08T14:33:42.814+00:00</time>
      </trkpt>
      <trkpt lat="48.38179" lon="2.71242">
        <ele>117</ele>
        <time>2026-02-08T14:33:47.814+00:00</time>
      </trkpt>
      <trkpt lat="48.38181" lon="2.71248">
        <ele>115</ele>
        <time>2026-02-08T14:33:51.894+00:00</time>
      </trkpt>
      <trkpt lat="48.38183" lon="2.71252">
        <ele>115</ele>
        <time>2026-02-08T14:33:55.980+00:00</time>
      </trkpt>
      <trkpt lat="48.38185" lon="2.71258">
        <ele>115</ele>
        <time>2026-02-08T14:34:00.639+00:00</time>
      </trkpt>
      <trkpt lat="48.38187" lon="2.71264">
        <ele>115</ele>
        <time>2026-02-08T14:34:04.777+00:00</time>
      </trkpt>
      <trkpt lat="48.3819" lon="2.71269">
        <ele>115</ele>
        <time>2026-02-08T14:34:08.962+00:00</time>
      </trkpt>
      <trkpt lat="48.38193" lon="2.71273">
        <ele>115</ele>
        <time>2026-02-08T14:34:13.539+00:00</time>
      </trkpt>
      <trkpt lat="48.38194" lon="2.71279">
        <ele>115</ele>
        <time>2026-02-08T14:34:17.961+00:00</time>
      </trkpt>
      <trkpt lat="48.38196" lon="2.71285">
        <ele>115</ele>
        <time>2026-02-08T14:34:22.635+00:00</time>
      </trkpt>
      <trkpt lat="48.38199" lon="2.7129">
        <ele>115</ele>
        <time>2026-02-08T14:34:26.962+00:00</time>
      </trkpt>
      <trkpt lat="48.382" lon="2.71298">
        <ele>115</ele>
        <time>2026-02-08T14:34:31.594+00:00</time>
      </trkpt>
      <trkpt lat="48.38201" lon="2.71304">
        <ele>115</ele>
        <time>2026-02-08T14:34:35.742+00:00</time>
      </trkpt>
      <trkpt lat="48.38203" lon="2.7131">
        <ele>115</ele>
        <time>2026-02-08T14:34:39.938+00:00</time>
      </trkpt>
      <trkpt lat="48.38205" lon="2.71316">
        <ele>115</ele>
        <time>2026-02-08T14:34:43.962+00:00</time>
      </trkpt>
      <trkpt lat="48.38208" lon="2.71323">
        <ele>114</ele>
        <time>2026-02-08T14:34:48.820+00:00</time>
      </trkpt>
      <trkpt lat="48.38209" lon="2.7133">
        <ele>116</ele>
        <time>2026-02-08T14:34:53.556+00:00</time>
      </trkpt>
      <trkpt lat="48.38211" lon="2.71335">
        <ele>116</ele>
        <time>2026-02-08T14:34:57.914+00:00</time>
      </trkpt>
      <trkpt lat="48.38214" lon="2.71342">
        <ele>116</ele>
        <time>2026-02-08T14:35:02.961+00:00</time>
      </trkpt>
      <trkpt lat="48.38216" lon="2.71347">
        <ele>116</ele>
        <time>2026-02-08T14:35:06.961+00:00</time>
      </trkpt>
      <trkpt lat="48.38218" lon="2.71352">
        <ele>115</ele>
        <time>2026-02-08T14:35:11.677+00:00</time>
      </trkpt>
      <trkpt lat="48.3822" lon="2.71356">
        <ele>115</ele>
        <time>2026-02-08T14:35:16.336+00:00</time>
      </trkpt>
      <trkpt lat="48.38223" lon="2.71361">
        <ele>115</ele>
        <time>2026-02-08T14:35:20.961+00:00</time>
      </trkpt>
      <trkpt lat="48.38227" lon="2.71365">
        <ele>115</ele>
        <time>2026-02-08T14:35:25.841+00:00</time>
      </trkpt>
      <trkpt lat="48.3823" lon="2.71368">
        <ele>115</ele>
        <time>2026-02-08T14:35:30.217+00:00</time>
      </trkpt>
      <trkpt lat="48.38233" lon="2.71372">
        <ele>115</ele>
        <time>2026-02-08T14:35:34.962+00:00</time>
      </trkpt>
      <trkpt lat="48.38239" lon="2.71379">
        <ele>117</ele>
        <time>2026-02-08T14:35:47.961+00:00</time>
      </trkpt>
      <trkpt lat="48.38241" lon="2.7138">
        <ele>117</ele>
        <time>2026-02-08T14:35:52.961+00:00</time>
      </trkpt>
      <trkpt lat="48.38241" lon="2.71381">
        <ele>117</ele>
        <time>2026-02-08T14:35:57.961+00:00</time>
      </trkpt>
      <trkpt lat="48.38243" lon="2.7138">
        <ele>117</ele>
        <time>2026-02-08T14:36:02.961+00:00</time>
      </trkpt>
      <trkpt lat="48.38244" lon="2.71381">
        <ele>117</ele>
        <time>2026-02-08T14:36:07.961+00:00</time>
      </trkpt>
      <trkpt lat="48.38245" lon="2.71381">
        <ele>117</ele>
        <time>2026-02-08T14:36:12.520+00:00</time>
      </trkpt>
      <trkpt lat="48.38246" lon="2.71381">
        <ele>117</ele>
        <time>2026-02-08T14:36:16.962+00:00</time>
      </trkpt>
      <trkpt lat="48.38252" lon="2.71377">
        <ele>117</ele>
        <time>2026-02-08T14:36:21.961+00:00</time>
      </trkpt>
      <trkpt lat="48.38257" lon="2.71371">
        <ele>117</ele>
        <time>2026-02-08T14:36:26.961+00:00</time>
      </trkpt>
      <trkpt lat="48.38259" lon="2.71364">
        <ele>117</ele>
        <time>2026-02-08T14:36:31.615+00:00</time>
      </trkpt>
      <trkpt lat="48.38259" lon="2.7136">
        <ele>117</ele>
        <time>2026-02-08T14:36:35.962+00:00</time>
      </trkpt>
      <trkpt lat="48.38259" lon="2.71355">
        <ele>117</ele>
        <time>2026-02-08T14:36:40.658+00:00</time>
      </trkpt>
      <trkpt lat="48.3826" lon="2.71352">
        <ele>117</ele>
        <time>2026-02-08T14:36:44.814+00:00</time>
      </trkpt>
      <trkpt lat="48.3826" lon="2.71349">
        <ele>117</ele>
        <time>2026-02-08T14:36:48.961+00:00</time>
      </trkpt>
      <trkpt lat="48.38261" lon="2.71345">
        <ele>118</ele>
        <time>2026-02-08T14:36:53.962+00:00</time>
      </trkpt>
      <trkpt lat="48.38261" lon="2.71341">
        <ele>118</ele>
        <time>2026-02-08T14:36:58.980+00:00</time>
      </trkpt>
      <trkpt lat="48.3826" lon="2.71337">
        <ele>118</ele>
        <time>2026-02-08T14:37:03.534+00:00</time>
      </trkpt>
      <trkpt lat="48.38259" lon="2.71334">
        <ele>118</ele>
        <time>2026-02-08T14:37:07.696+00:00</time>
      </trkpt>
      <trkpt lat="48.38255" lon="2.71328">
        <ele>118</ele>
        <time>2026-02-08T14:37:11.961+00:00</time>
      </trkpt>
      <trkpt lat="48.38253" lon="2.71324">
        <ele>118</ele>
        <time>2026-02-08T14:37:15.961+00:00</time>
      </trkpt>
      <trkpt lat="48.38251" lon="2.71319">
        <ele>120</ele>
        <time>2026-02-08T14:37:20.180+00:00</time>
      </trkpt>
      <trkpt lat="48.38252" lon="2.7131">
        <ele>120</ele>
        <time>2026-02-08T14:37:24.753+00:00</time>
      </trkpt>
      <trkpt lat="48.38254" lon="2.71302">
        <ele>120</ele>
        <time>2026-02-08T14:37:29.334+00:00</time>
      </trkpt>
      <trkpt lat="48.38255" lon="2.71296">
        <ele>120</ele>
        <time>2026-02-08T14:37:33.353+00:00</time>
      </trkpt>
      <trkpt lat="48.38257" lon="2.71289">
        <ele>121</ele>
        <time>2026-02-08T14:37:37.962+00:00</time>
      </trkpt>
      <trkpt lat="48.3826" lon="2.71285">
        <ele>121</ele>
        <time>2026-02-08T14:37:42.962+00:00</time>
      </trkpt>
      <trkpt lat="48.38263" lon="2.71283">
        <ele>121</ele>
        <time>2026-02-08T14:37:46.962+00:00</time>
      </trkpt>
      <trkpt lat="48.38265" lon="2.71281">
        <ele>124</ele>
        <time>2026-02-08T14:37:52.840+00:00</time>
      </trkpt>
      <trkpt lat="48.38265" lon="2.71278">
        <ele>124</ele>
        <time>2026-02-08T14:37:57.534+00:00</time>
      </trkpt>
      <trkpt lat="48.38266" lon="2.71274">
        <ele>124</ele>
        <time>2026-02-08T14:38:01.961+00:00</time>
      </trkpt>
      <trkpt lat="48.38266" lon="2.71269">
        <ele>124</ele>
        <time>2026-02-08T14:38:06.474+00:00</time>
      </trkpt>
      <trkpt lat="48.38267" lon="2.71264">
        <ele>124</ele>
        <time>2026-02-08T14:38:10.961+00:00</time>
      </trkpt>
      <trkpt lat="48.38269" lon="2.71258">
        <ele>127</ele>
        <time>2026-02-08T14:38:19.961+00:00</time>
      </trkpt>
      <trkpt lat="48.38271" lon="2.71256">
        <ele>127</ele>
        <time>2026-02-08T14:38:24.494+00:00</time>
      </trkpt>
      <trkpt lat="48.38273" lon="2.71254">
        <ele>127</ele>
        <time>2026-02-08T14:38:28.962+00:00</time>
      </trkpt>
      <trkpt lat="48.38274" lon="2.71253">
        <ele>127</ele>
        <time>2026-02-08T14:38:33.962+00:00</time>
      </trkpt>
      <trkpt lat="48.38275" lon="2.7125">
        <ele>127</ele>
        <time>2026-02-08T14:38:38.961+00:00</time>
      </trkpt>
      <trkpt lat="48.38278" lon="2.71243">
        <ele>127</ele>
        <time>2026-02-08T14:38:53.454+00:00</time>
      </trkpt>
      <trkpt lat="48.3828" lon="2.7124">
        <ele>127</ele>
        <time>2026-02-08T14:38:57.961+00:00</time>
      </trkpt>
      <trkpt lat="48.3828" lon="2.71239">
        <ele>127</ele>
        <time>2026-02-08T14:39:01.961+00:00</time>
      </trkpt>
      <trkpt lat="48.38282" lon="2.71238">
        <ele>127</ele>
        <time>2026-02-08T14:39:06.115+00:00</time>
      </trkpt>
      <trkpt lat="48.38285" lon="2.71236">
        <ele>127</ele>
        <time>2026-02-08T14:39:10.533+00:00</time>
      </trkpt>
      <trkpt lat="48.38287" lon="2.7123">
        <ele>128</ele>
        <time>2026-02-08T14:41:24.234+00:00</time>
      </trkpt>
      <trkpt lat="48.38287" lon="2.71225">
        <ele>128</ele>
        <time>2026-02-08T14:41:28.666+00:00</time>
      </trkpt>
      <trkpt lat="48.38288" lon="2.71224">
        <ele>128</ele>
        <time>2026-02-08T14:41:32.961+00:00</time>
      </trkpt>
      <trkpt lat="48.38288" lon="2.71223">
        <ele>128</ele>
        <time>2026-02-08T14:41:37.903+00:00</time>
      </trkpt>
      <trkpt lat="48.3829" lon="2.71222">
        <ele>128</ele>
        <time>2026-02-08T14:41:41.962+00:00</time>
      </trkpt>
      <trkpt lat="48.38305" lon="2.71224">
        <ele>129</ele>
        <time>2026-02-08T14:48:01.627+00:00</time>
      </trkpt>
      <trkpt lat="48.38304" lon="2.7123">
        <ele>129</ele>
        <time>2026-02-08T14:48:06.135+00:00</time>
      </trkpt>
      <trkpt lat="48.38307" lon="2.71232">
        <ele>129</ele>
        <time>2026-02-08T14:48:10.961+00:00</time>
      </trkpt>
      <trkpt lat="48.3831" lon="2.71233">
        <ele>129</ele>
        <time>2026-02-08T14:48:15.494+00:00</time>
      </trkpt>
      <trkpt lat="48.38314" lon="2.71231">
        <ele>129</ele>
        <time>2026-02-08T14:48:19.614+00:00</time>
      </trkpt>
      <trkpt lat="48.38317" lon="2.71229">
        <ele>129</ele>
        <time>2026-02-08T14:48:23.983+00:00</time>
      </trkpt>
      <trkpt lat="48.38318" lon="2.71227">
        <ele>129</ele>
        <time>2026-02-08T14:48:28.961+00:00</time>
      </trkpt>
      <trkpt lat="48.3832" lon="2.71227">
        <ele>124</ele>
        <time>2026-02-08T14:48:33.239+00:00</time>
      </trkpt>
      <trkpt lat="48.38323" lon="2.71227">
        <ele>124</ele>
        <time>2026-02-08T14:48:37.961+00:00</time>
      </trkpt>
      <trkpt lat="48.38326" lon="2.71227">
        <ele>124</ele>
        <time>2026-02-08T14:48:43.946+00:00</time>
      </trkpt>
      <trkpt lat="48.38328" lon="2.71228">
        <ele>124</ele>
        <time>2026-02-08T14:48:47.960+00:00</time>
      </trkpt>
      <trkpt lat="48.38329" lon="2.71231">
        <ele>124</ele>
        <time>2026-02-08T14:48:51.960+00:00</time>
      </trkpt>
      <trkpt lat="48.38329" lon="2.71234">
        <ele>124</ele>
        <time>2026-02-08T14:48:56.961+00:00</time>
      </trkpt>
      <trkpt lat="48.38331" lon="2.71241">
        <ele>121</ele>
        <time>2026-02-08T14:49:01.088+00:00</time>
      </trkpt>
      <trkpt lat="48.38333" lon="2.71246">
        <ele>121</ele>
        <time>2026-02-08T14:49:05.806+00:00</time>
      </trkpt>
      <trkpt lat="48.38334" lon="2.71251">
        <ele>121</ele>
        <time>2026-02-08T14:49:09.954+00:00</time>
      </trkpt>
      <trkpt lat="48.38336" lon="2.71256">
        <ele>121</ele>
        <time>2026-02-08T14:49:14.390+00:00</time>
      </trkpt>
      <trkpt lat="48.38338" lon="2.7126">
        <ele>121</ele>
        <time>2026-02-08T14:49:18.415+00:00</time>
      </trkpt>
      <trkpt lat="48.38341" lon="2.71262">
        <ele>121</ele>
        <time>2026-02-08T14:49:22.633+00:00</time>
      </trkpt>
      <trkpt lat="48.38343" lon="2.71268">
        <ele>117</ele>
        <time>2026-02-08T14:49:27.827+00:00</time>
      </trkpt>
      <trkpt lat="48.38343" lon="2.71268">
        <ele>117</ele>
        <time>2026-02-08T14:49:31.961+00:00</time>
      </trkpt>
      <trkpt lat="48.38347" lon="2.71271">
        <ele>117</ele>
        <time>2026-02-08T14:49:36.589+00:00</time>
      </trkpt>
      <trkpt lat="48.38349" lon="2.71274">
        <ele>112</ele>
        <time>2026-02-08T14:49:41.173+00:00</time>
      </trkpt>
      <trkpt lat="48.38352" lon="2.71278">
        <ele>112</ele>
        <time>2026-02-08T14:49:45.566+00:00</time>
      </trkpt>
      <trkpt lat="48.38354" lon="2.71282">
        <ele>112</ele>
        <time>2026-02-08T14:49:49.789+00:00</time>
      </trkpt>
      <trkpt lat="48.38354" lon="2.71286">
        <ele>112</ele>
        <time>2026-02-08T14:49:53.893+00:00</time>
      </trkpt>
      <trkpt lat="48.38352" lon="2.71287">
        <ele>112</ele>
        <time>2026-02-08T14:49:57.973+00:00</time>
      </trkpt>
      <trkpt lat="48.38351" lon="2.71292">
        <ele>110</ele>
        <time>2026-02-08T14:50:01.961+00:00</time>
      </trkpt>
      <trkpt lat="48.38352" lon="2.71293">
        <ele>110</ele>
        <time>2026-02-08T14:50:06.573+00:00</time>
      </trkpt>
      <trkpt lat="48.38353" lon="2.71292">
        <ele>112</ele>
        <time>2026-02-08T14:50:10.960+00:00</time>
      </trkpt>
      <trkpt lat="48.38354" lon="2.7129">
        <ele>112</ele>
        <time>2026-02-08T14:50:15.961+00:00</time>
      </trkpt>
      <trkpt lat="48.38357" lon="2.71287">
        <ele>112</ele>
        <time>2026-02-08T14:50:20.694+00:00</time>
      </trkpt>
      <trkpt lat="48.3836" lon="2.71285">
        <ele>112</ele>
        <time>2026-02-08T14:50:24.960+00:00</time>
      </trkpt>
      <trkpt lat="48.38362" lon="2.7129">
        <ele>112</ele>
        <time>2026-02-08T14:50:29.549+00:00</time>
      </trkpt>
      <trkpt lat="48.38361" lon="2.71294">
        <ele>110</ele>
        <time>2026-02-08T14:50:33.687+00:00</time>
      </trkpt>
      <trkpt lat="48.38361" lon="2.713">
        <ele>110</ele>
        <time>2026-02-08T14:50:37.705+00:00</time>
      </trkpt>
      <trkpt lat="48.3836" lon="2.71301">
        <ele>110</ele>
        <time>2026-02-08T14:50:41.959+00:00</time>
      </trkpt>
      <trkpt lat="48.38358" lon="2.71305">
        <ele>110</ele>
        <time>2026-02-08T14:50:46.472+00:00</time>
      </trkpt>
      <trkpt lat="48.38355" lon="2.7131">
        <ele>110</ele>
        <time>2026-02-08T14:50:50.666+00:00</time>
      </trkpt>
      <trkpt lat="48.38352" lon="2.71314">
        <ele>110</ele>
        <time>2026-02-08T14:50:54.959+00:00</time>
      </trkpt>
      <trkpt lat="48.38347" lon="2.71316">
        <ele>115</ele>
        <time>2026-02-08T14:50:59.846+00:00</time>
      </trkpt>
      <trkpt lat="48.38343" lon="2.71318">
        <ele>115</ele>
        <time>2026-02-08T14:51:04.906+00:00</time>
      </trkpt>
      <trkpt lat="48.38339" lon="2.71319">
        <ele>115</ele>
        <time>2026-02-08T14:51:08.933+00:00</time>
      </trkpt>
      <trkpt lat="48.38334" lon="2.71319">
        <ele>115</ele>
        <time>2026-02-08T14:51:12.960+00:00</time>
      </trkpt>
      <trkpt lat="48.38329" lon="2.7132">
        <ele>111</ele>
        <time>2026-02-08T14:51:17.960+00:00</time>
      </trkpt>
      <trkpt lat="48.38328" lon="2.71318">
        <ele>115</ele>
        <time>2026-02-08T14:51:22.960+00:00</time>
      </trkpt>
      <trkpt lat="48.38328" lon="2.71318">
        <ele>115</ele>
        <time>2026-02-08T14:51:27.704+00:00</time>
      </trkpt>
      <trkpt lat="48.38325" lon="2.71323">
        <ele>111</ele>
        <time>2026-02-08T14:51:32.046+00:00</time>
      </trkpt>
      <trkpt lat="48.38321" lon="2.71328">
        <ele>111</ele>
        <time>2026-02-08T14:51:36.713+00:00</time>
      </trkpt>
      <trkpt lat="48.38316" lon="2.71331">
        <ele>115</ele>
        <time>2026-02-08T14:51:40.809+00:00</time>
      </trkpt>
      <trkpt lat="48.38313" lon="2.71333">
        <ele>115</ele>
        <time>2026-02-08T14:51:50.246+00:00</time>
      </trkpt>
      <trkpt lat="48.38313" lon="2.71335">
        <ele>115</ele>
        <time>2026-02-08T14:51:54.794+00:00</time>
      </trkpt>
      <trkpt lat="48.38316" lon="2.7134">
        <ele>115</ele>
        <time>2026-02-08T14:51:59.349+00:00</time>
      </trkpt>
      <trkpt lat="48.38321" lon="2.7134">
        <ele>111</ele>
        <time>2026-02-08T14:52:03.906+00:00</time>
      </trkpt>
      <trkpt lat="48.38325" lon="2.71342">
        <ele>111</ele>
        <time>2026-02-08T14:52:07.960+00:00</time>
      </trkpt>
      <trkpt lat="48.38329" lon="2.71348">
        <ele>108</ele>
        <time>2026-02-08T14:52:16.959+00:00</time>
      </trkpt>
      <trkpt lat="48.3833" lon="2.71348">
        <ele>108</ele>
        <time>2026-02-08T14:52:21.960+00:00</time>
      </trkpt>
      <trkpt lat="48.38331" lon="2.7135">
        <ele>108</ele>
        <time>2026-02-08T14:52:26.153+00:00</time>
      </trkpt>
      <trkpt lat="48.38333" lon="2.71355">
        <ele>108</ele>
        <time>2026-02-08T14:52:30.410+00:00</time>
      </trkpt>
      <trkpt lat="48.38333" lon="2.71362">
        <ele>108</ele>
        <time>2026-02-08T14:52:34.960+00:00</time>
      </trkpt>
      <trkpt lat="48.38336" lon="2.71358">
        <ele>108</ele>
        <time>2026-02-08T14:54:07.960+00:00</time>
      </trkpt>
      <trkpt lat="48.38338" lon="2.71359">
        <ele>108</ele>
        <time>2026-02-08T14:54:12.959+00:00</time>
      </trkpt>
      <trkpt lat="48.38338" lon="2.7136">
        <ele>108</ele>
        <time>2026-02-08T14:54:17.959+00:00</time>
      </trkpt>
      <trkpt lat="48.38339" lon="2.7136">
        <ele>108</ele>
        <time>2026-02-08T14:54:22.960+00:00</time>
      </trkpt>
      <trkpt lat="48.38339" lon="2.7136">
        <ele>108</ele>
        <time>2026-02-08T14:54:26.959+00:00</time>
      </trkpt>
      <trkpt lat="48.38341" lon="2.71364">
        <ele>108</ele>
        <time>2026-02-08T14:54:31.959+00:00</time>
      </trkpt>
      <trkpt lat="48.38341" lon="2.71368">
        <ele>108</ele>
        <time>2026-02-08T14:54:36.959+00:00</time>
      </trkpt>
      <trkpt lat="48.38343" lon="2.7137">
        <ele>108</ele>
        <time>2026-02-08T14:54:41.959+00:00</time>
      </trkpt>
      <trkpt lat="48.38347" lon="2.71372">
        <ele>106</ele>
        <time>2026-02-08T14:54:46.960+00:00</time>
      </trkpt>
      <trkpt lat="48.38351" lon="2.71373">
        <ele>106</ele>
        <time>2026-02-08T14:54:50.959+00:00</time>
      </trkpt>
      <trkpt lat="48.38355" lon="2.71377">
        <ele>106</ele>
        <time>2026-02-08T14:54:55.539+00:00</time>
      </trkpt>
      <trkpt lat="48.38359" lon="2.7138">
        <ele>106</ele>
        <time>2026-02-08T14:54:59.960+00:00</time>
      </trkpt>
      <trkpt lat="48.38363" lon="2.71384">
        <ele>106</ele>
        <time>2026-02-08T14:55:04.960+00:00</time>
      </trkpt>
      <trkpt lat="48.38367" lon="2.71386">
        <ele>106</ele>
        <time>2026-02-08T14:55:09.960+00:00</time>
      </trkpt>
      <trkpt lat="48.3837" lon="2.71389">
        <ele>106</ele>
        <time>2026-02-08T14:55:14.614+00:00</time>
      </trkpt>
      <trkpt lat="48.38374" lon="2.71392">
        <ele>106</ele>
        <time>2026-02-08T14:55:18.957+00:00</time>
      </trkpt>
      <trkpt lat="48.38378" lon="2.71395">
        <ele>103</ele>
        <time>2026-02-08T14:55:22.959+00:00</time>
      </trkpt>
      <trkpt lat="48.38381" lon="2.714">
        <ele>103</ele>
        <time>2026-02-08T14:55:27.541+00:00</time>
      </trkpt>
      <trkpt lat="48.38386" lon="2.71401">
        <ele>103</ele>
        <time>2026-02-08T14:55:31.779+00:00</time>
      </trkpt>
      <trkpt lat="48.38392" lon="2.71403">
        <ele>102</ele>
        <time>2026-02-08T14:55:35.815+00:00</time>
      </trkpt>
      <trkpt lat="48.38397" lon="2.71405">
        <ele>102</ele>
        <time>2026-02-08T14:55:39.960+00:00</time>
      </trkpt>
      <trkpt lat="48.38402" lon="2.71406">
        <ele>102</ele>
        <time>2026-02-08T14:55:44.278+00:00</time>
      </trkpt>
      <trkpt lat="48.38414" lon="2.71407">
        <ele>98</ele>
        <time>2026-02-08T14:56:02.960+00:00</time>
      </trkpt>
      <trkpt lat="48.38417" lon="2.71407">
        <ele>98</ele>
        <time>2026-02-08T14:56:07.959+00:00</time>
      </trkpt>
      <trkpt lat="48.38423" lon="2.71405">
        <ele>98</ele>
        <time>2026-02-08T14:56:12.578+00:00</time>
      </trkpt>
      <trkpt lat="48.38429" lon="2.71405">
        <ele>98</ele>
        <time>2026-02-08T14:56:16.960+00:00</time>
      </trkpt>
      <trkpt lat="48.38434" lon="2.71405">
        <ele>98</ele>
        <time>2026-02-08T14:56:21.460+00:00</time>
      </trkpt>
      <trkpt lat="48.38437" lon="2.71408">
        <ele>98</ele>
        <time>2026-02-08T14:56:25.760+00:00</time>
      </trkpt>
      <trkpt lat="48.38439" lon="2.71405">
        <ele>98</ele>
        <time>2026-02-08T14:56:29.959+00:00</time>
      </trkpt>
      <trkpt lat="48.38447" lon="2.71404">
        <ele>98</ele>
        <time>2026-02-08T14:56:34.957+00:00</time>
      </trkpt>
      <trkpt lat="48.38454" lon="2.71407">
        <ele>98</ele>
        <time>2026-02-08T14:56:39.959+00:00</time>
      </trkpt>
      <trkpt lat="48.38459" lon="2.71407">
        <ele>96</ele>
        <time>2026-02-08T14:56:43.960+00:00</time>
      </trkpt>
      <trkpt lat="48.38461" lon="2.71407">
        <ele>96</ele>
        <time>2026-02-08T14:56:48.959+00:00</time>
      </trkpt>
      <trkpt lat="48.38467" lon="2.71412">
        <ele>96</ele>
        <time>2026-02-08T14:56:52.960+00:00</time>
      </trkpt>
      <trkpt lat="48.38474" lon="2.71413">
        <ele>96</ele>
        <time>2026-02-08T14:56:57.960+00:00</time>
      </trkpt>
      <trkpt lat="48.3848" lon="2.71414">
        <ele>96</ele>
        <time>2026-02-08T14:57:02.538+00:00</time>
      </trkpt>
      <trkpt lat="48.38486" lon="2.71413">
        <ele>96</ele>
        <time>2026-02-08T14:57:06.959+00:00</time>
      </trkpt>
      <trkpt lat="48.38492" lon="2.71411">
        <ele>96</ele>
        <time>2026-02-08T14:57:11.080+00:00</time>
      </trkpt>
      <trkpt lat="48.38497" lon="2.71409">
        <ele>96</ele>
        <time>2026-02-08T14:57:15.738+00:00</time>
      </trkpt>
      <trkpt lat="48.38501" lon="2.71409">
        <ele>96</ele>
        <time>2026-02-08T14:57:19.960+00:00</time>
      </trkpt>
      <trkpt lat="48.38507" lon="2.71409">
        <ele>96</ele>
        <time>2026-02-08T14:57:24.581+00:00</time>
      </trkpt>
      <trkpt lat="48.38513" lon="2.71408">
        <ele>96</ele>
        <time>2026-02-08T14:57:28.594+00:00</time>
      </trkpt>
      <trkpt lat="48.38519" lon="2.71408">
        <ele>98</ele>
        <time>2026-02-08T14:57:32.960+00:00</time>
      </trkpt>
      <trkpt lat="48.38525" lon="2.71409">
        <ele>98</ele>
        <time>2026-02-08T14:57:37.959+00:00</time>
      </trkpt>
      <trkpt lat="48.38532" lon="2.71409">
        <ele>98</ele>
        <time>2026-02-08T14:57:42.654+00:00</time>
      </trkpt>
      <trkpt lat="48.38537" lon="2.71409">
        <ele>98</ele>
        <time>2026-02-08T14:57:46.801+00:00</time>
      </trkpt>
      <trkpt lat="48.38542" lon="2.71408">
        <ele>100</ele>
        <time>2026-02-08T14:57:50.913+00:00</time>
      </trkpt>
      <trkpt lat="48.38547" lon="2.71408">
        <ele>100</ele>
        <time>2026-02-08T14:57:54.957+00:00</time>
      </trkpt>
      <trkpt lat="48.38552" lon="2.71409">
        <ele>100</ele>
        <time>2026-02-08T14:57:59.239+00:00</time>
      </trkpt>
      <trkpt lat="48.38556" lon="2.71407">
        <ele>100</ele>
        <time>2026-02-08T14:58:03.361+00:00</time>
      </trkpt>
      <trkpt lat="48.3856" lon="2.71407">
        <ele>100</ele>
        <time>2026-02-08T14:58:07.439+00:00</time>
      </trkpt>
      <trkpt lat="48.38565" lon="2.71407">
        <ele>100</ele>
        <time>2026-02-08T14:58:11.713+00:00</time>
      </trkpt>
      <trkpt lat="48.38569" lon="2.71406">
        <ele>100</ele>
        <time>2026-02-08T14:58:15.959+00:00</time>
      </trkpt>
      <trkpt lat="48.38576" lon="2.71406">
        <ele>101</ele>
        <time>2026-02-08T14:58:20.450+00:00</time>
      </trkpt>
      <trkpt lat="48.38581" lon="2.71405">
        <ele>101</ele>
        <time>2026-02-08T14:58:24.992+00:00</time>
      </trkpt>
      <trkpt lat="48.38586" lon="2.71404">
        <ele>101</ele>
        <time>2026-02-08T14:58:29.356+00:00</time>
      </trkpt>
      <trkpt lat="48.38591" lon="2.71404">
        <ele>101</ele>
        <time>2026-02-08T14:58:33.598+00:00</time>
      </trkpt>
      <trkpt lat="48.38596" lon="2.71403">
        <ele>101</ele>
        <time>2026-02-08T14:58:37.938+00:00</time>
      </trkpt>
      <trkpt lat="48.38601" lon="2.71403">
        <ele>103</ele>
        <time>2026-02-08T14:58:41.983+00:00</time>
      </trkpt>
      <trkpt lat="48.38606" lon="2.71402">
        <ele>105</ele>
        <time>2026-02-08T14:58:45.959+00:00</time>
      </trkpt>
      <trkpt lat="48.38611" lon="2.71402">
        <ele>105</ele>
        <time>2026-02-08T14:58:50.293+00:00</time>
      </trkpt>
      <trkpt lat="48.38616" lon="2.71401">
        <ele>105</ele>
        <time>2026-02-08T14:58:54.737+00:00</time>
      </trkpt>
      <trkpt lat="48.38622" lon="2.71401">
        <ele>105</ele>
        <time>2026-02-08T14:58:58.902+00:00</time>
      </trkpt>
      <trkpt lat="48.38627" lon="2.71401">
        <ele>106</ele>
        <time>2026-02-08T14:59:03.337+00:00</time>
      </trkpt>
      <trkpt lat="48.38632" lon="2.71399">
        <ele>106</ele>
        <time>2026-02-08T14:59:07.799+00:00</time>
      </trkpt>
      <trkpt lat="48.38637" lon="2.71399">
        <ele>106</ele>
        <time>2026-02-08T14:59:12.159+00:00</time>
      </trkpt>
      <trkpt lat="48.38643" lon="2.71399">
        <ele>106</ele>
        <time>2026-02-08T14:59:16.433+00:00</time>
      </trkpt>
      <trkpt lat="48.38649" lon="2.714">
        <ele>106</ele>
        <time>2026-02-08T14:59:20.959+00:00</time>
      </trkpt>
      <trkpt lat="48.38654" lon="2.71399">
        <ele>106</ele>
        <time>2026-02-08T14:59:25.135+00:00</time>
      </trkpt>
      <trkpt lat="48.38659" lon="2.71399">
        <ele>106</ele>
        <time>2026-02-08T14:59:29.435+00:00</time>
      </trkpt>
      <trkpt lat="48.38663" lon="2.714">
        <ele>106</ele>
        <time>2026-02-08T14:59:33.959+00:00</time>
      </trkpt>
      <trkpt lat="48.38667" lon="2.71399">
        <ele>106</ele>
        <time>2026-02-08T14:59:38.121+00:00</time>
      </trkpt>
      <trkpt lat="48.38672" lon="2.71399">
        <ele>106</ele>
        <time>2026-02-08T14:59:42.455+00:00</time>
      </trkpt>
      <trkpt lat="48.38677" lon="2.71398">
        <ele>106</ele>
        <time>2026-02-08T14:59:46.594+00:00</time>
      </trkpt>
      <trkpt lat="48.38681" lon="2.71396">
        <ele>107</ele>
        <time>2026-02-08T14:59:50.775+00:00</time>
      </trkpt>
      <trkpt lat="48.38687" lon="2.71396">
        <ele>107</ele>
        <time>2026-02-08T14:59:55.409+00:00</time>
      </trkpt>
      <trkpt lat="48.38694" lon="2.71397">
        <ele>107</ele>
        <time>2026-02-08T14:59:59.963+00:00</time>
      </trkpt>
      <trkpt lat="48.38699" lon="2.71396">
        <ele>107</ele>
        <time>2026-02-08T15:00:04.194+00:00</time>
      </trkpt>
      <trkpt lat="48.38705" lon="2.71395">
        <ele>107</ele>
        <time>2026-02-08T15:00:08.878+00:00</time>
      </trkpt>
      <trkpt lat="48.3871" lon="2.71394">
        <ele>107</ele>
        <time>2026-02-08T15:00:12.960+00:00</time>
      </trkpt>
      <trkpt lat="48.38717" lon="2.71394">
        <ele>107</ele>
        <time>2026-02-08T15:00:17.939+00:00</time>
      </trkpt>
      <trkpt lat="48.38721" lon="2.71393">
        <ele>107</ele>
        <time>2026-02-08T15:00:21.958+00:00</time>
      </trkpt>
      <trkpt lat="48.38726" lon="2.71392">
        <ele>107</ele>
        <time>2026-02-08T15:00:25.958+00:00</time>
      </trkpt>
      <trkpt lat="48.38732" lon="2.71392">
        <ele>107</ele>
        <time>2026-02-08T15:00:30.874+00:00</time>
      </trkpt>
      <trkpt lat="48.38738" lon="2.71393">
        <ele>105</ele>
        <time>2026-02-08T15:00:35.838+00:00</time>
      </trkpt>
      <trkpt lat="48.38743" lon="2.71391">
        <ele>105</ele>
        <time>2026-02-08T15:00:39.959+00:00</time>
      </trkpt>
      <trkpt lat="48.38749" lon="2.7139">
        <ele>105</ele>
        <time>2026-02-08T15:00:44.617+00:00</time>
      </trkpt>
      <trkpt lat="48.38753" lon="2.71391">
        <ele>105</ele>
        <time>2026-02-08T15:00:48.958+00:00</time>
      </trkpt>
      <trkpt lat="48.38758" lon="2.71392">
        <ele>105</ele>
        <time>2026-02-08T15:00:53.958+00:00</time>
      </trkpt>
      <trkpt lat="48.38764" lon="2.71393">
        <ele>102</ele>
        <time>2026-02-08T15:00:58.958+00:00</time>
      </trkpt>
      <trkpt lat="48.3877" lon="2.71391">
        <ele>102</ele>
        <time>2026-02-08T15:01:03.959+00:00</time>
      </trkpt>
      <trkpt lat="48.38774" lon="2.71389">
        <ele>102</ele>
        <time>2026-02-08T15:01:08.294+00:00</time>
      </trkpt>
      <trkpt lat="48.38779" lon="2.7139">
        <ele>102</ele>
        <time>2026-02-08T15:01:12.840+00:00</time>
      </trkpt>
      <trkpt lat="48.38784" lon="2.7139">
        <ele>102</ele>
        <time>2026-02-08T15:01:17.857+00:00</time>
      </trkpt>
      <trkpt lat="48.3879" lon="2.71389">
        <ele>102</ele>
        <time>2026-02-08T15:01:22.856+00:00</time>
      </trkpt>
      <trkpt lat="48.38795" lon="2.71388">
        <ele>102</ele>
        <time>2026-02-08T15:01:27.937+00:00</time>
      </trkpt>
      <trkpt lat="48.38799" lon="2.7139">
        <ele>102</ele>
        <time>2026-02-08T15:01:32.156+00:00</time>
      </trkpt>
      <trkpt lat="48.38803" lon="2.7139">
        <ele>102</ele>
        <time>2026-02-08T15:01:36.857+00:00</time>
      </trkpt>
      <trkpt lat="48.38806" lon="2.71391">
        <ele>102</ele>
        <time>2026-02-08T15:01:41.627+00:00</time>
      </trkpt>
      <trkpt lat="48.38813" lon="2.71391">
        <ele>102</ele>
        <time>2026-02-08T15:01:46.796+00:00</time>
      </trkpt>
      <trkpt lat="48.38818" lon="2.71389">
        <ele>102</ele>
        <time>2026-02-08T15:01:51.660+00:00</time>
      </trkpt>
      <trkpt lat="48.38825" lon="2.71389">
        <ele>102</ele>
        <time>2026-02-08T15:01:56.054+00:00</time>
      </trkpt>
      <trkpt lat="48.3883" lon="2.71391">
        <ele>102</ele>
        <time>2026-02-08T15:02:00.780+00:00</time>
      </trkpt>
      <trkpt lat="48.38836" lon="2.71393">
        <ele>102</ele>
        <time>2026-02-08T15:02:05.959+00:00</time>
      </trkpt>
      <trkpt lat="48.3884" lon="2.71389">
        <ele>102</ele>
        <time>2026-02-08T15:02:10.958+00:00</time>
      </trkpt>
      <trkpt lat="48.38845" lon="2.71388">
        <ele>102</ele>
        <time>2026-02-08T15:02:15.318+00:00</time>
      </trkpt>
      <trkpt lat="48.38849" lon="2.71388">
        <ele>101</ele>
        <time>2026-02-08T15:02:19.541+00:00</time>
      </trkpt>
      <trkpt lat="48.38851" lon="2.71388">
        <ele>101</ele>
        <time>2026-02-08T15:02:23.636+00:00</time>
      </trkpt>
      <trkpt lat="48.38855" lon="2.71387">
        <ele>101</ele>
        <time>2026-02-08T15:02:28.473+00:00</time>
      </trkpt>
      <trkpt lat="48.38858" lon="2.71387">
        <ele>101</ele>
        <time>2026-02-08T15:02:32.959+00:00</time>
      </trkpt>
      <trkpt lat="48.3886" lon="2.71387">
        <ele>101</ele>
        <time>2026-02-08T15:02:37.878+00:00</time>
      </trkpt>
      <trkpt lat="48.38859" lon="2.71387">
        <ele>101</ele>
        <time>2026-02-08T15:02:42.918+00:00</time>
      </trkpt>
      <trkpt lat="48.38864" lon="2.71389">
        <ele>101</ele>
        <time>2026-02-08T15:02:47.098+00:00</time>
      </trkpt>
      <trkpt lat="48.38868" lon="2.7139">
        <ele>101</ele>
        <time>2026-02-08T15:02:51.219+00:00</time>
      </trkpt>
      <trkpt lat="48.38872" lon="2.71385">
        <ele>101</ele>
        <time>2026-02-08T15:02:55.959+00:00</time>
      </trkpt>
      <trkpt lat="48.38872" lon="2.71383">
        <ele>101</ele>
        <time>2026-02-08T15:03:25.958+00:00</time>
      </trkpt>
      <trkpt lat="48.38875" lon="2.71383">
        <ele>101</ele>
        <time>2026-02-08T15:03:30.959+00:00</time>
      </trkpt>
      <trkpt lat="48.38881" lon="2.71387">
        <ele>100</ele>
        <time>2026-02-08T15:03:35.575+00:00</time>
      </trkpt>
      <trkpt lat="48.38884" lon="2.71391">
        <ele>100</ele>
        <time>2026-02-08T15:03:39.594+00:00</time>
      </trkpt>
      <trkpt lat="48.38889" lon="2.71388">
        <ele>100</ele>
        <time>2026-02-08T15:03:43.958+00:00</time>
      </trkpt>
      <trkpt lat="48.38894" lon="2.71387">
        <ele>100</ele>
        <time>2026-02-08T15:03:47.959+00:00</time>
      </trkpt>
      <trkpt lat="48.38898" lon="2.71382">
        <ele>100</ele>
        <time>2026-02-08T15:03:52.433+00:00</time>
      </trkpt>
      <trkpt lat="48.38903" lon="2.71381">
        <ele>99</ele>
        <time>2026-02-08T15:03:56.461+00:00</time>
      </trkpt>
      <trkpt lat="48.38909" lon="2.71379">
        <ele>99</ele>
        <time>2026-02-08T15:04:00.761+00:00</time>
      </trkpt>
      <trkpt lat="48.38913" lon="2.71378">
        <ele>99</ele>
        <time>2026-02-08T15:04:04.959+00:00</time>
      </trkpt>
      <trkpt lat="48.38917" lon="2.71379">
        <ele>99</ele>
        <time>2026-02-08T15:04:09.438+00:00</time>
      </trkpt>
      <trkpt lat="48.38921" lon="2.71379">
        <ele>99</ele>
        <time>2026-02-08T15:04:13.738+00:00</time>
      </trkpt>
      <trkpt lat="48.38925" lon="2.71379">
        <ele>99</ele>
        <time>2026-02-08T15:04:18.353+00:00</time>
      </trkpt>
      <trkpt lat="48.3893" lon="2.71379">
        <ele>99</ele>
        <time>2026-02-08T15:04:22.440+00:00</time>
      </trkpt>
      <trkpt lat="48.38935" lon="2.71379">
        <ele>99</ele>
        <time>2026-02-08T15:04:26.919+00:00</time>
      </trkpt>
      <trkpt lat="48.38941" lon="2.71378">
        <ele>99</ele>
        <time>2026-02-08T15:04:31.713+00:00</time>
      </trkpt>
      <trkpt lat="48.38946" lon="2.71378">
        <ele>99</ele>
        <time>2026-02-08T15:04:35.958+00:00</time>
      </trkpt>
      <trkpt lat="48.3895" lon="2.71378">
        <ele>99</ele>
        <time>2026-02-08T15:04:40.340+00:00</time>
      </trkpt>
      <trkpt lat="48.38956" lon="2.71377">
        <ele>99</ele>
        <time>2026-02-08T15:04:44.493+00:00</time>
      </trkpt>
      <trkpt lat="48.3896" lon="2.71375">
        <ele>98</ele>
        <time>2026-02-08T15:04:48.879+00:00</time>
      </trkpt>
      <trkpt lat="48.38964" lon="2.71374">
        <ele>98</ele>
        <time>2026-02-08T15:04:53.179+00:00</time>
      </trkpt>
      <trkpt lat="48.38969" lon="2.71374">
        <ele>98</ele>
        <time>2026-02-08T15:04:57.881+00:00</time>
      </trkpt>
      <trkpt lat="48.38973" lon="2.71373">
        <ele>98</ele>
        <time>2026-02-08T15:05:02.062+00:00</time>
      </trkpt>
      <trkpt lat="48.38979" lon="2.71373">
        <ele>98</ele>
        <time>2026-02-08T15:05:06.600+00:00</time>
      </trkpt>
      <trkpt lat="48.38983" lon="2.71374">
        <ele>98</ele>
        <time>2026-02-08T15:05:10.635+00:00</time>
      </trkpt>
      <trkpt lat="48.38988" lon="2.71374">
        <ele>98</ele>
        <time>2026-02-08T15:05:14.958+00:00</time>
      </trkpt>
      <trkpt lat="48.38994" lon="2.71374">
        <ele>98</ele>
        <time>2026-02-08T15:05:19.959+00:00</time>
      </trkpt>
      <trkpt lat="48.38999" lon="2.71373">
        <ele>98</ele>
        <time>2026-02-08T15:05:24.295+00:00</time>
      </trkpt>
      <trkpt lat="48.39005" lon="2.71372">
        <ele>98</ele>
        <time>2026-02-08T15:05:28.680+00:00</time>
      </trkpt>
      <trkpt lat="48.39009" lon="2.71372">
        <ele>98</ele>
        <time>2026-02-08T15:05:32.698+00:00</time>
      </trkpt>
      <trkpt lat="48.39014" lon="2.71372">
        <ele>98</ele>
        <time>2026-02-08T15:05:36.959+00:00</time>
      </trkpt>
      <trkpt lat="48.3902" lon="2.7137">
        <ele>98</ele>
        <time>2026-02-08T15:05:41.955+00:00</time>
      </trkpt>
      <trkpt lat="48.39025" lon="2.7137">
        <ele>98</ele>
        <time>2026-02-08T15:05:46.959+00:00</time>
      </trkpt>
      <trkpt lat="48.39031" lon="2.7137">
        <ele>98</ele>
        <time>2026-02-08T15:05:51.580+00:00</time>
      </trkpt>
      <trkpt lat="48.39036" lon="2.7137">
        <ele>98</ele>
        <time>2026-02-08T15:05:55.958+00:00</time>
      </trkpt>
      <trkpt lat="48.39042" lon="2.71371">
        <ele>99</ele>
        <time>2026-02-08T15:06:00.853+00:00</time>
      </trkpt>
      <trkpt lat="48.39048" lon="2.71371">
        <ele>99</ele>
        <time>2026-02-08T15:06:04.958+00:00</time>
      </trkpt>
      <trkpt lat="48.39053" lon="2.71369">
        <ele>99</ele>
        <time>2026-02-08T15:06:09.418+00:00</time>
      </trkpt>
      <trkpt lat="48.39058" lon="2.71368">
        <ele>99</ele>
        <time>2026-02-08T15:06:13.696+00:00</time>
      </trkpt>
      <trkpt lat="48.39064" lon="2.71366">
        <ele>99</ele>
        <time>2026-02-08T15:06:17.958+00:00</time>
      </trkpt>
      <trkpt lat="48.39069" lon="2.71365">
        <ele>99</ele>
        <time>2026-02-08T15:06:22.958+00:00</time>
      </trkpt>
      <trkpt lat="48.39074" lon="2.71365">
        <ele>99</ele>
        <time>2026-02-08T15:06:27.959+00:00</time>
      </trkpt>
      <trkpt lat="48.3908" lon="2.71365">
        <ele>99</ele>
        <time>2026-02-08T15:06:32.841+00:00</time>
      </trkpt>
      <trkpt lat="48.39085" lon="2.71366">
        <ele>99</ele>
        <time>2026-02-08T15:06:37.035+00:00</time>
      </trkpt>
      <trkpt lat="48.3909" lon="2.71365">
        <ele>99</ele>
        <time>2026-02-08T15:06:41.617+00:00</time>
      </trkpt>
      <trkpt lat="48.39095" lon="2.71365">
        <ele>99</ele>
        <time>2026-02-08T15:06:45.916+00:00</time>
      </trkpt>
      <trkpt lat="48.39101" lon="2.71365">
        <ele>97</ele>
        <time>2026-02-08T15:06:50.695+00:00</time>
      </trkpt>
      <trkpt lat="48.39107" lon="2.71365">
        <ele>97</ele>
        <time>2026-02-08T15:06:55.343+00:00</time>
      </trkpt>
      <trkpt lat="48.39112" lon="2.71366">
        <ele>97</ele>
        <time>2026-02-08T15:06:59.958+00:00</time>
      </trkpt>
      <trkpt lat="48.39119" lon="2.71367">
        <ele>97</ele>
        <time>2026-02-08T15:07:04.959+00:00</time>
      </trkpt>
      <trkpt lat="48.39124" lon="2.71367">
        <ele>97</ele>
        <time>2026-02-08T15:07:09.857+00:00</time>
      </trkpt>
      <trkpt lat="48.3913" lon="2.71367">
        <ele>95</ele>
        <time>2026-02-08T15:07:14.720+00:00</time>
      </trkpt>
      <trkpt lat="48.39136" lon="2.71366">
        <ele>95</ele>
        <time>2026-02-08T15:07:19.498+00:00</time>
      </trkpt>
      <trkpt lat="48.39142" lon="2.71365">
        <ele>95</ele>
        <time>2026-02-08T15:07:23.958+00:00</time>
      </trkpt>
      <trkpt lat="48.39148" lon="2.71364">
        <ele>95</ele>
        <time>2026-02-08T15:07:28.959+00:00</time>
      </trkpt>
      <trkpt lat="48.39154" lon="2.71362">
        <ele>95</ele>
        <time>2026-02-08T15:07:33.874+00:00</time>
      </trkpt>
      <trkpt lat="48.3916" lon="2.71362">
        <ele>95</ele>
        <time>2026-02-08T15:07:38.635+00:00</time>
      </trkpt>
      <trkpt lat="48.39165" lon="2.71362">
        <ele>95</ele>
        <time>2026-02-08T15:07:42.840+00:00</time>
      </trkpt>
      <trkpt lat="48.39171" lon="2.71361">
        <ele>95</ele>
        <time>2026-02-08T15:07:46.959+00:00</time>
      </trkpt>
      <trkpt lat="48.39175" lon="2.71358">
        <ele>95</ele>
        <time>2026-02-08T15:07:51.958+00:00</time>
      </trkpt>
      <trkpt lat="48.39176" lon="2.71353">
        <ele>95</ele>
        <time>2026-02-08T15:07:55.959+00:00</time>
      </trkpt>
      <trkpt lat="48.39176" lon="2.71346">
        <ele>96</ele>
        <time>2026-02-08T15:08:00.741+00:00</time>
      </trkpt>
      <trkpt lat="48.39175" lon="2.71337">
        <ele>96</ele>
        <time>2026-02-08T15:08:05.534+00:00</time>
      </trkpt>
      <trkpt lat="48.39175" lon="2.71328">
        <ele>96</ele>
        <time>2026-02-08T15:08:10.385+00:00</time>
      </trkpt>
      <trkpt lat="48.39175" lon="2.71321">
        <ele>96</ele>
        <time>2026-02-08T15:08:14.374+00:00</time>
      </trkpt>
      <trkpt lat="48.39176" lon="2.71313">
        <ele>97</ele>
        <time>2026-02-08T15:08:18.820+00:00</time>
      </trkpt>
      <trkpt lat="48.39176" lon="2.71306">
        <ele>97</ele>
        <time>2026-02-08T15:08:22.959+00:00</time>
      </trkpt>
      <trkpt lat="48.39176" lon="2.71297">
        <ele>97</ele>
        <time>2026-02-08T15:08:27.701+00:00</time>
      </trkpt>
      <trkpt lat="48.39176" lon="2.7129">
        <ele>98</ele>
        <time>2026-02-08T15:08:31.959+00:00</time>
      </trkpt>
      <trkpt lat="48.39176" lon="2.71282">
        <ele>98</ele>
        <time>2026-02-08T15:08:36.138+00:00</time>
      </trkpt>
      <trkpt lat="48.39175" lon="2.71274">
        <ele>98</ele>
        <time>2026-02-08T15:08:40.738+00:00</time>
      </trkpt>
      <trkpt lat="48.39175" lon="2.71267">
        <ele>98</ele>
        <time>2026-02-08T15:08:44.959+00:00</time>
      </trkpt>
      <trkpt lat="48.39176" lon="2.71258">
        <ele>98</ele>
        <time>2026-02-08T15:08:49.494+00:00</time>
      </trkpt>
      <trkpt lat="48.39176" lon="2.7125">
        <ele>98</ele>
        <time>2026-02-08T15:08:53.718+00:00</time>
      </trkpt>
      <trkpt lat="48.39175" lon="2.71242">
        <ele>98</ele>
        <time>2026-02-08T15:08:57.959+00:00</time>
      </trkpt>
      <trkpt lat="48.39175" lon="2.71235">
        <ele>96</ele>
        <time>2026-02-08T15:09:02.155+00:00</time>
      </trkpt>
      <trkpt lat="48.39175" lon="2.71227">
        <ele>96</ele>
        <time>2026-02-08T15:09:06.319+00:00</time>
      </trkpt>
      <trkpt lat="48.39175" lon="2.71219">
        <ele>96</ele>
        <time>2026-02-08T15:09:10.959+00:00</time>
      </trkpt>
      <trkpt lat="48.39175" lon="2.7121">
        <ele>96</ele>
        <time>2026-02-08T15:09:15.959+00:00</time>
      </trkpt>
      <trkpt lat="48.39175" lon="2.71202">
        <ele>95</ele>
        <time>2026-02-08T15:09:19.959+00:00</time>
      </trkpt>
      <trkpt lat="48.39174" lon="2.71193">
        <ele>95</ele>
        <time>2026-02-08T15:09:24.681+00:00</time>
      </trkpt>
      <trkpt lat="48.39174" lon="2.71186">
        <ele>95</ele>
        <time>2026-02-08T15:09:28.959+00:00</time>
      </trkpt>
      <trkpt lat="48.39175" lon="2.71178">
        <ele>94</ele>
        <time>2026-02-08T15:09:33.493+00:00</time>
      </trkpt>
      <trkpt lat="48.39175" lon="2.7117">
        <ele>94</ele>
        <time>2026-02-08T15:09:37.958+00:00</time>
      </trkpt>
      <trkpt lat="48.39176" lon="2.71162">
        <ele>94</ele>
        <time>2026-02-08T15:09:42.582+00:00</time>
      </trkpt>
      <trkpt lat="48.39177" lon="2.71154">
        <ele>94</ele>
        <time>2026-02-08T15:09:46.718+00:00</time>
      </trkpt>
      <trkpt lat="48.39177" lon="2.71144">
        <ele>94</ele>
        <time>2026-02-08T15:09:51.360+00:00</time>
      </trkpt>
      <trkpt lat="48.39177" lon="2.71136">
        <ele>94</ele>
        <time>2026-02-08T15:09:55.549+00:00</time>
      </trkpt>
      <trkpt lat="48.39177" lon="2.71127">
        <ele>94</ele>
        <time>2026-02-08T15:09:59.958+00:00</time>
      </trkpt>
      <trkpt lat="48.39178" lon="2.7112">
        <ele>94</ele>
        <time>2026-02-08T15:10:03.959+00:00</time>
      </trkpt>
      <trkpt lat="48.39178" lon="2.71111">
        <ele>94</ele>
        <time>2026-02-08T15:10:08.697+00:00</time>
      </trkpt>
      <trkpt lat="48.39179" lon="2.71102">
        <ele>94</ele>
        <time>2026-02-08T15:10:13.875+00:00</time>
      </trkpt>
      <trkpt lat="48.39178" lon="2.71094">
        <ele>94</ele>
        <time>2026-02-08T15:10:17.959+00:00</time>
      </trkpt>
      <trkpt lat="48.39178" lon="2.71085">
        <ele>94</ele>
        <time>2026-02-08T15:10:22.681+00:00</time>
      </trkpt>
      <trkpt lat="48.39178" lon="2.71077">
        <ele>94</ele>
        <time>2026-02-08T15:10:27.279+00:00</time>
      </trkpt>
      <trkpt lat="48.39177" lon="2.71067">
        <ele>94</ele>
        <time>2026-02-08T15:10:31.922+00:00</time>
      </trkpt>
      <trkpt lat="48.39178" lon="2.71059">
        <ele>94</ele>
        <time>2026-02-08T15:10:35.957+00:00</time>
      </trkpt>
      <trkpt lat="48.39178" lon="2.71051">
        <ele>94</ele>
        <time>2026-02-08T15:10:40.699+00:00</time>
      </trkpt>
      <trkpt lat="48.39179" lon="2.71045">
        <ele>94</ele>
        <time>2026-02-08T15:10:44.958+00:00</time>
      </trkpt>
      <trkpt lat="48.39177" lon="2.71045">
        <ele>94</ele>
        <time>2026-02-08T15:10:49.958+00:00</time>
      </trkpt>
      <trkpt lat="48.39177" lon="2.71043">
        <ele>94</ele>
        <time>2026-02-08T15:10:54.435+00:00</time>
      </trkpt>
      <trkpt lat="48.39176" lon="2.71034">
        <ele>94</ele>
        <time>2026-02-08T15:10:58.914+00:00</time>
      </trkpt>
      <trkpt lat="48.39177" lon="2.71026">
        <ele>94</ele>
        <time>2026-02-08T15:11:02.958+00:00</time>
      </trkpt>
      <trkpt lat="48.39178" lon="2.71018">
        <ele>94</ele>
        <time>2026-02-08T15:11:07.276+00:00</time>
      </trkpt>
      <trkpt lat="48.39179" lon="2.7101">
        <ele>94</ele>
        <time>2026-02-08T15:11:11.958+00:00</time>
      </trkpt>
      <trkpt lat="48.3918" lon="2.71003">
        <ele>94</ele>
        <time>2026-02-08T15:11:16.013+00:00</time>
      </trkpt>
      <trkpt lat="48.3918" lon="2.70995">
        <ele>94</ele>
        <time>2026-02-08T15:11:20.433+00:00</time>
      </trkpt>
      <trkpt lat="48.3918" lon="2.70987">
        <ele>94</ele>
        <time>2026-02-08T15:11:24.476+00:00</time>
      </trkpt>
      <trkpt lat="48.3918" lon="2.7098">
        <ele>95</ele>
        <time>2026-02-08T15:11:28.958+00:00</time>
      </trkpt>
      <trkpt lat="48.39179" lon="2.70972">
        <ele>95</ele>
        <time>2026-02-08T15:11:33.894+00:00</time>
      </trkpt>
      <trkpt lat="48.39179" lon="2.70964">
        <ele>95</ele>
        <time>2026-02-08T15:11:38.675+00:00</time>
      </trkpt>
      <trkpt lat="48.39179" lon="2.70956">
        <ele>95</ele>
        <time>2026-02-08T15:11:43.509+00:00</time>
      </trkpt>
      <trkpt lat="48.39179" lon="2.70949">
        <ele>95</ele>
        <time>2026-02-08T15:11:47.570+00:00</time>
      </trkpt>
      <trkpt lat="48.3918" lon="2.70942">
        <ele>95</ele>
        <time>2026-02-08T15:11:51.854+00:00</time>
      </trkpt>
      <trkpt lat="48.39179" lon="2.70934">
        <ele>95</ele>
        <time>2026-02-08T15:11:55.958+00:00</time>
      </trkpt>
      <trkpt lat="48.39178" lon="2.70926">
        <ele>94</ele>
        <time>2026-02-08T15:12:00.710+00:00</time>
      </trkpt>
      <trkpt lat="48.39179" lon="2.70918">
        <ele>94</ele>
        <time>2026-02-08T15:12:04.958+00:00</time>
      </trkpt>
      <trkpt lat="48.39179" lon="2.7091">
        <ele>94</ele>
        <time>2026-02-08T15:12:09.813+00:00</time>
      </trkpt>
      <trkpt lat="48.39179" lon="2.70902">
        <ele>94</ele>
        <time>2026-02-08T15:12:14.394+00:00</time>
      </trkpt>
      <trkpt lat="48.3918" lon="2.70894">
        <ele>94</ele>
        <time>2026-02-08T15:12:18.958+00:00</time>
      </trkpt>
      <trkpt lat="48.3918" lon="2.70886">
        <ele>94</ele>
        <time>2026-02-08T15:12:23.873+00:00</time>
      </trkpt>
      <trkpt lat="48.3918" lon="2.70878">
        <ele>94</ele>
        <time>2026-02-08T15:12:27.958+00:00</time>
      </trkpt>
      <trkpt lat="48.39179" lon="2.70871">
        <ele>95</ele>
        <time>2026-02-08T15:12:31.958+00:00</time>
      </trkpt>
      <trkpt lat="48.39179" lon="2.70863">
        <ele>95</ele>
        <time>2026-02-08T15:12:36.235+00:00</time>
      </trkpt>
      <trkpt lat="48.3918" lon="2.70855">
        <ele>95</ele>
        <time>2026-02-08T15:12:40.749+00:00</time>
      </trkpt>
      <trkpt lat="48.39181" lon="2.70846">
        <ele>95</ele>
        <time>2026-02-08T15:12:45.494+00:00</time>
      </trkpt>
      <trkpt lat="48.39182" lon="2.70838">
        <ele>95</ele>
        <time>2026-02-08T15:12:49.957+00:00</time>
      </trkpt>
      <trkpt lat="48.39184" lon="2.7083">
        <ele>95</ele>
        <time>2026-02-08T15:12:54.958+00:00</time>
      </trkpt>
      <trkpt lat="48.39186" lon="2.70824">
        <ele>95</ele>
        <time>2026-02-08T15:12:59.253+00:00</time>
      </trkpt>
      <trkpt lat="48.39186" lon="2.70816">
        <ele>96</ele>
        <time>2026-02-08T15:13:03.613+00:00</time>
      </trkpt>
      <trkpt lat="48.39187" lon="2.70808">
        <ele>96</ele>
        <time>2026-02-08T15:13:07.674+00:00</time>
      </trkpt>
      <trkpt lat="48.39189" lon="2.708">
        <ele>96</ele>
        <time>2026-02-08T15:13:12.333+00:00</time>
      </trkpt>
      <trkpt lat="48.3919" lon="2.70793">
        <ele>96</ele>
        <time>2026-02-08T15:13:16.958+00:00</time>
      </trkpt>
      <trkpt lat="48.39193" lon="2.70785">
        <ele>96</ele>
        <time>2026-02-08T15:13:21.793+00:00</time>
      </trkpt>
      <trkpt lat="48.39197" lon="2.70779">
        <ele>96</ele>
        <time>2026-02-08T15:13:26.333+00:00</time>
      </trkpt>
      <trkpt lat="48.39199" lon="2.70772">
        <ele>96</ele>
        <time>2026-02-08T15:13:30.957+00:00</time>
      </trkpt>
      <trkpt lat="48.39202" lon="2.70765">
        <ele>96</ele>
        <time>2026-02-08T15:13:35.633+00:00</time>
      </trkpt>
      <trkpt lat="48.39205" lon="2.70759">
        <ele>96</ele>
        <time>2026-02-08T15:13:39.958+00:00</time>
      </trkpt>
      <trkpt lat="48.39208" lon="2.70751">
        <ele>96</ele>
        <time>2026-02-08T15:13:44.549+00:00</time>
      </trkpt>
      <trkpt lat="48.3921" lon="2.70745">
        <ele>98</ele>
        <time>2026-02-08T15:13:48.958+00:00</time>
      </trkpt>
      <trkpt lat="48.39213" lon="2.70738">
        <ele>98</ele>
        <time>2026-02-08T15:13:53.753+00:00</time>
      </trkpt>
      <trkpt lat="48.39215" lon="2.7073">
        <ele>97</ele>
        <time>2026-02-08T15:13:58.354+00:00</time>
      </trkpt>
      <trkpt lat="48.39217" lon="2.70723">
        <ele>97</ele>
        <time>2026-02-08T15:14:02.798+00:00</time>
      </trkpt>
      <trkpt lat="48.3922" lon="2.70714">
        <ele>97</ele>
        <time>2026-02-08T15:14:07.831+00:00</time>
      </trkpt>
      <trkpt lat="48.39223" lon="2.70707">
        <ele>96</ele>
        <time>2026-02-08T15:14:11.958+00:00</time>
      </trkpt>
      <trkpt lat="48.39226" lon="2.70699">
        <ele>96</ele>
        <time>2026-02-08T15:14:16.575+00:00</time>
      </trkpt>
      <trkpt lat="48.39229" lon="2.70693">
        <ele>96</ele>
        <time>2026-02-08T15:14:20.957+00:00</time>
      </trkpt>
      <trkpt lat="48.39232" lon="2.70685">
        <ele>96</ele>
        <time>2026-02-08T15:14:25.815+00:00</time>
      </trkpt>
      <trkpt lat="48.39235" lon="2.70677">
        <ele>96</ele>
        <time>2026-02-08T15:14:30.714+00:00</time>
      </trkpt>
      <trkpt lat="48.39238" lon="2.7067">
        <ele>97</ele>
        <time>2026-02-08T15:14:34.893+00:00</time>
      </trkpt>
      <trkpt lat="48.3924" lon="2.70663">
        <ele>97</ele>
        <time>2026-02-08T15:14:38.958+00:00</time>
      </trkpt>
      <trkpt lat="48.39243" lon="2.70654">
        <ele>97</ele>
        <time>2026-02-08T15:14:43.715+00:00</time>
      </trkpt>
      <trkpt lat="48.39245" lon="2.70648">
        <ele>98</ele>
        <time>2026-02-08T15:14:47.958+00:00</time>
      </trkpt>
      <trkpt lat="48.39249" lon="2.7064">
        <ele>98</ele>
        <time>2026-02-08T15:14:52.793+00:00</time>
      </trkpt>
      <trkpt lat="48.39252" lon="2.70633">
        <ele>98</ele>
        <time>2026-02-08T15:14:57.673+00:00</time>
      </trkpt>
      <trkpt lat="48.39254" lon="2.70627">
        <ele>98</ele>
        <time>2026-02-08T15:15:01.958+00:00</time>
      </trkpt>
      <trkpt lat="48.39256" lon="2.70619">
        <ele>98</ele>
        <time>2026-02-08T15:15:06.453+00:00</time>
      </trkpt>
      <trkpt lat="48.39258" lon="2.70612">
        <ele>98</ele>
        <time>2026-02-08T15:15:10.813+00:00</time>
      </trkpt>
      <trkpt lat="48.3926" lon="2.70606">
        <ele>98</ele>
        <time>2026-02-08T15:15:14.957+00:00</time>
      </trkpt>
      <trkpt lat="48.39263" lon="2.70598">
        <ele>98</ele>
        <time>2026-02-08T15:15:19.711+00:00</time>
      </trkpt>
      <trkpt lat="48.39266" lon="2.70592">
        <ele>99</ele>
        <time>2026-02-08T15:15:23.957+00:00</time>
      </trkpt>
      <trkpt lat="48.39269" lon="2.70585">
        <ele>99</ele>
        <time>2026-02-08T15:15:28.652+00:00</time>
      </trkpt>
      <trkpt lat="48.39273" lon="2.70578">
        <ele>99</ele>
        <time>2026-02-08T15:15:33.369+00:00</time>
      </trkpt>
      <trkpt lat="48.39276" lon="2.70571">
        <ele>99</ele>
        <time>2026-02-08T15:15:37.957+00:00</time>
      </trkpt>
      <trkpt lat="48.39279" lon="2.70562">
        <ele>99</ele>
        <time>2026-02-08T15:15:42.916+00:00</time>
      </trkpt>
      <trkpt lat="48.39282" lon="2.70554">
        <ele>99</ele>
        <time>2026-02-08T15:15:47.814+00:00</time>
      </trkpt>
      <trkpt lat="48.39283" lon="2.70547">
        <ele>99</ele>
        <time>2026-02-08T15:15:51.957+00:00</time>
      </trkpt>
      <trkpt lat="48.39286" lon="2.7054">
        <ele>99</ele>
        <time>2026-02-08T15:15:56.728+00:00</time>
      </trkpt>
      <trkpt lat="48.39288" lon="2.70534">
        <ele>99</ele>
        <time>2026-02-08T15:16:00.958+00:00</time>
      </trkpt>
      <trkpt lat="48.39291" lon="2.70526">
        <ele>99</ele>
        <time>2026-02-08T15:16:05.934+00:00</time>
      </trkpt>
      <trkpt lat="48.39294" lon="2.70518">
        <ele>99</ele>
        <time>2026-02-08T15:16:10.713+00:00</time>
      </trkpt>
      <trkpt lat="48.39296" lon="2.70511">
        <ele>98</ele>
        <time>2026-02-08T15:16:14.958+00:00</time>
      </trkpt>
      <trkpt lat="48.39299" lon="2.70504">
        <ele>98</ele>
        <time>2026-02-08T15:16:19.507+00:00</time>
      </trkpt>
      <trkpt lat="48.39301" lon="2.70496">
        <ele>98</ele>
        <time>2026-02-08T15:16:23.850+00:00</time>
      </trkpt>
      <trkpt lat="48.39304" lon="2.7049">
        <ele>98</ele>
        <time>2026-02-08T15:16:27.958+00:00</time>
      </trkpt>
      <trkpt lat="48.39306" lon="2.70483">
        <ele>96</ele>
        <time>2026-02-08T15:16:32.537+00:00</time>
      </trkpt>
      <trkpt lat="48.39308" lon="2.70476">
        <ele>96</ele>
        <time>2026-02-08T15:16:36.835+00:00</time>
      </trkpt>
      <trkpt lat="48.39311" lon="2.7047">
        <ele>96</ele>
        <time>2026-02-08T15:16:40.957+00:00</time>
      </trkpt>
      <trkpt lat="48.39314" lon="2.70462">
        <ele>96</ele>
        <time>2026-02-08T15:16:45.469+00:00</time>
      </trkpt>
      <trkpt lat="48.39316" lon="2.70454">
        <ele>95</ele>
        <time>2026-02-08T15:16:49.794+00:00</time>
      </trkpt>
      <trkpt lat="48.39319" lon="2.70447">
        <ele>95</ele>
        <time>2026-02-08T15:16:54.453+00:00</time>
      </trkpt>
      <trkpt lat="48.39321" lon="2.70439">
        <ele>96</ele>
        <time>2026-02-08T15:16:58.958+00:00</time>
      </trkpt>
      <trkpt lat="48.39323" lon="2.7043">
        <ele>94</ele>
        <time>2026-02-08T15:17:03.974+00:00</time>
      </trkpt>
      <trkpt lat="48.39327" lon="2.70423">
        <ele>94</ele>
        <time>2026-02-08T15:17:08.754+00:00</time>
      </trkpt>
      <trkpt lat="48.3933" lon="2.70415">
        <ele>94</ele>
        <time>2026-02-08T15:17:13.470+00:00</time>
      </trkpt>
      <trkpt lat="48.39333" lon="2.70408">
        <ele>94</ele>
        <time>2026-02-08T15:17:17.957+00:00</time>
      </trkpt>
      <trkpt lat="48.39336" lon="2.704">
        <ele>93</ele>
        <time>2026-02-08T15:17:22.913+00:00</time>
      </trkpt>
      <trkpt lat="48.39339" lon="2.70392">
        <ele>93</ele>
        <time>2026-02-08T15:17:27.616+00:00</time>
      </trkpt>
      <trkpt lat="48.39341" lon="2.70386">
        <ele>93</ele>
        <time>2026-02-08T15:17:31.650+00:00</time>
      </trkpt>
      <trkpt lat="48.39344" lon="2.70379">
        <ele>93</ele>
        <time>2026-02-08T15:17:35.830+00:00</time>
      </trkpt>
      <trkpt lat="48.39347" lon="2.70373">
        <ele>91</ele>
        <time>2026-02-08T15:17:39.957+00:00</time>
      </trkpt>
      <trkpt lat="48.39349" lon="2.70366">
        <ele>92</ele>
        <time>2026-02-08T15:17:43.957+00:00</time>
      </trkpt>
      <trkpt lat="48.39352" lon="2.70359">
        <ele>92</ele>
        <time>2026-02-08T15:17:48.031+00:00</time>
      </trkpt>
      <trkpt lat="48.39355" lon="2.70352">
        <ele>92</ele>
        <time>2026-02-08T15:17:52.562+00:00</time>
      </trkpt>
      <trkpt lat="48.39357" lon="2.70344">
        <ele>91</ele>
        <time>2026-02-08T15:17:56.903+00:00</time>
      </trkpt>
      <trkpt lat="48.3936" lon="2.70337">
        <ele>91</ele>
        <time>2026-02-08T15:18:01.544+00:00</time>
      </trkpt>
      <trkpt lat="48.39362" lon="2.70329">
        <ele>91</ele>
        <time>2026-02-08T15:18:05.802+00:00</time>
      </trkpt>
      <trkpt lat="48.39362" lon="2.70328">
        <ele>91</ele>
        <time>2026-02-08T15:18:09.940+00:00</time>
      </trkpt>
      <trkpt lat="48.39358" lon="2.70325">
        <ele>91</ele>
        <time>2026-02-08T15:18:48.604+00:00</time>
      </trkpt>
      <trkpt lat="48.39352" lon="2.70328">
        <ele>91</ele>
        <time>2026-02-08T15:18:52.640+00:00</time>
      </trkpt>
      <trkpt lat="48.39343" lon="2.7033">
        <ele>90</ele>
        <time>2026-02-08T15:18:56.957+00:00</time>
      </trkpt>
      <trkpt lat="48.39337" lon="2.70332">
        <ele>90</ele>
        <time>2026-02-08T15:19:01.231+00:00</time>
      </trkpt>
      <trkpt lat="48.39331" lon="2.70334">
        <ele>90</ele>
        <time>2026-02-08T15:19:05.538+00:00</time>
      </trkpt>
      <trkpt lat="48.39326" lon="2.70336">
        <ele>90</ele>
        <time>2026-02-08T15:19:09.865+00:00</time>
      </trkpt>
      <trkpt lat="48.39321" lon="2.70339">
        <ele>90</ele>
        <time>2026-02-08T15:19:13.958+00:00</time>
      </trkpt>
      <trkpt lat="48.39315" lon="2.7034">
        <ele>90</ele>
        <time>2026-02-08T15:19:18.541+00:00</time>
      </trkpt>
      <trkpt lat="48.3931" lon="2.70341">
        <ele>90</ele>
        <time>2026-02-08T15:19:22.963+00:00</time>
      </trkpt>
      <trkpt lat="48.39305" lon="2.70343">
        <ele>90</ele>
        <time>2026-02-08T15:19:26.958+00:00</time>
      </trkpt>
      <trkpt lat="48.393" lon="2.70346">
        <ele>90</ele>
        <time>2026-02-08T15:19:31.363+00:00</time>
      </trkpt>
      <trkpt lat="48.39295" lon="2.70347">
        <ele>90</ele>
        <time>2026-02-08T15:19:35.681+00:00</time>
      </trkpt>
      <trkpt lat="48.39291" lon="2.70347">
        <ele>90</ele>
        <time>2026-02-08T15:19:39.958+00:00</time>
      </trkpt>
      <trkpt lat="48.39285" lon="2.70348">
        <ele>90</ele>
        <time>2026-02-08T15:19:44.957+00:00</time>
      </trkpt>
      <trkpt lat="48.3928" lon="2.7035">
        <ele>90</ele>
        <time>2026-02-08T15:19:49.387+00:00</time>
      </trkpt>
      <trkpt lat="48.39276" lon="2.70352">
        <ele>90</ele>
        <time>2026-02-08T15:19:53.957+00:00</time>
      </trkpt>
      <trkpt lat="48.39272" lon="2.70355">
        <ele>90</ele>
        <time>2026-02-08T15:19:58.958+00:00</time>
      </trkpt>
      <trkpt lat="48.3927" lon="2.70358">
        <ele>90</ele>
        <time>2026-02-08T15:20:27.957+00:00</time>
      </trkpt>
      <trkpt lat="48.39266" lon="2.7036">
        <ele>90</ele>
        <time>2026-02-08T15:20:32.963+00:00</time>
      </trkpt>
      <trkpt lat="48.39262" lon="2.70366">
        <ele>90</ele>
        <time>2026-02-08T15:20:37.279+00:00</time>
      </trkpt>
      <trkpt lat="48.39257" lon="2.70371">
        <ele>90</ele>
        <time>2026-02-08T15:20:41.920+00:00</time>
      </trkpt>
      <trkpt lat="48.39256" lon="2.70377">
        <ele>92</ele>
        <time>2026-02-08T15:20:46.281+00:00</time>
      </trkpt>
    </trkseg>
  </trk>
</gpx>